<?xml version="1.0" encoding="UTF-8" standalone="no" ?>
<gpx xmlns="http://www.topografix.com/GPX/1/1" xmlns:xsi="http://www.w3.org/2001/XMLSchema-instance" xsi:schemaLocation="http://www.topografix.com/GPX/1/1 http://www.topografix.com/GPX/1/1/gpx.xsd" version="1.1" creator="VisuGPX - https://www.visugpx.com">
  <metadata>
    <name>Séjour GR34 2026 Les Abers J2 Lilia - Landeda</name>
    <desc><![CDATA[Participants : 6
Hébergement : La maison de bois Landeda via booking - Extra
Restauration  : Arrêt le midi à l'auberge du Pont de l'Aber Wrach - Lieu insolite qui vaut le déplacement

Parcours relativement facile sans difficulté particulière à mentionner
]]></desc>
  </metadata>
  <wpt lat="48.59747" lon="-4.54475">
    <ele>8</ele>
    <name><![CDATA[gite]]></name>
    <desc><![CDATA[]]></desc>
    <type><![CDATA[Gîtes / Meublés]]></type>
  </wpt>
  <wpt lat="48.58673" lon="-4.51497">
    <ele>5.1</ele>
    <name><![CDATA[l auberge du pont]]></name>
    <desc><![CDATA[]]></desc>
    <type><![CDATA[Restaurants - brasseries]]></type>
  </wpt>
  <trk>
    <name><![CDATA[SityTrail - etape 1 lilia landeda]]></name>
    <trkseg>
      <trkpt lat="48.61909" lon="-4.55549">
        <ele>14</ele>
        <time>2026-05-17T06:32:47.874Z</time>
      </trkpt>
      <trkpt lat="48.61908" lon="-4.55553">
        <ele>14</ele>
        <time>2026-05-17T06:40:37.882Z</time>
      </trkpt>
      <trkpt lat="48.6191" lon="-4.55555">
        <ele>14</ele>
        <time>2026-05-17T06:40:42.379Z</time>
      </trkpt>
      <trkpt lat="48.61912" lon="-4.55562">
        <ele>14</ele>
        <time>2026-05-17T06:40:46.457Z</time>
      </trkpt>
      <trkpt lat="48.61914" lon="-4.5557">
        <ele>15</ele>
        <time>2026-05-17T06:40:50.724Z</time>
      </trkpt>
      <trkpt lat="48.61917" lon="-4.55576">
        <ele>15</ele>
        <time>2026-05-17T06:40:54.741Z</time>
      </trkpt>
      <trkpt lat="48.61919" lon="-4.55582">
        <ele>15</ele>
        <time>2026-05-17T06:40:59.280Z</time>
      </trkpt>
      <trkpt lat="48.6192" lon="-4.55589">
        <ele>15</ele>
        <time>2026-05-17T06:41:03.681Z</time>
      </trkpt>
      <trkpt lat="48.61922" lon="-4.55594">
        <ele>15</ele>
        <time>2026-05-17T06:41:07.882Z</time>
      </trkpt>
      <trkpt lat="48.61924" lon="-4.556">
        <ele>15</ele>
        <time>2026-05-17T06:41:12.462Z</time>
      </trkpt>
      <trkpt lat="48.61924" lon="-4.55607">
        <ele>15</ele>
        <time>2026-05-17T06:41:16.583Z</time>
      </trkpt>
      <trkpt lat="48.61921" lon="-4.55613">
        <ele>15</ele>
        <time>2026-05-17T06:41:20.724Z</time>
      </trkpt>
      <trkpt lat="48.61918" lon="-4.55618">
        <ele>15</ele>
        <time>2026-05-17T06:41:24.908Z</time>
      </trkpt>
      <trkpt lat="48.61914" lon="-4.55623">
        <ele>15</ele>
        <time>2026-05-17T06:41:29.516Z</time>
      </trkpt>
      <trkpt lat="48.61911" lon="-4.55626">
        <ele>14</ele>
        <time>2026-05-17T06:41:33.775Z</time>
      </trkpt>
      <trkpt lat="48.61912" lon="-4.55635">
        <ele>14</ele>
        <time>2026-05-17T06:41:38.002Z</time>
      </trkpt>
      <trkpt lat="48.61917" lon="-4.5564">
        <ele>14</ele>
        <time>2026-05-17T06:41:42.400Z</time>
      </trkpt>
      <trkpt lat="48.61919" lon="-4.55642">
        <ele>14</ele>
        <time>2026-05-17T06:41:46.882Z</time>
      </trkpt>
      <trkpt lat="48.61918" lon="-4.55641">
        <ele>14</ele>
        <time>2026-05-17T06:41:51.882Z</time>
      </trkpt>
      <trkpt lat="48.61915" lon="-4.55637">
        <ele>14</ele>
        <time>2026-05-17T06:41:56.239Z</time>
      </trkpt>
      <trkpt lat="48.61914" lon="-4.55628">
        <ele>14</ele>
        <time>2026-05-17T06:42:00.616Z</time>
      </trkpt>
      <trkpt lat="48.61917" lon="-4.55621">
        <ele>15</ele>
        <time>2026-05-17T06:42:04.883Z</time>
      </trkpt>
      <trkpt lat="48.61921" lon="-4.55618">
        <ele>15</ele>
        <time>2026-05-17T06:42:09.175Z</time>
      </trkpt>
      <trkpt lat="48.61924" lon="-4.55614">
        <ele>15</ele>
        <time>2026-05-17T06:42:13.235Z</time>
      </trkpt>
      <trkpt lat="48.61927" lon="-4.55609">
        <ele>15</ele>
        <time>2026-05-17T06:42:17.345Z</time>
      </trkpt>
      <trkpt lat="48.61929" lon="-4.55603">
        <ele>15</ele>
        <time>2026-05-17T06:42:21.596Z</time>
      </trkpt>
      <trkpt lat="48.61929" lon="-4.556">
        <ele>15</ele>
        <time>2026-05-17T06:42:25.718Z</time>
      </trkpt>
      <trkpt lat="48.61931" lon="-4.55596">
        <ele>13</ele>
        <time>2026-05-17T06:42:29.882Z</time>
      </trkpt>
      <trkpt lat="48.61933" lon="-4.5559">
        <ele>13</ele>
        <time>2026-05-17T06:42:34.199Z</time>
      </trkpt>
      <trkpt lat="48.61933" lon="-4.55582">
        <ele>13</ele>
        <time>2026-05-17T06:42:38.440Z</time>
      </trkpt>
      <trkpt lat="48.61931" lon="-4.55574">
        <ele>13</ele>
        <time>2026-05-17T06:42:42.883Z</time>
      </trkpt>
      <trkpt lat="48.61926" lon="-4.55576">
        <ele>15</ele>
        <time>2026-05-17T06:42:47.882Z</time>
      </trkpt>
      <trkpt lat="48.61927" lon="-4.55568">
        <ele>14</ele>
        <time>2026-05-17T06:42:52.296Z</time>
      </trkpt>
      <trkpt lat="48.61928" lon="-4.5556">
        <ele>14</ele>
        <time>2026-05-17T06:42:56.478Z</time>
      </trkpt>
      <trkpt lat="48.61928" lon="-4.55553">
        <ele>14</ele>
        <time>2026-05-17T06:43:00.641Z</time>
      </trkpt>
      <trkpt lat="48.61928" lon="-4.55546">
        <ele>14</ele>
        <time>2026-05-17T06:43:04.821Z</time>
      </trkpt>
      <trkpt lat="48.61928" lon="-4.55539">
        <ele>14</ele>
        <time>2026-05-17T06:43:08.882Z</time>
      </trkpt>
      <trkpt lat="48.61925" lon="-4.55537">
        <ele>14</ele>
        <time>2026-05-17T06:43:13.158Z</time>
      </trkpt>
      <trkpt lat="48.61924" lon="-4.5553">
        <ele>14</ele>
        <time>2026-05-17T06:43:17.781Z</time>
      </trkpt>
      <trkpt lat="48.61925" lon="-4.5552">
        <ele>14</ele>
        <time>2026-05-17T06:43:21.817Z</time>
      </trkpt>
      <trkpt lat="48.61925" lon="-4.55513">
        <ele>13</ele>
        <time>2026-05-17T06:43:26.134Z</time>
      </trkpt>
      <trkpt lat="48.61925" lon="-4.55505">
        <ele>13</ele>
        <time>2026-05-17T06:43:30.222Z</time>
      </trkpt>
      <trkpt lat="48.61925" lon="-4.55497">
        <ele>13</ele>
        <time>2026-05-17T06:43:34.257Z</time>
      </trkpt>
      <trkpt lat="48.61926" lon="-4.55491">
        <ele>13</ele>
        <time>2026-05-17T06:43:38.421Z</time>
      </trkpt>
      <trkpt lat="48.61929" lon="-4.55485">
        <ele>13</ele>
        <time>2026-05-17T06:43:42.695Z</time>
      </trkpt>
      <trkpt lat="48.61932" lon="-4.55481">
        <ele>13</ele>
        <time>2026-05-17T06:43:46.883Z</time>
      </trkpt>
      <trkpt lat="48.61935" lon="-4.55475">
        <ele>13</ele>
        <time>2026-05-17T06:43:50.981Z</time>
      </trkpt>
      <trkpt lat="48.61939" lon="-4.55469">
        <ele>13</ele>
        <time>2026-05-17T06:43:55.476Z</time>
      </trkpt>
      <trkpt lat="48.61942" lon="-4.55464">
        <ele>13</ele>
        <time>2026-05-17T06:43:59.555Z</time>
      </trkpt>
      <trkpt lat="48.61945" lon="-4.55459">
        <ele>13</ele>
        <time>2026-05-17T06:44:03.778Z</time>
      </trkpt>
      <trkpt lat="48.6195" lon="-4.55455">
        <ele>14</ele>
        <time>2026-05-17T06:44:08.334Z</time>
      </trkpt>
      <trkpt lat="48.61953" lon="-4.5545">
        <ele>14</ele>
        <time>2026-05-17T06:44:12.703Z</time>
      </trkpt>
      <trkpt lat="48.61957" lon="-4.55442">
        <ele>14</ele>
        <time>2026-05-17T06:44:17.276Z</time>
      </trkpt>
      <trkpt lat="48.61959" lon="-4.55435">
        <ele>13</ele>
        <time>2026-05-17T06:44:21.382Z</time>
      </trkpt>
      <trkpt lat="48.61959" lon="-4.55428">
        <ele>13</ele>
        <time>2026-05-17T06:44:25.882Z</time>
      </trkpt>
      <trkpt lat="48.61963" lon="-4.55421">
        <ele>13</ele>
        <time>2026-05-17T06:44:30.322Z</time>
      </trkpt>
      <trkpt lat="48.61966" lon="-4.55415">
        <ele>13</ele>
        <time>2026-05-17T06:44:34.568Z</time>
      </trkpt>
      <trkpt lat="48.61967" lon="-4.55409">
        <ele>13</ele>
        <time>2026-05-17T06:44:38.881Z</time>
      </trkpt>
      <trkpt lat="48.61965" lon="-4.5541">
        <ele>13</ele>
        <time>2026-05-17T06:44:46.881Z</time>
      </trkpt>
      <trkpt lat="48.61966" lon="-4.55409">
        <ele>13</ele>
        <time>2026-05-17T06:44:56.498Z</time>
      </trkpt>
      <trkpt lat="48.61968" lon="-4.55403">
        <ele>13</ele>
        <time>2026-05-17T06:45:00.881Z</time>
      </trkpt>
      <trkpt lat="48.61971" lon="-4.55399">
        <ele>13</ele>
        <time>2026-05-17T06:45:05.294Z</time>
      </trkpt>
      <trkpt lat="48.61974" lon="-4.55393">
        <ele>13</ele>
        <time>2026-05-17T06:45:09.680Z</time>
      </trkpt>
      <trkpt lat="48.61976" lon="-4.55388">
        <ele>13</ele>
        <time>2026-05-17T06:45:14.340Z</time>
      </trkpt>
      <trkpt lat="48.6198" lon="-4.55381">
        <ele>13</ele>
        <time>2026-05-17T06:45:18.537Z</time>
      </trkpt>
      <trkpt lat="48.61983" lon="-4.55379">
        <ele>13</ele>
        <time>2026-05-17T06:45:22.580Z</time>
      </trkpt>
      <trkpt lat="48.61986" lon="-4.55375">
        <ele>13</ele>
        <time>2026-05-17T06:45:26.824Z</time>
      </trkpt>
      <trkpt lat="48.6199" lon="-4.5537">
        <ele>12</ele>
        <time>2026-05-17T06:45:31.216Z</time>
      </trkpt>
      <trkpt lat="48.61993" lon="-4.55363">
        <ele>12</ele>
        <time>2026-05-17T06:45:35.499Z</time>
      </trkpt>
      <trkpt lat="48.61997" lon="-4.55357">
        <ele>12</ele>
        <time>2026-05-17T06:45:39.782Z</time>
      </trkpt>
      <trkpt lat="48.62002" lon="-4.5535">
        <ele>12</ele>
        <time>2026-05-17T06:45:43.980Z</time>
      </trkpt>
      <trkpt lat="48.62007" lon="-4.55345">
        <ele>12</ele>
        <time>2026-05-17T06:45:48.281Z</time>
      </trkpt>
      <trkpt lat="48.62012" lon="-4.5534">
        <ele>12</ele>
        <time>2026-05-17T06:45:52.580Z</time>
      </trkpt>
      <trkpt lat="48.62017" lon="-4.55335">
        <ele>11</ele>
        <time>2026-05-17T06:45:56.825Z</time>
      </trkpt>
      <trkpt lat="48.62022" lon="-4.55331">
        <ele>11</ele>
        <time>2026-05-17T06:46:00.977Z</time>
      </trkpt>
      <trkpt lat="48.62028" lon="-4.55327">
        <ele>11</ele>
        <time>2026-05-17T06:46:05.721Z</time>
      </trkpt>
      <trkpt lat="48.62033" lon="-4.55323">
        <ele>11</ele>
        <time>2026-05-17T06:46:09.881Z</time>
      </trkpt>
      <trkpt lat="48.62038" lon="-4.55318">
        <ele>11</ele>
        <time>2026-05-17T06:46:14.160Z</time>
      </trkpt>
      <trkpt lat="48.62043" lon="-4.55314">
        <ele>12</ele>
        <time>2026-05-17T06:46:18.476Z</time>
      </trkpt>
      <trkpt lat="48.62049" lon="-4.5531">
        <ele>12</ele>
        <time>2026-05-17T06:46:22.717Z</time>
      </trkpt>
      <trkpt lat="48.62054" lon="-4.55308">
        <ele>12</ele>
        <time>2026-05-17T06:46:27.196Z</time>
      </trkpt>
      <trkpt lat="48.62059" lon="-4.55305">
        <ele>12</ele>
        <time>2026-05-17T06:46:31.556Z</time>
      </trkpt>
      <trkpt lat="48.62064" lon="-4.55301">
        <ele>12</ele>
        <time>2026-05-17T06:46:35.881Z</time>
      </trkpt>
      <trkpt lat="48.62068" lon="-4.55298">
        <ele>12</ele>
        <time>2026-05-17T06:46:39.917Z</time>
      </trkpt>
      <trkpt lat="48.62073" lon="-4.55293">
        <ele>12</ele>
        <time>2026-05-17T06:46:44.201Z</time>
      </trkpt>
      <trkpt lat="48.62078" lon="-4.55288">
        <ele>11</ele>
        <time>2026-05-17T06:46:48.459Z</time>
      </trkpt>
      <trkpt lat="48.62084" lon="-4.55287">
        <ele>11</ele>
        <time>2026-05-17T06:46:52.834Z</time>
      </trkpt>
      <trkpt lat="48.62089" lon="-4.55284">
        <ele>11</ele>
        <time>2026-05-17T06:46:57.101Z</time>
      </trkpt>
      <trkpt lat="48.62094" lon="-4.55281">
        <ele>11</ele>
        <time>2026-05-17T06:47:01.494Z</time>
      </trkpt>
      <trkpt lat="48.62099" lon="-4.55277">
        <ele>11</ele>
        <time>2026-05-17T06:47:05.702Z</time>
      </trkpt>
      <trkpt lat="48.62104" lon="-4.55274">
        <ele>11</ele>
        <time>2026-05-17T06:47:09.959Z</time>
      </trkpt>
      <trkpt lat="48.62109" lon="-4.5527">
        <ele>11</ele>
        <time>2026-05-17T06:47:14.438Z</time>
      </trkpt>
      <trkpt lat="48.62115" lon="-4.55269">
        <ele>11</ele>
        <time>2026-05-17T06:47:18.841Z</time>
      </trkpt>
      <trkpt lat="48.6212" lon="-4.55267">
        <ele>11</ele>
        <time>2026-05-17T06:47:23.237Z</time>
      </trkpt>
      <trkpt lat="48.62125" lon="-4.55263">
        <ele>10</ele>
        <time>2026-05-17T06:47:27.680Z</time>
      </trkpt>
      <trkpt lat="48.6213" lon="-4.55259">
        <ele>10</ele>
        <time>2026-05-17T06:47:31.881Z</time>
      </trkpt>
      <trkpt lat="48.62132" lon="-4.55253">
        <ele>10</ele>
        <time>2026-05-17T06:47:36.176Z</time>
      </trkpt>
      <trkpt lat="48.62134" lon="-4.55246">
        <ele>10</ele>
        <time>2026-05-17T06:47:40.232Z</time>
      </trkpt>
      <trkpt lat="48.62135" lon="-4.5524">
        <ele>10</ele>
        <time>2026-05-17T06:47:44.384Z</time>
      </trkpt>
      <trkpt lat="48.62135" lon="-4.55231">
        <ele>10</ele>
        <time>2026-05-17T06:47:48.881Z</time>
      </trkpt>
      <trkpt lat="48.62134" lon="-4.55223">
        <ele>10</ele>
        <time>2026-05-17T06:47:53.342Z</time>
      </trkpt>
      <trkpt lat="48.62133" lon="-4.55216">
        <ele>10</ele>
        <time>2026-05-17T06:47:57.763Z</time>
      </trkpt>
      <trkpt lat="48.62135" lon="-4.55208">
        <ele>10</ele>
        <time>2026-05-17T06:48:02.831Z</time>
      </trkpt>
      <trkpt lat="48.62135" lon="-4.55199">
        <ele>10</ele>
        <time>2026-05-17T06:48:06.881Z</time>
      </trkpt>
      <trkpt lat="48.62135" lon="-4.55192">
        <ele>10</ele>
        <time>2026-05-17T06:48:11.584Z</time>
      </trkpt>
      <trkpt lat="48.62136" lon="-4.55187">
        <ele>10</ele>
        <time>2026-05-17T06:48:15.689Z</time>
      </trkpt>
      <trkpt lat="48.62142" lon="-4.55182">
        <ele>10</ele>
        <time>2026-05-17T06:48:19.869Z</time>
      </trkpt>
      <trkpt lat="48.62148" lon="-4.55181">
        <ele>10</ele>
        <time>2026-05-17T06:48:24.348Z</time>
      </trkpt>
      <trkpt lat="48.62153" lon="-4.55179">
        <ele>9</ele>
        <time>2026-05-17T06:48:28.707Z</time>
      </trkpt>
      <trkpt lat="48.62159" lon="-4.55177">
        <ele>9</ele>
        <time>2026-05-17T06:48:33.024Z</time>
      </trkpt>
      <trkpt lat="48.62165" lon="-4.55176">
        <ele>9</ele>
        <time>2026-05-17T06:48:37.308Z</time>
      </trkpt>
      <trkpt lat="48.62171" lon="-4.55176">
        <ele>9</ele>
        <time>2026-05-17T06:48:41.608Z</time>
      </trkpt>
      <trkpt lat="48.62176" lon="-4.55177">
        <ele>9</ele>
        <time>2026-05-17T06:48:45.882Z</time>
      </trkpt>
      <trkpt lat="48.62182" lon="-4.55177">
        <ele>8</ele>
        <time>2026-05-17T06:48:50.106Z</time>
      </trkpt>
      <trkpt lat="48.62188" lon="-4.55176">
        <ele>8</ele>
        <time>2026-05-17T06:48:54.389Z</time>
      </trkpt>
      <trkpt lat="48.62193" lon="-4.55175">
        <ele>8</ele>
        <time>2026-05-17T06:48:58.689Z</time>
      </trkpt>
      <trkpt lat="48.62199" lon="-4.55172">
        <ele>8</ele>
        <time>2026-05-17T06:49:03.023Z</time>
      </trkpt>
      <trkpt lat="48.62204" lon="-4.55168">
        <ele>8</ele>
        <time>2026-05-17T06:49:07.323Z</time>
      </trkpt>
      <trkpt lat="48.62209" lon="-4.55164">
        <ele>8</ele>
        <time>2026-05-17T06:49:11.648Z</time>
      </trkpt>
      <trkpt lat="48.62215" lon="-4.55161">
        <ele>8</ele>
        <time>2026-05-17T06:49:16.026Z</time>
      </trkpt>
      <trkpt lat="48.6222" lon="-4.55158">
        <ele>8</ele>
        <time>2026-05-17T06:49:20.350Z</time>
      </trkpt>
      <trkpt lat="48.62225" lon="-4.55154">
        <ele>8</ele>
        <time>2026-05-17T06:49:24.582Z</time>
      </trkpt>
      <trkpt lat="48.6223" lon="-4.55152">
        <ele>8</ele>
        <time>2026-05-17T06:49:28.866Z</time>
      </trkpt>
      <trkpt lat="48.62235" lon="-4.55149">
        <ele>8</ele>
        <time>2026-05-17T06:49:32.881Z</time>
      </trkpt>
      <trkpt lat="48.62241" lon="-4.55148">
        <ele>7</ele>
        <time>2026-05-17T06:49:37.390Z</time>
      </trkpt>
      <trkpt lat="48.62247" lon="-4.55147">
        <ele>7</ele>
        <time>2026-05-17T06:49:41.662Z</time>
      </trkpt>
      <trkpt lat="48.62252" lon="-4.55147">
        <ele>7</ele>
        <time>2026-05-17T06:49:45.869Z</time>
      </trkpt>
      <trkpt lat="48.62258" lon="-4.55149">
        <ele>7</ele>
        <time>2026-05-17T06:49:50.468Z</time>
      </trkpt>
      <trkpt lat="48.6226" lon="-4.55145">
        <ele>7</ele>
        <time>2026-05-17T06:49:54.881Z</time>
      </trkpt>
      <trkpt lat="48.62256" lon="-4.55139">
        <ele>7</ele>
        <time>2026-05-17T06:50:03.882Z</time>
      </trkpt>
      <trkpt lat="48.62262" lon="-4.55139">
        <ele>7</ele>
        <time>2026-05-17T06:50:08.881Z</time>
      </trkpt>
      <trkpt lat="48.62267" lon="-4.55145">
        <ele>7</ele>
        <time>2026-05-17T06:50:13.689Z</time>
      </trkpt>
      <trkpt lat="48.62272" lon="-4.55147">
        <ele>7</ele>
        <time>2026-05-17T06:50:17.881Z</time>
      </trkpt>
      <trkpt lat="48.62278" lon="-4.55147">
        <ele>7</ele>
        <time>2026-05-17T06:50:22.487Z</time>
      </trkpt>
      <trkpt lat="48.62283" lon="-4.55144">
        <ele>7</ele>
        <time>2026-05-17T06:50:26.881Z</time>
      </trkpt>
      <trkpt lat="48.62288" lon="-4.55141">
        <ele>7</ele>
        <time>2026-05-17T06:50:31.893Z</time>
      </trkpt>
      <trkpt lat="48.62293" lon="-4.55138">
        <ele>8</ele>
        <time>2026-05-17T06:50:36.148Z</time>
      </trkpt>
      <trkpt lat="48.62297" lon="-4.55134">
        <ele>8</ele>
        <time>2026-05-17T06:50:40.227Z</time>
      </trkpt>
      <trkpt lat="48.62301" lon="-4.5513">
        <ele>8</ele>
        <time>2026-05-17T06:50:44.248Z</time>
      </trkpt>
      <trkpt lat="48.62307" lon="-4.55128">
        <ele>8</ele>
        <time>2026-05-17T06:50:48.307Z</time>
      </trkpt>
      <trkpt lat="48.62312" lon="-4.55126">
        <ele>8</ele>
        <time>2026-05-17T06:50:52.702Z</time>
      </trkpt>
      <trkpt lat="48.62316" lon="-4.55125">
        <ele>8</ele>
        <time>2026-05-17T06:50:56.850Z</time>
      </trkpt>
      <trkpt lat="48.62321" lon="-4.55123">
        <ele>8</ele>
        <time>2026-05-17T06:51:00.881Z</time>
      </trkpt>
      <trkpt lat="48.62326" lon="-4.55122">
        <ele>8</ele>
        <time>2026-05-17T06:51:05.574Z</time>
      </trkpt>
      <trkpt lat="48.62331" lon="-4.5512">
        <ele>8</ele>
        <time>2026-05-17T06:51:09.882Z</time>
      </trkpt>
      <trkpt lat="48.62335" lon="-4.55117">
        <ele>8</ele>
        <time>2026-05-17T06:51:13.881Z</time>
      </trkpt>
      <trkpt lat="48.62341" lon="-4.55115">
        <ele>8</ele>
        <time>2026-05-17T06:51:18.411Z</time>
      </trkpt>
      <trkpt lat="48.62346" lon="-4.55113">
        <ele>8</ele>
        <time>2026-05-17T06:51:22.881Z</time>
      </trkpt>
      <trkpt lat="48.6235" lon="-4.55111">
        <ele>9</ele>
        <time>2026-05-17T06:51:27.045Z</time>
      </trkpt>
      <trkpt lat="48.62355" lon="-4.55108">
        <ele>9</ele>
        <time>2026-05-17T06:51:31.448Z</time>
      </trkpt>
      <trkpt lat="48.6236" lon="-4.55107">
        <ele>9</ele>
        <time>2026-05-17T06:51:35.881Z</time>
      </trkpt>
      <trkpt lat="48.62365" lon="-4.55104">
        <ele>9</ele>
        <time>2026-05-17T06:51:40.510Z</time>
      </trkpt>
      <trkpt lat="48.6237" lon="-4.55102">
        <ele>9</ele>
        <time>2026-05-17T06:51:44.587Z</time>
      </trkpt>
      <trkpt lat="48.62375" lon="-4.55097">
        <ele>9</ele>
        <time>2026-05-17T06:51:49.169Z</time>
      </trkpt>
      <trkpt lat="48.6238" lon="-4.55094">
        <ele>9</ele>
        <time>2026-05-17T06:51:53.666Z</time>
      </trkpt>
      <trkpt lat="48.62385" lon="-4.5509">
        <ele>9</ele>
        <time>2026-05-17T06:51:58.103Z</time>
      </trkpt>
      <trkpt lat="48.6239" lon="-4.55086">
        <ele>9</ele>
        <time>2026-05-17T06:52:02.548Z</time>
      </trkpt>
      <trkpt lat="48.62395" lon="-4.55082">
        <ele>9</ele>
        <time>2026-05-17T06:52:06.881Z</time>
      </trkpt>
      <trkpt lat="48.62399" lon="-4.55078">
        <ele>9</ele>
        <time>2026-05-17T06:52:11.549Z</time>
      </trkpt>
      <trkpt lat="48.62403" lon="-4.55073">
        <ele>9</ele>
        <time>2026-05-17T06:52:15.627Z</time>
      </trkpt>
      <trkpt lat="48.62408" lon="-4.55073">
        <ele>6</ele>
        <time>2026-05-17T06:52:19.783Z</time>
      </trkpt>
      <trkpt lat="48.62413" lon="-4.55076">
        <ele>6</ele>
        <time>2026-05-17T06:52:24.347Z</time>
      </trkpt>
      <trkpt lat="48.62418" lon="-4.55079">
        <ele>6</ele>
        <time>2026-05-17T06:52:28.827Z</time>
      </trkpt>
      <trkpt lat="48.62424" lon="-4.55083">
        <ele>6</ele>
        <time>2026-05-17T06:52:33.306Z</time>
      </trkpt>
      <trkpt lat="48.62429" lon="-4.55087">
        <ele>6</ele>
        <time>2026-05-17T06:52:37.743Z</time>
      </trkpt>
      <trkpt lat="48.62434" lon="-4.5509">
        <ele>3</ele>
        <time>2026-05-17T06:52:42.128Z</time>
      </trkpt>
      <trkpt lat="48.62439" lon="-4.55092">
        <ele>3</ele>
        <time>2026-05-17T06:52:46.309Z</time>
      </trkpt>
      <trkpt lat="48.6244" lon="-4.55096">
        <ele>3</ele>
        <time>2026-05-17T06:52:50.880Z</time>
      </trkpt>
      <trkpt lat="48.62438" lon="-4.55095">
        <ele>3</ele>
        <time>2026-05-17T06:53:24.880Z</time>
      </trkpt>
      <trkpt lat="48.62438" lon="-4.55095">
        <ele>3</ele>
        <time>2026-05-17T06:53:29.808Z</time>
      </trkpt>
      <trkpt lat="48.62438" lon="-4.55098">
        <ele>3</ele>
        <time>2026-05-17T06:53:33.880Z</time>
      </trkpt>
      <trkpt lat="48.62439" lon="-4.55106">
        <ele>3</ele>
        <time>2026-05-17T06:53:37.880Z</time>
      </trkpt>
      <trkpt lat="48.62439" lon="-4.55111">
        <ele>3</ele>
        <time>2026-05-17T06:53:42.265Z</time>
      </trkpt>
      <trkpt lat="48.62441" lon="-4.55118">
        <ele>3</ele>
        <time>2026-05-17T06:53:46.463Z</time>
      </trkpt>
      <trkpt lat="48.62442" lon="-4.55118">
        <ele>3</ele>
        <time>2026-05-17T06:53:50.568Z</time>
      </trkpt>
      <trkpt lat="48.62445" lon="-4.55126">
        <ele>4</ele>
        <time>2026-05-17T06:53:54.688Z</time>
      </trkpt>
      <trkpt lat="48.62445" lon="-4.55128">
        <ele>4</ele>
        <time>2026-05-17T06:53:55.880Z</time>
      </trkpt>
      <trkpt lat="48.62453" lon="-4.5514">
        <ele>4</ele>
        <time>2026-05-17T06:54:05.665Z</time>
      </trkpt>
      <trkpt lat="48.62456" lon="-4.55145">
        <ele>4</ele>
        <time>2026-05-17T06:54:09.728Z</time>
      </trkpt>
      <trkpt lat="48.6246" lon="-4.55152">
        <ele>3</ele>
        <time>2026-05-17T06:54:14.308Z</time>
      </trkpt>
      <trkpt lat="48.62462" lon="-4.55158">
        <ele>4</ele>
        <time>2026-05-17T06:54:18.583Z</time>
      </trkpt>
      <trkpt lat="48.62465" lon="-4.55165">
        <ele>4</ele>
        <time>2026-05-17T06:54:23.148Z</time>
      </trkpt>
      <trkpt lat="48.62467" lon="-4.55172">
        <ele>4</ele>
        <time>2026-05-17T06:54:27.303Z</time>
      </trkpt>
      <trkpt lat="48.6247" lon="-4.55178">
        <ele>4</ele>
        <time>2026-05-17T06:54:31.587Z</time>
      </trkpt>
      <trkpt lat="48.62473" lon="-4.5518">
        <ele>4</ele>
        <time>2026-05-17T06:54:35.289Z</time>
      </trkpt>
      <trkpt lat="48.62476" lon="-4.55187">
        <ele>4</ele>
        <time>2026-05-17T06:54:44.773Z</time>
      </trkpt>
      <trkpt lat="48.62479" lon="-4.55195">
        <ele>4</ele>
        <time>2026-05-17T06:54:48.830Z</time>
      </trkpt>
      <trkpt lat="48.6248" lon="-4.55202">
        <ele>4</ele>
        <time>2026-05-17T06:54:52.880Z</time>
      </trkpt>
      <trkpt lat="48.62477" lon="-4.55206">
        <ele>4</ele>
        <time>2026-05-17T06:54:56.880Z</time>
      </trkpt>
      <trkpt lat="48.62475" lon="-4.55207">
        <ele>4</ele>
        <time>2026-05-17T06:55:01.880Z</time>
      </trkpt>
      <trkpt lat="48.62472" lon="-4.55211">
        <ele>3</ele>
        <time>2026-05-17T06:55:06.668Z</time>
      </trkpt>
      <trkpt lat="48.62467" lon="-4.55215">
        <ele>3</ele>
        <time>2026-05-17T06:55:10.880Z</time>
      </trkpt>
      <trkpt lat="48.62463" lon="-4.55219">
        <ele>3</ele>
        <time>2026-05-17T06:55:15.307Z</time>
      </trkpt>
      <trkpt lat="48.62459" lon="-4.55224">
        <ele>3</ele>
        <time>2026-05-17T06:55:19.808Z</time>
      </trkpt>
      <trkpt lat="48.62454" lon="-4.5523">
        <ele>4</ele>
        <time>2026-05-17T06:55:24.425Z</time>
      </trkpt>
      <trkpt lat="48.6245" lon="-4.55235">
        <ele>4</ele>
        <time>2026-05-17T06:55:28.585Z</time>
      </trkpt>
      <trkpt lat="48.62447" lon="-4.55242">
        <ele>3</ele>
        <time>2026-05-17T06:55:33.172Z</time>
      </trkpt>
      <trkpt lat="48.62444" lon="-4.55248">
        <ele>3</ele>
        <time>2026-05-17T06:55:37.266Z</time>
      </trkpt>
      <trkpt lat="48.62437" lon="-4.5526">
        <ele>3</ele>
        <time>2026-05-17T06:55:53.705Z</time>
      </trkpt>
      <trkpt lat="48.62432" lon="-4.55269">
        <ele>3</ele>
        <time>2026-05-17T06:55:57.880Z</time>
      </trkpt>
      <trkpt lat="48.62428" lon="-4.55277">
        <ele>3</ele>
        <time>2026-05-17T06:56:01.880Z</time>
      </trkpt>
      <trkpt lat="48.62424" lon="-4.55283">
        <ele>3</ele>
        <time>2026-05-17T06:56:06.424Z</time>
      </trkpt>
      <trkpt lat="48.6242" lon="-4.55291">
        <ele>3</ele>
        <time>2026-05-17T06:56:10.631Z</time>
      </trkpt>
      <trkpt lat="48.62417" lon="-4.55299">
        <ele>1</ele>
        <time>2026-05-17T06:56:15.184Z</time>
      </trkpt>
      <trkpt lat="48.62414" lon="-4.55306">
        <ele>1</ele>
        <time>2026-05-17T06:56:19.207Z</time>
      </trkpt>
      <trkpt lat="48.62411" lon="-4.55314">
        <ele>1</ele>
        <time>2026-05-17T06:56:23.775Z</time>
      </trkpt>
      <trkpt lat="48.62408" lon="-4.55322">
        <ele>5.2</ele>
        <time>2026-05-17T06:56:28.215Z</time>
      </trkpt>
      <trkpt lat="48.62405" lon="-4.55328">
        <ele>5.4</ele>
        <time>2026-05-17T06:56:32.881Z</time>
      </trkpt>
      <trkpt lat="48.62403" lon="-4.55336">
        <ele>5.4</ele>
        <time>2026-05-17T06:56:37.432Z</time>
      </trkpt>
      <trkpt lat="48.62402" lon="-4.55341">
        <ele>2</ele>
        <time>2026-05-17T06:56:41.508Z</time>
      </trkpt>
      <trkpt lat="48.62405" lon="-4.55344">
        <ele>4.8</ele>
        <time>2026-05-17T06:56:45.880Z</time>
      </trkpt>
      <trkpt lat="48.62408" lon="-4.55343">
        <ele>4.6</ele>
        <time>2026-05-17T06:56:50.585Z</time>
      </trkpt>
      <trkpt lat="48.62408" lon="-4.55343">
        <ele>4.6</ele>
        <time>2026-05-17T06:56:54.762Z</time>
      </trkpt>
      <trkpt lat="48.62411" lon="-4.5535">
        <ele>-1</ele>
        <time>2026-05-17T06:56:58.880Z</time>
      </trkpt>
      <trkpt lat="48.62412" lon="-4.55358">
        <ele>-1</ele>
        <time>2026-05-17T06:57:03.880Z</time>
      </trkpt>
      <trkpt lat="48.62414" lon="-4.55362">
        <ele>-1</ele>
        <time>2026-05-17T06:57:08.388Z</time>
      </trkpt>
      <trkpt lat="48.62412" lon="-4.55369">
        <ele>-1</ele>
        <time>2026-05-17T06:57:12.444Z</time>
      </trkpt>
      <trkpt lat="48.62408" lon="-4.55369">
        <ele>-1</ele>
        <time>2026-05-17T06:57:16.770Z</time>
      </trkpt>
      <trkpt lat="48.6241" lon="-4.5538">
        <ele>-1</ele>
        <time>2026-05-17T06:57:20.880Z</time>
      </trkpt>
      <trkpt lat="48.62411" lon="-4.55383">
        <ele>-1</ele>
        <time>2026-05-17T06:57:23.824Z</time>
      </trkpt>
      <trkpt lat="48.6241" lon="-4.55393">
        <ele>-1</ele>
        <time>2026-05-17T06:57:32.884Z</time>
      </trkpt>
      <trkpt lat="48.62409" lon="-4.55403">
        <ele>3.1</ele>
        <time>2026-05-17T06:57:37.466Z</time>
      </trkpt>
      <trkpt lat="48.62411" lon="-4.55405">
        <ele>2.9</ele>
        <time>2026-05-17T06:57:41.887Z</time>
      </trkpt>
      <trkpt lat="48.6241" lon="-4.55412">
        <ele>2.9</ele>
        <time>2026-05-17T06:57:46.350Z</time>
      </trkpt>
      <trkpt lat="48.62411" lon="-4.55423">
        <ele>3</ele>
        <time>2026-05-17T06:57:50.787Z</time>
      </trkpt>
      <trkpt lat="48.62412" lon="-4.55432">
        <ele>3</ele>
        <time>2026-05-17T06:57:55.266Z</time>
      </trkpt>
      <trkpt lat="48.62411" lon="-4.5544">
        <ele>3</ele>
        <time>2026-05-17T06:57:59.302Z</time>
      </trkpt>
      <trkpt lat="48.62413" lon="-4.55446">
        <ele>3</ele>
        <time>2026-05-17T06:58:03.689Z</time>
      </trkpt>
      <trkpt lat="48.62416" lon="-4.55452">
        <ele>3</ele>
        <time>2026-05-17T06:58:08.423Z</time>
      </trkpt>
      <trkpt lat="48.62417" lon="-4.55459">
        <ele>6</ele>
        <time>2026-05-17T06:58:12.846Z</time>
      </trkpt>
      <trkpt lat="48.62417" lon="-4.55464">
        <ele>6</ele>
        <time>2026-05-17T06:58:16.880Z</time>
      </trkpt>
      <trkpt lat="48.62416" lon="-4.55469">
        <ele>6</ele>
        <time>2026-05-17T06:58:21.189Z</time>
      </trkpt>
      <trkpt lat="48.62414" lon="-4.55475">
        <ele>6</ele>
        <time>2026-05-17T06:58:25.849Z</time>
      </trkpt>
      <trkpt lat="48.6241" lon="-4.55481">
        <ele>6</ele>
        <time>2026-05-17T06:58:30.345Z</time>
      </trkpt>
      <trkpt lat="48.62405" lon="-4.55484">
        <ele>6</ele>
        <time>2026-05-17T06:58:34.364Z</time>
      </trkpt>
      <trkpt lat="48.62401" lon="-4.55486">
        <ele>11</ele>
        <time>2026-05-17T06:58:38.468Z</time>
      </trkpt>
      <trkpt lat="48.62397" lon="-4.55489">
        <ele>11</ele>
        <time>2026-05-17T06:58:42.564Z</time>
      </trkpt>
      <trkpt lat="48.62392" lon="-4.5549">
        <ele>11</ele>
        <time>2026-05-17T06:58:47.103Z</time>
      </trkpt>
      <trkpt lat="48.62386" lon="-4.5549">
        <ele>11</ele>
        <time>2026-05-17T06:58:51.651Z</time>
      </trkpt>
      <trkpt lat="48.62381" lon="-4.55489">
        <ele>11</ele>
        <time>2026-05-17T06:58:56.088Z</time>
      </trkpt>
      <trkpt lat="48.62375" lon="-4.55489">
        <ele>10</ele>
        <time>2026-05-17T06:59:00.668Z</time>
      </trkpt>
      <trkpt lat="48.62369" lon="-4.55488">
        <ele>10</ele>
        <time>2026-05-17T06:59:05.002Z</time>
      </trkpt>
      <trkpt lat="48.62363" lon="-4.55488">
        <ele>10</ele>
        <time>2026-05-17T06:59:09.647Z</time>
      </trkpt>
      <trkpt lat="48.62358" lon="-4.55489">
        <ele>10</ele>
        <time>2026-05-17T06:59:13.767Z</time>
      </trkpt>
      <trkpt lat="48.62355" lon="-4.55497">
        <ele>10</ele>
        <time>2026-05-17T06:59:18.706Z</time>
      </trkpt>
      <trkpt lat="48.62354" lon="-4.55504">
        <ele>10</ele>
        <time>2026-05-17T06:59:23.110Z</time>
      </trkpt>
      <trkpt lat="48.62353" lon="-4.55511">
        <ele>10</ele>
        <time>2026-05-17T06:59:27.265Z</time>
      </trkpt>
      <trkpt lat="48.62352" lon="-4.55519">
        <ele>11</ele>
        <time>2026-05-17T06:59:31.326Z</time>
      </trkpt>
      <trkpt lat="48.62351" lon="-4.55526">
        <ele>11</ele>
        <time>2026-05-17T06:59:35.386Z</time>
      </trkpt>
      <trkpt lat="48.6235" lon="-4.55533">
        <ele>11</ele>
        <time>2026-05-17T06:59:39.483Z</time>
      </trkpt>
      <trkpt lat="48.6235" lon="-4.5554">
        <ele>11</ele>
        <time>2026-05-17T06:59:43.808Z</time>
      </trkpt>
      <trkpt lat="48.62351" lon="-4.55545">
        <ele>9</ele>
        <time>2026-05-17T06:59:47.880Z</time>
      </trkpt>
      <trkpt lat="48.6235" lon="-4.55552">
        <ele>9</ele>
        <time>2026-05-17T06:59:52.305Z</time>
      </trkpt>
      <trkpt lat="48.62349" lon="-4.55559">
        <ele>9</ele>
        <time>2026-05-17T06:59:56.351Z</time>
      </trkpt>
      <trkpt lat="48.6235" lon="-4.55568">
        <ele>9</ele>
        <time>2026-05-17T07:00:00.880Z</time>
      </trkpt>
      <trkpt lat="48.6235" lon="-4.55573">
        <ele>7</ele>
        <time>2026-05-17T07:00:05.045Z</time>
      </trkpt>
      <trkpt lat="48.6235" lon="-4.55579">
        <ele>7</ele>
        <time>2026-05-17T07:00:09.788Z</time>
      </trkpt>
      <trkpt lat="48.6235" lon="-4.55586">
        <ele>7</ele>
        <time>2026-05-17T07:00:14.063Z</time>
      </trkpt>
      <trkpt lat="48.6235" lon="-4.55594">
        <ele>7</ele>
        <time>2026-05-17T07:00:18.149Z</time>
      </trkpt>
      <trkpt lat="48.6235" lon="-4.55601">
        <ele>6</ele>
        <time>2026-05-17T07:00:22.185Z</time>
      </trkpt>
      <trkpt lat="48.62351" lon="-4.5561">
        <ele>6</ele>
        <time>2026-05-17T07:00:26.664Z</time>
      </trkpt>
      <trkpt lat="48.62349" lon="-4.5562">
        <ele>6</ele>
        <time>2026-05-17T07:00:31.185Z</time>
      </trkpt>
      <trkpt lat="48.62348" lon="-4.55627">
        <ele>5</ele>
        <time>2026-05-17T07:00:35.222Z</time>
      </trkpt>
      <trkpt lat="48.62348" lon="-4.55637">
        <ele>5</ele>
        <time>2026-05-17T07:00:39.711Z</time>
      </trkpt>
      <trkpt lat="48.62347" lon="-4.55646">
        <ele>6</ele>
        <time>2026-05-17T07:00:44.249Z</time>
      </trkpt>
      <trkpt lat="48.62347" lon="-4.55655">
        <ele>6</ele>
        <time>2026-05-17T07:00:48.566Z</time>
      </trkpt>
      <trkpt lat="48.62346" lon="-4.55664">
        <ele>6</ele>
        <time>2026-05-17T07:00:52.866Z</time>
      </trkpt>
      <trkpt lat="48.62346" lon="-4.55674">
        <ele>6</ele>
        <time>2026-05-17T07:00:57.268Z</time>
      </trkpt>
      <trkpt lat="48.62345" lon="-4.55681">
        <ele>6</ele>
        <time>2026-05-17T07:01:01.688Z</time>
      </trkpt>
      <trkpt lat="48.62343" lon="-4.5569">
        <ele>6</ele>
        <time>2026-05-17T07:01:06.167Z</time>
      </trkpt>
      <trkpt lat="48.62343" lon="-4.55698">
        <ele>6</ele>
        <time>2026-05-17T07:01:10.467Z</time>
      </trkpt>
      <trkpt lat="48.62342" lon="-4.55707">
        <ele>6</ele>
        <time>2026-05-17T07:01:14.879Z</time>
      </trkpt>
      <trkpt lat="48.62341" lon="-4.55715">
        <ele>5</ele>
        <time>2026-05-17T07:01:19.323Z</time>
      </trkpt>
      <trkpt lat="48.6234" lon="-4.55723">
        <ele>5</ele>
        <time>2026-05-17T07:01:23.725Z</time>
      </trkpt>
      <trkpt lat="48.62341" lon="-4.55732">
        <ele>5</ele>
        <time>2026-05-17T07:01:28.128Z</time>
      </trkpt>
      <trkpt lat="48.62341" lon="-4.5574">
        <ele>5</ele>
        <time>2026-05-17T07:01:32.488Z</time>
      </trkpt>
      <trkpt lat="48.62342" lon="-4.55748">
        <ele>5</ele>
        <time>2026-05-17T07:01:36.685Z</time>
      </trkpt>
      <trkpt lat="48.62343" lon="-4.55757">
        <ele>5</ele>
        <time>2026-05-17T07:01:41.130Z</time>
      </trkpt>
      <trkpt lat="48.62342" lon="-4.55766">
        <ele>4</ele>
        <time>2026-05-17T07:01:45.879Z</time>
      </trkpt>
      <trkpt lat="48.62342" lon="-4.55772">
        <ele>4</ele>
        <time>2026-05-17T07:01:49.879Z</time>
      </trkpt>
      <trkpt lat="48.62342" lon="-4.55781">
        <ele>4</ele>
        <time>2026-05-17T07:01:54.329Z</time>
      </trkpt>
      <trkpt lat="48.6234" lon="-4.55786">
        <ele>4</ele>
        <time>2026-05-17T07:01:58.389Z</time>
      </trkpt>
      <trkpt lat="48.62339" lon="-4.55794">
        <ele>3</ele>
        <time>2026-05-17T07:02:02.879Z</time>
      </trkpt>
      <trkpt lat="48.62337" lon="-4.55802">
        <ele>3</ele>
        <time>2026-05-17T07:02:07.407Z</time>
      </trkpt>
      <trkpt lat="48.62334" lon="-4.55809">
        <ele>3</ele>
        <time>2026-05-17T07:02:11.879Z</time>
      </trkpt>
      <trkpt lat="48.62333" lon="-4.55816">
        <ele>3</ele>
        <time>2026-05-17T07:02:15.879Z</time>
      </trkpt>
      <trkpt lat="48.62333" lon="-4.55819">
        <ele>3</ele>
        <time>2026-05-17T07:02:20.427Z</time>
      </trkpt>
      <trkpt lat="48.62335" lon="-4.55824">
        <ele>2</ele>
        <time>2026-05-17T07:02:24.624Z</time>
      </trkpt>
      <trkpt lat="48.6234" lon="-4.5583">
        <ele>2</ele>
        <time>2026-05-17T07:02:28.879Z</time>
      </trkpt>
      <trkpt lat="48.62341" lon="-4.55836">
        <ele>2</ele>
        <time>2026-05-17T07:02:33.165Z</time>
      </trkpt>
      <trkpt lat="48.62336" lon="-4.5584">
        <ele>2</ele>
        <time>2026-05-17T07:02:37.879Z</time>
      </trkpt>
      <trkpt lat="48.62336" lon="-4.5584">
        <ele>2</ele>
        <time>2026-05-17T07:02:42.879Z</time>
      </trkpt>
      <trkpt lat="48.62335" lon="-4.55842">
        <ele>2</ele>
        <time>2026-05-17T07:02:47.428Z</time>
      </trkpt>
      <trkpt lat="48.62333" lon="-4.5585">
        <ele>1</ele>
        <time>2026-05-17T07:02:51.668Z</time>
      </trkpt>
      <trkpt lat="48.6233" lon="-4.55856">
        <ele>1</ele>
        <time>2026-05-17T07:02:55.880Z</time>
      </trkpt>
      <trkpt lat="48.62328" lon="-4.55863">
        <ele>1</ele>
        <time>2026-05-17T07:03:00.244Z</time>
      </trkpt>
      <trkpt lat="48.62327" lon="-4.5587">
        <ele>1</ele>
        <time>2026-05-17T07:03:04.807Z</time>
      </trkpt>
      <trkpt lat="48.62326" lon="-4.55877">
        <ele>1</ele>
        <time>2026-05-17T07:03:08.885Z</time>
      </trkpt>
      <trkpt lat="48.62326" lon="-4.55883">
        <ele>1</ele>
        <time>2026-05-17T07:03:13.168Z</time>
      </trkpt>
      <trkpt lat="48.62325" lon="-4.5589">
        <ele>1</ele>
        <time>2026-05-17T07:03:17.186Z</time>
      </trkpt>
      <trkpt lat="48.62325" lon="-4.55897">
        <ele>1</ele>
        <time>2026-05-17T07:03:21.409Z</time>
      </trkpt>
      <trkpt lat="48.62324" lon="-4.55903">
        <ele>3</ele>
        <time>2026-05-17T07:03:25.726Z</time>
      </trkpt>
      <trkpt lat="48.62324" lon="-4.55909">
        <ele>3</ele>
        <time>2026-05-17T07:03:29.879Z</time>
      </trkpt>
      <trkpt lat="48.62322" lon="-4.55916">
        <ele>3</ele>
        <time>2026-05-17T07:03:34.488Z</time>
      </trkpt>
      <trkpt lat="48.62325" lon="-4.55923">
        <ele>3</ele>
        <time>2026-05-17T07:03:38.879Z</time>
      </trkpt>
      <trkpt lat="48.62328" lon="-4.55929">
        <ele>3</ele>
        <time>2026-05-17T07:03:43.104Z</time>
      </trkpt>
      <trkpt lat="48.62329" lon="-4.55936">
        <ele>5</ele>
        <time>2026-05-17T07:03:47.225Z</time>
      </trkpt>
      <trkpt lat="48.62332" lon="-4.55943">
        <ele>5</ele>
        <time>2026-05-17T07:03:51.764Z</time>
      </trkpt>
      <trkpt lat="48.62333" lon="-4.5595">
        <ele>5</ele>
        <time>2026-05-17T07:03:55.852Z</time>
      </trkpt>
      <trkpt lat="48.62336" lon="-4.55957">
        <ele>5</ele>
        <time>2026-05-17T07:04:00.364Z</time>
      </trkpt>
      <trkpt lat="48.6234" lon="-4.55963">
        <ele>6</ele>
        <time>2026-05-17T07:04:04.879Z</time>
      </trkpt>
      <trkpt lat="48.62344" lon="-4.5597">
        <ele>6</ele>
        <time>2026-05-17T07:04:09.389Z</time>
      </trkpt>
      <trkpt lat="48.62346" lon="-4.55976">
        <ele>6</ele>
        <time>2026-05-17T07:04:13.510Z</time>
      </trkpt>
      <trkpt lat="48.62351" lon="-4.55981">
        <ele>4</ele>
        <time>2026-05-17T07:04:18.023Z</time>
      </trkpt>
      <trkpt lat="48.62355" lon="-4.55987">
        <ele>5</ele>
        <time>2026-05-17T07:04:22.588Z</time>
      </trkpt>
      <trkpt lat="48.62358" lon="-4.55992">
        <ele>5</ele>
        <time>2026-05-17T07:04:26.607Z</time>
      </trkpt>
      <trkpt lat="48.62362" lon="-4.56">
        <ele>5</ele>
        <time>2026-05-17T07:04:31.171Z</time>
      </trkpt>
      <trkpt lat="48.62365" lon="-4.56007">
        <ele>5</ele>
        <time>2026-05-17T07:04:35.248Z</time>
      </trkpt>
      <trkpt lat="48.62366" lon="-4.56014">
        <ele>5</ele>
        <time>2026-05-17T07:04:39.284Z</time>
      </trkpt>
      <trkpt lat="48.62369" lon="-4.5602">
        <ele>7</ele>
        <time>2026-05-17T07:04:43.609Z</time>
      </trkpt>
      <trkpt lat="48.62372" lon="-4.56026">
        <ele>7</ele>
        <time>2026-05-17T07:04:47.879Z</time>
      </trkpt>
      <trkpt lat="48.62374" lon="-4.56032">
        <ele>7</ele>
        <time>2026-05-17T07:04:52.047Z</time>
      </trkpt>
      <trkpt lat="48.62377" lon="-4.56039">
        <ele>3</ele>
        <time>2026-05-17T07:04:56.184Z</time>
      </trkpt>
      <trkpt lat="48.62379" lon="-4.56044">
        <ele>5</ele>
        <time>2026-05-17T07:05:00.304Z</time>
      </trkpt>
      <trkpt lat="48.62381" lon="-4.56051">
        <ele>5</ele>
        <time>2026-05-17T07:05:04.468Z</time>
      </trkpt>
      <trkpt lat="48.62383" lon="-4.56058">
        <ele>5</ele>
        <time>2026-05-17T07:05:08.845Z</time>
      </trkpt>
      <trkpt lat="48.62383" lon="-4.56065">
        <ele>5</ele>
        <time>2026-05-17T07:05:12.879Z</time>
      </trkpt>
      <trkpt lat="48.62384" lon="-4.56072">
        <ele>6</ele>
        <time>2026-05-17T07:05:17.206Z</time>
      </trkpt>
      <trkpt lat="48.62387" lon="-4.56079">
        <ele>6</ele>
        <time>2026-05-17T07:05:21.505Z</time>
      </trkpt>
      <trkpt lat="48.6239" lon="-4.56084">
        <ele>6</ele>
        <time>2026-05-17T07:05:25.879Z</time>
      </trkpt>
      <trkpt lat="48.62392" lon="-4.56093">
        <ele>6</ele>
        <time>2026-05-17T07:05:30.189Z</time>
      </trkpt>
      <trkpt lat="48.62394" lon="-4.56102">
        <ele>6</ele>
        <time>2026-05-17T07:05:38.879Z</time>
      </trkpt>
      <trkpt lat="48.62396" lon="-4.56102">
        <ele>6</ele>
        <time>2026-05-17T07:05:43.430Z</time>
      </trkpt>
      <trkpt lat="48.62396" lon="-4.56103">
        <ele>6</ele>
        <time>2026-05-17T07:05:47.789Z</time>
      </trkpt>
      <trkpt lat="48.62392" lon="-4.56111">
        <ele>6</ele>
        <time>2026-05-17T07:05:51.867Z</time>
      </trkpt>
      <trkpt lat="48.6239" lon="-4.56119">
        <ele>6</ele>
        <time>2026-05-17T07:05:56.150Z</time>
      </trkpt>
      <trkpt lat="48.62392" lon="-4.56126">
        <ele>5</ele>
        <time>2026-05-17T07:06:09.879Z</time>
      </trkpt>
      <trkpt lat="48.62392" lon="-4.56127">
        <ele>5</ele>
        <time>2026-05-17T07:06:14.879Z</time>
      </trkpt>
      <trkpt lat="48.62391" lon="-4.56134">
        <ele>5</ele>
        <time>2026-05-17T07:06:18.908Z</time>
      </trkpt>
      <trkpt lat="48.62392" lon="-4.56141">
        <ele>5</ele>
        <time>2026-05-17T07:06:23.510Z</time>
      </trkpt>
      <trkpt lat="48.62393" lon="-4.56148">
        <ele>5</ele>
        <time>2026-05-17T07:06:27.767Z</time>
      </trkpt>
      <trkpt lat="48.62393" lon="-4.56152">
        <ele>5</ele>
        <time>2026-05-17T07:06:31.870Z</time>
      </trkpt>
      <trkpt lat="48.62394" lon="-4.56157">
        <ele>4</ele>
        <time>2026-05-17T07:06:36.486Z</time>
      </trkpt>
      <trkpt lat="48.62393" lon="-4.56161">
        <ele>4</ele>
        <time>2026-05-17T07:06:40.529Z</time>
      </trkpt>
      <trkpt lat="48.62394" lon="-4.56167">
        <ele>4</ele>
        <time>2026-05-17T07:06:44.880Z</time>
      </trkpt>
      <trkpt lat="48.62395" lon="-4.56175">
        <ele>4</ele>
        <time>2026-05-17T07:06:49.769Z</time>
      </trkpt>
      <trkpt lat="48.62397" lon="-4.56183">
        <ele>4</ele>
        <time>2026-05-17T07:06:53.879Z</time>
      </trkpt>
      <trkpt lat="48.62397" lon="-4.5619">
        <ele>4</ele>
        <time>2026-05-17T07:06:58.350Z</time>
      </trkpt>
      <trkpt lat="48.624" lon="-4.56194">
        <ele>4</ele>
        <time>2026-05-17T07:07:02.506Z</time>
      </trkpt>
      <trkpt lat="48.62402" lon="-4.56197">
        <ele>4</ele>
        <time>2026-05-17T07:07:12.879Z</time>
      </trkpt>
      <trkpt lat="48.62402" lon="-4.56197">
        <ele>4</ele>
        <time>2026-05-17T07:07:19.407Z</time>
      </trkpt>
      <trkpt lat="48.62402" lon="-4.56197">
        <ele>4</ele>
        <time>2026-05-17T07:07:20.879Z</time>
      </trkpt>
      <trkpt lat="48.62405" lon="-4.56203">
        <ele>1</ele>
        <time>2026-05-17T07:07:29.879Z</time>
      </trkpt>
      <trkpt lat="48.62407" lon="-4.56211">
        <ele>3</ele>
        <time>2026-05-17T07:07:34.327Z</time>
      </trkpt>
      <trkpt lat="48.62408" lon="-4.56218">
        <ele>3</ele>
        <time>2026-05-17T07:07:38.746Z</time>
      </trkpt>
      <trkpt lat="48.62409" lon="-4.56225">
        <ele>3</ele>
        <time>2026-05-17T07:07:43.183Z</time>
      </trkpt>
      <trkpt lat="48.62411" lon="-4.56231">
        <ele>3</ele>
        <time>2026-05-17T07:07:47.451Z</time>
      </trkpt>
      <trkpt lat="48.6241" lon="-4.56238">
        <ele>5</ele>
        <time>2026-05-17T07:07:51.589Z</time>
      </trkpt>
      <trkpt lat="48.62411" lon="-4.56243">
        <ele>5</ele>
        <time>2026-05-17T07:07:56.065Z</time>
      </trkpt>
      <trkpt lat="48.62414" lon="-4.56245">
        <ele>5</ele>
        <time>2026-05-17T07:08:00.247Z</time>
      </trkpt>
      <trkpt lat="48.62418" lon="-4.56248">
        <ele>5</ele>
        <time>2026-05-17T07:08:04.879Z</time>
      </trkpt>
      <trkpt lat="48.62422" lon="-4.56252">
        <ele>5</ele>
        <time>2026-05-17T07:08:09.409Z</time>
      </trkpt>
      <trkpt lat="48.62425" lon="-4.56258">
        <ele>5</ele>
        <time>2026-05-17T07:08:13.786Z</time>
      </trkpt>
      <trkpt lat="48.62428" lon="-4.56263">
        <ele>5</ele>
        <time>2026-05-17T07:08:17.804Z</time>
      </trkpt>
      <trkpt lat="48.62431" lon="-4.56268">
        <ele>5</ele>
        <time>2026-05-17T07:08:21.831Z</time>
      </trkpt>
      <trkpt lat="48.62433" lon="-4.56271">
        <ele>5</ele>
        <time>2026-05-17T07:08:25.879Z</time>
      </trkpt>
      <trkpt lat="48.62439" lon="-4.56283">
        <ele>5</ele>
        <time>2026-05-17T07:09:25.289Z</time>
      </trkpt>
      <trkpt lat="48.62444" lon="-4.56282">
        <ele>5</ele>
        <time>2026-05-17T07:09:29.845Z</time>
      </trkpt>
      <trkpt lat="48.62449" lon="-4.56285">
        <ele>5</ele>
        <time>2026-05-17T07:09:34.529Z</time>
      </trkpt>
      <trkpt lat="48.62452" lon="-4.56285">
        <ele>5</ele>
        <time>2026-05-17T07:09:38.529Z</time>
      </trkpt>
      <trkpt lat="48.62456" lon="-4.56286">
        <ele>5</ele>
        <time>2026-05-17T07:09:42.804Z</time>
      </trkpt>
      <trkpt lat="48.6246" lon="-4.56285">
        <ele>3</ele>
        <time>2026-05-17T07:09:46.866Z</time>
      </trkpt>
      <trkpt lat="48.62466" lon="-4.56288">
        <ele>3</ele>
        <time>2026-05-17T07:09:51.625Z</time>
      </trkpt>
      <trkpt lat="48.62467" lon="-4.56293">
        <ele>5</ele>
        <time>2026-05-17T07:09:55.879Z</time>
      </trkpt>
      <trkpt lat="48.62469" lon="-4.56296">
        <ele>5</ele>
        <time>2026-05-17T07:10:00.027Z</time>
      </trkpt>
      <trkpt lat="48.62472" lon="-4.56301">
        <ele>5</ele>
        <time>2026-05-17T07:10:04.148Z</time>
      </trkpt>
      <trkpt lat="48.62475" lon="-4.56305">
        <ele>5</ele>
        <time>2026-05-17T07:10:08.789Z</time>
      </trkpt>
      <trkpt lat="48.62478" lon="-4.56309">
        <ele>5</ele>
        <time>2026-05-17T07:10:13.064Z</time>
      </trkpt>
      <trkpt lat="48.6248" lon="-4.56315">
        <ele>5</ele>
        <time>2026-05-17T07:10:17.509Z</time>
      </trkpt>
      <trkpt lat="48.62483" lon="-4.56319">
        <ele>5</ele>
        <time>2026-05-17T07:10:21.885Z</time>
      </trkpt>
      <trkpt lat="48.62484" lon="-4.56323">
        <ele>5</ele>
        <time>2026-05-17T07:10:25.879Z</time>
      </trkpt>
      <trkpt lat="48.62488" lon="-4.56327">
        <ele>4</ele>
        <time>2026-05-17T07:10:30.451Z</time>
      </trkpt>
      <trkpt lat="48.62491" lon="-4.56332">
        <ele>4</ele>
        <time>2026-05-17T07:10:34.880Z</time>
      </trkpt>
      <trkpt lat="48.62495" lon="-4.56338">
        <ele>4</ele>
        <time>2026-05-17T07:10:39.391Z</time>
      </trkpt>
      <trkpt lat="48.62497" lon="-4.56344">
        <ele>4</ele>
        <time>2026-05-17T07:10:43.811Z</time>
      </trkpt>
      <trkpt lat="48.625" lon="-4.56349">
        <ele>5</ele>
        <time>2026-05-17T07:10:47.879Z</time>
      </trkpt>
      <trkpt lat="48.62502" lon="-4.56357">
        <ele>5</ele>
        <time>2026-05-17T07:10:52.409Z</time>
      </trkpt>
      <trkpt lat="48.62505" lon="-4.56365">
        <ele>5</ele>
        <time>2026-05-17T07:10:56.888Z</time>
      </trkpt>
      <trkpt lat="48.62508" lon="-4.56371">
        <ele>5</ele>
        <time>2026-05-17T07:11:00.879Z</time>
      </trkpt>
      <trkpt lat="48.62506" lon="-4.56375">
        <ele>5</ele>
        <time>2026-05-17T07:11:05.073Z</time>
      </trkpt>
      <trkpt lat="48.62505" lon="-4.56383">
        <ele>5</ele>
        <time>2026-05-17T07:11:09.879Z</time>
      </trkpt>
      <trkpt lat="48.62506" lon="-4.5639">
        <ele>5</ele>
        <time>2026-05-17T07:11:14.586Z</time>
      </trkpt>
      <trkpt lat="48.62507" lon="-4.56397">
        <ele>5</ele>
        <time>2026-05-17T07:11:18.879Z</time>
      </trkpt>
      <trkpt lat="48.62509" lon="-4.56403">
        <ele>6</ele>
        <time>2026-05-17T07:11:23.409Z</time>
      </trkpt>
      <trkpt lat="48.62511" lon="-4.5641">
        <ele>6</ele>
        <time>2026-05-17T07:11:27.664Z</time>
      </trkpt>
      <trkpt lat="48.62514" lon="-4.56416">
        <ele>6</ele>
        <time>2026-05-17T07:11:31.810Z</time>
      </trkpt>
      <trkpt lat="48.62516" lon="-4.56422">
        <ele>4</ele>
        <time>2026-05-17T07:11:35.879Z</time>
      </trkpt>
      <trkpt lat="48.62518" lon="-4.56429">
        <ele>4</ele>
        <time>2026-05-17T07:11:40.428Z</time>
      </trkpt>
      <trkpt lat="48.62521" lon="-4.56435">
        <ele>5</ele>
        <time>2026-05-17T07:11:44.488Z</time>
      </trkpt>
      <trkpt lat="48.62523" lon="-4.56443">
        <ele>5</ele>
        <time>2026-05-17T07:11:48.773Z</time>
      </trkpt>
      <trkpt lat="48.62525" lon="-4.5645">
        <ele>5</ele>
        <time>2026-05-17T07:11:52.879Z</time>
      </trkpt>
      <trkpt lat="48.62525" lon="-4.56458">
        <ele>5</ele>
        <time>2026-05-17T07:11:57.172Z</time>
      </trkpt>
      <trkpt lat="48.62522" lon="-4.56463">
        <ele>6</ele>
        <time>2026-05-17T07:12:01.688Z</time>
      </trkpt>
      <trkpt lat="48.62527" lon="-4.56467">
        <ele>6</ele>
        <time>2026-05-17T07:12:05.986Z</time>
      </trkpt>
      <trkpt lat="48.62531" lon="-4.56468">
        <ele>6</ele>
        <time>2026-05-17T07:12:10.125Z</time>
      </trkpt>
      <trkpt lat="48.62534" lon="-4.56471">
        <ele>6</ele>
        <time>2026-05-17T07:12:14.212Z</time>
      </trkpt>
      <trkpt lat="48.62538" lon="-4.56476">
        <ele>6</ele>
        <time>2026-05-17T07:12:18.467Z</time>
      </trkpt>
      <trkpt lat="48.62541" lon="-4.5648">
        <ele>6</ele>
        <time>2026-05-17T07:12:22.826Z</time>
      </trkpt>
      <trkpt lat="48.62541" lon="-4.56488">
        <ele>8</ele>
        <time>2026-05-17T07:12:27.305Z</time>
      </trkpt>
      <trkpt lat="48.62544" lon="-4.56493">
        <ele>4</ele>
        <time>2026-05-17T07:12:31.648Z</time>
      </trkpt>
      <trkpt lat="48.62548" lon="-4.56495">
        <ele>4</ele>
        <time>2026-05-17T07:12:35.878Z</time>
      </trkpt>
      <trkpt lat="48.62548" lon="-4.56494">
        <ele>4</ele>
        <time>2026-05-17T07:12:44.607Z</time>
      </trkpt>
      <trkpt lat="48.62554" lon="-4.56493">
        <ele>4</ele>
        <time>2026-05-17T07:12:49.010Z</time>
      </trkpt>
      <trkpt lat="48.6256" lon="-4.56494">
        <ele>4</ele>
        <time>2026-05-17T07:12:53.471Z</time>
      </trkpt>
      <trkpt lat="48.62562" lon="-4.56503">
        <ele>4</ele>
        <time>2026-05-17T07:12:57.879Z</time>
      </trkpt>
      <trkpt lat="48.62557" lon="-4.56506">
        <ele>4</ele>
        <time>2026-05-17T07:13:02.745Z</time>
      </trkpt>
      <trkpt lat="48.62561" lon="-4.56508">
        <ele>4</ele>
        <time>2026-05-17T07:13:07.309Z</time>
      </trkpt>
      <trkpt lat="48.62565" lon="-4.56507">
        <ele>4</ele>
        <time>2026-05-17T07:13:11.492Z</time>
      </trkpt>
      <trkpt lat="48.62568" lon="-4.56507">
        <ele>4</ele>
        <time>2026-05-17T07:13:16.156Z</time>
      </trkpt>
      <trkpt lat="48.62571" lon="-4.56512">
        <ele>1</ele>
        <time>2026-05-17T07:13:20.524Z</time>
      </trkpt>
      <trkpt lat="48.62573" lon="-4.56519">
        <ele>6.7</ele>
        <time>2026-05-17T07:13:24.879Z</time>
      </trkpt>
      <trkpt lat="48.6257" lon="-4.56523">
        <ele>7.7</ele>
        <time>2026-05-17T07:13:29.788Z</time>
      </trkpt>
      <trkpt lat="48.62571" lon="-4.56528">
        <ele>8.2</ele>
        <time>2026-05-17T07:13:33.795Z</time>
      </trkpt>
      <trkpt lat="48.62574" lon="-4.56556">
        <ele>8</ele>
        <time>2026-05-17T07:13:50.878Z</time>
      </trkpt>
      <trkpt lat="48.62575" lon="-4.56557">
        <ele>7.7</ele>
        <time>2026-05-17T07:13:54.879Z</time>
      </trkpt>
      <trkpt lat="48.62576" lon="-4.56563">
        <ele>6.8</ele>
        <time>2026-05-17T07:13:59.171Z</time>
      </trkpt>
      <trkpt lat="48.62574" lon="-4.5657">
        <ele>1</ele>
        <time>2026-05-17T07:14:03.350Z</time>
      </trkpt>
      <trkpt lat="48.62572" lon="-4.56576">
        <ele>1</ele>
        <time>2026-05-17T07:14:07.728Z</time>
      </trkpt>
      <trkpt lat="48.62573" lon="-4.56577">
        <ele>1</ele>
        <time>2026-05-17T07:14:25.878Z</time>
      </trkpt>
      <trkpt lat="48.62569" lon="-4.56581">
        <ele>3</ele>
        <time>2026-05-17T07:14:30.130Z</time>
      </trkpt>
      <trkpt lat="48.62564" lon="-4.56586">
        <ele>3</ele>
        <time>2026-05-17T07:14:34.592Z</time>
      </trkpt>
      <trkpt lat="48.62561" lon="-4.56592">
        <ele>3</ele>
        <time>2026-05-17T07:14:38.878Z</time>
      </trkpt>
      <trkpt lat="48.62558" lon="-4.56597">
        <ele>3</ele>
        <time>2026-05-17T07:14:43.106Z</time>
      </trkpt>
      <trkpt lat="48.62553" lon="-4.56598">
        <ele>1</ele>
        <time>2026-05-17T07:14:47.704Z</time>
      </trkpt>
      <trkpt lat="48.62549" lon="-4.56601">
        <ele>1</ele>
        <time>2026-05-17T07:14:51.878Z</time>
      </trkpt>
      <trkpt lat="48.62544" lon="-4.56604">
        <ele>1</ele>
        <time>2026-05-17T07:14:56.226Z</time>
      </trkpt>
      <trkpt lat="48.62541" lon="-4.56606">
        <ele>3</ele>
        <time>2026-05-17T07:15:00.288Z</time>
      </trkpt>
      <trkpt lat="48.62537" lon="-4.56609">
        <ele>3</ele>
        <time>2026-05-17T07:15:04.365Z</time>
      </trkpt>
      <trkpt lat="48.62533" lon="-4.56612">
        <ele>3</ele>
        <time>2026-05-17T07:15:08.572Z</time>
      </trkpt>
      <trkpt lat="48.62529" lon="-4.56615">
        <ele>3</ele>
        <time>2026-05-17T07:15:12.666Z</time>
      </trkpt>
      <trkpt lat="48.62524" lon="-4.56618">
        <ele>3</ele>
        <time>2026-05-17T07:15:16.871Z</time>
      </trkpt>
      <trkpt lat="48.62521" lon="-4.5662">
        <ele>3</ele>
        <time>2026-05-17T07:15:21.231Z</time>
      </trkpt>
      <trkpt lat="48.62516" lon="-4.5662">
        <ele>3</ele>
        <time>2026-05-17T07:15:25.488Z</time>
      </trkpt>
      <trkpt lat="48.6251" lon="-4.56619">
        <ele>5</ele>
        <time>2026-05-17T07:15:29.878Z</time>
      </trkpt>
      <trkpt lat="48.62506" lon="-4.56617">
        <ele>5</ele>
        <time>2026-05-17T07:15:34.308Z</time>
      </trkpt>
      <trkpt lat="48.62502" lon="-4.56613">
        <ele>5</ele>
        <time>2026-05-17T07:15:38.608Z</time>
      </trkpt>
      <trkpt lat="48.62499" lon="-4.56609">
        <ele>5</ele>
        <time>2026-05-17T07:15:42.669Z</time>
      </trkpt>
      <trkpt lat="48.62495" lon="-4.56605">
        <ele>5</ele>
        <time>2026-05-17T07:15:46.849Z</time>
      </trkpt>
      <trkpt lat="48.62491" lon="-4.56601">
        <ele>5</ele>
        <time>2026-05-17T07:15:50.878Z</time>
      </trkpt>
      <trkpt lat="48.62488" lon="-4.56598">
        <ele>5</ele>
        <time>2026-05-17T07:15:55.006Z</time>
      </trkpt>
      <trkpt lat="48.62484" lon="-4.56594">
        <ele>5</ele>
        <time>2026-05-17T07:15:59.211Z</time>
      </trkpt>
      <trkpt lat="48.6248" lon="-4.56591">
        <ele>5</ele>
        <time>2026-05-17T07:16:03.247Z</time>
      </trkpt>
      <trkpt lat="48.62476" lon="-4.56587">
        <ele>5</ele>
        <time>2026-05-17T07:16:07.469Z</time>
      </trkpt>
      <trkpt lat="48.62472" lon="-4.56584">
        <ele>5</ele>
        <time>2026-05-17T07:16:11.565Z</time>
      </trkpt>
      <trkpt lat="48.62468" lon="-4.5658">
        <ele>5</ele>
        <time>2026-05-17T07:16:15.744Z</time>
      </trkpt>
      <trkpt lat="48.62464" lon="-4.56577">
        <ele>5</ele>
        <time>2026-05-17T07:16:19.829Z</time>
      </trkpt>
      <trkpt lat="48.6246" lon="-4.56572">
        <ele>5</ele>
        <time>2026-05-17T07:16:23.878Z</time>
      </trkpt>
      <trkpt lat="48.62456" lon="-4.56569">
        <ele>4</ele>
        <time>2026-05-17T07:16:28.148Z</time>
      </trkpt>
      <trkpt lat="48.62452" lon="-4.56564">
        <ele>4</ele>
        <time>2026-05-17T07:16:32.447Z</time>
      </trkpt>
      <trkpt lat="48.62448" lon="-4.5656">
        <ele>4</ele>
        <time>2026-05-17T07:16:36.611Z</time>
      </trkpt>
      <trkpt lat="48.62444" lon="-4.56557">
        <ele>4</ele>
        <time>2026-05-17T07:16:40.731Z</time>
      </trkpt>
      <trkpt lat="48.6244" lon="-4.56552">
        <ele>4</ele>
        <time>2026-05-17T07:16:44.749Z</time>
      </trkpt>
      <trkpt lat="48.62436" lon="-4.56549">
        <ele>4</ele>
        <time>2026-05-17T07:16:48.827Z</time>
      </trkpt>
      <trkpt lat="48.62431" lon="-4.56545">
        <ele>4</ele>
        <time>2026-05-17T07:16:53.424Z</time>
      </trkpt>
      <trkpt lat="48.62427" lon="-4.56541">
        <ele>3</ele>
        <time>2026-05-17T07:16:57.486Z</time>
      </trkpt>
      <trkpt lat="48.62423" lon="-4.56536">
        <ele>3</ele>
        <time>2026-05-17T07:17:01.666Z</time>
      </trkpt>
      <trkpt lat="48.62418" lon="-4.56532">
        <ele>3</ele>
        <time>2026-05-17T07:17:06.306Z</time>
      </trkpt>
      <trkpt lat="48.62414" lon="-4.56527">
        <ele>3</ele>
        <time>2026-05-17T07:17:10.878Z</time>
      </trkpt>
      <trkpt lat="48.62409" lon="-4.56524">
        <ele>3</ele>
        <time>2026-05-17T07:17:14.931Z</time>
      </trkpt>
      <trkpt lat="48.62404" lon="-4.5652">
        <ele>3</ele>
        <time>2026-05-17T07:17:19.564Z</time>
      </trkpt>
      <trkpt lat="48.624" lon="-4.56516">
        <ele>2</ele>
        <time>2026-05-17T07:17:23.709Z</time>
      </trkpt>
      <trkpt lat="48.62396" lon="-4.56512">
        <ele>3</ele>
        <time>2026-05-17T07:17:28.327Z</time>
      </trkpt>
      <trkpt lat="48.62391" lon="-4.56508">
        <ele>3</ele>
        <time>2026-05-17T07:17:32.910Z</time>
      </trkpt>
      <trkpt lat="48.62386" lon="-4.56504">
        <ele>3</ele>
        <time>2026-05-17T07:17:37.514Z</time>
      </trkpt>
      <trkpt lat="48.62381" lon="-4.565">
        <ele>3</ele>
        <time>2026-05-17T07:17:42.162Z</time>
      </trkpt>
      <trkpt lat="48.62377" lon="-4.56497">
        <ele>3</ele>
        <time>2026-05-17T07:17:46.257Z</time>
      </trkpt>
      <trkpt lat="48.62372" lon="-4.56494">
        <ele>4</ele>
        <time>2026-05-17T07:17:50.676Z</time>
      </trkpt>
      <trkpt lat="48.62367" lon="-4.56492">
        <ele>4</ele>
        <time>2026-05-17T07:17:55.198Z</time>
      </trkpt>
      <trkpt lat="48.62364" lon="-4.5649">
        <ele>4</ele>
        <time>2026-05-17T07:17:59.403Z</time>
      </trkpt>
      <trkpt lat="48.6236" lon="-4.56489">
        <ele>4</ele>
        <time>2026-05-17T07:18:03.883Z</time>
      </trkpt>
      <trkpt lat="48.62354" lon="-4.56488">
        <ele>4</ele>
        <time>2026-05-17T07:18:08.463Z</time>
      </trkpt>
      <trkpt lat="48.62349" lon="-4.56488">
        <ele>4</ele>
        <time>2026-05-17T07:18:12.878Z</time>
      </trkpt>
      <trkpt lat="48.62345" lon="-4.56491">
        <ele>4</ele>
        <time>2026-05-17T07:18:16.541Z</time>
      </trkpt>
      <trkpt lat="48.62338" lon="-4.56486">
        <ele>4</ele>
        <time>2026-05-17T07:18:25.347Z</time>
      </trkpt>
      <trkpt lat="48.62332" lon="-4.56485">
        <ele>4</ele>
        <time>2026-05-17T07:18:29.581Z</time>
      </trkpt>
      <trkpt lat="48.62328" lon="-4.56483">
        <ele>4</ele>
        <time>2026-05-17T07:18:33.676Z</time>
      </trkpt>
      <trkpt lat="48.62323" lon="-4.56482">
        <ele>4</ele>
        <time>2026-05-17T07:18:37.840Z</time>
      </trkpt>
      <trkpt lat="48.62319" lon="-4.5648">
        <ele>4</ele>
        <time>2026-05-17T07:18:41.878Z</time>
      </trkpt>
      <trkpt lat="48.62314" lon="-4.56475">
        <ele>4</ele>
        <time>2026-05-17T07:18:46.440Z</time>
      </trkpt>
      <trkpt lat="48.62312" lon="-4.56468">
        <ele>4</ele>
        <time>2026-05-17T07:18:50.517Z</time>
      </trkpt>
      <trkpt lat="48.62309" lon="-4.56463">
        <ele>4</ele>
        <time>2026-05-17T07:18:54.519Z</time>
      </trkpt>
      <trkpt lat="48.62307" lon="-4.56456">
        <ele>3</ele>
        <time>2026-05-17T07:18:58.579Z</time>
      </trkpt>
      <trkpt lat="48.62305" lon="-4.5645">
        <ele>3</ele>
        <time>2026-05-17T07:19:02.658Z</time>
      </trkpt>
      <trkpt lat="48.623" lon="-4.56438">
        <ele>3</ele>
        <time>2026-05-17T07:19:11.777Z</time>
      </trkpt>
      <trkpt lat="48.623" lon="-4.56429">
        <ele>3</ele>
        <time>2026-05-17T07:19:15.890Z</time>
      </trkpt>
      <trkpt lat="48.62299" lon="-4.5642">
        <ele>3</ele>
        <time>2026-05-17T07:19:20.437Z</time>
      </trkpt>
      <trkpt lat="48.62298" lon="-4.56413">
        <ele>3</ele>
        <time>2026-05-17T07:19:24.379Z</time>
      </trkpt>
      <trkpt lat="48.62297" lon="-4.56405">
        <ele>3</ele>
        <time>2026-05-17T07:19:28.542Z</time>
      </trkpt>
      <trkpt lat="48.62295" lon="-4.56397">
        <ele>2</ele>
        <time>2026-05-17T07:19:33.158Z</time>
      </trkpt>
      <trkpt lat="48.62293" lon="-4.56389">
        <ele>2</ele>
        <time>2026-05-17T07:19:37.728Z</time>
      </trkpt>
      <trkpt lat="48.62292" lon="-4.56382">
        <ele>2</ele>
        <time>2026-05-17T07:19:41.844Z</time>
      </trkpt>
      <trkpt lat="48.62291" lon="-4.56376">
        <ele>1</ele>
        <time>2026-05-17T07:19:45.879Z</time>
      </trkpt>
      <trkpt lat="48.62289" lon="-4.56369">
        <ele>1</ele>
        <time>2026-05-17T07:19:50.059Z</time>
      </trkpt>
      <trkpt lat="48.62288" lon="-4.56361">
        <ele>1</ele>
        <time>2026-05-17T07:19:54.222Z</time>
      </trkpt>
      <trkpt lat="48.62287" lon="-4.56355">
        <ele>1</ele>
        <time>2026-05-17T07:19:58.420Z</time>
      </trkpt>
      <trkpt lat="48.62286" lon="-4.56348">
        <ele>1</ele>
        <time>2026-05-17T07:20:02.737Z</time>
      </trkpt>
      <trkpt lat="48.62284" lon="-4.56341">
        <ele>2</ele>
        <time>2026-05-17T07:20:06.781Z</time>
      </trkpt>
      <trkpt lat="48.62282" lon="-4.56334">
        <ele>2</ele>
        <time>2026-05-17T07:20:10.878Z</time>
      </trkpt>
      <trkpt lat="48.6228" lon="-4.56328">
        <ele>2</ele>
        <time>2026-05-17T07:20:15.082Z</time>
      </trkpt>
      <trkpt lat="48.62277" lon="-4.5632">
        <ele>2</ele>
        <time>2026-05-17T07:20:19.603Z</time>
      </trkpt>
      <trkpt lat="48.62274" lon="-4.56315">
        <ele>2</ele>
        <time>2026-05-17T07:20:23.621Z</time>
      </trkpt>
      <trkpt lat="48.62272" lon="-4.56309">
        <ele>2</ele>
        <time>2026-05-17T07:20:27.716Z</time>
      </trkpt>
      <trkpt lat="48.6227" lon="-4.56304">
        <ele>2</ele>
        <time>2026-05-17T07:20:31.878Z</time>
      </trkpt>
      <trkpt lat="48.62267" lon="-4.56299">
        <ele>2</ele>
        <time>2026-05-17T07:20:36.136Z</time>
      </trkpt>
      <trkpt lat="48.62263" lon="-4.56294">
        <ele>2</ele>
        <time>2026-05-17T07:20:40.615Z</time>
      </trkpt>
      <trkpt lat="48.62259" lon="-4.56289">
        <ele>2</ele>
        <time>2026-05-17T07:20:45.197Z</time>
      </trkpt>
      <trkpt lat="48.62255" lon="-4.56285">
        <ele>2</ele>
        <time>2026-05-17T07:20:49.360Z</time>
      </trkpt>
      <trkpt lat="48.62252" lon="-4.5628">
        <ele>2</ele>
        <time>2026-05-17T07:20:53.524Z</time>
      </trkpt>
      <trkpt lat="48.62248" lon="-4.56275">
        <ele>2</ele>
        <time>2026-05-17T07:20:57.764Z</time>
      </trkpt>
      <trkpt lat="48.62245" lon="-4.56271">
        <ele>2</ele>
        <time>2026-05-17T07:21:01.841Z</time>
      </trkpt>
      <trkpt lat="48.62241" lon="-4.56267">
        <ele>2</ele>
        <time>2026-05-17T07:21:05.879Z</time>
      </trkpt>
      <trkpt lat="48.62237" lon="-4.56265">
        <ele>2</ele>
        <time>2026-05-17T07:21:10.441Z</time>
      </trkpt>
      <trkpt lat="48.62233" lon="-4.56261">
        <ele>4</ele>
        <time>2026-05-17T07:21:14.800Z</time>
      </trkpt>
      <trkpt lat="48.62228" lon="-4.56258">
        <ele>4</ele>
        <time>2026-05-17T07:21:18.878Z</time>
      </trkpt>
      <trkpt lat="48.62223" lon="-4.56254">
        <ele>4</ele>
        <time>2026-05-17T07:21:23.562Z</time>
      </trkpt>
      <trkpt lat="48.62219" lon="-4.5625">
        <ele>4</ele>
        <time>2026-05-17T07:21:28.161Z</time>
      </trkpt>
      <trkpt lat="48.62214" lon="-4.56248">
        <ele>4</ele>
        <time>2026-05-17T07:21:32.699Z</time>
      </trkpt>
      <trkpt lat="48.62209" lon="-4.56246">
        <ele>4</ele>
        <time>2026-05-17T07:21:36.803Z</time>
      </trkpt>
      <trkpt lat="48.62205" lon="-4.56245">
        <ele>5</ele>
        <time>2026-05-17T07:21:40.864Z</time>
      </trkpt>
      <trkpt lat="48.622" lon="-4.56243">
        <ele>5</ele>
        <time>2026-05-17T07:21:44.902Z</time>
      </trkpt>
      <trkpt lat="48.62195" lon="-4.56241">
        <ele>5</ele>
        <time>2026-05-17T07:21:48.879Z</time>
      </trkpt>
      <trkpt lat="48.6219" lon="-4.56241">
        <ele>5</ele>
        <time>2026-05-17T07:21:53.523Z</time>
      </trkpt>
      <trkpt lat="48.62186" lon="-4.5624">
        <ele>5</ele>
        <time>2026-05-17T07:21:57.583Z</time>
      </trkpt>
      <trkpt lat="48.62181" lon="-4.56239">
        <ele>5</ele>
        <time>2026-05-17T07:22:01.740Z</time>
      </trkpt>
      <trkpt lat="48.62176" lon="-4.56239">
        <ele>4</ele>
        <time>2026-05-17T07:22:05.757Z</time>
      </trkpt>
      <trkpt lat="48.62172" lon="-4.5624">
        <ele>4</ele>
        <time>2026-05-17T07:22:09.878Z</time>
      </trkpt>
      <trkpt lat="48.62167" lon="-4.56241">
        <ele>4</ele>
        <time>2026-05-17T07:22:14.060Z</time>
      </trkpt>
      <trkpt lat="48.62163" lon="-4.56241">
        <ele>4</ele>
        <time>2026-05-17T07:22:18.144Z</time>
      </trkpt>
      <trkpt lat="48.62157" lon="-4.5624">
        <ele>4</ele>
        <time>2026-05-17T07:22:22.699Z</time>
      </trkpt>
      <trkpt lat="48.62151" lon="-4.56241">
        <ele>3</ele>
        <time>2026-05-17T07:22:27.221Z</time>
      </trkpt>
      <trkpt lat="48.62145" lon="-4.56241">
        <ele>3</ele>
        <time>2026-05-17T07:22:31.801Z</time>
      </trkpt>
      <trkpt lat="48.62139" lon="-4.5624">
        <ele>3</ele>
        <time>2026-05-17T07:22:36.362Z</time>
      </trkpt>
      <trkpt lat="48.62134" lon="-4.5624">
        <ele>3</ele>
        <time>2026-05-17T07:22:40.878Z</time>
      </trkpt>
      <trkpt lat="48.62129" lon="-4.5624">
        <ele>3</ele>
        <time>2026-05-17T07:22:44.941Z</time>
      </trkpt>
      <trkpt lat="48.62124" lon="-4.56239">
        <ele>2</ele>
        <time>2026-05-17T07:22:49.061Z</time>
      </trkpt>
      <trkpt lat="48.62119" lon="-4.56239">
        <ele>2</ele>
        <time>2026-05-17T07:22:53.139Z</time>
      </trkpt>
      <trkpt lat="48.62114" lon="-4.56239">
        <ele>2</ele>
        <time>2026-05-17T07:22:57.302Z</time>
      </trkpt>
      <trkpt lat="48.62109" lon="-4.5624">
        <ele>2</ele>
        <time>2026-05-17T07:23:01.878Z</time>
      </trkpt>
      <trkpt lat="48.62103" lon="-4.56241">
        <ele>2</ele>
        <time>2026-05-17T07:23:06.363Z</time>
      </trkpt>
      <trkpt lat="48.62098" lon="-4.56242">
        <ele>2</ele>
        <time>2026-05-17T07:23:10.800Z</time>
      </trkpt>
      <trkpt lat="48.62092" lon="-4.56243">
        <ele>1</ele>
        <time>2026-05-17T07:23:15.423Z</time>
      </trkpt>
      <trkpt lat="48.62087" lon="-4.56243">
        <ele>1</ele>
        <time>2026-05-17T07:23:19.442Z</time>
      </trkpt>
      <trkpt lat="48.62083" lon="-4.56243">
        <ele>1</ele>
        <time>2026-05-17T07:23:23.563Z</time>
      </trkpt>
      <trkpt lat="48.62077" lon="-4.56242">
        <ele>1</ele>
        <time>2026-05-17T07:23:28.203Z</time>
      </trkpt>
      <trkpt lat="48.62071" lon="-4.56242">
        <ele>1</ele>
        <time>2026-05-17T07:23:32.239Z</time>
      </trkpt>
      <trkpt lat="48.62067" lon="-4.56244">
        <ele>2</ele>
        <time>2026-05-17T07:23:36.341Z</time>
      </trkpt>
      <trkpt lat="48.62062" lon="-4.56247">
        <ele>2</ele>
        <time>2026-05-17T07:23:40.878Z</time>
      </trkpt>
      <trkpt lat="48.62058" lon="-4.56251">
        <ele>2</ele>
        <time>2026-05-17T07:23:44.942Z</time>
      </trkpt>
      <trkpt lat="48.62053" lon="-4.56255">
        <ele>2</ele>
        <time>2026-05-17T07:23:49.497Z</time>
      </trkpt>
      <trkpt lat="48.62049" lon="-4.56258">
        <ele>2</ele>
        <time>2026-05-17T07:23:53.661Z</time>
      </trkpt>
      <trkpt lat="48.62044" lon="-4.56262">
        <ele>2</ele>
        <time>2026-05-17T07:23:58.878Z</time>
      </trkpt>
      <trkpt lat="48.6204" lon="-4.56266">
        <ele>3</ele>
        <time>2026-05-17T07:24:03.078Z</time>
      </trkpt>
      <trkpt lat="48.62035" lon="-4.56268">
        <ele>3</ele>
        <time>2026-05-17T07:24:07.677Z</time>
      </trkpt>
      <trkpt lat="48.6203" lon="-4.56271">
        <ele>3</ele>
        <time>2026-05-17T07:24:12.319Z</time>
      </trkpt>
      <trkpt lat="48.62025" lon="-4.56274">
        <ele>3</ele>
        <time>2026-05-17T07:24:16.823Z</time>
      </trkpt>
      <trkpt lat="48.62022" lon="-4.56281">
        <ele>3</ele>
        <time>2026-05-17T07:24:21.300Z</time>
      </trkpt>
      <trkpt lat="48.6202" lon="-4.56286">
        <ele>3</ele>
        <time>2026-05-17T07:24:25.763Z</time>
      </trkpt>
      <trkpt lat="48.62015" lon="-4.5629">
        <ele>3</ele>
        <time>2026-05-17T07:24:29.902Z</time>
      </trkpt>
      <trkpt lat="48.62012" lon="-4.56294">
        <ele>4</ele>
        <time>2026-05-17T07:24:33.661Z</time>
      </trkpt>
      <trkpt lat="48.62009" lon="-4.563">
        <ele>4</ele>
        <time>2026-05-17T07:24:42.322Z</time>
      </trkpt>
      <trkpt lat="48.62004" lon="-4.56301">
        <ele>4</ele>
        <time>2026-05-17T07:24:46.623Z</time>
      </trkpt>
      <trkpt lat="48.61998" lon="-4.56309">
        <ele>4</ele>
        <time>2026-05-17T07:24:51.178Z</time>
      </trkpt>
      <trkpt lat="48.61994" lon="-4.56313">
        <ele>4</ele>
        <time>2026-05-17T07:24:55.241Z</time>
      </trkpt>
      <trkpt lat="48.61989" lon="-4.56316">
        <ele>4</ele>
        <time>2026-05-17T07:24:59.804Z</time>
      </trkpt>
      <trkpt lat="48.61984" lon="-4.56319">
        <ele>5</ele>
        <time>2026-05-17T07:25:04.461Z</time>
      </trkpt>
      <trkpt lat="48.6198" lon="-4.5632">
        <ele>4</ele>
        <time>2026-05-17T07:25:08.480Z</time>
      </trkpt>
      <trkpt lat="48.61975" lon="-4.56322">
        <ele>4</ele>
        <time>2026-05-17T07:25:12.643Z</time>
      </trkpt>
      <trkpt lat="48.61969" lon="-4.56318">
        <ele>5</ele>
        <time>2026-05-17T07:25:36.877Z</time>
      </trkpt>
      <trkpt lat="48.61968" lon="-4.56319">
        <ele>5</ele>
        <time>2026-05-17T07:25:41.582Z</time>
      </trkpt>
      <trkpt lat="48.61967" lon="-4.56321">
        <ele>4</ele>
        <time>2026-05-17T07:25:45.877Z</time>
      </trkpt>
      <trkpt lat="48.61963" lon="-4.56326">
        <ele>4</ele>
        <time>2026-05-17T07:25:50.301Z</time>
      </trkpt>
      <trkpt lat="48.61959" lon="-4.56331">
        <ele>4</ele>
        <time>2026-05-17T07:25:54.439Z</time>
      </trkpt>
      <trkpt lat="48.61955" lon="-4.56335">
        <ele>4</ele>
        <time>2026-05-17T07:25:58.620Z</time>
      </trkpt>
      <trkpt lat="48.61951" lon="-4.56339">
        <ele>4</ele>
        <time>2026-05-17T07:26:02.878Z</time>
      </trkpt>
      <trkpt lat="48.61949" lon="-4.56343">
        <ele>4</ele>
        <time>2026-05-17T07:26:07.381Z</time>
      </trkpt>
      <trkpt lat="48.61946" lon="-4.56348">
        <ele>3</ele>
        <time>2026-05-17T07:26:11.877Z</time>
      </trkpt>
      <trkpt lat="48.61942" lon="-4.56353">
        <ele>3</ele>
        <time>2026-05-17T07:26:16.443Z</time>
      </trkpt>
      <trkpt lat="48.61938" lon="-4.56357">
        <ele>3</ele>
        <time>2026-05-17T07:26:20.657Z</time>
      </trkpt>
      <trkpt lat="48.61934" lon="-4.56361">
        <ele>3</ele>
        <time>2026-05-17T07:26:24.836Z</time>
      </trkpt>
      <trkpt lat="48.6193" lon="-4.56366">
        <ele>3</ele>
        <time>2026-05-17T07:26:28.863Z</time>
      </trkpt>
      <trkpt lat="48.61927" lon="-4.56372">
        <ele>3</ele>
        <time>2026-05-17T07:26:32.877Z</time>
      </trkpt>
      <trkpt lat="48.61925" lon="-4.56379">
        <ele>3</ele>
        <time>2026-05-17T07:26:37.201Z</time>
      </trkpt>
      <trkpt lat="48.61924" lon="-4.56385">
        <ele>3</ele>
        <time>2026-05-17T07:26:41.422Z</time>
      </trkpt>
      <trkpt lat="48.61922" lon="-4.56392">
        <ele>3</ele>
        <time>2026-05-17T07:26:45.877Z</time>
      </trkpt>
      <trkpt lat="48.61919" lon="-4.56398">
        <ele>3</ele>
        <time>2026-05-17T07:26:50.456Z</time>
      </trkpt>
      <trkpt lat="48.61917" lon="-4.56403">
        <ele>2</ele>
        <time>2026-05-17T07:26:54.637Z</time>
      </trkpt>
      <trkpt lat="48.61914" lon="-4.56408">
        <ele>2</ele>
        <time>2026-05-17T07:26:58.877Z</time>
      </trkpt>
      <trkpt lat="48.61912" lon="-4.56414">
        <ele>2</ele>
        <time>2026-05-17T07:27:03.236Z</time>
      </trkpt>
      <trkpt lat="48.61909" lon="-4.5642">
        <ele>2</ele>
        <time>2026-05-17T07:27:07.742Z</time>
      </trkpt>
      <trkpt lat="48.61907" lon="-4.56426">
        <ele>2</ele>
        <time>2026-05-17T07:27:11.836Z</time>
      </trkpt>
      <trkpt lat="48.61904" lon="-4.56432">
        <ele>1</ele>
        <time>2026-05-17T07:27:16.263Z</time>
      </trkpt>
      <trkpt lat="48.61901" lon="-4.56437">
        <ele>4</ele>
        <time>2026-05-17T07:27:20.521Z</time>
      </trkpt>
      <trkpt lat="48.61899" lon="-4.56444">
        <ele>4</ele>
        <time>2026-05-17T07:27:24.863Z</time>
      </trkpt>
      <trkpt lat="48.61896" lon="-4.5645">
        <ele>4</ele>
        <time>2026-05-17T07:27:29.299Z</time>
      </trkpt>
      <trkpt lat="48.61894" lon="-4.56455">
        <ele>4</ele>
        <time>2026-05-17T07:27:33.779Z</time>
      </trkpt>
      <trkpt lat="48.61891" lon="-4.56461">
        <ele>2</ele>
        <time>2026-05-17T07:27:37.877Z</time>
      </trkpt>
      <trkpt lat="48.61889" lon="-4.56468">
        <ele>2</ele>
        <time>2026-05-17T07:27:42.300Z</time>
      </trkpt>
      <trkpt lat="48.61887" lon="-4.56473">
        <ele>2</ele>
        <time>2026-05-17T07:27:46.379Z</time>
      </trkpt>
      <trkpt lat="48.61884" lon="-4.5648">
        <ele>2</ele>
        <time>2026-05-17T07:27:50.781Z</time>
      </trkpt>
      <trkpt lat="48.61881" lon="-4.56487">
        <ele>2</ele>
        <time>2026-05-17T07:27:55.455Z</time>
      </trkpt>
      <trkpt lat="48.6188" lon="-4.56494">
        <ele>2</ele>
        <time>2026-05-17T07:27:59.783Z</time>
      </trkpt>
      <trkpt lat="48.61878" lon="-4.565">
        <ele>2</ele>
        <time>2026-05-17T07:28:04.218Z</time>
      </trkpt>
      <trkpt lat="48.61876" lon="-4.56507">
        <ele>2</ele>
        <time>2026-05-17T07:28:08.382Z</time>
      </trkpt>
      <trkpt lat="48.61875" lon="-4.56514">
        <ele>4</ele>
        <time>2026-05-17T07:28:12.682Z</time>
      </trkpt>
      <trkpt lat="48.61873" lon="-4.56521">
        <ele>4</ele>
        <time>2026-05-17T07:28:16.776Z</time>
      </trkpt>
      <trkpt lat="48.61872" lon="-4.56527">
        <ele>4</ele>
        <time>2026-05-17T07:28:20.877Z</time>
      </trkpt>
      <trkpt lat="48.61871" lon="-4.56535">
        <ele>4</ele>
        <time>2026-05-17T07:28:25.163Z</time>
      </trkpt>
      <trkpt lat="48.61869" lon="-4.56541">
        <ele>4</ele>
        <time>2026-05-17T07:28:29.376Z</time>
      </trkpt>
      <trkpt lat="48.61868" lon="-4.56548">
        <ele>3</ele>
        <time>2026-05-17T07:28:33.557Z</time>
      </trkpt>
      <trkpt lat="48.61868" lon="-4.56555">
        <ele>3</ele>
        <time>2026-05-17T07:28:37.661Z</time>
      </trkpt>
      <trkpt lat="48.61867" lon="-4.56562">
        <ele>3</ele>
        <time>2026-05-17T07:28:41.704Z</time>
      </trkpt>
      <trkpt lat="48.61866" lon="-4.56568">
        <ele>3</ele>
        <time>2026-05-17T07:28:45.784Z</time>
      </trkpt>
      <trkpt lat="48.61867" lon="-4.56575">
        <ele>2</ele>
        <time>2026-05-17T07:28:50.261Z</time>
      </trkpt>
      <trkpt lat="48.61866" lon="-4.56582">
        <ele>2</ele>
        <time>2026-05-17T07:28:54.441Z</time>
      </trkpt>
      <trkpt lat="48.61867" lon="-4.56589">
        <ele>2</ele>
        <time>2026-05-17T07:28:58.845Z</time>
      </trkpt>
      <trkpt lat="48.61868" lon="-4.56597">
        <ele>2</ele>
        <time>2026-05-17T07:29:03.280Z</time>
      </trkpt>
      <trkpt lat="48.6187" lon="-4.56604">
        <ele>2</ele>
        <time>2026-05-17T07:29:07.580Z</time>
      </trkpt>
      <trkpt lat="48.61873" lon="-4.56609">
        <ele>2</ele>
        <time>2026-05-17T07:29:11.877Z</time>
      </trkpt>
      <trkpt lat="48.61875" lon="-4.56616">
        <ele>-1</ele>
        <time>2026-05-17T07:29:16.444Z</time>
      </trkpt>
      <trkpt lat="48.61878" lon="-4.56622">
        <ele>-1</ele>
        <time>2026-05-17T07:29:20.599Z</time>
      </trkpt>
      <trkpt lat="48.61882" lon="-4.56628">
        <ele>1</ele>
        <time>2026-05-17T07:29:24.877Z</time>
      </trkpt>
      <trkpt lat="48.61885" lon="-4.56634">
        <ele>1</ele>
        <time>2026-05-17T07:29:29.137Z</time>
      </trkpt>
      <trkpt lat="48.61888" lon="-4.56639">
        <ele>1</ele>
        <time>2026-05-17T07:29:33.437Z</time>
      </trkpt>
      <trkpt lat="48.61891" lon="-4.56645">
        <ele>1</ele>
        <time>2026-05-17T07:29:37.524Z</time>
      </trkpt>
      <trkpt lat="48.61893" lon="-4.56651">
        <ele>1</ele>
        <time>2026-05-17T07:29:41.764Z</time>
      </trkpt>
      <trkpt lat="48.61896" lon="-4.56658">
        <ele>4</ele>
        <time>2026-05-17T07:29:45.877Z</time>
      </trkpt>
      <trkpt lat="48.61898" lon="-4.56664">
        <ele>4</ele>
        <time>2026-05-17T07:29:50.336Z</time>
      </trkpt>
      <trkpt lat="48.61901" lon="-4.5667">
        <ele>4</ele>
        <time>2026-05-17T07:29:54.722Z</time>
      </trkpt>
      <trkpt lat="48.61904" lon="-4.56675">
        <ele>2</ele>
        <time>2026-05-17T07:29:58.877Z</time>
      </trkpt>
      <trkpt lat="48.61907" lon="-4.5668">
        <ele>2</ele>
        <time>2026-05-17T07:30:02.906Z</time>
      </trkpt>
      <trkpt lat="48.61909" lon="-4.56686">
        <ele>3</ele>
        <time>2026-05-17T07:30:07.048Z</time>
      </trkpt>
      <trkpt lat="48.61912" lon="-4.56692">
        <ele>3</ele>
        <time>2026-05-17T07:30:11.357Z</time>
      </trkpt>
      <trkpt lat="48.61914" lon="-4.56698">
        <ele>3</ele>
        <time>2026-05-17T07:30:15.503Z</time>
      </trkpt>
      <trkpt lat="48.61917" lon="-4.56704">
        <ele>3</ele>
        <time>2026-05-17T07:30:19.642Z</time>
      </trkpt>
      <trkpt lat="48.61919" lon="-4.56711">
        <ele>4</ele>
        <time>2026-05-17T07:30:23.744Z</time>
      </trkpt>
      <trkpt lat="48.61921" lon="-4.56717">
        <ele>4</ele>
        <time>2026-05-17T07:30:27.877Z</time>
      </trkpt>
      <trkpt lat="48.61923" lon="-4.56723">
        <ele>4</ele>
        <time>2026-05-17T07:30:32.041Z</time>
      </trkpt>
      <trkpt lat="48.61925" lon="-4.5673">
        <ele>4</ele>
        <time>2026-05-17T07:30:36.200Z</time>
      </trkpt>
      <trkpt lat="48.61928" lon="-4.56737">
        <ele>5</ele>
        <time>2026-05-17T07:30:40.883Z</time>
      </trkpt>
      <trkpt lat="48.61931" lon="-4.56744">
        <ele>6</ele>
        <time>2026-05-17T07:30:45.063Z</time>
      </trkpt>
      <trkpt lat="48.61933" lon="-4.5675">
        <ele>6</ele>
        <time>2026-05-17T07:30:49.201Z</time>
      </trkpt>
      <trkpt lat="48.61936" lon="-4.56756">
        <ele>6</ele>
        <time>2026-05-17T07:30:53.303Z</time>
      </trkpt>
      <trkpt lat="48.61938" lon="-4.56762">
        <ele>6</ele>
        <time>2026-05-17T07:30:57.604Z</time>
      </trkpt>
      <trkpt lat="48.61942" lon="-4.56767">
        <ele>7</ele>
        <time>2026-05-17T07:31:01.682Z</time>
      </trkpt>
      <trkpt lat="48.61945" lon="-4.56772">
        <ele>7</ele>
        <time>2026-05-17T07:31:05.719Z</time>
      </trkpt>
      <trkpt lat="48.61949" lon="-4.56777">
        <ele>7</ele>
        <time>2026-05-17T07:31:09.802Z</time>
      </trkpt>
      <trkpt lat="48.61953" lon="-4.56781">
        <ele>7</ele>
        <time>2026-05-17T07:31:13.877Z</time>
      </trkpt>
      <trkpt lat="48.61957" lon="-4.56786">
        <ele>7</ele>
        <time>2026-05-17T07:31:18.137Z</time>
      </trkpt>
      <trkpt lat="48.6196" lon="-4.56791">
        <ele>6</ele>
        <time>2026-05-17T07:31:22.378Z</time>
      </trkpt>
      <trkpt lat="48.61963" lon="-4.56798">
        <ele>6</ele>
        <time>2026-05-17T07:31:26.877Z</time>
      </trkpt>
      <trkpt lat="48.61966" lon="-4.56806">
        <ele>6</ele>
        <time>2026-05-17T07:31:31.540Z</time>
      </trkpt>
      <trkpt lat="48.61969" lon="-4.56812">
        <ele>6</ele>
        <time>2026-05-17T07:31:35.584Z</time>
      </trkpt>
      <trkpt lat="48.61972" lon="-4.56818">
        <ele>6</ele>
        <time>2026-05-17T07:31:39.877Z</time>
      </trkpt>
      <trkpt lat="48.61975" lon="-4.56823">
        <ele>5</ele>
        <time>2026-05-17T07:31:44.217Z</time>
      </trkpt>
      <trkpt lat="48.6198" lon="-4.56828">
        <ele>5</ele>
        <time>2026-05-17T07:31:48.725Z</time>
      </trkpt>
      <trkpt lat="48.61984" lon="-4.56834">
        <ele>5</ele>
        <time>2026-05-17T07:31:52.858Z</time>
      </trkpt>
      <trkpt lat="48.61987" lon="-4.56838">
        <ele>3</ele>
        <time>2026-05-17T07:31:56.963Z</time>
      </trkpt>
      <trkpt lat="48.61991" lon="-4.56843">
        <ele>3</ele>
        <time>2026-05-17T07:32:01.177Z</time>
      </trkpt>
      <trkpt lat="48.61995" lon="-4.56848">
        <ele>3</ele>
        <time>2026-05-17T07:32:05.239Z</time>
      </trkpt>
      <trkpt lat="48.61999" lon="-4.56853">
        <ele>3</ele>
        <time>2026-05-17T07:32:09.404Z</time>
      </trkpt>
      <trkpt lat="48.62003" lon="-4.56859">
        <ele>3</ele>
        <time>2026-05-17T07:32:13.877Z</time>
      </trkpt>
      <trkpt lat="48.62007" lon="-4.56865">
        <ele>3</ele>
        <time>2026-05-17T07:32:18.180Z</time>
      </trkpt>
      <trkpt lat="48.6201" lon="-4.5687">
        <ele>3</ele>
        <time>2026-05-17T07:32:22.657Z</time>
      </trkpt>
      <trkpt lat="48.62011" lon="-4.56876">
        <ele>3</ele>
        <time>2026-05-17T07:32:26.877Z</time>
      </trkpt>
      <trkpt lat="48.62009" lon="-4.56884">
        <ele>3</ele>
        <time>2026-05-17T07:32:31.804Z</time>
      </trkpt>
      <trkpt lat="48.62007" lon="-4.5689">
        <ele>3</ele>
        <time>2026-05-17T07:32:36.298Z</time>
      </trkpt>
      <trkpt lat="48.62007" lon="-4.56897">
        <ele>3</ele>
        <time>2026-05-17T07:32:40.504Z</time>
      </trkpt>
      <trkpt lat="48.62008" lon="-4.56901">
        <ele>3</ele>
        <time>2026-05-17T07:32:45.242Z</time>
      </trkpt>
      <trkpt lat="48.62007" lon="-4.56903">
        <ele>2</ele>
        <time>2026-05-17T07:32:56.877Z</time>
      </trkpt>
      <trkpt lat="48.62006" lon="-4.56907">
        <ele>2</ele>
        <time>2026-05-17T07:33:00.877Z</time>
      </trkpt>
      <trkpt lat="48.62001" lon="-4.56916">
        <ele>2</ele>
        <time>2026-05-17T07:33:05.445Z</time>
      </trkpt>
      <trkpt lat="48.61996" lon="-4.56917">
        <ele>2</ele>
        <time>2026-05-17T07:33:09.463Z</time>
      </trkpt>
      <trkpt lat="48.6199" lon="-4.56915">
        <ele>2</ele>
        <time>2026-05-17T07:33:13.746Z</time>
      </trkpt>
      <trkpt lat="48.61985" lon="-4.56914">
        <ele>2</ele>
        <time>2026-05-17T07:33:17.841Z</time>
      </trkpt>
      <trkpt lat="48.61981" lon="-4.56914">
        <ele>2</ele>
        <time>2026-05-17T07:33:22.388Z</time>
      </trkpt>
      <trkpt lat="48.61976" lon="-4.56915">
        <ele>2</ele>
        <time>2026-05-17T07:33:26.877Z</time>
      </trkpt>
      <trkpt lat="48.61971" lon="-4.56916">
        <ele>2</ele>
        <time>2026-05-17T07:33:31.878Z</time>
      </trkpt>
      <trkpt lat="48.61971" lon="-4.56918">
        <ele>2</ele>
        <time>2026-05-17T07:33:36.687Z</time>
      </trkpt>
      <trkpt lat="48.61965" lon="-4.56922">
        <ele>2</ele>
        <time>2026-05-17T07:33:41.201Z</time>
      </trkpt>
      <trkpt lat="48.6196" lon="-4.56926">
        <ele>2</ele>
        <time>2026-05-17T07:33:45.843Z</time>
      </trkpt>
      <trkpt lat="48.61956" lon="-4.5693">
        <ele>4</ele>
        <time>2026-05-17T07:33:49.877Z</time>
      </trkpt>
      <trkpt lat="48.61951" lon="-4.56934">
        <ele>3</ele>
        <time>2026-05-17T07:33:54.366Z</time>
      </trkpt>
      <trkpt lat="48.61946" lon="-4.56937">
        <ele>3</ele>
        <time>2026-05-17T07:33:58.861Z</time>
      </trkpt>
      <trkpt lat="48.61941" lon="-4.56938">
        <ele>3</ele>
        <time>2026-05-17T07:34:02.877Z</time>
      </trkpt>
      <trkpt lat="48.61936" lon="-4.56939">
        <ele>3</ele>
        <time>2026-05-17T07:34:07.461Z</time>
      </trkpt>
      <trkpt lat="48.6193" lon="-4.56938">
        <ele>3</ele>
        <time>2026-05-17T07:34:11.877Z</time>
      </trkpt>
      <trkpt lat="48.61924" lon="-4.56938">
        <ele>3</ele>
        <time>2026-05-17T07:34:16.606Z</time>
      </trkpt>
      <trkpt lat="48.6192" lon="-4.56939">
        <ele>3</ele>
        <time>2026-05-17T07:34:20.609Z</time>
      </trkpt>
      <trkpt lat="48.61915" lon="-4.56939">
        <ele>3</ele>
        <time>2026-05-17T07:34:24.763Z</time>
      </trkpt>
      <trkpt lat="48.61909" lon="-4.56938">
        <ele>3</ele>
        <time>2026-05-17T07:34:29.878Z</time>
      </trkpt>
      <trkpt lat="48.61904" lon="-4.56938">
        <ele>3</ele>
        <time>2026-05-17T07:34:33.877Z</time>
      </trkpt>
      <trkpt lat="48.61898" lon="-4.56939">
        <ele>1</ele>
        <time>2026-05-17T07:34:38.523Z</time>
      </trkpt>
      <trkpt lat="48.61893" lon="-4.5694">
        <ele>1</ele>
        <time>2026-05-17T07:34:43.063Z</time>
      </trkpt>
      <trkpt lat="48.61887" lon="-4.56939">
        <ele>1</ele>
        <time>2026-05-17T07:34:47.524Z</time>
      </trkpt>
      <trkpt lat="48.61882" lon="-4.56939">
        <ele>1</ele>
        <time>2026-05-17T07:34:51.807Z</time>
      </trkpt>
      <trkpt lat="48.61877" lon="-4.56938">
        <ele>1</ele>
        <time>2026-05-17T07:34:55.877Z</time>
      </trkpt>
      <trkpt lat="48.61872" lon="-4.5694">
        <ele>2</ele>
        <time>2026-05-17T07:35:00.466Z</time>
      </trkpt>
      <trkpt lat="48.61867" lon="-4.56943">
        <ele>2</ele>
        <time>2026-05-17T07:35:04.543Z</time>
      </trkpt>
      <trkpt lat="48.61862" lon="-4.56943">
        <ele>2</ele>
        <time>2026-05-17T07:35:08.877Z</time>
      </trkpt>
      <trkpt lat="48.61857" lon="-4.56941">
        <ele>2</ele>
        <time>2026-05-17T07:35:13.441Z</time>
      </trkpt>
      <trkpt lat="48.61852" lon="-4.5694">
        <ele>2</ele>
        <time>2026-05-17T07:35:17.844Z</time>
      </trkpt>
      <trkpt lat="48.61847" lon="-4.56938">
        <ele>2</ele>
        <time>2026-05-17T07:35:21.877Z</time>
      </trkpt>
      <trkpt lat="48.61843" lon="-4.56937">
        <ele>3</ele>
        <time>2026-05-17T07:35:26.426Z</time>
      </trkpt>
      <trkpt lat="48.61837" lon="-4.56935">
        <ele>3</ele>
        <time>2026-05-17T07:35:30.503Z</time>
      </trkpt>
      <trkpt lat="48.61832" lon="-4.56935">
        <ele>3</ele>
        <time>2026-05-17T07:35:34.744Z</time>
      </trkpt>
      <trkpt lat="48.61827" lon="-4.56935">
        <ele>3</ele>
        <time>2026-05-17T07:35:38.864Z</time>
      </trkpt>
      <trkpt lat="48.61822" lon="-4.56934">
        <ele>3</ele>
        <time>2026-05-17T07:35:42.877Z</time>
      </trkpt>
      <trkpt lat="48.61818" lon="-4.56931">
        <ele>2</ele>
        <time>2026-05-17T07:35:47.062Z</time>
      </trkpt>
      <trkpt lat="48.61813" lon="-4.56928">
        <ele>5</ele>
        <time>2026-05-17T07:35:51.345Z</time>
      </trkpt>
      <trkpt lat="48.61808" lon="-4.56924">
        <ele>5</ele>
        <time>2026-05-17T07:35:55.877Z</time>
      </trkpt>
      <trkpt lat="48.61804" lon="-4.5692">
        <ele>5</ele>
        <time>2026-05-17T07:36:00.225Z</time>
      </trkpt>
      <trkpt lat="48.618" lon="-4.56917">
        <ele>5</ele>
        <time>2026-05-17T07:36:04.423Z</time>
      </trkpt>
      <trkpt lat="48.61794" lon="-4.56917">
        <ele>5</ele>
        <time>2026-05-17T07:36:08.878Z</time>
      </trkpt>
      <trkpt lat="48.61789" lon="-4.56917">
        <ele>6</ele>
        <time>2026-05-17T07:36:12.945Z</time>
      </trkpt>
      <trkpt lat="48.61784" lon="-4.56918">
        <ele>6</ele>
        <time>2026-05-17T07:36:17.527Z</time>
      </trkpt>
      <trkpt lat="48.61778" lon="-4.56919">
        <ele>6</ele>
        <time>2026-05-17T07:36:21.681Z</time>
      </trkpt>
      <trkpt lat="48.61773" lon="-4.5692">
        <ele>6</ele>
        <time>2026-05-17T07:36:25.802Z</time>
      </trkpt>
      <trkpt lat="48.61768" lon="-4.56919">
        <ele>6</ele>
        <time>2026-05-17T07:36:30.143Z</time>
      </trkpt>
      <trkpt lat="48.61763" lon="-4.56919">
        <ele>6</ele>
        <time>2026-05-17T07:36:34.409Z</time>
      </trkpt>
      <trkpt lat="48.61758" lon="-4.5692">
        <ele>6</ele>
        <time>2026-05-17T07:36:38.877Z</time>
      </trkpt>
      <trkpt lat="48.61754" lon="-4.56923">
        <ele>6</ele>
        <time>2026-05-17T07:36:43.009Z</time>
      </trkpt>
      <trkpt lat="48.61749" lon="-4.56926">
        <ele>6</ele>
        <time>2026-05-17T07:36:47.547Z</time>
      </trkpt>
      <trkpt lat="48.61744" lon="-4.56927">
        <ele>6</ele>
        <time>2026-05-17T07:36:51.728Z</time>
      </trkpt>
      <trkpt lat="48.61739" lon="-4.56928">
        <ele>6</ele>
        <time>2026-05-17T07:36:55.806Z</time>
      </trkpt>
      <trkpt lat="48.61735" lon="-4.56931">
        <ele>4</ele>
        <time>2026-05-17T07:36:59.877Z</time>
      </trkpt>
      <trkpt lat="48.61729" lon="-4.56933">
        <ele>4</ele>
        <time>2026-05-17T07:37:04.490Z</time>
      </trkpt>
      <trkpt lat="48.61723" lon="-4.56934">
        <ele>4</ele>
        <time>2026-05-17T07:37:08.877Z</time>
      </trkpt>
      <trkpt lat="48.61718" lon="-4.56935">
        <ele>4</ele>
        <time>2026-05-17T07:37:13.464Z</time>
      </trkpt>
      <trkpt lat="48.61712" lon="-4.56936">
        <ele>4</ele>
        <time>2026-05-17T07:37:17.877Z</time>
      </trkpt>
      <trkpt lat="48.61706" lon="-4.56936">
        <ele>4</ele>
        <time>2026-05-17T07:37:22.626Z</time>
      </trkpt>
      <trkpt lat="48.61701" lon="-4.56935">
        <ele>4</ele>
        <time>2026-05-17T07:37:26.661Z</time>
      </trkpt>
      <trkpt lat="48.61696" lon="-4.56935">
        <ele>4</ele>
        <time>2026-05-17T07:37:30.781Z</time>
      </trkpt>
      <trkpt lat="48.61692" lon="-4.56931">
        <ele>4</ele>
        <time>2026-05-17T07:37:34.807Z</time>
      </trkpt>
      <trkpt lat="48.61689" lon="-4.56925">
        <ele>5</ele>
        <time>2026-05-17T07:37:38.877Z</time>
      </trkpt>
      <trkpt lat="48.61686" lon="-4.56919">
        <ele>5</ele>
        <time>2026-05-17T07:37:43.324Z</time>
      </trkpt>
      <trkpt lat="48.61683" lon="-4.56914">
        <ele>5</ele>
        <time>2026-05-17T07:37:47.767Z</time>
      </trkpt>
      <trkpt lat="48.61679" lon="-4.5691">
        <ele>2</ele>
        <time>2026-05-17T07:37:51.885Z</time>
      </trkpt>
      <trkpt lat="48.61675" lon="-4.56906">
        <ele>2</ele>
        <time>2026-05-17T07:37:55.877Z</time>
      </trkpt>
      <trkpt lat="48.61672" lon="-4.56898">
        <ele>3</ele>
        <time>2026-05-17T07:38:00.366Z</time>
      </trkpt>
      <trkpt lat="48.61671" lon="-4.5689">
        <ele>3</ele>
        <time>2026-05-17T07:38:04.384Z</time>
      </trkpt>
      <trkpt lat="48.61669" lon="-4.56884">
        <ele>3</ele>
        <time>2026-05-17T07:38:08.463Z</time>
      </trkpt>
      <trkpt lat="48.61667" lon="-4.56877">
        <ele>3</ele>
        <time>2026-05-17T07:38:12.464Z</time>
      </trkpt>
      <trkpt lat="48.61665" lon="-4.5687">
        <ele>4</ele>
        <time>2026-05-17T07:38:16.668Z</time>
      </trkpt>
      <trkpt lat="48.61663" lon="-4.56861">
        <ele>4</ele>
        <time>2026-05-17T07:38:21.104Z</time>
      </trkpt>
      <trkpt lat="48.61662" lon="-4.56854">
        <ele>4</ele>
        <time>2026-05-17T07:38:25.063Z</time>
      </trkpt>
      <trkpt lat="48.61661" lon="-4.56847">
        <ele>4</ele>
        <time>2026-05-17T07:38:29.481Z</time>
      </trkpt>
      <trkpt lat="48.61659" lon="-4.56839">
        <ele>4</ele>
        <time>2026-05-17T07:38:33.877Z</time>
      </trkpt>
      <trkpt lat="48.61656" lon="-4.56831">
        <ele>4</ele>
        <time>2026-05-17T07:38:38.225Z</time>
      </trkpt>
      <trkpt lat="48.61653" lon="-4.56825">
        <ele>4</ele>
        <time>2026-05-17T07:38:42.303Z</time>
      </trkpt>
      <trkpt lat="48.61651" lon="-4.5682">
        <ele>1</ele>
        <time>2026-05-17T07:38:46.321Z</time>
      </trkpt>
      <trkpt lat="48.61648" lon="-4.56812">
        <ele>1</ele>
        <time>2026-05-17T07:38:50.428Z</time>
      </trkpt>
      <trkpt lat="48.61646" lon="-4.56806">
        <ele>1</ele>
        <time>2026-05-17T07:38:54.605Z</time>
      </trkpt>
      <trkpt lat="48.61643" lon="-4.56799">
        <ele>1</ele>
        <time>2026-05-17T07:38:59.076Z</time>
      </trkpt>
      <trkpt lat="48.61642" lon="-4.56792">
        <ele>1</ele>
        <time>2026-05-17T07:39:03.103Z</time>
      </trkpt>
      <trkpt lat="48.61641" lon="-4.56785">
        <ele>1</ele>
        <time>2026-05-17T07:39:07.267Z</time>
      </trkpt>
      <trkpt lat="48.61641" lon="-4.56778">
        <ele>1</ele>
        <time>2026-05-17T07:39:11.325Z</time>
      </trkpt>
      <trkpt lat="48.61642" lon="-4.5677">
        <ele>1</ele>
        <time>2026-05-17T07:39:15.489Z</time>
      </trkpt>
      <trkpt lat="48.61644" lon="-4.56764">
        <ele>1</ele>
        <time>2026-05-17T07:39:19.624Z</time>
      </trkpt>
      <trkpt lat="48.61645" lon="-4.56757">
        <ele>1</ele>
        <time>2026-05-17T07:39:23.669Z</time>
      </trkpt>
      <trkpt lat="48.61648" lon="-4.5675">
        <ele>1</ele>
        <time>2026-05-17T07:39:27.877Z</time>
      </trkpt>
      <trkpt lat="48.61651" lon="-4.56743">
        <ele>1</ele>
        <time>2026-05-17T07:39:32.166Z</time>
      </trkpt>
      <trkpt lat="48.61654" lon="-4.56736">
        <ele>4</ele>
        <time>2026-05-17T07:39:36.876Z</time>
      </trkpt>
      <trkpt lat="48.61659" lon="-4.56731">
        <ele>3</ele>
        <time>2026-05-17T07:39:41.208Z</time>
      </trkpt>
      <trkpt lat="48.61664" lon="-4.56729">
        <ele>3</ele>
        <time>2026-05-17T07:39:45.465Z</time>
      </trkpt>
      <trkpt lat="48.61668" lon="-4.56726">
        <ele>3</ele>
        <time>2026-05-17T07:39:49.876Z</time>
      </trkpt>
      <trkpt lat="48.61673" lon="-4.56722">
        <ele>3</ele>
        <time>2026-05-17T07:39:54.141Z</time>
      </trkpt>
      <trkpt lat="48.61678" lon="-4.56716">
        <ele>3</ele>
        <time>2026-05-17T07:39:58.876Z</time>
      </trkpt>
      <trkpt lat="48.61681" lon="-4.5671">
        <ele>5</ele>
        <time>2026-05-17T07:40:03.302Z</time>
      </trkpt>
      <trkpt lat="48.61685" lon="-4.56705">
        <ele>4</ele>
        <time>2026-05-17T07:40:07.449Z</time>
      </trkpt>
      <trkpt lat="48.61689" lon="-4.56699">
        <ele>4</ele>
        <time>2026-05-17T07:40:11.876Z</time>
      </trkpt>
      <trkpt lat="48.61693" lon="-4.56695">
        <ele>4</ele>
        <time>2026-05-17T07:40:15.876Z</time>
      </trkpt>
      <trkpt lat="48.61696" lon="-4.56689">
        <ele>4</ele>
        <time>2026-05-17T07:40:20.108Z</time>
      </trkpt>
      <trkpt lat="48.61699" lon="-4.56683">
        <ele>4</ele>
        <time>2026-05-17T07:40:24.528Z</time>
      </trkpt>
      <trkpt lat="48.61703" lon="-4.56676">
        <ele>4</ele>
        <time>2026-05-17T07:40:29.070Z</time>
      </trkpt>
      <trkpt lat="48.61704" lon="-4.56669">
        <ele>4</ele>
        <time>2026-05-17T07:40:33.127Z</time>
      </trkpt>
      <trkpt lat="48.61706" lon="-4.5666">
        <ele>4</ele>
        <time>2026-05-17T07:40:37.623Z</time>
      </trkpt>
      <trkpt lat="48.61708" lon="-4.56652">
        <ele>4</ele>
        <time>2026-05-17T07:40:42.143Z</time>
      </trkpt>
      <trkpt lat="48.61709" lon="-4.56643">
        <ele>4</ele>
        <time>2026-05-17T07:40:46.605Z</time>
      </trkpt>
      <trkpt lat="48.6171" lon="-4.56635">
        <ele>4</ele>
        <time>2026-05-17T07:40:50.622Z</time>
      </trkpt>
      <trkpt lat="48.61712" lon="-4.56628">
        <ele>4</ele>
        <time>2026-05-17T07:40:55.033Z</time>
      </trkpt>
      <trkpt lat="48.61712" lon="-4.56621">
        <ele>4</ele>
        <time>2026-05-17T07:40:59.306Z</time>
      </trkpt>
      <trkpt lat="48.61712" lon="-4.56613">
        <ele>4</ele>
        <time>2026-05-17T07:41:03.649Z</time>
      </trkpt>
      <trkpt lat="48.6171" lon="-4.56605">
        <ele>4</ele>
        <time>2026-05-17T07:41:07.727Z</time>
      </trkpt>
      <trkpt lat="48.61708" lon="-4.56597">
        <ele>4</ele>
        <time>2026-05-17T07:41:11.747Z</time>
      </trkpt>
      <trkpt lat="48.61706" lon="-4.56589">
        <ele>4</ele>
        <time>2026-05-17T07:41:16.326Z</time>
      </trkpt>
      <trkpt lat="48.61705" lon="-4.56582">
        <ele>4</ele>
        <time>2026-05-17T07:41:20.404Z</time>
      </trkpt>
      <trkpt lat="48.61703" lon="-4.56574">
        <ele>4</ele>
        <time>2026-05-17T07:41:24.625Z</time>
      </trkpt>
      <trkpt lat="48.61702" lon="-4.56566">
        <ele>4</ele>
        <time>2026-05-17T07:41:29.285Z</time>
      </trkpt>
      <trkpt lat="48.617" lon="-4.56559">
        <ele>4</ele>
        <time>2026-05-17T07:41:33.876Z</time>
      </trkpt>
      <trkpt lat="48.61697" lon="-4.5655">
        <ele>4</ele>
        <time>2026-05-17T07:41:38.669Z</time>
      </trkpt>
      <trkpt lat="48.61694" lon="-4.56543">
        <ele>4</ele>
        <time>2026-05-17T07:41:43.283Z</time>
      </trkpt>
      <trkpt lat="48.61692" lon="-4.56536">
        <ele>4</ele>
        <time>2026-05-17T07:41:47.369Z</time>
      </trkpt>
      <trkpt lat="48.6169" lon="-4.56529">
        <ele>4</ele>
        <time>2026-05-17T07:41:51.567Z</time>
      </trkpt>
      <trkpt lat="48.61688" lon="-4.56522">
        <ele>4</ele>
        <time>2026-05-17T07:41:55.806Z</time>
      </trkpt>
      <trkpt lat="48.61686" lon="-4.56515">
        <ele>4</ele>
        <time>2026-05-17T07:42:00.242Z</time>
      </trkpt>
      <trkpt lat="48.61687" lon="-4.56514">
        <ele>4</ele>
        <time>2026-05-17T07:42:05.387Z</time>
      </trkpt>
      <trkpt lat="48.61684" lon="-4.56509">
        <ele>6</ele>
        <time>2026-05-17T07:42:09.549Z</time>
      </trkpt>
      <trkpt lat="48.61681" lon="-4.56501">
        <ele>6</ele>
        <time>2026-05-17T07:42:13.806Z</time>
      </trkpt>
      <trkpt lat="48.61678" lon="-4.56495">
        <ele>4</ele>
        <time>2026-05-17T07:42:18.224Z</time>
      </trkpt>
      <trkpt lat="48.61677" lon="-4.5649">
        <ele>4</ele>
        <time>2026-05-17T07:42:22.703Z</time>
      </trkpt>
      <trkpt lat="48.61676" lon="-4.56485">
        <ele>5</ele>
        <time>2026-05-17T07:42:27.123Z</time>
      </trkpt>
      <trkpt lat="48.61675" lon="-4.5648">
        <ele>5</ele>
        <time>2026-05-17T07:42:31.507Z</time>
      </trkpt>
      <trkpt lat="48.61673" lon="-4.56473">
        <ele>5</ele>
        <time>2026-05-17T07:42:35.781Z</time>
      </trkpt>
      <trkpt lat="48.61667" lon="-4.56473">
        <ele>5</ele>
        <time>2026-05-17T07:42:40.106Z</time>
      </trkpt>
      <trkpt lat="48.61663" lon="-4.56475">
        <ele>5</ele>
        <time>2026-05-17T07:42:44.292Z</time>
      </trkpt>
      <trkpt lat="48.61659" lon="-4.56475">
        <ele>5</ele>
        <time>2026-05-17T07:42:48.867Z</time>
      </trkpt>
      <trkpt lat="48.61656" lon="-4.56471">
        <ele>5</ele>
        <time>2026-05-17T07:42:53.268Z</time>
      </trkpt>
      <trkpt lat="48.61652" lon="-4.56467">
        <ele>5</ele>
        <time>2026-05-17T07:42:57.322Z</time>
      </trkpt>
      <trkpt lat="48.61648" lon="-4.56462">
        <ele>5</ele>
        <time>2026-05-17T07:43:01.467Z</time>
      </trkpt>
      <trkpt lat="48.61644" lon="-4.56458">
        <ele>5</ele>
        <time>2026-05-17T07:43:05.877Z</time>
      </trkpt>
      <trkpt lat="48.6164" lon="-4.56455">
        <ele>5</ele>
        <time>2026-05-17T07:43:10.346Z</time>
      </trkpt>
      <trkpt lat="48.61636" lon="-4.56449">
        <ele>5</ele>
        <time>2026-05-17T07:43:14.706Z</time>
      </trkpt>
      <trkpt lat="48.61631" lon="-4.56442">
        <ele>5</ele>
        <time>2026-05-17T07:43:18.876Z</time>
      </trkpt>
      <trkpt lat="48.61623" lon="-4.5643">
        <ele>4</ele>
        <time>2026-05-17T07:43:23.544Z</time>
      </trkpt>
      <trkpt lat="48.61619" lon="-4.56424">
        <ele>4</ele>
        <time>2026-05-17T07:43:27.768Z</time>
      </trkpt>
      <trkpt lat="48.61615" lon="-4.56422">
        <ele>4</ele>
        <time>2026-05-17T07:43:31.802Z</time>
      </trkpt>
      <trkpt lat="48.61611" lon="-4.56419">
        <ele>4</ele>
        <time>2026-05-17T07:43:36.128Z</time>
      </trkpt>
      <trkpt lat="48.61607" lon="-4.56415">
        <ele>4</ele>
        <time>2026-05-17T07:43:40.342Z</time>
      </trkpt>
      <trkpt lat="48.61604" lon="-4.56413">
        <ele>4</ele>
        <time>2026-05-17T07:43:44.607Z</time>
      </trkpt>
      <trkpt lat="48.61599" lon="-4.5641">
        <ele>4</ele>
        <time>2026-05-17T07:43:48.728Z</time>
      </trkpt>
      <trkpt lat="48.61596" lon="-4.56408">
        <ele>4</ele>
        <time>2026-05-17T07:43:52.876Z</time>
      </trkpt>
      <trkpt lat="48.61591" lon="-4.56405">
        <ele>4</ele>
        <time>2026-05-17T07:43:57.242Z</time>
      </trkpt>
      <trkpt lat="48.61587" lon="-4.56403">
        <ele>4</ele>
        <time>2026-05-17T07:44:01.627Z</time>
      </trkpt>
      <trkpt lat="48.61583" lon="-4.564">
        <ele>4</ele>
        <time>2026-05-17T07:44:05.884Z</time>
      </trkpt>
      <trkpt lat="48.61579" lon="-4.56397">
        <ele>4</ele>
        <time>2026-05-17T07:44:10.226Z</time>
      </trkpt>
      <trkpt lat="48.61575" lon="-4.56394">
        <ele>4</ele>
        <time>2026-05-17T07:44:14.544Z</time>
      </trkpt>
      <trkpt lat="48.61571" lon="-4.5639">
        <ele>4</ele>
        <time>2026-05-17T07:44:18.801Z</time>
      </trkpt>
      <trkpt lat="48.61568" lon="-4.56388">
        <ele>3</ele>
        <time>2026-05-17T07:44:22.876Z</time>
      </trkpt>
      <trkpt lat="48.61565" lon="-4.56386">
        <ele>3</ele>
        <time>2026-05-17T07:44:27.325Z</time>
      </trkpt>
      <trkpt lat="48.6156" lon="-4.56384">
        <ele>3</ele>
        <time>2026-05-17T07:44:31.546Z</time>
      </trkpt>
      <trkpt lat="48.61557" lon="-4.56383">
        <ele>3</ele>
        <time>2026-05-17T07:44:35.548Z</time>
      </trkpt>
      <trkpt lat="48.61552" lon="-4.56383">
        <ele>3</ele>
        <time>2026-05-17T07:44:39.567Z</time>
      </trkpt>
      <trkpt lat="48.61548" lon="-4.56382">
        <ele>3</ele>
        <time>2026-05-17T07:44:43.628Z</time>
      </trkpt>
      <trkpt lat="48.61542" lon="-4.56381">
        <ele>3</ele>
        <time>2026-05-17T07:44:47.825Z</time>
      </trkpt>
      <trkpt lat="48.61539" lon="-4.56375">
        <ele>4</ele>
        <time>2026-05-17T07:44:51.877Z</time>
      </trkpt>
      <trkpt lat="48.61535" lon="-4.56372">
        <ele>4</ele>
        <time>2026-05-17T07:44:56.246Z</time>
      </trkpt>
      <trkpt lat="48.6153" lon="-4.56371">
        <ele>4</ele>
        <time>2026-05-17T07:45:00.468Z</time>
      </trkpt>
      <trkpt lat="48.61525" lon="-4.5637">
        <ele>4</ele>
        <time>2026-05-17T07:45:04.580Z</time>
      </trkpt>
      <trkpt lat="48.6152" lon="-4.56369">
        <ele>4</ele>
        <time>2026-05-17T07:45:08.684Z</time>
      </trkpt>
      <trkpt lat="48.61514" lon="-4.56369">
        <ele>4</ele>
        <time>2026-05-17T07:45:13.266Z</time>
      </trkpt>
      <trkpt lat="48.61509" lon="-4.56369">
        <ele>4</ele>
        <time>2026-05-17T07:45:17.301Z</time>
      </trkpt>
      <trkpt lat="48.61503" lon="-4.56368">
        <ele>4</ele>
        <time>2026-05-17T07:45:21.763Z</time>
      </trkpt>
      <trkpt lat="48.61499" lon="-4.56367">
        <ele>4</ele>
        <time>2026-05-17T07:45:25.807Z</time>
      </trkpt>
      <trkpt lat="48.61494" lon="-4.56366">
        <ele>4</ele>
        <time>2026-05-17T07:45:29.945Z</time>
      </trkpt>
      <trkpt lat="48.61488" lon="-4.56366">
        <ele>4</ele>
        <time>2026-05-17T07:45:34.627Z</time>
      </trkpt>
      <trkpt lat="48.61483" lon="-4.56365">
        <ele>4</ele>
        <time>2026-05-17T07:45:38.876Z</time>
      </trkpt>
      <trkpt lat="48.61479" lon="-4.56364">
        <ele>4</ele>
        <time>2026-05-17T07:45:43.142Z</time>
      </trkpt>
      <trkpt lat="48.61473" lon="-4.56364">
        <ele>4</ele>
        <time>2026-05-17T07:45:47.845Z</time>
      </trkpt>
      <trkpt lat="48.61469" lon="-4.56365">
        <ele>4</ele>
        <time>2026-05-17T07:45:51.876Z</time>
      </trkpt>
      <trkpt lat="48.61463" lon="-4.56365">
        <ele>4</ele>
        <time>2026-05-17T07:45:56.384Z</time>
      </trkpt>
      <trkpt lat="48.61458" lon="-4.56366">
        <ele>4</ele>
        <time>2026-05-17T07:46:00.876Z</time>
      </trkpt>
      <trkpt lat="48.61452" lon="-4.56367">
        <ele>4</ele>
        <time>2026-05-17T07:46:05.486Z</time>
      </trkpt>
      <trkpt lat="48.61447" lon="-4.5637">
        <ele>4</ele>
        <time>2026-05-17T07:46:09.947Z</time>
      </trkpt>
      <trkpt lat="48.61442" lon="-4.56372">
        <ele>4</ele>
        <time>2026-05-17T07:46:14.148Z</time>
      </trkpt>
      <trkpt lat="48.61436" lon="-4.56375">
        <ele>4</ele>
        <time>2026-05-17T07:46:18.876Z</time>
      </trkpt>
      <trkpt lat="48.61431" lon="-4.56378">
        <ele>2</ele>
        <time>2026-05-17T07:46:23.146Z</time>
      </trkpt>
      <trkpt lat="48.61427" lon="-4.56384">
        <ele>7</ele>
        <time>2026-05-17T07:46:27.703Z</time>
      </trkpt>
      <trkpt lat="48.61423" lon="-4.56391">
        <ele>7</ele>
        <time>2026-05-17T07:46:31.766Z</time>
      </trkpt>
      <trkpt lat="48.61423" lon="-4.56399">
        <ele>7</ele>
        <time>2026-05-17T07:46:35.876Z</time>
      </trkpt>
      <trkpt lat="48.61423" lon="-4.56408">
        <ele>6</ele>
        <time>2026-05-17T07:46:40.404Z</time>
      </trkpt>
      <trkpt lat="48.61423" lon="-4.56417">
        <ele>6</ele>
        <time>2026-05-17T07:46:44.508Z</time>
      </trkpt>
      <trkpt lat="48.61422" lon="-4.56426">
        <ele>6</ele>
        <time>2026-05-17T07:46:49.064Z</time>
      </trkpt>
      <trkpt lat="48.61423" lon="-4.56431">
        <ele>6</ele>
        <time>2026-05-17T07:46:53.542Z</time>
      </trkpt>
      <trkpt lat="48.61421" lon="-4.5644">
        <ele>6</ele>
        <time>2026-05-17T07:46:57.664Z</time>
      </trkpt>
      <trkpt lat="48.61419" lon="-4.56447">
        <ele>6</ele>
        <time>2026-05-17T07:47:01.877Z</time>
      </trkpt>
      <trkpt lat="48.61417" lon="-4.56454">
        <ele>6</ele>
        <time>2026-05-17T07:47:06.323Z</time>
      </trkpt>
      <trkpt lat="48.61417" lon="-4.56461">
        <ele>5</ele>
        <time>2026-05-17T07:47:10.876Z</time>
      </trkpt>
      <trkpt lat="48.61415" lon="-4.56465">
        <ele>5</ele>
        <time>2026-05-17T07:47:15.366Z</time>
      </trkpt>
      <trkpt lat="48.61411" lon="-4.56468">
        <ele>5</ele>
        <time>2026-05-17T07:47:19.545Z</time>
      </trkpt>
      <trkpt lat="48.61408" lon="-4.56472">
        <ele>5</ele>
        <time>2026-05-17T07:47:23.684Z</time>
      </trkpt>
      <trkpt lat="48.61404" lon="-4.56475">
        <ele>5</ele>
        <time>2026-05-17T07:47:28.310Z</time>
      </trkpt>
      <trkpt lat="48.614" lon="-4.56479">
        <ele>6</ele>
        <time>2026-05-17T07:47:32.361Z</time>
      </trkpt>
      <trkpt lat="48.61396" lon="-4.56482">
        <ele>6</ele>
        <time>2026-05-17T07:47:36.806Z</time>
      </trkpt>
      <trkpt lat="48.61393" lon="-4.56484">
        <ele>6</ele>
        <time>2026-05-17T07:47:41.140Z</time>
      </trkpt>
      <trkpt lat="48.61389" lon="-4.56488">
        <ele>5</ele>
        <time>2026-05-17T07:47:45.798Z</time>
      </trkpt>
      <trkpt lat="48.61386" lon="-4.56491">
        <ele>5</ele>
        <time>2026-05-17T07:47:49.876Z</time>
      </trkpt>
      <trkpt lat="48.61383" lon="-4.56495">
        <ele>5</ele>
        <time>2026-05-17T07:47:53.876Z</time>
      </trkpt>
      <trkpt lat="48.61378" lon="-4.56498">
        <ele>5</ele>
        <time>2026-05-17T07:47:58.118Z</time>
      </trkpt>
      <trkpt lat="48.61374" lon="-4.56501">
        <ele>9</ele>
        <time>2026-05-17T07:48:02.314Z</time>
      </trkpt>
      <trkpt lat="48.6137" lon="-4.56504">
        <ele>9</ele>
        <time>2026-05-17T07:48:06.675Z</time>
      </trkpt>
      <trkpt lat="48.61365" lon="-4.56506">
        <ele>9</ele>
        <time>2026-05-17T07:48:10.876Z</time>
      </trkpt>
      <trkpt lat="48.6136" lon="-4.56508">
        <ele>9</ele>
        <time>2026-05-17T07:48:15.421Z</time>
      </trkpt>
      <trkpt lat="48.61356" lon="-4.56511">
        <ele>9</ele>
        <time>2026-05-17T07:48:19.856Z</time>
      </trkpt>
      <trkpt lat="48.61353" lon="-4.56513">
        <ele>9</ele>
        <time>2026-05-17T07:48:23.876Z</time>
      </trkpt>
      <trkpt lat="48.61349" lon="-4.56516">
        <ele>8</ele>
        <time>2026-05-17T07:48:28.619Z</time>
      </trkpt>
      <trkpt lat="48.61345" lon="-4.5652">
        <ele>12</ele>
        <time>2026-05-17T07:48:32.876Z</time>
      </trkpt>
      <trkpt lat="48.61341" lon="-4.56524">
        <ele>12</ele>
        <time>2026-05-17T07:48:37.278Z</time>
      </trkpt>
      <trkpt lat="48.61337" lon="-4.56528">
        <ele>12</ele>
        <time>2026-05-17T07:48:41.399Z</time>
      </trkpt>
      <trkpt lat="48.61333" lon="-4.56532">
        <ele>12</ele>
        <time>2026-05-17T07:53:52.875Z</time>
      </trkpt>
      <trkpt lat="48.61333" lon="-4.56533">
        <ele>12</ele>
        <time>2026-05-17T07:54:01.875Z</time>
      </trkpt>
      <trkpt lat="48.61333" lon="-4.56533">
        <ele>12</ele>
        <time>2026-05-17T07:54:06.093Z</time>
      </trkpt>
      <trkpt lat="48.61329" lon="-4.56538">
        <ele>12</ele>
        <time>2026-05-17T07:54:10.368Z</time>
      </trkpt>
      <trkpt lat="48.61325" lon="-4.56543">
        <ele>10</ele>
        <time>2026-05-17T07:54:14.716Z</time>
      </trkpt>
      <trkpt lat="48.61322" lon="-4.56547">
        <ele>10</ele>
        <time>2026-05-17T07:54:18.875Z</time>
      </trkpt>
      <trkpt lat="48.61319" lon="-4.56551">
        <ele>12</ele>
        <time>2026-05-17T07:54:23.553Z</time>
      </trkpt>
      <trkpt lat="48.61316" lon="-4.56555">
        <ele>12</ele>
        <time>2026-05-17T07:54:27.876Z</time>
      </trkpt>
      <trkpt lat="48.61311" lon="-4.56561">
        <ele>12</ele>
        <time>2026-05-17T07:54:32.875Z</time>
      </trkpt>
      <trkpt lat="48.61309" lon="-4.56563">
        <ele>12</ele>
        <time>2026-05-17T07:54:35.478Z</time>
      </trkpt>
      <trkpt lat="48.61305" lon="-4.56568">
        <ele>12</ele>
        <time>2026-05-17T07:54:43.876Z</time>
      </trkpt>
      <trkpt lat="48.613" lon="-4.56573">
        <ele>9</ele>
        <time>2026-05-17T07:54:48.232Z</time>
      </trkpt>
      <trkpt lat="48.61294" lon="-4.56576">
        <ele>9</ele>
        <time>2026-05-17T07:54:52.330Z</time>
      </trkpt>
      <trkpt lat="48.61291" lon="-4.56578">
        <ele>12</ele>
        <time>2026-05-17T07:54:56.866Z</time>
      </trkpt>
      <trkpt lat="48.61289" lon="-4.56582">
        <ele>12</ele>
        <time>2026-05-17T07:55:01.314Z</time>
      </trkpt>
      <trkpt lat="48.61285" lon="-4.56586">
        <ele>12</ele>
        <time>2026-05-17T07:55:05.875Z</time>
      </trkpt>
      <trkpt lat="48.61282" lon="-4.56591">
        <ele>12</ele>
        <time>2026-05-17T07:55:10.275Z</time>
      </trkpt>
      <trkpt lat="48.61279" lon="-4.56596">
        <ele>12</ele>
        <time>2026-05-17T07:55:14.514Z</time>
      </trkpt>
      <trkpt lat="48.61276" lon="-4.56601">
        <ele>10</ele>
        <time>2026-05-17T07:55:19.055Z</time>
      </trkpt>
      <trkpt lat="48.61272" lon="-4.56605">
        <ele>10</ele>
        <time>2026-05-17T07:55:23.388Z</time>
      </trkpt>
      <trkpt lat="48.61269" lon="-4.56609">
        <ele>10</ele>
        <time>2026-05-17T07:55:27.869Z</time>
      </trkpt>
      <trkpt lat="48.61266" lon="-4.56614">
        <ele>10</ele>
        <time>2026-05-17T07:55:32.274Z</time>
      </trkpt>
      <trkpt lat="48.61263" lon="-4.56619">
        <ele>12</ele>
        <time>2026-05-17T07:55:36.710Z</time>
      </trkpt>
      <trkpt lat="48.6126" lon="-4.56625">
        <ele>12</ele>
        <time>2026-05-17T07:55:41.095Z</time>
      </trkpt>
      <trkpt lat="48.61258" lon="-4.56629">
        <ele>11</ele>
        <time>2026-05-17T07:55:45.875Z</time>
      </trkpt>
      <trkpt lat="48.61252" lon="-4.56634">
        <ele>11</ele>
        <time>2026-05-17T07:55:50.415Z</time>
      </trkpt>
      <trkpt lat="48.61247" lon="-4.56638">
        <ele>11</ele>
        <time>2026-05-17T07:55:54.688Z</time>
      </trkpt>
      <trkpt lat="48.61244" lon="-4.56642">
        <ele>11</ele>
        <time>2026-05-17T07:55:58.875Z</time>
      </trkpt>
      <trkpt lat="48.61241" lon="-4.56646">
        <ele>11</ele>
        <time>2026-05-17T07:56:03.204Z</time>
      </trkpt>
      <trkpt lat="48.61237" lon="-4.5665">
        <ele>11</ele>
        <time>2026-05-17T07:56:07.514Z</time>
      </trkpt>
      <trkpt lat="48.61233" lon="-4.56654">
        <ele>12</ele>
        <time>2026-05-17T07:56:11.533Z</time>
      </trkpt>
      <trkpt lat="48.6123" lon="-4.5666">
        <ele>12</ele>
        <time>2026-05-17T07:56:16.208Z</time>
      </trkpt>
      <trkpt lat="48.61226" lon="-4.56666">
        <ele>12</ele>
        <time>2026-05-17T07:56:20.789Z</time>
      </trkpt>
      <trkpt lat="48.61222" lon="-4.56669">
        <ele>12</ele>
        <time>2026-05-17T07:56:24.875Z</time>
      </trkpt>
      <trkpt lat="48.61218" lon="-4.56671">
        <ele>12</ele>
        <time>2026-05-17T07:56:29.433Z</time>
      </trkpt>
      <trkpt lat="48.61215" lon="-4.56673">
        <ele>12</ele>
        <time>2026-05-17T07:56:33.893Z</time>
      </trkpt>
      <trkpt lat="48.61211" lon="-4.56676">
        <ele>12</ele>
        <time>2026-05-17T07:56:38.335Z</time>
      </trkpt>
      <trkpt lat="48.61207" lon="-4.56679">
        <ele>12</ele>
        <time>2026-05-17T07:56:42.787Z</time>
      </trkpt>
      <trkpt lat="48.61203" lon="-4.56682">
        <ele>12</ele>
        <time>2026-05-17T07:56:47.235Z</time>
      </trkpt>
      <trkpt lat="48.61199" lon="-4.56684">
        <ele>12</ele>
        <time>2026-05-17T07:56:51.534Z</time>
      </trkpt>
      <trkpt lat="48.61196" lon="-4.56688">
        <ele>12</ele>
        <time>2026-05-17T07:56:55.834Z</time>
      </trkpt>
      <trkpt lat="48.61192" lon="-4.56692">
        <ele>12</ele>
        <time>2026-05-17T07:57:00.033Z</time>
      </trkpt>
      <trkpt lat="48.61188" lon="-4.56696">
        <ele>12</ele>
        <time>2026-05-17T07:57:04.230Z</time>
      </trkpt>
      <trkpt lat="48.61185" lon="-4.567">
        <ele>12</ele>
        <time>2026-05-17T07:57:08.334Z</time>
      </trkpt>
      <trkpt lat="48.61181" lon="-4.56704">
        <ele>12</ele>
        <time>2026-05-17T07:57:12.507Z</time>
      </trkpt>
      <trkpt lat="48.61177" lon="-4.56709">
        <ele>13</ele>
        <time>2026-05-17T07:57:16.875Z</time>
      </trkpt>
      <trkpt lat="48.61173" lon="-4.56713">
        <ele>13</ele>
        <time>2026-05-17T07:57:21.076Z</time>
      </trkpt>
      <trkpt lat="48.61169" lon="-4.56716">
        <ele>13</ele>
        <time>2026-05-17T07:57:25.016Z</time>
      </trkpt>
      <trkpt lat="48.61165" lon="-4.56722">
        <ele>13</ele>
        <time>2026-05-17T07:57:29.230Z</time>
      </trkpt>
      <trkpt lat="48.61162" lon="-4.56726">
        <ele>13</ele>
        <time>2026-05-17T07:57:33.250Z</time>
      </trkpt>
      <trkpt lat="48.61157" lon="-4.56731">
        <ele>13</ele>
        <time>2026-05-17T07:57:37.875Z</time>
      </trkpt>
      <trkpt lat="48.61153" lon="-4.56734">
        <ele>13</ele>
        <time>2026-05-17T07:57:41.875Z</time>
      </trkpt>
      <trkpt lat="48.61148" lon="-4.56738">
        <ele>17</ele>
        <time>2026-05-17T07:57:46.389Z</time>
      </trkpt>
      <trkpt lat="48.61144" lon="-4.56741">
        <ele>17</ele>
        <time>2026-05-17T07:57:50.528Z</time>
      </trkpt>
      <trkpt lat="48.6114" lon="-4.56745">
        <ele>17</ele>
        <time>2026-05-17T07:57:54.555Z</time>
      </trkpt>
      <trkpt lat="48.61136" lon="-4.56748">
        <ele>17</ele>
        <time>2026-05-17T07:57:58.575Z</time>
      </trkpt>
      <trkpt lat="48.61131" lon="-4.56751">
        <ele>17</ele>
        <time>2026-05-17T07:58:03.114Z</time>
      </trkpt>
      <trkpt lat="48.61127" lon="-4.56754">
        <ele>17</ele>
        <time>2026-05-17T07:58:07.268Z</time>
      </trkpt>
      <trkpt lat="48.61122" lon="-4.56756">
        <ele>18</ele>
        <time>2026-05-17T07:58:11.407Z</time>
      </trkpt>
      <trkpt lat="48.61118" lon="-4.56759">
        <ele>18</ele>
        <time>2026-05-17T07:58:15.528Z</time>
      </trkpt>
      <trkpt lat="48.61114" lon="-4.56759">
        <ele>18</ele>
        <time>2026-05-17T07:58:19.854Z</time>
      </trkpt>
      <trkpt lat="48.61111" lon="-4.56752">
        <ele>18</ele>
        <time>2026-05-17T07:58:23.892Z</time>
      </trkpt>
      <trkpt lat="48.61109" lon="-4.56745">
        <ele>18</ele>
        <time>2026-05-17T07:58:28.293Z</time>
      </trkpt>
      <trkpt lat="48.61107" lon="-4.56738">
        <ele>18</ele>
        <time>2026-05-17T07:58:32.654Z</time>
      </trkpt>
      <trkpt lat="48.61105" lon="-4.56732">
        <ele>17</ele>
        <time>2026-05-17T07:58:36.773Z</time>
      </trkpt>
      <trkpt lat="48.61105" lon="-4.56726">
        <ele>17</ele>
        <time>2026-05-17T07:58:41.254Z</time>
      </trkpt>
      <trkpt lat="48.61103" lon="-4.56719">
        <ele>17</ele>
        <time>2026-05-17T07:58:45.690Z</time>
      </trkpt>
      <trkpt lat="48.61101" lon="-4.56715">
        <ele>17</ele>
        <time>2026-05-17T07:58:49.875Z</time>
      </trkpt>
      <trkpt lat="48.611" lon="-4.5671">
        <ele>17</ele>
        <time>2026-05-17T07:58:54.094Z</time>
      </trkpt>
      <trkpt lat="48.61097" lon="-4.56702">
        <ele>18</ele>
        <time>2026-05-17T07:58:58.651Z</time>
      </trkpt>
      <trkpt lat="48.61094" lon="-4.56695">
        <ele>18</ele>
        <time>2026-05-17T07:59:02.873Z</time>
      </trkpt>
      <trkpt lat="48.61093" lon="-4.56689">
        <ele>18</ele>
        <time>2026-05-17T07:59:06.895Z</time>
      </trkpt>
      <trkpt lat="48.61091" lon="-4.56682">
        <ele>18</ele>
        <time>2026-05-17T07:59:11.508Z</time>
      </trkpt>
      <trkpt lat="48.61089" lon="-4.56676">
        <ele>17</ele>
        <time>2026-05-17T07:59:16.073Z</time>
      </trkpt>
      <trkpt lat="48.61086" lon="-4.56669">
        <ele>17</ele>
        <time>2026-05-17T07:59:20.630Z</time>
      </trkpt>
      <trkpt lat="48.61084" lon="-4.56662">
        <ele>17</ele>
        <time>2026-05-17T07:59:25.152Z</time>
      </trkpt>
      <trkpt lat="48.61083" lon="-4.56656">
        <ele>17</ele>
        <time>2026-05-17T07:59:29.621Z</time>
      </trkpt>
      <trkpt lat="48.61081" lon="-4.5665">
        <ele>15</ele>
        <time>2026-05-17T07:59:33.651Z</time>
      </trkpt>
      <trkpt lat="48.61079" lon="-4.56643">
        <ele>15</ele>
        <time>2026-05-17T07:59:37.771Z</time>
      </trkpt>
      <trkpt lat="48.61077" lon="-4.56637">
        <ele>15</ele>
        <time>2026-05-17T07:59:42.115Z</time>
      </trkpt>
      <trkpt lat="48.61074" lon="-4.56631">
        <ele>15</ele>
        <time>2026-05-17T07:59:46.135Z</time>
      </trkpt>
      <trkpt lat="48.61072" lon="-4.56624">
        <ele>14</ele>
        <time>2026-05-17T07:59:50.408Z</time>
      </trkpt>
      <trkpt lat="48.6107" lon="-4.56619">
        <ele>14</ele>
        <time>2026-05-17T07:59:54.511Z</time>
      </trkpt>
      <trkpt lat="48.61068" lon="-4.56613">
        <ele>14</ele>
        <time>2026-05-17T07:59:58.574Z</time>
      </trkpt>
      <trkpt lat="48.61066" lon="-4.56607">
        <ele>14</ele>
        <time>2026-05-17T08:00:02.592Z</time>
      </trkpt>
      <trkpt lat="48.61064" lon="-4.56601">
        <ele>14</ele>
        <time>2026-05-17T08:00:06.612Z</time>
      </trkpt>
      <trkpt lat="48.61062" lon="-4.56595">
        <ele>12</ele>
        <time>2026-05-17T08:00:10.874Z</time>
      </trkpt>
      <trkpt lat="48.6106" lon="-4.56589">
        <ele>12</ele>
        <time>2026-05-17T08:00:15.168Z</time>
      </trkpt>
      <trkpt lat="48.61058" lon="-4.56584">
        <ele>12</ele>
        <time>2026-05-17T08:00:19.451Z</time>
      </trkpt>
      <trkpt lat="48.61054" lon="-4.56583">
        <ele>12</ele>
        <time>2026-05-17T08:00:23.874Z</time>
      </trkpt>
      <trkpt lat="48.6105" lon="-4.56587">
        <ele>12</ele>
        <time>2026-05-17T08:00:28.529Z</time>
      </trkpt>
      <trkpt lat="48.61048" lon="-4.56591">
        <ele>12</ele>
        <time>2026-05-17T08:00:32.770Z</time>
      </trkpt>
      <trkpt lat="48.61044" lon="-4.56596">
        <ele>12</ele>
        <time>2026-05-17T08:00:36.874Z</time>
      </trkpt>
      <trkpt lat="48.61038" lon="-4.56601">
        <ele>13</ele>
        <time>2026-05-17T08:00:49.874Z</time>
      </trkpt>
      <trkpt lat="48.61037" lon="-4.56602">
        <ele>13</ele>
        <time>2026-05-17T08:00:54.671Z</time>
      </trkpt>
      <trkpt lat="48.61033" lon="-4.56608">
        <ele>13</ele>
        <time>2026-05-17T08:00:58.811Z</time>
      </trkpt>
      <trkpt lat="48.6103" lon="-4.56612">
        <ele>13</ele>
        <time>2026-05-17T08:01:02.871Z</time>
      </trkpt>
      <trkpt lat="48.61028" lon="-4.56617">
        <ele>13</ele>
        <time>2026-05-17T08:01:07.171Z</time>
      </trkpt>
      <trkpt lat="48.61026" lon="-4.56623">
        <ele>13</ele>
        <time>2026-05-17T08:01:11.292Z</time>
      </trkpt>
      <trkpt lat="48.61025" lon="-4.5663">
        <ele>14</ele>
        <time>2026-05-17T08:01:15.875Z</time>
      </trkpt>
      <trkpt lat="48.61022" lon="-4.56637">
        <ele>14</ele>
        <time>2026-05-17T08:01:20.711Z</time>
      </trkpt>
      <trkpt lat="48.61019" lon="-4.56643">
        <ele>14</ele>
        <time>2026-05-17T08:01:25.148Z</time>
      </trkpt>
      <trkpt lat="48.61016" lon="-4.5665">
        <ele>14</ele>
        <time>2026-05-17T08:01:29.654Z</time>
      </trkpt>
      <trkpt lat="48.61014" lon="-4.56656">
        <ele>16</ele>
        <time>2026-05-17T08:01:33.875Z</time>
      </trkpt>
      <trkpt lat="48.61011" lon="-4.56661">
        <ele>13</ele>
        <time>2026-05-17T08:01:38.194Z</time>
      </trkpt>
      <trkpt lat="48.61008" lon="-4.56666">
        <ele>13</ele>
        <time>2026-05-17T08:01:42.724Z</time>
      </trkpt>
      <trkpt lat="48.61005" lon="-4.56671">
        <ele>13</ele>
        <time>2026-05-17T08:01:46.874Z</time>
      </trkpt>
      <trkpt lat="48.61001" lon="-4.56675">
        <ele>13</ele>
        <time>2026-05-17T08:01:51.129Z</time>
      </trkpt>
      <trkpt lat="48.60998" lon="-4.56678">
        <ele>13</ele>
        <time>2026-05-17T08:01:55.215Z</time>
      </trkpt>
      <trkpt lat="48.60993" lon="-4.56679">
        <ele>13</ele>
        <time>2026-05-17T08:01:59.514Z</time>
      </trkpt>
      <trkpt lat="48.60989" lon="-4.56679">
        <ele>13</ele>
        <time>2026-05-17T08:02:03.537Z</time>
      </trkpt>
      <trkpt lat="48.60984" lon="-4.56679">
        <ele>10</ele>
        <time>2026-05-17T08:02:07.612Z</time>
      </trkpt>
      <trkpt lat="48.6098" lon="-4.56679">
        <ele>10</ele>
        <time>2026-05-17T08:02:11.648Z</time>
      </trkpt>
      <trkpt lat="48.60975" lon="-4.5668">
        <ele>10</ele>
        <time>2026-05-17T08:02:15.871Z</time>
      </trkpt>
      <trkpt lat="48.6097" lon="-4.5668">
        <ele>10</ele>
        <time>2026-05-17T08:02:19.933Z</time>
      </trkpt>
      <trkpt lat="48.60965" lon="-4.56682">
        <ele>10</ele>
        <time>2026-05-17T08:02:24.131Z</time>
      </trkpt>
      <trkpt lat="48.60961" lon="-4.56684">
        <ele>10</ele>
        <time>2026-05-17T08:02:28.448Z</time>
      </trkpt>
      <trkpt lat="48.60957" lon="-4.56688">
        <ele>7</ele>
        <time>2026-05-17T08:02:32.874Z</time>
      </trkpt>
      <trkpt lat="48.60954" lon="-4.56693">
        <ele>7</ele>
        <time>2026-05-17T08:02:37.388Z</time>
      </trkpt>
      <trkpt lat="48.60951" lon="-4.56699">
        <ele>7</ele>
        <time>2026-05-17T08:02:41.834Z</time>
      </trkpt>
      <trkpt lat="48.60947" lon="-4.56706">
        <ele>7</ele>
        <time>2026-05-17T08:02:46.356Z</time>
      </trkpt>
      <trkpt lat="48.60945" lon="-4.56711">
        <ele>7</ele>
        <time>2026-05-17T08:02:50.571Z</time>
      </trkpt>
      <trkpt lat="48.60943" lon="-4.56715">
        <ele>7</ele>
        <time>2026-05-17T08:02:54.874Z</time>
      </trkpt>
      <trkpt lat="48.6094" lon="-4.5672">
        <ele>7</ele>
        <time>2026-05-17T08:02:59.631Z</time>
      </trkpt>
      <trkpt lat="48.60939" lon="-4.56725">
        <ele>7</ele>
        <time>2026-05-17T08:03:03.874Z</time>
      </trkpt>
      <trkpt lat="48.60936" lon="-4.5673">
        <ele>7</ele>
        <time>2026-05-17T08:03:07.874Z</time>
      </trkpt>
      <trkpt lat="48.60934" lon="-4.56736">
        <ele>7</ele>
        <time>2026-05-17T08:03:12.115Z</time>
      </trkpt>
      <trkpt lat="48.60932" lon="-4.56742">
        <ele>8</ele>
        <time>2026-05-17T08:03:16.295Z</time>
      </trkpt>
      <trkpt lat="48.60929" lon="-4.56747">
        <ele>3</ele>
        <time>2026-05-17T08:03:20.494Z</time>
      </trkpt>
      <trkpt lat="48.60927" lon="-4.56751">
        <ele>3</ele>
        <time>2026-05-17T08:03:24.874Z</time>
      </trkpt>
      <trkpt lat="48.60923" lon="-4.56756">
        <ele>3</ele>
        <time>2026-05-17T08:03:29.229Z</time>
      </trkpt>
      <trkpt lat="48.6092" lon="-4.56761">
        <ele>3</ele>
        <time>2026-05-17T08:03:33.290Z</time>
      </trkpt>
      <trkpt lat="48.60918" lon="-4.56768">
        <ele>3</ele>
        <time>2026-05-17T08:03:37.429Z</time>
      </trkpt>
      <trkpt lat="48.60914" lon="-4.56771">
        <ele>3</ele>
        <time>2026-05-17T08:03:41.473Z</time>
      </trkpt>
      <trkpt lat="48.60908" lon="-4.56772">
        <ele>3</ele>
        <time>2026-05-17T08:04:46.876Z</time>
      </trkpt>
      <trkpt lat="48.60909" lon="-4.56771">
        <ele>3</ele>
        <time>2026-05-17T08:04:51.876Z</time>
      </trkpt>
      <trkpt lat="48.60908" lon="-4.56769">
        <ele>3</ele>
        <time>2026-05-17T08:04:55.876Z</time>
      </trkpt>
      <trkpt lat="48.60907" lon="-4.5676">
        <ele>3</ele>
        <time>2026-05-17T08:05:00.876Z</time>
      </trkpt>
      <trkpt lat="48.60906" lon="-4.56757">
        <ele>3</ele>
        <time>2026-05-17T08:05:04.876Z</time>
      </trkpt>
      <trkpt lat="48.60904" lon="-4.56754">
        <ele>3</ele>
        <time>2026-05-17T08:05:09.876Z</time>
      </trkpt>
      <trkpt lat="48.60903" lon="-4.56751">
        <ele>3</ele>
        <time>2026-05-17T08:05:14.374Z</time>
      </trkpt>
      <trkpt lat="48.60902" lon="-4.56746">
        <ele>4.4</ele>
        <time>2026-05-17T08:05:18.876Z</time>
      </trkpt>
      <trkpt lat="48.60902" lon="-4.56742">
        <ele>4.4</ele>
        <time>2026-05-17T08:05:22.876Z</time>
      </trkpt>
      <trkpt lat="48.60904" lon="-4.56736">
        <ele>4</ele>
        <time>2026-05-17T08:05:27.540Z</time>
      </trkpt>
      <trkpt lat="48.60905" lon="-4.56728">
        <ele>4</ele>
        <time>2026-05-17T08:05:32.235Z</time>
      </trkpt>
      <trkpt lat="48.60906" lon="-4.56722">
        <ele>4</ele>
        <time>2026-05-17T08:05:36.500Z</time>
      </trkpt>
      <trkpt lat="48.60906" lon="-4.56716">
        <ele>4</ele>
        <time>2026-05-17T08:05:40.782Z</time>
      </trkpt>
      <trkpt lat="48.60906" lon="-4.56712">
        <ele>4</ele>
        <time>2026-05-17T08:05:44.876Z</time>
      </trkpt>
      <trkpt lat="48.60905" lon="-4.56706">
        <ele>4</ele>
        <time>2026-05-17T08:05:49.413Z</time>
      </trkpt>
      <trkpt lat="48.60904" lon="-4.567">
        <ele>4</ele>
        <time>2026-05-17T08:05:53.876Z</time>
      </trkpt>
      <trkpt lat="48.60904" lon="-4.56694">
        <ele>4</ele>
        <time>2026-05-17T08:05:58.242Z</time>
      </trkpt>
      <trkpt lat="48.60902" lon="-4.5669">
        <ele>4.9</ele>
        <time>2026-05-17T08:06:02.613Z</time>
      </trkpt>
      <trkpt lat="48.60903" lon="-4.56683">
        <ele>4</ele>
        <time>2026-05-17T08:06:06.876Z</time>
      </trkpt>
      <trkpt lat="48.60903" lon="-4.56675">
        <ele>3</ele>
        <time>2026-05-17T08:06:11.189Z</time>
      </trkpt>
      <trkpt lat="48.60903" lon="-4.56668">
        <ele>5</ele>
        <time>2026-05-17T08:06:15.517Z</time>
      </trkpt>
      <trkpt lat="48.60902" lon="-4.56663">
        <ele>4.8</ele>
        <time>2026-05-17T08:06:19.876Z</time>
      </trkpt>
      <trkpt lat="48.609" lon="-4.56658">
        <ele>4.6</ele>
        <time>2026-05-17T08:06:24.311Z</time>
      </trkpt>
      <trkpt lat="48.609" lon="-4.56653">
        <ele>4.6</ele>
        <time>2026-05-17T08:06:28.314Z</time>
      </trkpt>
      <trkpt lat="48.60899" lon="-4.56648">
        <ele>4.4</ele>
        <time>2026-05-17T08:06:32.374Z</time>
      </trkpt>
      <trkpt lat="48.60898" lon="-4.56642">
        <ele>4.4</ele>
        <time>2026-05-17T08:06:36.454Z</time>
      </trkpt>
      <trkpt lat="48.60897" lon="-4.56638">
        <ele>4.2</ele>
        <time>2026-05-17T08:06:40.876Z</time>
      </trkpt>
      <trkpt lat="48.60896" lon="-4.56631">
        <ele>4.1</ele>
        <time>2026-05-17T08:06:45.876Z</time>
      </trkpt>
      <trkpt lat="48.60896" lon="-4.56624">
        <ele>1</ele>
        <time>2026-05-17T08:06:50.475Z</time>
      </trkpt>
      <trkpt lat="48.60895" lon="-4.56618">
        <ele>1</ele>
        <time>2026-05-17T08:06:54.714Z</time>
      </trkpt>
      <trkpt lat="48.60893" lon="-4.56614">
        <ele>1</ele>
        <time>2026-05-17T08:06:58.876Z</time>
      </trkpt>
      <trkpt lat="48.60892" lon="-4.56608">
        <ele>1</ele>
        <time>2026-05-17T08:07:03.876Z</time>
      </trkpt>
      <trkpt lat="48.6089" lon="-4.56602">
        <ele>1</ele>
        <time>2026-05-17T08:07:08.636Z</time>
      </trkpt>
      <trkpt lat="48.6089" lon="-4.56596">
        <ele>1</ele>
        <time>2026-05-17T08:07:12.754Z</time>
      </trkpt>
      <trkpt lat="48.60889" lon="-4.56591">
        <ele>1</ele>
        <time>2026-05-17T08:07:17.396Z</time>
      </trkpt>
      <trkpt lat="48.60889" lon="-4.56585">
        <ele>1</ele>
        <time>2026-05-17T08:07:21.876Z</time>
      </trkpt>
      <trkpt lat="48.60888" lon="-4.56578">
        <ele>1</ele>
        <time>2026-05-17T08:07:26.876Z</time>
      </trkpt>
      <trkpt lat="48.60886" lon="-4.56576">
        <ele>1</ele>
        <time>2026-05-17T08:07:31.449Z</time>
      </trkpt>
      <trkpt lat="48.60885" lon="-4.56571">
        <ele>1</ele>
        <time>2026-05-17T08:07:35.876Z</time>
      </trkpt>
      <trkpt lat="48.60885" lon="-4.56566">
        <ele>1</ele>
        <time>2026-05-17T08:07:40.749Z</time>
      </trkpt>
      <trkpt lat="48.60886" lon="-4.5656">
        <ele>1</ele>
        <time>2026-05-17T08:07:45.394Z</time>
      </trkpt>
      <trkpt lat="48.60887" lon="-4.56555">
        <ele>1</ele>
        <time>2026-05-17T08:07:49.462Z</time>
      </trkpt>
      <trkpt lat="48.60887" lon="-4.5655">
        <ele>1</ele>
        <time>2026-05-17T08:07:53.514Z</time>
      </trkpt>
      <trkpt lat="48.60888" lon="-4.56543">
        <ele>1</ele>
        <time>2026-05-17T08:07:57.695Z</time>
      </trkpt>
      <trkpt lat="48.60889" lon="-4.56534">
        <ele>1</ele>
        <time>2026-05-17T08:08:02.269Z</time>
      </trkpt>
      <trkpt lat="48.60889" lon="-4.56527">
        <ele>1</ele>
        <time>2026-05-17T08:08:06.298Z</time>
      </trkpt>
      <trkpt lat="48.60888" lon="-4.56519">
        <ele>1</ele>
        <time>2026-05-17T08:08:10.810Z</time>
      </trkpt>
      <trkpt lat="48.60887" lon="-4.56511">
        <ele>2</ele>
        <time>2026-05-17T08:08:14.876Z</time>
      </trkpt>
      <trkpt lat="48.60885" lon="-4.56504">
        <ele>2</ele>
        <time>2026-05-17T08:08:19.054Z</time>
      </trkpt>
      <trkpt lat="48.60882" lon="-4.56497">
        <ele>2</ele>
        <time>2026-05-17T08:08:23.474Z</time>
      </trkpt>
      <trkpt lat="48.6088" lon="-4.5649">
        <ele>2</ele>
        <time>2026-05-17T08:08:27.876Z</time>
      </trkpt>
      <trkpt lat="48.60878" lon="-4.56483">
        <ele>4</ele>
        <time>2026-05-17T08:08:31.876Z</time>
      </trkpt>
      <trkpt lat="48.60876" lon="-4.56477">
        <ele>4</ele>
        <time>2026-05-17T08:08:36.459Z</time>
      </trkpt>
      <trkpt lat="48.60873" lon="-4.5647">
        <ele>1</ele>
        <time>2026-05-17T08:08:40.614Z</time>
      </trkpt>
      <trkpt lat="48.60871" lon="-4.56463">
        <ele>1</ele>
        <time>2026-05-17T08:08:44.694Z</time>
      </trkpt>
      <trkpt lat="48.60869" lon="-4.56456">
        <ele>3</ele>
        <time>2026-05-17T08:08:49.231Z</time>
      </trkpt>
      <trkpt lat="48.60867" lon="-4.56449">
        <ele>3</ele>
        <time>2026-05-17T08:08:53.652Z</time>
      </trkpt>
      <trkpt lat="48.60865" lon="-4.56443">
        <ele>3</ele>
        <time>2026-05-17T08:08:57.671Z</time>
      </trkpt>
      <trkpt lat="48.60863" lon="-4.56435">
        <ele>3</ele>
        <time>2026-05-17T08:09:01.876Z</time>
      </trkpt>
      <trkpt lat="48.60862" lon="-4.56428">
        <ele>5</ele>
        <time>2026-05-17T08:09:06.356Z</time>
      </trkpt>
      <trkpt lat="48.60861" lon="-4.5642">
        <ele>5</ele>
        <time>2026-05-17T08:09:10.876Z</time>
      </trkpt>
      <trkpt lat="48.6086" lon="-4.56413">
        <ele>5</ele>
        <time>2026-05-17T08:09:14.876Z</time>
      </trkpt>
      <trkpt lat="48.60858" lon="-4.56405">
        <ele>5</ele>
        <time>2026-05-17T08:09:19.351Z</time>
      </trkpt>
      <trkpt lat="48.60857" lon="-4.56399">
        <ele>5</ele>
        <time>2026-05-17T08:09:23.455Z</time>
      </trkpt>
      <trkpt lat="48.60855" lon="-4.56393">
        <ele>5</ele>
        <time>2026-05-17T08:09:27.876Z</time>
      </trkpt>
      <trkpt lat="48.60853" lon="-4.56388">
        <ele>5</ele>
        <time>2026-05-17T08:09:32.876Z</time>
      </trkpt>
      <trkpt lat="48.60854" lon="-4.56385">
        <ele>5</ele>
        <time>2026-05-17T08:09:57.876Z</time>
      </trkpt>
      <trkpt lat="48.60852" lon="-4.56379">
        <ele>5</ele>
        <time>2026-05-17T08:10:02.391Z</time>
      </trkpt>
      <trkpt lat="48.60852" lon="-4.56371">
        <ele>5</ele>
        <time>2026-05-17T08:10:06.595Z</time>
      </trkpt>
      <trkpt lat="48.60852" lon="-4.56365">
        <ele>5</ele>
        <time>2026-05-17T08:10:10.876Z</time>
      </trkpt>
      <trkpt lat="48.60852" lon="-4.56365">
        <ele>5</ele>
        <time>2026-05-17T08:10:14.876Z</time>
      </trkpt>
      <trkpt lat="48.60852" lon="-4.56365">
        <ele>5</ele>
        <time>2026-05-17T08:10:18.876Z</time>
      </trkpt>
      <trkpt lat="48.60852" lon="-4.5636">
        <ele>5</ele>
        <time>2026-05-17T08:10:23.155Z</time>
      </trkpt>
      <trkpt lat="48.60852" lon="-4.56352">
        <ele>5</ele>
        <time>2026-05-17T08:10:27.317Z</time>
      </trkpt>
      <trkpt lat="48.60852" lon="-4.56345">
        <ele>5</ele>
        <time>2026-05-17T08:10:31.497Z</time>
      </trkpt>
      <trkpt lat="48.60852" lon="-4.56338">
        <ele>5</ele>
        <time>2026-05-17T08:10:35.796Z</time>
      </trkpt>
      <trkpt lat="48.60852" lon="-4.56331">
        <ele>5</ele>
        <time>2026-05-17T08:10:40.054Z</time>
      </trkpt>
      <trkpt lat="48.60851" lon="-4.56325">
        <ele>5</ele>
        <time>2026-05-17T08:10:44.177Z</time>
      </trkpt>
      <trkpt lat="48.60847" lon="-4.56321">
        <ele>5</ele>
        <time>2026-05-17T08:10:48.330Z</time>
      </trkpt>
      <trkpt lat="48.60842" lon="-4.56319">
        <ele>2</ele>
        <time>2026-05-17T08:11:36.876Z</time>
      </trkpt>
      <trkpt lat="48.60839" lon="-4.56317">
        <ele>2</ele>
        <time>2026-05-17T08:11:41.435Z</time>
      </trkpt>
      <trkpt lat="48.60835" lon="-4.56311">
        <ele>2</ele>
        <time>2026-05-17T08:11:45.554Z</time>
      </trkpt>
      <trkpt lat="48.60833" lon="-4.56308">
        <ele>2</ele>
        <time>2026-05-17T08:11:48.010Z</time>
      </trkpt>
      <trkpt lat="48.6083" lon="-4.56311">
        <ele>2</ele>
        <time>2026-05-17T08:11:56.876Z</time>
      </trkpt>
      <trkpt lat="48.60829" lon="-4.56311">
        <ele>2</ele>
        <time>2026-05-17T08:13:00.131Z</time>
      </trkpt>
      <trkpt lat="48.60833" lon="-4.56308">
        <ele>2</ele>
        <time>2026-05-17T08:13:04.448Z</time>
      </trkpt>
      <trkpt lat="48.60838" lon="-4.56305">
        <ele>2</ele>
        <time>2026-05-17T08:13:08.876Z</time>
      </trkpt>
      <trkpt lat="48.60843" lon="-4.56303">
        <ele>2</ele>
        <time>2026-05-17T08:13:12.876Z</time>
      </trkpt>
      <trkpt lat="48.60847" lon="-4.56302">
        <ele>2</ele>
        <time>2026-05-17T08:13:17.339Z</time>
      </trkpt>
      <trkpt lat="48.60851" lon="-4.563">
        <ele>5</ele>
        <time>2026-05-17T08:13:21.591Z</time>
      </trkpt>
      <trkpt lat="48.60855" lon="-4.56295">
        <ele>5</ele>
        <time>2026-05-17T08:13:25.876Z</time>
      </trkpt>
      <trkpt lat="48.60858" lon="-4.56289">
        <ele>5</ele>
        <time>2026-05-17T08:13:30.090Z</time>
      </trkpt>
      <trkpt lat="48.60861" lon="-4.56283">
        <ele>5</ele>
        <time>2026-05-17T08:13:34.194Z</time>
      </trkpt>
      <trkpt lat="48.60867" lon="-4.56275">
        <ele>5</ele>
        <time>2026-05-17T08:13:42.876Z</time>
      </trkpt>
      <trkpt lat="48.60868" lon="-4.56273">
        <ele>5</ele>
        <time>2026-05-17T08:13:47.876Z</time>
      </trkpt>
      <trkpt lat="48.60868" lon="-4.56272">
        <ele>5</ele>
        <time>2026-05-17T08:13:52.380Z</time>
      </trkpt>
      <trkpt lat="48.60872" lon="-4.56269">
        <ele>5</ele>
        <time>2026-05-17T08:13:56.876Z</time>
      </trkpt>
      <trkpt lat="48.60876" lon="-4.56262">
        <ele>6</ele>
        <time>2026-05-17T08:14:01.354Z</time>
      </trkpt>
      <trkpt lat="48.60879" lon="-4.56257">
        <ele>6</ele>
        <time>2026-05-17T08:14:05.876Z</time>
      </trkpt>
      <trkpt lat="48.60882" lon="-4.56252">
        <ele>6</ele>
        <time>2026-05-17T08:14:10.235Z</time>
      </trkpt>
      <trkpt lat="48.60885" lon="-4.56251">
        <ele>6</ele>
        <time>2026-05-17T08:14:14.876Z</time>
      </trkpt>
      <trkpt lat="48.60888" lon="-4.56249">
        <ele>6</ele>
        <time>2026-05-17T08:14:19.791Z</time>
      </trkpt>
      <trkpt lat="48.60888" lon="-4.56253">
        <ele>6</ele>
        <time>2026-05-17T08:14:23.876Z</time>
      </trkpt>
      <trkpt lat="48.60888" lon="-4.56253">
        <ele>6</ele>
        <time>2026-05-17T08:14:27.876Z</time>
      </trkpt>
      <trkpt lat="48.6089" lon="-4.56248">
        <ele>6</ele>
        <time>2026-05-17T08:14:32.094Z</time>
      </trkpt>
      <trkpt lat="48.60892" lon="-4.56241">
        <ele>6</ele>
        <time>2026-05-17T08:14:36.172Z</time>
      </trkpt>
      <trkpt lat="48.60894" lon="-4.56235">
        <ele>5</ele>
        <time>2026-05-17T08:14:40.473Z</time>
      </trkpt>
      <trkpt lat="48.60909" lon="-4.56216">
        <ele>6</ele>
        <time>2026-05-17T08:15:55.876Z</time>
      </trkpt>
      <trkpt lat="48.60915" lon="-4.56213">
        <ele>6</ele>
        <time>2026-05-17T08:16:00.352Z</time>
      </trkpt>
      <trkpt lat="48.60919" lon="-4.56211">
        <ele>6</ele>
        <time>2026-05-17T08:16:04.439Z</time>
      </trkpt>
      <trkpt lat="48.60924" lon="-4.56209">
        <ele>6</ele>
        <time>2026-05-17T08:16:08.672Z</time>
      </trkpt>
      <trkpt lat="48.60928" lon="-4.56205">
        <ele>4</ele>
        <time>2026-05-17T08:16:13.273Z</time>
      </trkpt>
      <trkpt lat="48.60933" lon="-4.56202">
        <ele>4</ele>
        <time>2026-05-17T08:16:17.393Z</time>
      </trkpt>
      <trkpt lat="48.60937" lon="-4.56199">
        <ele>4</ele>
        <time>2026-05-17T08:16:21.876Z</time>
      </trkpt>
      <trkpt lat="48.60942" lon="-4.56197">
        <ele>4</ele>
        <time>2026-05-17T08:16:26.507Z</time>
      </trkpt>
      <trkpt lat="48.60947" lon="-4.56195">
        <ele>4</ele>
        <time>2026-05-17T08:16:30.551Z</time>
      </trkpt>
      <trkpt lat="48.60951" lon="-4.56192">
        <ele>4</ele>
        <time>2026-05-17T08:16:34.672Z</time>
      </trkpt>
      <trkpt lat="48.60955" lon="-4.56189">
        <ele>4</ele>
        <time>2026-05-17T08:16:38.889Z</time>
      </trkpt>
      <trkpt lat="48.60959" lon="-4.56182">
        <ele>5</ele>
        <time>2026-05-17T08:16:43.876Z</time>
      </trkpt>
      <trkpt lat="48.60963" lon="-4.56179">
        <ele>4</ele>
        <time>2026-05-17T08:16:48.453Z</time>
      </trkpt>
      <trkpt lat="48.60968" lon="-4.56178">
        <ele>4</ele>
        <time>2026-05-17T08:16:52.532Z</time>
      </trkpt>
      <trkpt lat="48.60974" lon="-4.56177">
        <ele>4</ele>
        <time>2026-05-17T08:16:56.876Z</time>
      </trkpt>
      <trkpt lat="48.60979" lon="-4.56175">
        <ele>4</ele>
        <time>2026-05-17T08:17:01.891Z</time>
      </trkpt>
      <trkpt lat="48.60984" lon="-4.56173">
        <ele>4</ele>
        <time>2026-05-17T08:17:06.353Z</time>
      </trkpt>
      <trkpt lat="48.6099" lon="-4.56171">
        <ele>5</ele>
        <time>2026-05-17T08:17:10.876Z</time>
      </trkpt>
      <trkpt lat="48.60995" lon="-4.56169">
        <ele>5</ele>
        <time>2026-05-17T08:17:15.628Z</time>
      </trkpt>
      <trkpt lat="48.61001" lon="-4.56166">
        <ele>5</ele>
        <time>2026-05-17T08:17:20.406Z</time>
      </trkpt>
      <trkpt lat="48.61006" lon="-4.56164">
        <ele>5</ele>
        <time>2026-05-17T08:17:24.791Z</time>
      </trkpt>
      <trkpt lat="48.6101" lon="-4.56161">
        <ele>5</ele>
        <time>2026-05-17T08:17:29.289Z</time>
      </trkpt>
      <trkpt lat="48.61015" lon="-4.5616">
        <ele>3</ele>
        <time>2026-05-17T08:17:33.850Z</time>
      </trkpt>
      <trkpt lat="48.61019" lon="-4.56158">
        <ele>3</ele>
        <time>2026-05-17T08:17:38.286Z</time>
      </trkpt>
      <trkpt lat="48.61023" lon="-4.56155">
        <ele>3</ele>
        <time>2026-05-17T08:17:42.457Z</time>
      </trkpt>
      <trkpt lat="48.61027" lon="-4.56149">
        <ele>2</ele>
        <time>2026-05-17T08:17:47.141Z</time>
      </trkpt>
      <trkpt lat="48.61032" lon="-4.56146">
        <ele>2</ele>
        <time>2026-05-17T08:17:51.144Z</time>
      </trkpt>
      <trkpt lat="48.61036" lon="-4.56142">
        <ele>2</ele>
        <time>2026-05-17T08:17:55.285Z</time>
      </trkpt>
      <trkpt lat="48.61041" lon="-4.56138">
        <ele>2</ele>
        <time>2026-05-17T08:17:59.876Z</time>
      </trkpt>
      <trkpt lat="48.61045" lon="-4.56134">
        <ele>3</ele>
        <time>2026-05-17T08:18:04.582Z</time>
      </trkpt>
      <trkpt lat="48.6105" lon="-4.56129">
        <ele>3</ele>
        <time>2026-05-17T08:18:09.043Z</time>
      </trkpt>
      <trkpt lat="48.61055" lon="-4.56125">
        <ele>2</ele>
        <time>2026-05-17T08:18:13.105Z</time>
      </trkpt>
      <trkpt lat="48.61059" lon="-4.5612">
        <ele>2</ele>
        <time>2026-05-17T08:18:17.141Z</time>
      </trkpt>
      <trkpt lat="48.61063" lon="-4.56114">
        <ele>2</ele>
        <time>2026-05-17T08:18:21.636Z</time>
      </trkpt>
      <trkpt lat="48.61068" lon="-4.5611">
        <ele>2</ele>
        <time>2026-05-17T08:18:26.142Z</time>
      </trkpt>
      <trkpt lat="48.61073" lon="-4.56104">
        <ele>3</ele>
        <time>2026-05-17T08:18:30.758Z</time>
      </trkpt>
      <trkpt lat="48.61076" lon="-4.561">
        <ele>3</ele>
        <time>2026-05-17T08:18:35.117Z</time>
      </trkpt>
      <trkpt lat="48.61079" lon="-4.56093">
        <ele>3</ele>
        <time>2026-05-17T08:18:39.562Z</time>
      </trkpt>
      <trkpt lat="48.61083" lon="-4.56088">
        <ele>3</ele>
        <time>2026-05-17T08:18:43.623Z</time>
      </trkpt>
      <trkpt lat="48.61088" lon="-4.56083">
        <ele>3</ele>
        <time>2026-05-17T08:18:48.240Z</time>
      </trkpt>
      <trkpt lat="48.61093" lon="-4.5608">
        <ele>3</ele>
        <time>2026-05-17T08:18:52.803Z</time>
      </trkpt>
      <trkpt lat="48.61098" lon="-4.56077">
        <ele>3</ele>
        <time>2026-05-17T08:18:57.420Z</time>
      </trkpt>
      <trkpt lat="48.61103" lon="-4.56074">
        <ele>3</ele>
        <time>2026-05-17T08:19:01.463Z</time>
      </trkpt>
      <trkpt lat="48.61107" lon="-4.56071">
        <ele>3</ele>
        <time>2026-05-17T08:19:05.585Z</time>
      </trkpt>
      <trkpt lat="48.61111" lon="-4.56065">
        <ele>3</ele>
        <time>2026-05-17T08:19:10.183Z</time>
      </trkpt>
      <trkpt lat="48.6111" lon="-4.56057">
        <ele>3</ele>
        <time>2026-05-17T08:19:14.482Z</time>
      </trkpt>
      <trkpt lat="48.61109" lon="-4.56049">
        <ele>3</ele>
        <time>2026-05-17T08:19:18.842Z</time>
      </trkpt>
      <trkpt lat="48.61107" lon="-4.56042">
        <ele>3</ele>
        <time>2026-05-17T08:19:22.876Z</time>
      </trkpt>
      <trkpt lat="48.61107" lon="-4.56034">
        <ele>3</ele>
        <time>2026-05-17T08:19:27.383Z</time>
      </trkpt>
      <trkpt lat="48.61105" lon="-4.56027">
        <ele>3</ele>
        <time>2026-05-17T08:19:31.444Z</time>
      </trkpt>
      <trkpt lat="48.61104" lon="-4.56018">
        <ele>3</ele>
        <time>2026-05-17T08:19:36.102Z</time>
      </trkpt>
      <trkpt lat="48.61102" lon="-4.56009">
        <ele>4</ele>
        <time>2026-05-17T08:19:40.600Z</time>
      </trkpt>
      <trkpt lat="48.611" lon="-4.56002">
        <ele>4</ele>
        <time>2026-05-17T08:19:44.876Z</time>
      </trkpt>
      <trkpt lat="48.611" lon="-4.55995">
        <ele>4</ele>
        <time>2026-05-17T08:19:49.036Z</time>
      </trkpt>
      <trkpt lat="48.61099" lon="-4.55986">
        <ele>4</ele>
        <time>2026-05-17T08:19:53.524Z</time>
      </trkpt>
      <trkpt lat="48.61097" lon="-4.55979">
        <ele>3</ele>
        <time>2026-05-17T08:19:58.064Z</time>
      </trkpt>
      <trkpt lat="48.61096" lon="-4.55972">
        <ele>2</ele>
        <time>2026-05-17T08:20:02.083Z</time>
      </trkpt>
      <trkpt lat="48.61095" lon="-4.55965">
        <ele>2</ele>
        <time>2026-05-17T08:20:06.100Z</time>
      </trkpt>
      <trkpt lat="48.61096" lon="-4.55957">
        <ele>2</ele>
        <time>2026-05-17T08:20:10.562Z</time>
      </trkpt>
      <trkpt lat="48.61094" lon="-4.55951">
        <ele>2</ele>
        <time>2026-05-17T08:20:14.744Z</time>
      </trkpt>
      <trkpt lat="48.61093" lon="-4.55944">
        <ele>2</ele>
        <time>2026-05-17T08:20:18.876Z</time>
      </trkpt>
      <trkpt lat="48.61091" lon="-4.55937">
        <ele>2</ele>
        <time>2026-05-17T08:20:23.163Z</time>
      </trkpt>
      <trkpt lat="48.61091" lon="-4.55929">
        <ele>2</ele>
        <time>2026-05-17T08:20:27.480Z</time>
      </trkpt>
      <trkpt lat="48.61089" lon="-4.55922">
        <ele>2</ele>
        <time>2026-05-17T08:20:31.876Z</time>
      </trkpt>
      <trkpt lat="48.61084" lon="-4.55917">
        <ele>2</ele>
        <time>2026-05-17T08:20:36.601Z</time>
      </trkpt>
      <trkpt lat="48.61079" lon="-4.55916">
        <ele>2</ele>
        <time>2026-05-17T08:20:40.876Z</time>
      </trkpt>
      <trkpt lat="48.61074" lon="-4.55915">
        <ele>2</ele>
        <time>2026-05-17T08:20:45.082Z</time>
      </trkpt>
      <trkpt lat="48.61069" lon="-4.55915">
        <ele>2</ele>
        <time>2026-05-17T08:20:49.280Z</time>
      </trkpt>
      <trkpt lat="48.61064" lon="-4.55914">
        <ele>2</ele>
        <time>2026-05-17T08:20:53.384Z</time>
      </trkpt>
      <trkpt lat="48.61059" lon="-4.55913">
        <ele>2</ele>
        <time>2026-05-17T08:20:57.421Z</time>
      </trkpt>
      <trkpt lat="48.61054" lon="-4.55912">
        <ele>2</ele>
        <time>2026-05-17T08:21:01.876Z</time>
      </trkpt>
      <trkpt lat="48.61048" lon="-4.55911">
        <ele>2</ele>
        <time>2026-05-17T08:21:06.480Z</time>
      </trkpt>
      <trkpt lat="48.61044" lon="-4.55908">
        <ele>2</ele>
        <time>2026-05-17T08:21:10.720Z</time>
      </trkpt>
      <trkpt lat="48.61039" lon="-4.55908">
        <ele>1</ele>
        <time>2026-05-17T08:21:14.782Z</time>
      </trkpt>
      <trkpt lat="48.61033" lon="-4.55908">
        <ele>1</ele>
        <time>2026-05-17T08:21:19.423Z</time>
      </trkpt>
      <trkpt lat="48.61027" lon="-4.55909">
        <ele>1</ele>
        <time>2026-05-17T08:21:23.876Z</time>
      </trkpt>
      <trkpt lat="48.61023" lon="-4.5591">
        <ele>1</ele>
        <time>2026-05-17T08:21:27.979Z</time>
      </trkpt>
      <trkpt lat="48.61017" lon="-4.55911">
        <ele>1</ele>
        <time>2026-05-17T08:21:32.236Z</time>
      </trkpt>
      <trkpt lat="48.61012" lon="-4.55912">
        <ele>1</ele>
        <time>2026-05-17T08:21:36.820Z</time>
      </trkpt>
      <trkpt lat="48.61006" lon="-4.55915">
        <ele>1</ele>
        <time>2026-05-17T08:21:41.461Z</time>
      </trkpt>
      <trkpt lat="48.61001" lon="-4.55916">
        <ele>1</ele>
        <time>2026-05-17T08:21:45.540Z</time>
      </trkpt>
      <trkpt lat="48.60996" lon="-4.55918">
        <ele>1</ele>
        <time>2026-05-17T08:21:49.780Z</time>
      </trkpt>
      <trkpt lat="48.60992" lon="-4.55918">
        <ele>1</ele>
        <time>2026-05-17T08:21:54.002Z</time>
      </trkpt>
      <trkpt lat="48.60986" lon="-4.55921">
        <ele>1</ele>
        <time>2026-05-17T08:21:58.876Z</time>
      </trkpt>
      <trkpt lat="48.60983" lon="-4.55922">
        <ele>1</ele>
        <time>2026-05-17T08:22:03.260Z</time>
      </trkpt>
      <trkpt lat="48.60982" lon="-4.5592">
        <ele>1</ele>
        <time>2026-05-17T08:22:05.750Z</time>
      </trkpt>
      <trkpt lat="48.60981" lon="-4.5592">
        <ele>1</ele>
        <time>2026-05-17T08:22:14.876Z</time>
      </trkpt>
      <trkpt lat="48.60978" lon="-4.55922">
        <ele>1</ele>
        <time>2026-05-17T08:22:18.876Z</time>
      </trkpt>
      <trkpt lat="48.60976" lon="-4.55927">
        <ele>1</ele>
        <time>2026-05-17T08:22:23.138Z</time>
      </trkpt>
      <trkpt lat="48.60972" lon="-4.55931">
        <ele>1</ele>
        <time>2026-05-17T08:22:27.541Z</time>
      </trkpt>
      <trkpt lat="48.60967" lon="-4.55937">
        <ele>1</ele>
        <time>2026-05-17T08:22:53.141Z</time>
      </trkpt>
      <trkpt lat="48.60965" lon="-4.5594">
        <ele>1</ele>
        <time>2026-05-17T08:22:57.262Z</time>
      </trkpt>
      <trkpt lat="48.60962" lon="-4.55945">
        <ele>1</ele>
        <time>2026-05-17T08:23:01.876Z</time>
      </trkpt>
      <trkpt lat="48.60962" lon="-4.55946">
        <ele>1</ele>
        <time>2026-05-17T08:23:06.665Z</time>
      </trkpt>
      <trkpt lat="48.60962" lon="-4.55946">
        <ele>1</ele>
        <time>2026-05-17T08:23:10.669Z</time>
      </trkpt>
      <trkpt lat="48.60962" lon="-4.55947">
        <ele>1</ele>
        <time>2026-05-17T08:23:18.876Z</time>
      </trkpt>
      <trkpt lat="48.60963" lon="-4.55946">
        <ele>1</ele>
        <time>2026-05-17T08:23:23.876Z</time>
      </trkpt>
      <trkpt lat="48.60966" lon="-4.55942">
        <ele>1</ele>
        <time>2026-05-17T08:23:28.404Z</time>
      </trkpt>
      <trkpt lat="48.6097" lon="-4.55938">
        <ele>1</ele>
        <time>2026-05-17T08:23:32.480Z</time>
      </trkpt>
      <trkpt lat="48.60975" lon="-4.55934">
        <ele>1</ele>
        <time>2026-05-17T08:23:45.761Z</time>
      </trkpt>
      <trkpt lat="48.60978" lon="-4.55936">
        <ele>1</ele>
        <time>2026-05-17T08:23:50.876Z</time>
      </trkpt>
      <trkpt lat="48.60983" lon="-4.55931">
        <ele>1</ele>
        <time>2026-05-17T08:23:55.847Z</time>
      </trkpt>
      <trkpt lat="48.60986" lon="-4.55925">
        <ele>1</ele>
        <time>2026-05-17T08:24:00.303Z</time>
      </trkpt>
      <trkpt lat="48.60989" lon="-4.55923">
        <ele>1</ele>
        <time>2026-05-17T08:24:04.462Z</time>
      </trkpt>
      <trkpt lat="48.60992" lon="-4.55919">
        <ele>1</ele>
        <time>2026-05-17T08:24:08.741Z</time>
      </trkpt>
      <trkpt lat="48.60996" lon="-4.55916">
        <ele>1</ele>
        <time>2026-05-17T08:24:13.179Z</time>
      </trkpt>
      <trkpt lat="48.61" lon="-4.55913">
        <ele>1</ele>
        <time>2026-05-17T08:24:17.444Z</time>
      </trkpt>
      <trkpt lat="48.61005" lon="-4.55911">
        <ele>1</ele>
        <time>2026-05-17T08:24:21.704Z</time>
      </trkpt>
      <trkpt lat="48.6101" lon="-4.5591">
        <ele>1</ele>
        <time>2026-05-17T08:24:25.876Z</time>
      </trkpt>
      <trkpt lat="48.61015" lon="-4.55909">
        <ele>1</ele>
        <time>2026-05-17T08:24:30.544Z</time>
      </trkpt>
      <trkpt lat="48.61019" lon="-4.55908">
        <ele>1</ele>
        <time>2026-05-17T08:24:34.876Z</time>
      </trkpt>
      <trkpt lat="48.61024" lon="-4.55908">
        <ele>1</ele>
        <time>2026-05-17T08:24:39.442Z</time>
      </trkpt>
      <trkpt lat="48.6103" lon="-4.55907">
        <ele>1</ele>
        <time>2026-05-17T08:24:43.876Z</time>
      </trkpt>
      <trkpt lat="48.61035" lon="-4.55907">
        <ele>1</ele>
        <time>2026-05-17T08:24:48.402Z</time>
      </trkpt>
      <trkpt lat="48.6104" lon="-4.55907">
        <ele>1</ele>
        <time>2026-05-17T08:24:52.876Z</time>
      </trkpt>
      <trkpt lat="48.61042" lon="-4.55906">
        <ele>2</ele>
        <time>2026-05-17T08:24:57.540Z</time>
      </trkpt>
      <trkpt lat="48.61043" lon="-4.55907">
        <ele>2</ele>
        <time>2026-05-17T08:25:01.876Z</time>
      </trkpt>
      <trkpt lat="48.61049" lon="-4.55908">
        <ele>2</ele>
        <time>2026-05-17T08:25:06.127Z</time>
      </trkpt>
      <trkpt lat="48.61055" lon="-4.5591">
        <ele>2</ele>
        <time>2026-05-17T08:25:10.685Z</time>
      </trkpt>
      <trkpt lat="48.6106" lon="-4.5591">
        <ele>2</ele>
        <time>2026-05-17T08:25:15.280Z</time>
      </trkpt>
      <trkpt lat="48.61065" lon="-4.55908">
        <ele>2</ele>
        <time>2026-05-17T08:25:19.866Z</time>
      </trkpt>
      <trkpt lat="48.61065" lon="-4.55901">
        <ele>3</ele>
        <time>2026-05-17T08:25:24.562Z</time>
      </trkpt>
      <trkpt lat="48.61064" lon="-4.55895">
        <ele>3</ele>
        <time>2026-05-17T08:25:28.719Z</time>
      </trkpt>
      <trkpt lat="48.61062" lon="-4.55889">
        <ele>3</ele>
        <time>2026-05-17T08:25:32.876Z</time>
      </trkpt>
      <trkpt lat="48.6106" lon="-4.55883">
        <ele>3</ele>
        <time>2026-05-17T08:25:37.560Z</time>
      </trkpt>
      <trkpt lat="48.6106" lon="-4.55878">
        <ele>3</ele>
        <time>2026-05-17T08:25:42.123Z</time>
      </trkpt>
      <trkpt lat="48.61058" lon="-4.55872">
        <ele>4</ele>
        <time>2026-05-17T08:25:46.621Z</time>
      </trkpt>
      <trkpt lat="48.61058" lon="-4.55866">
        <ele>4</ele>
        <time>2026-05-17T08:25:50.876Z</time>
      </trkpt>
      <trkpt lat="48.61058" lon="-4.55859">
        <ele>4</ele>
        <time>2026-05-17T08:25:55.144Z</time>
      </trkpt>
      <trkpt lat="48.61058" lon="-4.55853">
        <ele>4</ele>
        <time>2026-05-17T08:25:59.477Z</time>
      </trkpt>
      <trkpt lat="48.61059" lon="-4.55846">
        <ele>4</ele>
        <time>2026-05-17T08:26:03.876Z</time>
      </trkpt>
      <trkpt lat="48.6106" lon="-4.55839">
        <ele>4</ele>
        <time>2026-05-17T08:26:08.689Z</time>
      </trkpt>
      <trkpt lat="48.6106" lon="-4.55833">
        <ele>4</ele>
        <time>2026-05-17T08:26:13.403Z</time>
      </trkpt>
      <trkpt lat="48.6106" lon="-4.55827">
        <ele>4</ele>
        <time>2026-05-17T08:26:17.737Z</time>
      </trkpt>
      <trkpt lat="48.6106" lon="-4.55821">
        <ele>4</ele>
        <time>2026-05-17T08:26:21.876Z</time>
      </trkpt>
      <trkpt lat="48.6106" lon="-4.55815">
        <ele>4</ele>
        <time>2026-05-17T08:26:26.662Z</time>
      </trkpt>
      <trkpt lat="48.61059" lon="-4.55808">
        <ele>4</ele>
        <time>2026-05-17T08:26:30.860Z</time>
      </trkpt>
      <trkpt lat="48.61059" lon="-4.55801">
        <ele>4</ele>
        <time>2026-05-17T08:26:35.057Z</time>
      </trkpt>
      <trkpt lat="48.61057" lon="-4.55794">
        <ele>4</ele>
        <time>2026-05-17T08:26:39.641Z</time>
      </trkpt>
      <trkpt lat="48.61057" lon="-4.55787">
        <ele>3</ele>
        <time>2026-05-17T08:26:44.322Z</time>
      </trkpt>
      <trkpt lat="48.61056" lon="-4.55777">
        <ele>3</ele>
        <time>2026-05-17T08:26:57.876Z</time>
      </trkpt>
      <trkpt lat="48.61056" lon="-4.55776">
        <ele>3</ele>
        <time>2026-05-17T08:27:03.303Z</time>
      </trkpt>
      <trkpt lat="48.61056" lon="-4.55773">
        <ele>3</ele>
        <time>2026-05-17T08:27:07.890Z</time>
      </trkpt>
      <trkpt lat="48.61051" lon="-4.55768">
        <ele>3</ele>
        <time>2026-05-17T08:27:12.799Z</time>
      </trkpt>
      <trkpt lat="48.61048" lon="-4.55763">
        <ele>4</ele>
        <time>2026-05-17T08:27:16.876Z</time>
      </trkpt>
      <trkpt lat="48.61047" lon="-4.55755">
        <ele>4</ele>
        <time>2026-05-17T08:27:25.444Z</time>
      </trkpt>
      <trkpt lat="48.61046" lon="-4.55753">
        <ele>4</ele>
        <time>2026-05-17T08:27:29.876Z</time>
      </trkpt>
      <trkpt lat="48.61045" lon="-4.55753">
        <ele>4</ele>
        <time>2026-05-17T08:27:34.876Z</time>
      </trkpt>
      <trkpt lat="48.61042" lon="-4.55748">
        <ele>4</ele>
        <time>2026-05-17T08:27:39.642Z</time>
      </trkpt>
      <trkpt lat="48.61039" lon="-4.55746">
        <ele>5</ele>
        <time>2026-05-17T08:27:44.283Z</time>
      </trkpt>
      <trkpt lat="48.61038" lon="-4.55745">
        <ele>5</ele>
        <time>2026-05-17T08:28:23.876Z</time>
      </trkpt>
      <trkpt lat="48.6104" lon="-4.55746">
        <ele>5</ele>
        <time>2026-05-17T08:28:27.876Z</time>
      </trkpt>
      <trkpt lat="48.61041" lon="-4.55749">
        <ele>5</ele>
        <time>2026-05-17T08:28:33.876Z</time>
      </trkpt>
      <trkpt lat="48.61042" lon="-4.55749">
        <ele>4</ele>
        <time>2026-05-17T08:28:37.876Z</time>
      </trkpt>
      <trkpt lat="48.61046" lon="-4.55741">
        <ele>4</ele>
        <time>2026-05-17T08:28:42.821Z</time>
      </trkpt>
      <trkpt lat="48.61049" lon="-4.55737">
        <ele>4</ele>
        <time>2026-05-17T08:28:46.840Z</time>
      </trkpt>
      <trkpt lat="48.61053" lon="-4.55733">
        <ele>4</ele>
        <time>2026-05-17T08:28:51.483Z</time>
      </trkpt>
      <trkpt lat="48.61057" lon="-4.5573">
        <ele>4</ele>
        <time>2026-05-17T08:28:55.876Z</time>
      </trkpt>
      <trkpt lat="48.6106" lon="-4.55731">
        <ele>4</ele>
        <time>2026-05-17T08:28:59.876Z</time>
      </trkpt>
      <trkpt lat="48.61063" lon="-4.55728">
        <ele>4</ele>
        <time>2026-05-17T08:29:04.664Z</time>
      </trkpt>
      <trkpt lat="48.61066" lon="-4.55724">
        <ele>4</ele>
        <time>2026-05-17T08:29:08.876Z</time>
      </trkpt>
      <trkpt lat="48.6107" lon="-4.55722">
        <ele>5</ele>
        <time>2026-05-17T08:29:13.876Z</time>
      </trkpt>
      <trkpt lat="48.61073" lon="-4.55719">
        <ele>5</ele>
        <time>2026-05-17T08:29:17.876Z</time>
      </trkpt>
      <trkpt lat="48.61076" lon="-4.55713">
        <ele>5</ele>
        <time>2026-05-17T08:29:22.377Z</time>
      </trkpt>
      <trkpt lat="48.61078" lon="-4.55706">
        <ele>4</ele>
        <time>2026-05-17T08:29:26.557Z</time>
      </trkpt>
      <trkpt lat="48.61079" lon="-4.55698">
        <ele>4</ele>
        <time>2026-05-17T08:29:30.840Z</time>
      </trkpt>
      <trkpt lat="48.6108" lon="-4.5569">
        <ele>4</ele>
        <time>2026-05-17T08:29:35.039Z</time>
      </trkpt>
      <trkpt lat="48.61081" lon="-4.55683">
        <ele>4</ele>
        <time>2026-05-17T08:29:39.321Z</time>
      </trkpt>
      <trkpt lat="48.61081" lon="-4.55675">
        <ele>4</ele>
        <time>2026-05-17T08:29:43.563Z</time>
      </trkpt>
      <trkpt lat="48.6108" lon="-4.55669">
        <ele>4</ele>
        <time>2026-05-17T08:29:47.745Z</time>
      </trkpt>
      <trkpt lat="48.61077" lon="-4.55663">
        <ele>4</ele>
        <time>2026-05-17T08:29:52.201Z</time>
      </trkpt>
      <trkpt lat="48.61075" lon="-4.55658">
        <ele>4</ele>
        <time>2026-05-17T08:29:56.479Z</time>
      </trkpt>
      <trkpt lat="48.61076" lon="-4.55656">
        <ele>4</ele>
        <time>2026-05-17T08:29:59.876Z</time>
      </trkpt>
      <trkpt lat="48.61077" lon="-4.55652">
        <ele>3</ele>
        <time>2026-05-17T08:30:08.841Z</time>
      </trkpt>
      <trkpt lat="48.6108" lon="-4.55641">
        <ele>3</ele>
        <time>2026-05-17T08:30:13.183Z</time>
      </trkpt>
      <trkpt lat="48.61082" lon="-4.55632">
        <ele>3</ele>
        <time>2026-05-17T08:30:17.185Z</time>
      </trkpt>
      <trkpt lat="48.61084" lon="-4.55625">
        <ele>3</ele>
        <time>2026-05-17T08:30:21.322Z</time>
      </trkpt>
      <trkpt lat="48.61085" lon="-4.55617">
        <ele>3</ele>
        <time>2026-05-17T08:30:25.845Z</time>
      </trkpt>
      <trkpt lat="48.61086" lon="-4.55608">
        <ele>3</ele>
        <time>2026-05-17T08:30:30.466Z</time>
      </trkpt>
      <trkpt lat="48.61087" lon="-4.55601">
        <ele>3</ele>
        <time>2026-05-17T08:30:34.558Z</time>
      </trkpt>
      <trkpt lat="48.61087" lon="-4.55593">
        <ele>3</ele>
        <time>2026-05-17T08:30:38.857Z</time>
      </trkpt>
      <trkpt lat="48.61086" lon="-4.55586">
        <ele>3</ele>
        <time>2026-05-17T08:30:43.021Z</time>
      </trkpt>
      <trkpt lat="48.61085" lon="-4.55579">
        <ele>3</ele>
        <time>2026-05-17T08:30:47.267Z</time>
      </trkpt>
      <trkpt lat="48.61084" lon="-4.55572">
        <ele>3</ele>
        <time>2026-05-17T08:30:51.323Z</time>
      </trkpt>
      <trkpt lat="48.61085" lon="-4.55566">
        <ele>3</ele>
        <time>2026-05-17T08:30:55.876Z</time>
      </trkpt>
      <trkpt lat="48.61089" lon="-4.55571">
        <ele>3</ele>
        <time>2026-05-17T08:31:00.462Z</time>
      </trkpt>
      <trkpt lat="48.6109" lon="-4.55565">
        <ele>3</ele>
        <time>2026-05-17T08:31:04.720Z</time>
      </trkpt>
      <trkpt lat="48.61087" lon="-4.55557">
        <ele>3</ele>
        <time>2026-05-17T08:31:08.960Z</time>
      </trkpt>
      <trkpt lat="48.61087" lon="-4.55549">
        <ele>3</ele>
        <time>2026-05-17T08:31:13.244Z</time>
      </trkpt>
      <trkpt lat="48.61086" lon="-4.5554">
        <ele>3</ele>
        <time>2026-05-17T08:31:17.502Z</time>
      </trkpt>
      <trkpt lat="48.61087" lon="-4.55533">
        <ele>3</ele>
        <time>2026-05-17T08:31:21.563Z</time>
      </trkpt>
      <trkpt lat="48.61087" lon="-4.55526">
        <ele>3</ele>
        <time>2026-05-17T08:31:25.583Z</time>
      </trkpt>
      <trkpt lat="48.61089" lon="-4.55519">
        <ele>3</ele>
        <time>2026-05-17T08:31:29.857Z</time>
      </trkpt>
      <trkpt lat="48.6109" lon="-4.55512">
        <ele>3</ele>
        <time>2026-05-17T08:31:33.876Z</time>
      </trkpt>
      <trkpt lat="48.61092" lon="-4.55505">
        <ele>3</ele>
        <time>2026-05-17T08:31:38.162Z</time>
      </trkpt>
      <trkpt lat="48.61094" lon="-4.55499">
        <ele>3</ele>
        <time>2026-05-17T08:31:42.222Z</time>
      </trkpt>
      <trkpt lat="48.61097" lon="-4.55494">
        <ele>4</ele>
        <time>2026-05-17T08:31:46.377Z</time>
      </trkpt>
      <trkpt lat="48.61099" lon="-4.55487">
        <ele>4</ele>
        <time>2026-05-17T08:31:50.642Z</time>
      </trkpt>
      <trkpt lat="48.61102" lon="-4.55482">
        <ele>4</ele>
        <time>2026-05-17T08:31:55.080Z</time>
      </trkpt>
      <trkpt lat="48.61104" lon="-4.55476">
        <ele>4</ele>
        <time>2026-05-17T08:31:59.423Z</time>
      </trkpt>
      <trkpt lat="48.61107" lon="-4.5547">
        <ele>4</ele>
        <time>2026-05-17T08:32:03.680Z</time>
      </trkpt>
      <trkpt lat="48.6111" lon="-4.55464">
        <ele>4</ele>
        <time>2026-05-17T08:32:07.888Z</time>
      </trkpt>
      <trkpt lat="48.61113" lon="-4.55459">
        <ele>4</ele>
        <time>2026-05-17T08:32:12.017Z</time>
      </trkpt>
      <trkpt lat="48.61117" lon="-4.55455">
        <ele>3</ele>
        <time>2026-05-17T08:32:16.105Z</time>
      </trkpt>
      <trkpt lat="48.61121" lon="-4.55452">
        <ele>3</ele>
        <time>2026-05-17T08:32:20.320Z</time>
      </trkpt>
      <trkpt lat="48.61125" lon="-4.55448">
        <ele>4</ele>
        <time>2026-05-17T08:32:24.382Z</time>
      </trkpt>
      <trkpt lat="48.61128" lon="-4.55445">
        <ele>4</ele>
        <time>2026-05-17T08:32:28.520Z</time>
      </trkpt>
      <trkpt lat="48.61132" lon="-4.55442">
        <ele>4</ele>
        <time>2026-05-17T08:32:32.876Z</time>
      </trkpt>
      <trkpt lat="48.61136" lon="-4.55436">
        <ele>4</ele>
        <time>2026-05-17T08:32:37.463Z</time>
      </trkpt>
      <trkpt lat="48.61139" lon="-4.55432">
        <ele>4</ele>
        <time>2026-05-17T08:32:41.609Z</time>
      </trkpt>
      <trkpt lat="48.61143" lon="-4.55427">
        <ele>4</ele>
        <time>2026-05-17T08:32:45.713Z</time>
      </trkpt>
      <trkpt lat="48.61146" lon="-4.55424">
        <ele>4</ele>
        <time>2026-05-17T08:32:49.870Z</time>
      </trkpt>
      <trkpt lat="48.61155" lon="-4.5541">
        <ele>4</ele>
        <time>2026-05-17T08:33:02.876Z</time>
      </trkpt>
      <trkpt lat="48.61155" lon="-4.55411">
        <ele>4</ele>
        <time>2026-05-17T08:33:10.876Z</time>
      </trkpt>
      <trkpt lat="48.61155" lon="-4.5541">
        <ele>4</ele>
        <time>2026-05-17T08:33:24.876Z</time>
      </trkpt>
      <trkpt lat="48.61155" lon="-4.5541">
        <ele>4</ele>
        <time>2026-05-17T08:33:29.876Z</time>
      </trkpt>
      <trkpt lat="48.61154" lon="-4.55407">
        <ele>4</ele>
        <time>2026-05-17T08:33:34.411Z</time>
      </trkpt>
      <trkpt lat="48.61152" lon="-4.55405">
        <ele>4</ele>
        <time>2026-05-17T08:33:38.694Z</time>
      </trkpt>
      <trkpt lat="48.61149" lon="-4.55402">
        <ele>3</ele>
        <time>2026-05-17T08:33:43.191Z</time>
      </trkpt>
      <trkpt lat="48.61147" lon="-4.55393">
        <ele>3</ele>
        <time>2026-05-17T08:33:47.450Z</time>
      </trkpt>
      <trkpt lat="48.61146" lon="-4.55385">
        <ele>3</ele>
        <time>2026-05-17T08:33:51.631Z</time>
      </trkpt>
      <trkpt lat="48.61144" lon="-4.5538">
        <ele>3</ele>
        <time>2026-05-17T08:33:55.876Z</time>
      </trkpt>
      <trkpt lat="48.61141" lon="-4.55374">
        <ele>3</ele>
        <time>2026-05-17T08:34:00.453Z</time>
      </trkpt>
      <trkpt lat="48.6114" lon="-4.55367">
        <ele>3</ele>
        <time>2026-05-17T08:34:04.789Z</time>
      </trkpt>
      <trkpt lat="48.61139" lon="-4.5536">
        <ele>3</ele>
        <time>2026-05-17T08:34:08.970Z</time>
      </trkpt>
      <trkpt lat="48.61137" lon="-4.55353">
        <ele>3</ele>
        <time>2026-05-17T08:34:13.252Z</time>
      </trkpt>
      <trkpt lat="48.61136" lon="-4.55346">
        <ele>4</ele>
        <time>2026-05-17T08:34:17.586Z</time>
      </trkpt>
      <trkpt lat="48.61134" lon="-4.5534">
        <ele>4</ele>
        <time>2026-05-17T08:34:21.876Z</time>
      </trkpt>
      <trkpt lat="48.61133" lon="-4.55333">
        <ele>4</ele>
        <time>2026-05-17T08:34:26.172Z</time>
      </trkpt>
      <trkpt lat="48.61131" lon="-4.55326">
        <ele>4</ele>
        <time>2026-05-17T08:34:30.814Z</time>
      </trkpt>
      <trkpt lat="48.61129" lon="-4.55319">
        <ele>5</ele>
        <time>2026-05-17T08:34:35.311Z</time>
      </trkpt>
      <trkpt lat="48.61129" lon="-4.55312">
        <ele>5</ele>
        <time>2026-05-17T08:34:39.329Z</time>
      </trkpt>
      <trkpt lat="48.61127" lon="-4.55304">
        <ele>5</ele>
        <time>2026-05-17T08:34:43.570Z</time>
      </trkpt>
      <trkpt lat="48.61125" lon="-4.55297">
        <ele>4</ele>
        <time>2026-05-17T08:34:47.811Z</time>
      </trkpt>
      <trkpt lat="48.61123" lon="-4.55291">
        <ele>5</ele>
        <time>2026-05-17T08:34:51.876Z</time>
      </trkpt>
      <trkpt lat="48.61121" lon="-4.55285">
        <ele>5</ele>
        <time>2026-05-17T08:34:56.430Z</time>
      </trkpt>
      <trkpt lat="48.61118" lon="-4.5528">
        <ele>5</ele>
        <time>2026-05-17T08:35:00.695Z</time>
      </trkpt>
      <trkpt lat="48.61116" lon="-4.55274">
        <ele>5</ele>
        <time>2026-05-17T08:35:04.876Z</time>
      </trkpt>
      <trkpt lat="48.61115" lon="-4.55266">
        <ele>5</ele>
        <time>2026-05-17T08:35:09.450Z</time>
      </trkpt>
      <trkpt lat="48.61113" lon="-4.55259">
        <ele>5</ele>
        <time>2026-05-17T08:35:13.752Z</time>
      </trkpt>
      <trkpt lat="48.61113" lon="-4.55251">
        <ele>5</ele>
        <time>2026-05-17T08:35:17.876Z</time>
      </trkpt>
      <trkpt lat="48.61112" lon="-4.55244">
        <ele>5</ele>
        <time>2026-05-17T08:35:22.172Z</time>
      </trkpt>
      <trkpt lat="48.61113" lon="-4.55237">
        <ele>5</ele>
        <time>2026-05-17T08:35:26.694Z</time>
      </trkpt>
      <trkpt lat="48.61113" lon="-4.55231">
        <ele>6</ele>
        <time>2026-05-17T08:35:31.758Z</time>
      </trkpt>
      <trkpt lat="48.61118" lon="-4.55229">
        <ele>6</ele>
        <time>2026-05-17T08:35:35.876Z</time>
      </trkpt>
      <trkpt lat="48.61119" lon="-4.5523">
        <ele>6</ele>
        <time>2026-05-17T08:35:46.876Z</time>
      </trkpt>
      <trkpt lat="48.61119" lon="-4.5523">
        <ele>6</ele>
        <time>2026-05-17T08:35:51.876Z</time>
      </trkpt>
      <trkpt lat="48.61118" lon="-4.5523">
        <ele>6</ele>
        <time>2026-05-17T08:35:56.876Z</time>
      </trkpt>
      <trkpt lat="48.61115" lon="-4.55228">
        <ele>6</ele>
        <time>2026-05-17T08:36:00.876Z</time>
      </trkpt>
      <trkpt lat="48.61111" lon="-4.55222">
        <ele>6</ele>
        <time>2026-05-17T08:36:05.235Z</time>
      </trkpt>
      <trkpt lat="48.61111" lon="-4.55215">
        <ele>6</ele>
        <time>2026-05-17T08:36:09.876Z</time>
      </trkpt>
      <trkpt lat="48.6111" lon="-4.55209">
        <ele>6</ele>
        <time>2026-05-17T08:36:14.390Z</time>
      </trkpt>
      <trkpt lat="48.61109" lon="-4.55202">
        <ele>6</ele>
        <time>2026-05-17T08:36:18.827Z</time>
      </trkpt>
      <trkpt lat="48.61109" lon="-4.55196">
        <ele>6</ele>
        <time>2026-05-17T08:36:22.876Z</time>
      </trkpt>
      <trkpt lat="48.61109" lon="-4.5519">
        <ele>6</ele>
        <time>2026-05-17T08:36:27.250Z</time>
      </trkpt>
      <trkpt lat="48.61108" lon="-4.55184">
        <ele>6</ele>
        <time>2026-05-17T08:36:31.294Z</time>
      </trkpt>
      <trkpt lat="48.61108" lon="-4.55177">
        <ele>6</ele>
        <time>2026-05-17T08:36:35.876Z</time>
      </trkpt>
      <trkpt lat="48.61109" lon="-4.55169">
        <ele>6</ele>
        <time>2026-05-17T08:36:40.629Z</time>
      </trkpt>
      <trkpt lat="48.61105" lon="-4.55163">
        <ele>6</ele>
        <time>2026-05-17T08:37:23.430Z</time>
      </trkpt>
      <trkpt lat="48.61105" lon="-4.55155">
        <ele>6</ele>
        <time>2026-05-17T08:37:27.687Z</time>
      </trkpt>
      <trkpt lat="48.61106" lon="-4.55147">
        <ele>6</ele>
        <time>2026-05-17T08:37:31.777Z</time>
      </trkpt>
      <trkpt lat="48.61106" lon="-4.55139">
        <ele>6</ele>
        <time>2026-05-17T08:37:36.373Z</time>
      </trkpt>
      <trkpt lat="48.61106" lon="-4.55131">
        <ele>6</ele>
        <time>2026-05-17T08:37:40.876Z</time>
      </trkpt>
      <trkpt lat="48.61108" lon="-4.55128">
        <ele>6</ele>
        <time>2026-05-17T08:37:45.281Z</time>
      </trkpt>
      <trkpt lat="48.61115" lon="-4.5513">
        <ele>6</ele>
        <time>2026-05-17T08:37:49.854Z</time>
      </trkpt>
      <trkpt lat="48.61118" lon="-4.55132">
        <ele>6</ele>
        <time>2026-05-17T08:37:54.470Z</time>
      </trkpt>
      <trkpt lat="48.61118" lon="-4.55141">
        <ele>6</ele>
        <time>2026-05-17T08:37:59.035Z</time>
      </trkpt>
      <trkpt lat="48.61117" lon="-4.5515">
        <ele>6</ele>
        <time>2026-05-17T08:38:03.574Z</time>
      </trkpt>
      <trkpt lat="48.61117" lon="-4.55158">
        <ele>6</ele>
        <time>2026-05-17T08:38:07.594Z</time>
      </trkpt>
      <trkpt lat="48.61117" lon="-4.55164">
        <ele>6</ele>
        <time>2026-05-17T08:38:11.714Z</time>
      </trkpt>
      <trkpt lat="48.61116" lon="-4.55171">
        <ele>6</ele>
        <time>2026-05-17T08:38:15.852Z</time>
      </trkpt>
      <trkpt lat="48.61114" lon="-4.55179">
        <ele>6</ele>
        <time>2026-05-17T08:38:20.373Z</time>
      </trkpt>
      <trkpt lat="48.61113" lon="-4.55187">
        <ele>6</ele>
        <time>2026-05-17T08:38:24.435Z</time>
      </trkpt>
      <trkpt lat="48.61112" lon="-4.55194">
        <ele>6</ele>
        <time>2026-05-17T08:38:28.548Z</time>
      </trkpt>
      <trkpt lat="48.61112" lon="-4.55201">
        <ele>6</ele>
        <time>2026-05-17T08:38:32.651Z</time>
      </trkpt>
      <trkpt lat="48.61114" lon="-4.55208">
        <ele>6</ele>
        <time>2026-05-17T08:38:36.876Z</time>
      </trkpt>
      <trkpt lat="48.61119" lon="-4.55209">
        <ele>6</ele>
        <time>2026-05-17T08:38:41.789Z</time>
      </trkpt>
      <trkpt lat="48.6112" lon="-4.55209">
        <ele>6</ele>
        <time>2026-05-17T08:38:46.848Z</time>
      </trkpt>
      <trkpt lat="48.61121" lon="-4.55207">
        <ele>6</ele>
        <time>2026-05-17T08:38:50.876Z</time>
      </trkpt>
      <trkpt lat="48.61125" lon="-4.55201">
        <ele>6</ele>
        <time>2026-05-17T08:38:55.331Z</time>
      </trkpt>
      <trkpt lat="48.61128" lon="-4.55196">
        <ele>6</ele>
        <time>2026-05-17T08:38:59.373Z</time>
      </trkpt>
      <trkpt lat="48.61132" lon="-4.5519">
        <ele>6</ele>
        <time>2026-05-17T08:39:03.870Z</time>
      </trkpt>
      <trkpt lat="48.61135" lon="-4.55185">
        <ele>6</ele>
        <time>2026-05-17T08:39:07.876Z</time>
      </trkpt>
      <trkpt lat="48.61138" lon="-4.55181">
        <ele>6</ele>
        <time>2026-05-17T08:39:11.975Z</time>
      </trkpt>
      <trkpt lat="48.61142" lon="-4.55176">
        <ele>6</ele>
        <time>2026-05-17T08:39:16.310Z</time>
      </trkpt>
      <trkpt lat="48.61145" lon="-4.55171">
        <ele>6</ele>
        <time>2026-05-17T08:39:20.473Z</time>
      </trkpt>
      <trkpt lat="48.61149" lon="-4.55167">
        <ele>6</ele>
        <time>2026-05-17T08:39:24.492Z</time>
      </trkpt>
      <trkpt lat="48.61152" lon="-4.55163">
        <ele>6</ele>
        <time>2026-05-17T08:39:28.654Z</time>
      </trkpt>
      <trkpt lat="48.61156" lon="-4.55158">
        <ele>6</ele>
        <time>2026-05-17T08:39:32.876Z</time>
      </trkpt>
      <trkpt lat="48.61159" lon="-4.55152">
        <ele>7</ele>
        <time>2026-05-17T08:39:37.152Z</time>
      </trkpt>
      <trkpt lat="48.61161" lon="-4.55145">
        <ele>7</ele>
        <time>2026-05-17T08:39:41.633Z</time>
      </trkpt>
      <trkpt lat="48.61162" lon="-4.55138">
        <ele>7</ele>
        <time>2026-05-17T08:39:45.876Z</time>
      </trkpt>
      <trkpt lat="48.61163" lon="-4.55131">
        <ele>7</ele>
        <time>2026-05-17T08:39:50.394Z</time>
      </trkpt>
      <trkpt lat="48.61163" lon="-4.55125">
        <ele>7</ele>
        <time>2026-05-17T08:39:54.849Z</time>
      </trkpt>
      <trkpt lat="48.61159" lon="-4.55119">
        <ele>7</ele>
        <time>2026-05-17T08:39:59.413Z</time>
      </trkpt>
      <trkpt lat="48.61157" lon="-4.55114">
        <ele>7</ele>
        <time>2026-05-17T08:40:03.594Z</time>
      </trkpt>
      <trkpt lat="48.61154" lon="-4.55106">
        <ele>7</ele>
        <time>2026-05-17T08:40:07.714Z</time>
      </trkpt>
      <trkpt lat="48.61151" lon="-4.55101">
        <ele>7</ele>
        <time>2026-05-17T08:40:11.836Z</time>
      </trkpt>
      <trkpt lat="48.61149" lon="-4.55095">
        <ele>7</ele>
        <time>2026-05-17T08:40:16.152Z</time>
      </trkpt>
      <trkpt lat="48.61147" lon="-4.55089">
        <ele>7</ele>
        <time>2026-05-17T08:40:20.273Z</time>
      </trkpt>
      <trkpt lat="48.61144" lon="-4.55083">
        <ele>7</ele>
        <time>2026-05-17T08:40:24.615Z</time>
      </trkpt>
      <trkpt lat="48.61144" lon="-4.55076">
        <ele>7</ele>
        <time>2026-05-17T08:40:28.728Z</time>
      </trkpt>
      <trkpt lat="48.61143" lon="-4.5507">
        <ele>7</ele>
        <time>2026-05-17T08:40:33.335Z</time>
      </trkpt>
      <trkpt lat="48.61142" lon="-4.55064">
        <ele>7</ele>
        <time>2026-05-17T08:40:37.772Z</time>
      </trkpt>
      <trkpt lat="48.61138" lon="-4.55058">
        <ele>7</ele>
        <time>2026-05-17T08:40:42.331Z</time>
      </trkpt>
      <trkpt lat="48.61135" lon="-4.55053">
        <ele>7</ele>
        <time>2026-05-17T08:40:46.551Z</time>
      </trkpt>
      <trkpt lat="48.61131" lon="-4.55047">
        <ele>7</ele>
        <time>2026-05-17T08:40:50.715Z</time>
      </trkpt>
      <trkpt lat="48.61129" lon="-4.55041">
        <ele>6</ele>
        <time>2026-05-17T08:40:54.876Z</time>
      </trkpt>
      <trkpt lat="48.61127" lon="-4.55035">
        <ele>6</ele>
        <time>2026-05-17T08:40:59.495Z</time>
      </trkpt>
      <trkpt lat="48.61124" lon="-4.5503">
        <ele>7</ele>
        <time>2026-05-17T08:41:03.876Z</time>
      </trkpt>
      <trkpt lat="48.61121" lon="-4.55024">
        <ele>7</ele>
        <time>2026-05-17T08:41:08.335Z</time>
      </trkpt>
      <trkpt lat="48.61119" lon="-4.55018">
        <ele>7</ele>
        <time>2026-05-17T08:41:12.693Z</time>
      </trkpt>
      <trkpt lat="48.61117" lon="-4.55013">
        <ele>7</ele>
        <time>2026-05-17T08:41:16.876Z</time>
      </trkpt>
      <trkpt lat="48.61114" lon="-4.55008">
        <ele>7</ele>
        <time>2026-05-17T08:41:21.429Z</time>
      </trkpt>
      <trkpt lat="48.61111" lon="-4.55004">
        <ele>7</ele>
        <time>2026-05-17T08:41:25.876Z</time>
      </trkpt>
      <trkpt lat="48.61108" lon="-4.55">
        <ele>7</ele>
        <time>2026-05-17T08:41:30.430Z</time>
      </trkpt>
      <trkpt lat="48.61106" lon="-4.54995">
        <ele>7</ele>
        <time>2026-05-17T08:41:34.551Z</time>
      </trkpt>
      <trkpt lat="48.61102" lon="-4.54991">
        <ele>7</ele>
        <time>2026-05-17T08:41:38.876Z</time>
      </trkpt>
      <trkpt lat="48.61098" lon="-4.54988">
        <ele>7</ele>
        <time>2026-05-17T08:41:43.014Z</time>
      </trkpt>
      <trkpt lat="48.61094" lon="-4.54984">
        <ele>8</ele>
        <time>2026-05-17T08:41:47.195Z</time>
      </trkpt>
      <trkpt lat="48.61091" lon="-4.54979">
        <ele>8</ele>
        <time>2026-05-17T08:41:51.590Z</time>
      </trkpt>
      <trkpt lat="48.61089" lon="-4.5498">
        <ele>8</ele>
        <time>2026-05-17T08:41:56.290Z</time>
      </trkpt>
      <trkpt lat="48.61086" lon="-4.54978">
        <ele>8</ele>
        <time>2026-05-17T08:42:00.334Z</time>
      </trkpt>
      <trkpt lat="48.6108" lon="-4.54976">
        <ele>8</ele>
        <time>2026-05-17T08:42:04.876Z</time>
      </trkpt>
      <trkpt lat="48.61075" lon="-4.54977">
        <ele>8</ele>
        <time>2026-05-17T08:42:09.173Z</time>
      </trkpt>
      <trkpt lat="48.61071" lon="-4.54978">
        <ele>8</ele>
        <time>2026-05-17T08:42:13.712Z</time>
      </trkpt>
      <trkpt lat="48.61066" lon="-4.54979">
        <ele>9</ele>
        <time>2026-05-17T08:42:18.148Z</time>
      </trkpt>
      <trkpt lat="48.61062" lon="-4.54978">
        <ele>9</ele>
        <time>2026-05-17T08:42:22.256Z</time>
      </trkpt>
      <trkpt lat="48.61057" lon="-4.54979">
        <ele>9</ele>
        <time>2026-05-17T08:42:26.554Z</time>
      </trkpt>
      <trkpt lat="48.61052" lon="-4.5498">
        <ele>9</ele>
        <time>2026-05-17T08:42:30.615Z</time>
      </trkpt>
      <trkpt lat="48.61048" lon="-4.54981">
        <ele>9</ele>
        <time>2026-05-17T08:42:34.811Z</time>
      </trkpt>
      <trkpt lat="48.61044" lon="-4.54982">
        <ele>9</ele>
        <time>2026-05-17T08:42:38.876Z</time>
      </trkpt>
      <trkpt lat="48.61039" lon="-4.54984">
        <ele>10</ele>
        <time>2026-05-17T08:42:43.148Z</time>
      </trkpt>
      <trkpt lat="48.61034" lon="-4.54984">
        <ele>10</ele>
        <time>2026-05-17T08:42:47.310Z</time>
      </trkpt>
      <trkpt lat="48.6103" lon="-4.54986">
        <ele>10</ele>
        <time>2026-05-17T08:42:51.628Z</time>
      </trkpt>
      <trkpt lat="48.61026" lon="-4.54989">
        <ele>11</ele>
        <time>2026-05-17T08:42:55.715Z</time>
      </trkpt>
      <trkpt lat="48.61021" lon="-4.54992">
        <ele>11</ele>
        <time>2026-05-17T08:42:59.870Z</time>
      </trkpt>
      <trkpt lat="48.61016" lon="-4.54996">
        <ele>11</ele>
        <time>2026-05-17T08:43:04.289Z</time>
      </trkpt>
      <trkpt lat="48.61011" lon="-4.54998">
        <ele>10</ele>
        <time>2026-05-17T08:43:08.691Z</time>
      </trkpt>
      <trkpt lat="48.61007" lon="-4.55001">
        <ele>10</ele>
        <time>2026-05-17T08:43:12.872Z</time>
      </trkpt>
      <trkpt lat="48.61003" lon="-4.55006">
        <ele>10</ele>
        <time>2026-05-17T08:43:17.335Z</time>
      </trkpt>
      <trkpt lat="48.60999" lon="-4.5501">
        <ele>10</ele>
        <time>2026-05-17T08:43:21.610Z</time>
      </trkpt>
      <trkpt lat="48.60996" lon="-4.55016">
        <ele>10</ele>
        <time>2026-05-17T08:43:25.815Z</time>
      </trkpt>
      <trkpt lat="48.60993" lon="-4.55021">
        <ele>10</ele>
        <time>2026-05-17T08:43:30.014Z</time>
      </trkpt>
      <trkpt lat="48.60989" lon="-4.55027">
        <ele>10</ele>
        <time>2026-05-17T08:43:34.287Z</time>
      </trkpt>
      <trkpt lat="48.60986" lon="-4.55031">
        <ele>10</ele>
        <time>2026-05-17T08:43:38.588Z</time>
      </trkpt>
      <trkpt lat="48.60983" lon="-4.55036">
        <ele>10</ele>
        <time>2026-05-17T08:43:42.876Z</time>
      </trkpt>
      <trkpt lat="48.6098" lon="-4.55041">
        <ele>10</ele>
        <time>2026-05-17T08:43:46.975Z</time>
      </trkpt>
      <trkpt lat="48.60977" lon="-4.55046">
        <ele>11</ele>
        <time>2026-05-17T08:43:51.334Z</time>
      </trkpt>
      <trkpt lat="48.60972" lon="-4.5505">
        <ele>11</ele>
        <time>2026-05-17T08:43:55.753Z</time>
      </trkpt>
      <trkpt lat="48.6097" lon="-4.55056">
        <ele>11</ele>
        <time>2026-05-17T08:44:00.044Z</time>
      </trkpt>
      <trkpt lat="48.60968" lon="-4.55062">
        <ele>11</ele>
        <time>2026-05-17T08:44:04.593Z</time>
      </trkpt>
      <trkpt lat="48.60967" lon="-4.55069">
        <ele>11</ele>
        <time>2026-05-17T08:44:09.235Z</time>
      </trkpt>
      <trkpt lat="48.60968" lon="-4.55075">
        <ele>11</ele>
        <time>2026-05-17T08:44:13.672Z</time>
      </trkpt>
      <trkpt lat="48.60968" lon="-4.55083">
        <ele>11</ele>
        <time>2026-05-17T08:44:18.371Z</time>
      </trkpt>
      <trkpt lat="48.60968" lon="-4.55089">
        <ele>11</ele>
        <time>2026-05-17T08:44:22.433Z</time>
      </trkpt>
      <trkpt lat="48.60968" lon="-4.55096">
        <ele>11</ele>
        <time>2026-05-17T08:44:26.571Z</time>
      </trkpt>
      <trkpt lat="48.60968" lon="-4.55103">
        <ele>11</ele>
        <time>2026-05-17T08:44:30.876Z</time>
      </trkpt>
      <trkpt lat="48.60968" lon="-4.5511">
        <ele>11</ele>
        <time>2026-05-17T08:44:35.068Z</time>
      </trkpt>
      <trkpt lat="48.60968" lon="-4.55117">
        <ele>11</ele>
        <time>2026-05-17T08:44:39.113Z</time>
      </trkpt>
      <trkpt lat="48.60969" lon="-4.55125">
        <ele>10</ele>
        <time>2026-05-17T08:44:43.208Z</time>
      </trkpt>
      <trkpt lat="48.6097" lon="-4.55135">
        <ele>10</ele>
        <time>2026-05-17T08:44:47.790Z</time>
      </trkpt>
      <trkpt lat="48.60971" lon="-4.55143">
        <ele>10</ele>
        <time>2026-05-17T08:44:52.354Z</time>
      </trkpt>
      <trkpt lat="48.60971" lon="-4.55151">
        <ele>10</ele>
        <time>2026-05-17T08:44:56.876Z</time>
      </trkpt>
      <trkpt lat="48.60972" lon="-4.55159">
        <ele>9</ele>
        <time>2026-05-17T08:45:01.535Z</time>
      </trkpt>
      <trkpt lat="48.60972" lon="-4.55167">
        <ele>9</ele>
        <time>2026-05-17T08:45:05.988Z</time>
      </trkpt>
      <trkpt lat="48.60973" lon="-4.55175">
        <ele>9</ele>
        <time>2026-05-17T08:45:10.552Z</time>
      </trkpt>
      <trkpt lat="48.60974" lon="-4.55183">
        <ele>8</ele>
        <time>2026-05-17T08:45:15.049Z</time>
      </trkpt>
      <trkpt lat="48.60975" lon="-4.5519">
        <ele>8</ele>
        <time>2026-05-17T08:45:19.248Z</time>
      </trkpt>
      <trkpt lat="48.60976" lon="-4.55198">
        <ele>8</ele>
        <time>2026-05-17T08:45:23.274Z</time>
      </trkpt>
      <trkpt lat="48.60977" lon="-4.55206">
        <ele>8</ele>
        <time>2026-05-17T08:45:27.876Z</time>
      </trkpt>
      <trkpt lat="48.60979" lon="-4.55214">
        <ele>7</ele>
        <time>2026-05-17T08:45:31.892Z</time>
      </trkpt>
      <trkpt lat="48.6098" lon="-4.55221">
        <ele>7</ele>
        <time>2026-05-17T08:45:35.969Z</time>
      </trkpt>
      <trkpt lat="48.60982" lon="-4.5523">
        <ele>7</ele>
        <time>2026-05-17T08:45:40.654Z</time>
      </trkpt>
      <trkpt lat="48.60983" lon="-4.55238">
        <ele>7</ele>
        <time>2026-05-17T08:45:45.237Z</time>
      </trkpt>
      <trkpt lat="48.60985" lon="-4.55245">
        <ele>7</ele>
        <time>2026-05-17T08:45:49.373Z</time>
      </trkpt>
      <trkpt lat="48.60987" lon="-4.55252">
        <ele>6</ele>
        <time>2026-05-17T08:45:53.511Z</time>
      </trkpt>
      <trkpt lat="48.60989" lon="-4.55257">
        <ele>6</ele>
        <time>2026-05-17T08:45:57.538Z</time>
      </trkpt>
      <trkpt lat="48.60991" lon="-4.55264">
        <ele>5</ele>
        <time>2026-05-17T08:46:02.051Z</time>
      </trkpt>
      <trkpt lat="48.60992" lon="-4.55273">
        <ele>5</ele>
        <time>2026-05-17T08:46:06.634Z</time>
      </trkpt>
      <trkpt lat="48.60993" lon="-4.5528">
        <ele>5</ele>
        <time>2026-05-17T08:46:10.813Z</time>
      </trkpt>
      <trkpt lat="48.60994" lon="-4.55288">
        <ele>5</ele>
        <time>2026-05-17T08:46:15.428Z</time>
      </trkpt>
      <trkpt lat="48.60996" lon="-4.55297">
        <ele>4</ele>
        <time>2026-05-17T08:46:19.876Z</time>
      </trkpt>
      <trkpt lat="48.60998" lon="-4.55306">
        <ele>4</ele>
        <time>2026-05-17T08:46:23.876Z</time>
      </trkpt>
      <trkpt lat="48.60999" lon="-4.55313">
        <ele>4</ele>
        <time>2026-05-17T08:46:28.134Z</time>
      </trkpt>
      <trkpt lat="48.61001" lon="-4.55321">
        <ele>3</ele>
        <time>2026-05-17T08:46:32.749Z</time>
      </trkpt>
      <trkpt lat="48.61002" lon="-4.55329">
        <ele>3</ele>
        <time>2026-05-17T08:46:36.734Z</time>
      </trkpt>
      <trkpt lat="48.61004" lon="-4.55337">
        <ele>3</ele>
        <time>2026-05-17T08:46:40.876Z</time>
      </trkpt>
      <trkpt lat="48.61006" lon="-4.55344">
        <ele>3</ele>
        <time>2026-05-17T08:46:45.411Z</time>
      </trkpt>
      <trkpt lat="48.61008" lon="-4.55352">
        <ele>3</ele>
        <time>2026-05-17T08:46:49.876Z</time>
      </trkpt>
      <trkpt lat="48.61009" lon="-4.55359">
        <ele>3</ele>
        <time>2026-05-17T08:46:54.054Z</time>
      </trkpt>
      <trkpt lat="48.6101" lon="-4.55366">
        <ele>3</ele>
        <time>2026-05-17T08:46:58.211Z</time>
      </trkpt>
      <trkpt lat="48.61012" lon="-4.55373">
        <ele>3</ele>
        <time>2026-05-17T08:47:02.253Z</time>
      </trkpt>
      <trkpt lat="48.61014" lon="-4.5538">
        <ele>3</ele>
        <time>2026-05-17T08:47:06.334Z</time>
      </trkpt>
      <trkpt lat="48.61016" lon="-4.55388">
        <ele>3</ele>
        <time>2026-05-17T08:47:10.651Z</time>
      </trkpt>
      <trkpt lat="48.61018" lon="-4.55394">
        <ele>3</ele>
        <time>2026-05-17T08:47:14.876Z</time>
      </trkpt>
      <trkpt lat="48.6102" lon="-4.55402">
        <ele>3</ele>
        <time>2026-05-17T08:47:19.455Z</time>
      </trkpt>
      <trkpt lat="48.61021" lon="-4.55407">
        <ele>3</ele>
        <time>2026-05-17T08:47:23.627Z</time>
      </trkpt>
      <trkpt lat="48.61021" lon="-4.55415">
        <ele>3</ele>
        <time>2026-05-17T08:47:28.234Z</time>
      </trkpt>
      <trkpt lat="48.61021" lon="-4.55416">
        <ele>3</ele>
        <time>2026-05-17T08:47:32.876Z</time>
      </trkpt>
      <trkpt lat="48.61015" lon="-4.55421">
        <ele>3</ele>
        <time>2026-05-17T08:48:04.876Z</time>
      </trkpt>
      <trkpt lat="48.61015" lon="-4.55423">
        <ele>3</ele>
        <time>2026-05-17T08:48:08.876Z</time>
      </trkpt>
      <trkpt lat="48.61014" lon="-4.55423">
        <ele>3</ele>
        <time>2026-05-17T08:48:13.876Z</time>
      </trkpt>
      <trkpt lat="48.61015" lon="-4.55425">
        <ele>3</ele>
        <time>2026-05-17T08:48:18.876Z</time>
      </trkpt>
      <trkpt lat="48.61015" lon="-4.55434">
        <ele>3</ele>
        <time>2026-05-17T08:48:23.500Z</time>
      </trkpt>
      <trkpt lat="48.61011" lon="-4.55439">
        <ele>3</ele>
        <time>2026-05-17T08:48:27.620Z</time>
      </trkpt>
      <trkpt lat="48.61009" lon="-4.55442">
        <ele>3</ele>
        <time>2026-05-17T08:48:31.664Z</time>
      </trkpt>
      <trkpt lat="48.61008" lon="-4.55448">
        <ele>3</ele>
        <time>2026-05-17T08:48:36.186Z</time>
      </trkpt>
      <trkpt lat="48.61006" lon="-4.55454">
        <ele>3</ele>
        <time>2026-05-17T08:48:40.582Z</time>
      </trkpt>
      <trkpt lat="48.61005" lon="-4.55461">
        <ele>2</ele>
        <time>2026-05-17T08:48:45.060Z</time>
      </trkpt>
      <trkpt lat="48.61002" lon="-4.55464">
        <ele>2</ele>
        <time>2026-05-17T08:48:49.180Z</time>
      </trkpt>
      <trkpt lat="48.61001" lon="-4.55471">
        <ele>2</ele>
        <time>2026-05-17T08:48:53.660Z</time>
      </trkpt>
      <trkpt lat="48.60999" lon="-4.55478">
        <ele>2</ele>
        <time>2026-05-17T08:48:57.876Z</time>
      </trkpt>
      <trkpt lat="48.60997" lon="-4.55484">
        <ele>2</ele>
        <time>2026-05-17T08:49:02.065Z</time>
      </trkpt>
      <trkpt lat="48.60994" lon="-4.5549">
        <ele>1</ele>
        <time>2026-05-17T08:49:06.200Z</time>
      </trkpt>
      <trkpt lat="48.60989" lon="-4.55494">
        <ele>1</ele>
        <time>2026-05-17T08:49:10.341Z</time>
      </trkpt>
      <trkpt lat="48.60985" lon="-4.55495">
        <ele>2</ele>
        <time>2026-05-17T08:49:14.843Z</time>
      </trkpt>
      <trkpt lat="48.6098" lon="-4.55498">
        <ele>2</ele>
        <time>2026-05-17T08:49:19.382Z</time>
      </trkpt>
      <trkpt lat="48.60975" lon="-4.555">
        <ele>2</ele>
        <time>2026-05-17T08:49:23.876Z</time>
      </trkpt>
      <trkpt lat="48.6097" lon="-4.55502">
        <ele>2</ele>
        <time>2026-05-17T08:49:28.325Z</time>
      </trkpt>
      <trkpt lat="48.60966" lon="-4.55504">
        <ele>2</ele>
        <time>2026-05-17T08:49:32.803Z</time>
      </trkpt>
      <trkpt lat="48.60961" lon="-4.55505">
        <ele>2</ele>
        <time>2026-05-17T08:49:37.047Z</time>
      </trkpt>
      <trkpt lat="48.60957" lon="-4.55504">
        <ele>3</ele>
        <time>2026-05-17T08:49:41.447Z</time>
      </trkpt>
      <trkpt lat="48.60952" lon="-4.55504">
        <ele>3</ele>
        <time>2026-05-17T08:49:45.823Z</time>
      </trkpt>
      <trkpt lat="48.60948" lon="-4.55502">
        <ele>3</ele>
        <time>2026-05-17T08:49:50.286Z</time>
      </trkpt>
      <trkpt lat="48.60943" lon="-4.55501">
        <ele>3</ele>
        <time>2026-05-17T08:49:54.585Z</time>
      </trkpt>
      <trkpt lat="48.60938" lon="-4.555">
        <ele>3</ele>
        <time>2026-05-17T08:49:59.100Z</time>
      </trkpt>
      <trkpt lat="48.60934" lon="-4.55499">
        <ele>3</ele>
        <time>2026-05-17T08:50:03.340Z</time>
      </trkpt>
      <trkpt lat="48.60929" lon="-4.55498">
        <ele>3</ele>
        <time>2026-05-17T08:50:07.460Z</time>
      </trkpt>
      <trkpt lat="48.60924" lon="-4.55497">
        <ele>3</ele>
        <time>2026-05-17T08:50:11.640Z</time>
      </trkpt>
      <trkpt lat="48.60919" lon="-4.55495">
        <ele>3</ele>
        <time>2026-05-17T08:50:15.876Z</time>
      </trkpt>
      <trkpt lat="48.60914" lon="-4.55493">
        <ele>3</ele>
        <time>2026-05-17T08:50:20.182Z</time>
      </trkpt>
      <trkpt lat="48.6091" lon="-4.55489">
        <ele>3</ele>
        <time>2026-05-17T08:50:24.625Z</time>
      </trkpt>
      <trkpt lat="48.60905" lon="-4.55488">
        <ele>3</ele>
        <time>2026-05-17T08:50:28.720Z</time>
      </trkpt>
      <trkpt lat="48.609" lon="-4.55489">
        <ele>3</ele>
        <time>2026-05-17T08:50:32.885Z</time>
      </trkpt>
      <trkpt lat="48.60895" lon="-4.55489">
        <ele>3</ele>
        <time>2026-05-17T08:50:37.070Z</time>
      </trkpt>
      <trkpt lat="48.6089" lon="-4.5549">
        <ele>3</ele>
        <time>2026-05-17T08:50:41.401Z</time>
      </trkpt>
      <trkpt lat="48.60886" lon="-4.55489">
        <ele>3</ele>
        <time>2026-05-17T08:50:45.485Z</time>
      </trkpt>
      <trkpt lat="48.60881" lon="-4.5549">
        <ele>3</ele>
        <time>2026-05-17T08:50:49.876Z</time>
      </trkpt>
      <trkpt lat="48.60876" lon="-4.5549">
        <ele>3</ele>
        <time>2026-05-17T08:50:54.145Z</time>
      </trkpt>
      <trkpt lat="48.60871" lon="-4.5549">
        <ele>3</ele>
        <time>2026-05-17T08:50:58.481Z</time>
      </trkpt>
      <trkpt lat="48.60866" lon="-4.55491">
        <ele>3</ele>
        <time>2026-05-17T08:51:02.761Z</time>
      </trkpt>
      <trkpt lat="48.60862" lon="-4.55491">
        <ele>3</ele>
        <time>2026-05-17T08:51:06.876Z</time>
      </trkpt>
      <trkpt lat="48.60857" lon="-4.5549">
        <ele>3</ele>
        <time>2026-05-17T08:51:11.422Z</time>
      </trkpt>
      <trkpt lat="48.60852" lon="-4.55491">
        <ele>3</ele>
        <time>2026-05-17T08:51:15.705Z</time>
      </trkpt>
      <trkpt lat="48.60848" lon="-4.55494">
        <ele>3</ele>
        <time>2026-05-17T08:51:20.004Z</time>
      </trkpt>
      <trkpt lat="48.60843" lon="-4.55494">
        <ele>4</ele>
        <time>2026-05-17T08:51:24.400Z</time>
      </trkpt>
      <trkpt lat="48.60837" lon="-4.55495">
        <ele>4</ele>
        <time>2026-05-17T08:51:28.485Z</time>
      </trkpt>
      <trkpt lat="48.60833" lon="-4.55497">
        <ele>4</ele>
        <time>2026-05-17T08:51:32.564Z</time>
      </trkpt>
      <trkpt lat="48.60827" lon="-4.55498">
        <ele>4</ele>
        <time>2026-05-17T08:51:37.641Z</time>
      </trkpt>
      <trkpt lat="48.60822" lon="-4.555">
        <ele>4</ele>
        <time>2026-05-17T08:51:41.760Z</time>
      </trkpt>
      <trkpt lat="48.60816" lon="-4.55502">
        <ele>5</ele>
        <time>2026-05-17T08:51:46.204Z</time>
      </trkpt>
      <trkpt lat="48.60811" lon="-4.55504">
        <ele>5</ele>
        <time>2026-05-17T08:51:50.282Z</time>
      </trkpt>
      <trkpt lat="48.60806" lon="-4.55506">
        <ele>5</ele>
        <time>2026-05-17T08:51:54.302Z</time>
      </trkpt>
      <trkpt lat="48.608" lon="-4.55508">
        <ele>5</ele>
        <time>2026-05-17T08:51:58.876Z</time>
      </trkpt>
      <trkpt lat="48.60794" lon="-4.5551">
        <ele>5</ele>
        <time>2026-05-17T08:52:03.481Z</time>
      </trkpt>
      <trkpt lat="48.60789" lon="-4.55513">
        <ele>6</ele>
        <time>2026-05-17T08:52:07.876Z</time>
      </trkpt>
      <trkpt lat="48.60784" lon="-4.55514">
        <ele>5</ele>
        <time>2026-05-17T08:52:11.944Z</time>
      </trkpt>
      <trkpt lat="48.60778" lon="-4.55517">
        <ele>5</ele>
        <time>2026-05-17T08:52:16.501Z</time>
      </trkpt>
      <trkpt lat="48.60774" lon="-4.55518">
        <ele>5</ele>
        <time>2026-05-17T08:52:20.554Z</time>
      </trkpt>
      <trkpt lat="48.60768" lon="-4.5552">
        <ele>5</ele>
        <time>2026-05-17T08:52:24.666Z</time>
      </trkpt>
      <trkpt lat="48.60763" lon="-4.55522">
        <ele>7</ele>
        <time>2026-05-17T08:52:28.802Z</time>
      </trkpt>
      <trkpt lat="48.60758" lon="-4.55523">
        <ele>7</ele>
        <time>2026-05-17T08:52:33.420Z</time>
      </trkpt>
      <trkpt lat="48.60752" lon="-4.55523">
        <ele>7</ele>
        <time>2026-05-17T08:52:37.876Z</time>
      </trkpt>
      <trkpt lat="48.60747" lon="-4.55523">
        <ele>7</ele>
        <time>2026-05-17T08:52:42.564Z</time>
      </trkpt>
      <trkpt lat="48.60741" lon="-4.55521">
        <ele>7</ele>
        <time>2026-05-17T08:52:47.081Z</time>
      </trkpt>
      <trkpt lat="48.60736" lon="-4.5552">
        <ele>6</ele>
        <time>2026-05-17T08:52:51.203Z</time>
      </trkpt>
      <trkpt lat="48.6073" lon="-4.55518">
        <ele>6</ele>
        <time>2026-05-17T08:52:55.682Z</time>
      </trkpt>
      <trkpt lat="48.60725" lon="-4.55517">
        <ele>6</ele>
        <time>2026-05-17T08:52:59.802Z</time>
      </trkpt>
      <trkpt lat="48.6072" lon="-4.55516">
        <ele>6</ele>
        <time>2026-05-17T08:53:04.360Z</time>
      </trkpt>
      <trkpt lat="48.60714" lon="-4.55515">
        <ele>6</ele>
        <time>2026-05-17T08:53:08.863Z</time>
      </trkpt>
      <trkpt lat="48.60709" lon="-4.55514">
        <ele>6</ele>
        <time>2026-05-17T08:53:12.876Z</time>
      </trkpt>
      <trkpt lat="48.60703" lon="-4.55514">
        <ele>6</ele>
        <time>2026-05-17T08:53:17.582Z</time>
      </trkpt>
      <trkpt lat="48.60698" lon="-4.55514">
        <ele>8</ele>
        <time>2026-05-17T08:53:21.585Z</time>
      </trkpt>
      <trkpt lat="48.60693" lon="-4.55513">
        <ele>8</ele>
        <time>2026-05-17T08:53:25.704Z</time>
      </trkpt>
      <trkpt lat="48.60688" lon="-4.55512">
        <ele>8</ele>
        <time>2026-05-17T08:53:29.722Z</time>
      </trkpt>
      <trkpt lat="48.60683" lon="-4.55511">
        <ele>8</ele>
        <time>2026-05-17T08:53:33.784Z</time>
      </trkpt>
      <trkpt lat="48.60678" lon="-4.55511">
        <ele>8</ele>
        <time>2026-05-17T08:53:37.844Z</time>
      </trkpt>
      <trkpt lat="48.60673" lon="-4.55511">
        <ele>8</ele>
        <time>2026-05-17T08:53:41.876Z</time>
      </trkpt>
      <trkpt lat="48.60667" lon="-4.5551">
        <ele>8</ele>
        <time>2026-05-17T08:53:46.564Z</time>
      </trkpt>
      <trkpt lat="48.60662" lon="-4.5551">
        <ele>8</ele>
        <time>2026-05-17T08:53:50.761Z</time>
      </trkpt>
      <trkpt lat="48.60657" lon="-4.55511">
        <ele>8</ele>
        <time>2026-05-17T08:53:54.876Z</time>
      </trkpt>
      <trkpt lat="48.60653" lon="-4.55511">
        <ele>9</ele>
        <time>2026-05-17T08:53:59.557Z</time>
      </trkpt>
      <trkpt lat="48.60649" lon="-4.55512">
        <ele>9</ele>
        <time>2026-05-17T08:54:03.876Z</time>
      </trkpt>
      <trkpt lat="48.60645" lon="-4.5551">
        <ele>9</ele>
        <time>2026-05-17T08:54:07.876Z</time>
      </trkpt>
      <trkpt lat="48.60644" lon="-4.55509">
        <ele>9</ele>
        <time>2026-05-17T08:54:24.876Z</time>
      </trkpt>
      <trkpt lat="48.60644" lon="-4.55509">
        <ele>9</ele>
        <time>2026-05-17T08:54:30.876Z</time>
      </trkpt>
      <trkpt lat="48.6064" lon="-4.55509">
        <ele>9</ele>
        <time>2026-05-17T08:54:35.560Z</time>
      </trkpt>
      <trkpt lat="48.60634" lon="-4.55511">
        <ele>9</ele>
        <time>2026-05-17T08:54:39.876Z</time>
      </trkpt>
      <trkpt lat="48.60629" lon="-4.55511">
        <ele>9</ele>
        <time>2026-05-17T08:54:43.940Z</time>
      </trkpt>
      <trkpt lat="48.60625" lon="-4.55512">
        <ele>10</ele>
        <time>2026-05-17T08:54:48.580Z</time>
      </trkpt>
      <trkpt lat="48.6062" lon="-4.55512">
        <ele>10</ele>
        <time>2026-05-17T08:54:52.659Z</time>
      </trkpt>
      <trkpt lat="48.60616" lon="-4.55512">
        <ele>10</ele>
        <time>2026-05-17T08:54:56.876Z</time>
      </trkpt>
      <trkpt lat="48.60611" lon="-4.55513">
        <ele>10</ele>
        <time>2026-05-17T08:55:01.081Z</time>
      </trkpt>
      <trkpt lat="48.60602" lon="-4.55509">
        <ele>10</ele>
        <time>2026-05-17T08:55:14.876Z</time>
      </trkpt>
      <trkpt lat="48.60601" lon="-4.55509">
        <ele>10</ele>
        <time>2026-05-17T08:55:19.321Z</time>
      </trkpt>
      <trkpt lat="48.60596" lon="-4.55506">
        <ele>11</ele>
        <time>2026-05-17T08:55:23.876Z</time>
      </trkpt>
      <trkpt lat="48.60591" lon="-4.55502">
        <ele>11</ele>
        <time>2026-05-17T08:55:28.303Z</time>
      </trkpt>
      <trkpt lat="48.60588" lon="-4.55497">
        <ele>11</ele>
        <time>2026-05-17T08:55:32.650Z</time>
      </trkpt>
      <trkpt lat="48.60588" lon="-4.55496">
        <ele>11</ele>
        <time>2026-05-17T08:55:36.876Z</time>
      </trkpt>
      <trkpt lat="48.60588" lon="-4.55495">
        <ele>11</ele>
        <time>2026-05-17T08:55:41.364Z</time>
      </trkpt>
      <trkpt lat="48.60585" lon="-4.55489">
        <ele>11</ele>
        <time>2026-05-17T08:55:45.702Z</time>
      </trkpt>
      <trkpt lat="48.60581" lon="-4.55481">
        <ele>12</ele>
        <time>2026-05-17T08:55:50.280Z</time>
      </trkpt>
      <trkpt lat="48.60577" lon="-4.5547">
        <ele>12</ele>
        <time>2026-05-17T08:56:10.585Z</time>
      </trkpt>
      <trkpt lat="48.60576" lon="-4.55462">
        <ele>12</ele>
        <time>2026-05-17T08:56:14.876Z</time>
      </trkpt>
      <trkpt lat="48.60573" lon="-4.55455">
        <ele>12</ele>
        <time>2026-05-17T08:56:19.126Z</time>
      </trkpt>
      <trkpt lat="48.60571" lon="-4.5545">
        <ele>12</ele>
        <time>2026-05-17T08:56:23.187Z</time>
      </trkpt>
      <trkpt lat="48.60567" lon="-4.55445">
        <ele>12</ele>
        <time>2026-05-17T08:56:27.728Z</time>
      </trkpt>
      <trkpt lat="48.60562" lon="-4.55446">
        <ele>12</ele>
        <time>2026-05-17T08:56:31.876Z</time>
      </trkpt>
      <trkpt lat="48.60558" lon="-4.55449">
        <ele>12</ele>
        <time>2026-05-17T08:56:36.402Z</time>
      </trkpt>
      <trkpt lat="48.60554" lon="-4.55451">
        <ele>12</ele>
        <time>2026-05-17T08:56:40.876Z</time>
      </trkpt>
      <trkpt lat="48.6055" lon="-4.55452">
        <ele>12</ele>
        <time>2026-05-17T08:56:45.223Z</time>
      </trkpt>
      <trkpt lat="48.60547" lon="-4.55451">
        <ele>12</ele>
        <time>2026-05-17T08:56:49.876Z</time>
      </trkpt>
      <trkpt lat="48.60547" lon="-4.55452">
        <ele>12</ele>
        <time>2026-05-17T08:56:55.876Z</time>
      </trkpt>
      <trkpt lat="48.60542" lon="-4.55451">
        <ele>11</ele>
        <time>2026-05-17T08:57:00.427Z</time>
      </trkpt>
      <trkpt lat="48.60538" lon="-4.55452">
        <ele>11</ele>
        <time>2026-05-17T08:57:04.445Z</time>
      </trkpt>
      <trkpt lat="48.60534" lon="-4.55454">
        <ele>11</ele>
        <time>2026-05-17T08:57:08.558Z</time>
      </trkpt>
      <trkpt lat="48.6053" lon="-4.55455">
        <ele>11</ele>
        <time>2026-05-17T08:57:12.695Z</time>
      </trkpt>
      <trkpt lat="48.60525" lon="-4.55456">
        <ele>11</ele>
        <time>2026-05-17T08:57:17.260Z</time>
      </trkpt>
      <trkpt lat="48.6052" lon="-4.55456">
        <ele>11</ele>
        <time>2026-05-17T08:57:21.321Z</time>
      </trkpt>
      <trkpt lat="48.60516" lon="-4.55456">
        <ele>11</ele>
        <time>2026-05-17T08:57:25.458Z</time>
      </trkpt>
      <trkpt lat="48.60514" lon="-4.55458">
        <ele>11</ele>
        <time>2026-05-17T08:57:31.876Z</time>
      </trkpt>
      <trkpt lat="48.60512" lon="-4.55457">
        <ele>9</ele>
        <time>2026-05-17T08:57:36.155Z</time>
      </trkpt>
      <trkpt lat="48.60507" lon="-4.55456">
        <ele>9</ele>
        <time>2026-05-17T08:57:40.200Z</time>
      </trkpt>
      <trkpt lat="48.60498" lon="-4.55457">
        <ele>9</ele>
        <time>2026-05-17T08:57:58.876Z</time>
      </trkpt>
      <trkpt lat="48.60498" lon="-4.55458">
        <ele>9</ele>
        <time>2026-05-17T08:58:03.200Z</time>
      </trkpt>
      <trkpt lat="48.60498" lon="-4.55451">
        <ele>9</ele>
        <time>2026-05-17T08:58:07.876Z</time>
      </trkpt>
      <trkpt lat="48.605" lon="-4.55443">
        <ele>9</ele>
        <time>2026-05-17T08:58:12.876Z</time>
      </trkpt>
      <trkpt lat="48.60503" lon="-4.55437">
        <ele>9</ele>
        <time>2026-05-17T08:58:16.876Z</time>
      </trkpt>
      <trkpt lat="48.60503" lon="-4.5543">
        <ele>8</ele>
        <time>2026-05-17T08:58:20.997Z</time>
      </trkpt>
      <trkpt lat="48.60503" lon="-4.55424">
        <ele>8</ele>
        <time>2026-05-17T08:58:25.520Z</time>
      </trkpt>
      <trkpt lat="48.60506" lon="-4.55417">
        <ele>8</ele>
        <time>2026-05-17T08:58:30.058Z</time>
      </trkpt>
      <trkpt lat="48.60508" lon="-4.5541">
        <ele>8</ele>
        <time>2026-05-17T08:58:34.197Z</time>
      </trkpt>
      <trkpt lat="48.6051" lon="-4.55404">
        <ele>8</ele>
        <time>2026-05-17T08:58:38.421Z</time>
      </trkpt>
      <trkpt lat="48.60511" lon="-4.55398">
        <ele>8</ele>
        <time>2026-05-17T08:58:42.813Z</time>
      </trkpt>
      <trkpt lat="48.60513" lon="-4.55394">
        <ele>8</ele>
        <time>2026-05-17T08:58:47.182Z</time>
      </trkpt>
      <trkpt lat="48.60515" lon="-4.55387">
        <ele>11</ele>
        <time>2026-05-17T08:58:51.336Z</time>
      </trkpt>
      <trkpt lat="48.60518" lon="-4.55386">
        <ele>11</ele>
        <time>2026-05-17T09:00:16.122Z</time>
      </trkpt>
      <trkpt lat="48.60517" lon="-4.55377">
        <ele>11</ele>
        <time>2026-05-17T09:00:20.575Z</time>
      </trkpt>
      <trkpt lat="48.60519" lon="-4.55367">
        <ele>11</ele>
        <time>2026-05-17T09:00:25.022Z</time>
      </trkpt>
      <trkpt lat="48.6052" lon="-4.55359">
        <ele>11</ele>
        <time>2026-05-17T09:00:29.500Z</time>
      </trkpt>
      <trkpt lat="48.60522" lon="-4.55351">
        <ele>11</ele>
        <time>2026-05-17T09:00:33.876Z</time>
      </trkpt>
      <trkpt lat="48.60526" lon="-4.55346">
        <ele>11</ele>
        <time>2026-05-17T09:00:38.861Z</time>
      </trkpt>
      <trkpt lat="48.60528" lon="-4.55337">
        <ele>11</ele>
        <time>2026-05-17T09:00:43.315Z</time>
      </trkpt>
      <trkpt lat="48.60529" lon="-4.55329">
        <ele>11</ele>
        <time>2026-05-17T09:00:47.778Z</time>
      </trkpt>
      <trkpt lat="48.6053" lon="-4.55321">
        <ele>11</ele>
        <time>2026-05-17T09:00:52.301Z</time>
      </trkpt>
      <trkpt lat="48.60533" lon="-4.55313">
        <ele>11</ele>
        <time>2026-05-17T09:00:56.876Z</time>
      </trkpt>
      <trkpt lat="48.60534" lon="-4.55305">
        <ele>11</ele>
        <time>2026-05-17T09:01:01.617Z</time>
      </trkpt>
      <trkpt lat="48.60536" lon="-4.55298">
        <ele>11</ele>
        <time>2026-05-17T09:01:05.741Z</time>
      </trkpt>
      <trkpt lat="48.60536" lon="-4.55292">
        <ele>11</ele>
        <time>2026-05-17T09:01:09.876Z</time>
      </trkpt>
      <trkpt lat="48.60537" lon="-4.55284">
        <ele>13</ele>
        <time>2026-05-17T09:01:14.163Z</time>
      </trkpt>
      <trkpt lat="48.60538" lon="-4.55276">
        <ele>13</ele>
        <time>2026-05-17T09:01:18.837Z</time>
      </trkpt>
      <trkpt lat="48.60539" lon="-4.55269">
        <ele>13</ele>
        <time>2026-05-17T09:01:23.155Z</time>
      </trkpt>
      <trkpt lat="48.60541" lon="-4.55263">
        <ele>13</ele>
        <time>2026-05-17T09:01:27.600Z</time>
      </trkpt>
      <trkpt lat="48.60541" lon="-4.55256">
        <ele>13</ele>
        <time>2026-05-17T09:01:31.876Z</time>
      </trkpt>
      <trkpt lat="48.60541" lon="-4.55249">
        <ele>13</ele>
        <time>2026-05-17T09:01:36.220Z</time>
      </trkpt>
      <trkpt lat="48.60542" lon="-4.55242">
        <ele>13</ele>
        <time>2026-05-17T09:01:40.520Z</time>
      </trkpt>
      <trkpt lat="48.60544" lon="-4.55236">
        <ele>13</ele>
        <time>2026-05-17T09:01:44.881Z</time>
      </trkpt>
      <trkpt lat="48.60545" lon="-4.55221">
        <ele>13</ele>
        <time>2026-05-17T09:02:42.876Z</time>
      </trkpt>
      <trkpt lat="48.60545" lon="-4.55221">
        <ele>13</ele>
        <time>2026-05-17T09:02:47.745Z</time>
      </trkpt>
      <trkpt lat="48.60545" lon="-4.55212">
        <ele>13</ele>
        <time>2026-05-17T09:02:52.139Z</time>
      </trkpt>
      <trkpt lat="48.60546" lon="-4.55202">
        <ele>12</ele>
        <time>2026-05-17T09:02:56.876Z</time>
      </trkpt>
      <trkpt lat="48.60544" lon="-4.55196">
        <ele>12</ele>
        <time>2026-05-17T09:03:01.876Z</time>
      </trkpt>
      <trkpt lat="48.60544" lon="-4.5519">
        <ele>12</ele>
        <time>2026-05-17T09:03:05.876Z</time>
      </trkpt>
      <trkpt lat="48.60543" lon="-4.55185">
        <ele>12</ele>
        <time>2026-05-17T09:03:10.423Z</time>
      </trkpt>
      <trkpt lat="48.6054" lon="-4.55177">
        <ele>10</ele>
        <time>2026-05-17T09:03:14.876Z</time>
      </trkpt>
      <trkpt lat="48.60537" lon="-4.55168">
        <ele>10</ele>
        <time>2026-05-17T09:03:19.562Z</time>
      </trkpt>
      <trkpt lat="48.60534" lon="-4.55166">
        <ele>10</ele>
        <time>2026-05-17T09:03:23.622Z</time>
      </trkpt>
      <trkpt lat="48.60532" lon="-4.55161">
        <ele>10</ele>
        <time>2026-05-17T09:03:28.536Z</time>
      </trkpt>
      <trkpt lat="48.60529" lon="-4.55154">
        <ele>10</ele>
        <time>2026-05-17T09:03:32.761Z</time>
      </trkpt>
      <trkpt lat="48.60526" lon="-4.55149">
        <ele>9</ele>
        <time>2026-05-17T09:03:37.060Z</time>
      </trkpt>
      <trkpt lat="48.60524" lon="-4.55139">
        <ele>9</ele>
        <time>2026-05-17T09:03:49.876Z</time>
      </trkpt>
      <trkpt lat="48.60523" lon="-4.55136">
        <ele>9</ele>
        <time>2026-05-17T09:03:53.876Z</time>
      </trkpt>
      <trkpt lat="48.60517" lon="-4.55129">
        <ele>9</ele>
        <time>2026-05-17T09:03:58.460Z</time>
      </trkpt>
      <trkpt lat="48.60513" lon="-4.55122">
        <ele>7</ele>
        <time>2026-05-17T09:04:02.683Z</time>
      </trkpt>
      <trkpt lat="48.60509" lon="-4.55114">
        <ele>7</ele>
        <time>2026-05-17T09:04:06.876Z</time>
      </trkpt>
      <trkpt lat="48.60506" lon="-4.55105">
        <ele>7</ele>
        <time>2026-05-17T09:04:11.884Z</time>
      </trkpt>
      <trkpt lat="48.60504" lon="-4.55096">
        <ele>6</ele>
        <time>2026-05-17T09:04:16.524Z</time>
      </trkpt>
      <trkpt lat="48.60501" lon="-4.5509">
        <ele>6</ele>
        <time>2026-05-17T09:04:20.876Z</time>
      </trkpt>
      <trkpt lat="48.60496" lon="-4.55085">
        <ele>6</ele>
        <time>2026-05-17T09:04:25.500Z</time>
      </trkpt>
      <trkpt lat="48.60491" lon="-4.55082">
        <ele>6</ele>
        <time>2026-05-17T09:04:29.876Z</time>
      </trkpt>
      <trkpt lat="48.60488" lon="-4.5508">
        <ele>6</ele>
        <time>2026-05-17T09:04:33.393Z</time>
      </trkpt>
      <trkpt lat="48.60487" lon="-4.55083">
        <ele>6</ele>
        <time>2026-05-17T09:04:42.876Z</time>
      </trkpt>
      <trkpt lat="48.60486" lon="-4.55084">
        <ele>6</ele>
        <time>2026-05-17T09:04:47.021Z</time>
      </trkpt>
      <trkpt lat="48.60481" lon="-4.5508">
        <ele>6</ele>
        <time>2026-05-17T09:04:51.381Z</time>
      </trkpt>
      <trkpt lat="48.60476" lon="-4.55075">
        <ele>6</ele>
        <time>2026-05-17T09:04:55.876Z</time>
      </trkpt>
      <trkpt lat="48.60472" lon="-4.5507">
        <ele>6</ele>
        <time>2026-05-17T09:05:00.076Z</time>
      </trkpt>
      <trkpt lat="48.60467" lon="-4.55065">
        <ele>6</ele>
        <time>2026-05-17T09:05:04.876Z</time>
      </trkpt>
      <trkpt lat="48.60462" lon="-4.55059">
        <ele>6</ele>
        <time>2026-05-17T09:05:09.437Z</time>
      </trkpt>
      <trkpt lat="48.60458" lon="-4.55055">
        <ele>5</ele>
        <time>2026-05-17T09:05:13.642Z</time>
      </trkpt>
      <trkpt lat="48.60455" lon="-4.55051">
        <ele>5</ele>
        <time>2026-05-17T09:05:17.876Z</time>
      </trkpt>
      <trkpt lat="48.6045" lon="-4.55047">
        <ele>5</ele>
        <time>2026-05-17T09:05:22.560Z</time>
      </trkpt>
      <trkpt lat="48.6045" lon="-4.55047">
        <ele>5</ele>
        <time>2026-05-17T09:05:23.455Z</time>
      </trkpt>
      <trkpt lat="48.60448" lon="-4.55045">
        <ele>5</ele>
        <time>2026-05-17T09:05:31.876Z</time>
      </trkpt>
      <trkpt lat="48.60441" lon="-4.55038">
        <ele>4</ele>
        <time>2026-05-17T09:05:35.876Z</time>
      </trkpt>
      <trkpt lat="48.60438" lon="-4.55034">
        <ele>4</ele>
        <time>2026-05-17T09:05:40.204Z</time>
      </trkpt>
      <trkpt lat="48.60433" lon="-4.5503">
        <ele>4</ele>
        <time>2026-05-17T09:05:44.876Z</time>
      </trkpt>
      <trkpt lat="48.60429" lon="-4.55026">
        <ele>2</ele>
        <time>2026-05-17T09:05:49.461Z</time>
      </trkpt>
      <trkpt lat="48.60424" lon="-4.55022">
        <ele>2</ele>
        <time>2026-05-17T09:05:53.557Z</time>
      </trkpt>
      <trkpt lat="48.6042" lon="-4.55018">
        <ele>2</ele>
        <time>2026-05-17T09:05:57.876Z</time>
      </trkpt>
      <trkpt lat="48.60417" lon="-4.55013">
        <ele>1</ele>
        <time>2026-05-17T09:06:02.576Z</time>
      </trkpt>
      <trkpt lat="48.60414" lon="-4.55009">
        <ele>1</ele>
        <time>2026-05-17T09:06:06.663Z</time>
      </trkpt>
      <trkpt lat="48.60408" lon="-4.55006">
        <ele>1</ele>
        <time>2026-05-17T09:06:11.880Z</time>
      </trkpt>
      <trkpt lat="48.60404" lon="-4.55003">
        <ele>1</ele>
        <time>2026-05-17T09:06:15.876Z</time>
      </trkpt>
      <trkpt lat="48.60401" lon="-4.54999">
        <ele>1</ele>
        <time>2026-05-17T09:06:19.876Z</time>
      </trkpt>
      <trkpt lat="48.60396" lon="-4.54994">
        <ele>1</ele>
        <time>2026-05-17T09:06:24.876Z</time>
      </trkpt>
      <trkpt lat="48.60392" lon="-4.54991">
        <ele>1</ele>
        <time>2026-05-17T09:06:29.481Z</time>
      </trkpt>
      <trkpt lat="48.60389" lon="-4.54987">
        <ele>1</ele>
        <time>2026-05-17T09:06:33.876Z</time>
      </trkpt>
      <trkpt lat="48.60385" lon="-4.54983">
        <ele>2</ele>
        <time>2026-05-17T09:06:38.676Z</time>
      </trkpt>
      <trkpt lat="48.6038" lon="-4.54976">
        <ele>2</ele>
        <time>2026-05-17T09:06:47.796Z</time>
      </trkpt>
      <trkpt lat="48.60378" lon="-4.54974">
        <ele>2</ele>
        <time>2026-05-17T09:06:51.876Z</time>
      </trkpt>
      <trkpt lat="48.60379" lon="-4.54971">
        <ele>2</ele>
        <time>2026-05-17T09:06:56.840Z</time>
      </trkpt>
      <trkpt lat="48.60382" lon="-4.54967">
        <ele>2</ele>
        <time>2026-05-17T09:07:00.876Z</time>
      </trkpt>
      <trkpt lat="48.60382" lon="-4.54961">
        <ele>2</ele>
        <time>2026-05-17T09:07:05.876Z</time>
      </trkpt>
      <trkpt lat="48.60383" lon="-4.54951">
        <ele>4</ele>
        <time>2026-05-17T09:07:57.876Z</time>
      </trkpt>
      <trkpt lat="48.60384" lon="-4.5495">
        <ele>4</ele>
        <time>2026-05-17T09:08:01.876Z</time>
      </trkpt>
      <trkpt lat="48.60383" lon="-4.54947">
        <ele>4</ele>
        <time>2026-05-17T09:08:06.876Z</time>
      </trkpt>
      <trkpt lat="48.60384" lon="-4.54945">
        <ele>4</ele>
        <time>2026-05-17T09:08:11.063Z</time>
      </trkpt>
      <trkpt lat="48.60386" lon="-4.54937">
        <ele>4</ele>
        <time>2026-05-17T09:08:15.061Z</time>
      </trkpt>
      <trkpt lat="48.60388" lon="-4.54929">
        <ele>5</ele>
        <time>2026-05-17T09:08:19.262Z</time>
      </trkpt>
      <trkpt lat="48.60389" lon="-4.54923">
        <ele>5</ele>
        <time>2026-05-17T09:08:23.362Z</time>
      </trkpt>
      <trkpt lat="48.60392" lon="-4.54916">
        <ele>5</ele>
        <time>2026-05-17T09:08:27.680Z</time>
      </trkpt>
      <trkpt lat="48.60393" lon="-4.54911">
        <ele>5</ele>
        <time>2026-05-17T09:08:32.100Z</time>
      </trkpt>
      <trkpt lat="48.60396" lon="-4.54901">
        <ele>8</ele>
        <time>2026-05-17T09:08:36.518Z</time>
      </trkpt>
      <trkpt lat="48.60399" lon="-4.54894">
        <ele>8</ele>
        <time>2026-05-17T09:08:41.060Z</time>
      </trkpt>
      <trkpt lat="48.60401" lon="-4.54888">
        <ele>8</ele>
        <time>2026-05-17T09:08:45.119Z</time>
      </trkpt>
      <trkpt lat="48.60403" lon="-4.54881">
        <ele>9</ele>
        <time>2026-05-17T09:08:49.222Z</time>
      </trkpt>
      <trkpt lat="48.60407" lon="-4.54875">
        <ele>12</ele>
        <time>2026-05-17T09:09:06.876Z</time>
      </trkpt>
      <trkpt lat="48.60411" lon="-4.54861">
        <ele>12</ele>
        <time>2026-05-17T09:09:11.303Z</time>
      </trkpt>
      <trkpt lat="48.60415" lon="-4.54851">
        <ele>12</ele>
        <time>2026-05-17T09:09:15.825Z</time>
      </trkpt>
      <trkpt lat="48.60417" lon="-4.54844">
        <ele>15</ele>
        <time>2026-05-17T09:09:19.981Z</time>
      </trkpt>
      <trkpt lat="48.6042" lon="-4.54836">
        <ele>15</ele>
        <time>2026-05-17T09:09:24.560Z</time>
      </trkpt>
      <trkpt lat="48.60421" lon="-4.54829">
        <ele>15</ele>
        <time>2026-05-17T09:09:28.562Z</time>
      </trkpt>
      <trkpt lat="48.60423" lon="-4.54821">
        <ele>15</ele>
        <time>2026-05-17T09:09:33.604Z</time>
      </trkpt>
      <trkpt lat="48.60425" lon="-4.54814">
        <ele>18</ele>
        <time>2026-05-17T09:09:37.717Z</time>
      </trkpt>
      <trkpt lat="48.60427" lon="-4.54807">
        <ele>18</ele>
        <time>2026-05-17T09:09:42.298Z</time>
      </trkpt>
      <trkpt lat="48.60429" lon="-4.548">
        <ele>18</ele>
        <time>2026-05-17T09:09:46.763Z</time>
      </trkpt>
      <trkpt lat="48.6043" lon="-4.54793">
        <ele>18</ele>
        <time>2026-05-17T09:09:51.121Z</time>
      </trkpt>
      <trkpt lat="48.6043" lon="-4.54786">
        <ele>21</ele>
        <time>2026-05-17T09:09:55.180Z</time>
      </trkpt>
      <trkpt lat="48.60431" lon="-4.54779">
        <ele>20</ele>
        <time>2026-05-17T09:09:59.217Z</time>
      </trkpt>
      <trkpt lat="48.60431" lon="-4.54771">
        <ele>20</ele>
        <time>2026-05-17T09:10:03.799Z</time>
      </trkpt>
      <trkpt lat="48.60431" lon="-4.54763">
        <ele>22</ele>
        <time>2026-05-17T09:10:07.876Z</time>
      </trkpt>
      <trkpt lat="48.60431" lon="-4.54756">
        <ele>22</ele>
        <time>2026-05-17T09:10:12.424Z</time>
      </trkpt>
      <trkpt lat="48.60431" lon="-4.5475">
        <ele>22</ele>
        <time>2026-05-17T09:10:16.441Z</time>
      </trkpt>
      <trkpt lat="48.60432" lon="-4.54736">
        <ele>24</ele>
        <time>2026-05-17T09:10:47.876Z</time>
      </trkpt>
      <trkpt lat="48.60432" lon="-4.54735">
        <ele>24</ele>
        <time>2026-05-17T09:10:53.241Z</time>
      </trkpt>
      <trkpt lat="48.60432" lon="-4.54729">
        <ele>24</ele>
        <time>2026-05-17T09:10:57.425Z</time>
      </trkpt>
      <trkpt lat="48.60433" lon="-4.54721">
        <ele>24</ele>
        <time>2026-05-17T09:11:01.876Z</time>
      </trkpt>
      <trkpt lat="48.60433" lon="-4.54714">
        <ele>24</ele>
        <time>2026-05-17T09:11:06.876Z</time>
      </trkpt>
      <trkpt lat="48.60432" lon="-4.54708">
        <ele>25</ele>
        <time>2026-05-17T09:11:11.061Z</time>
      </trkpt>
      <trkpt lat="48.60434" lon="-4.54699">
        <ele>25</ele>
        <time>2026-05-17T09:11:15.362Z</time>
      </trkpt>
      <trkpt lat="48.60435" lon="-4.54694">
        <ele>25</ele>
        <time>2026-05-17T09:11:19.876Z</time>
      </trkpt>
      <trkpt lat="48.60433" lon="-4.54687">
        <ele>25</ele>
        <time>2026-05-17T09:11:24.876Z</time>
      </trkpt>
      <trkpt lat="48.60439" lon="-4.54672">
        <ele>25</ele>
        <time>2026-05-17T09:11:42.876Z</time>
      </trkpt>
      <trkpt lat="48.6044" lon="-4.54672">
        <ele>25</ele>
        <time>2026-05-17T09:11:46.876Z</time>
      </trkpt>
      <trkpt lat="48.60441" lon="-4.54671">
        <ele>25</ele>
        <time>2026-05-17T09:11:51.876Z</time>
      </trkpt>
      <trkpt lat="48.60441" lon="-4.5467">
        <ele>25</ele>
        <time>2026-05-17T09:11:55.876Z</time>
      </trkpt>
      <trkpt lat="48.60442" lon="-4.5467">
        <ele>25</ele>
        <time>2026-05-17T09:12:02.876Z</time>
      </trkpt>
      <trkpt lat="48.60443" lon="-4.54663">
        <ele>25</ele>
        <time>2026-05-17T09:12:15.600Z</time>
      </trkpt>
      <trkpt lat="48.60442" lon="-4.54663">
        <ele>25</ele>
        <time>2026-05-17T09:12:19.876Z</time>
      </trkpt>
      <trkpt lat="48.60442" lon="-4.54663">
        <ele>25</ele>
        <time>2026-05-17T09:12:25.876Z</time>
      </trkpt>
      <trkpt lat="48.60442" lon="-4.54662">
        <ele>25</ele>
        <time>2026-05-17T09:12:32.409Z</time>
      </trkpt>
      <trkpt lat="48.60443" lon="-4.54656">
        <ele>25</ele>
        <time>2026-05-17T09:12:36.701Z</time>
      </trkpt>
      <trkpt lat="48.60449" lon="-4.54659">
        <ele>25</ele>
        <time>2026-05-17T09:13:05.874Z</time>
      </trkpt>
      <trkpt lat="48.60449" lon="-4.54659">
        <ele>25</ele>
        <time>2026-05-17T09:13:09.876Z</time>
      </trkpt>
      <trkpt lat="48.60447" lon="-4.5466">
        <ele>25</ele>
        <time>2026-05-17T09:13:14.876Z</time>
      </trkpt>
      <trkpt lat="48.60444" lon="-4.54657">
        <ele>25</ele>
        <time>2026-05-17T09:13:19.005Z</time>
      </trkpt>
      <trkpt lat="48.60442" lon="-4.54648">
        <ele>25</ele>
        <time>2026-05-17T09:13:23.740Z</time>
      </trkpt>
      <trkpt lat="48.60443" lon="-4.5464">
        <ele>25</ele>
        <time>2026-05-17T09:13:28.124Z</time>
      </trkpt>
      <trkpt lat="48.60446" lon="-4.54634">
        <ele>25</ele>
        <time>2026-05-17T09:13:32.221Z</time>
      </trkpt>
      <trkpt lat="48.60448" lon="-4.54627">
        <ele>25</ele>
        <time>2026-05-17T09:13:36.363Z</time>
      </trkpt>
      <trkpt lat="48.60451" lon="-4.54622">
        <ele>25</ele>
        <time>2026-05-17T09:13:40.876Z</time>
      </trkpt>
      <trkpt lat="48.60453" lon="-4.54616">
        <ele>25</ele>
        <time>2026-05-17T09:13:45.362Z</time>
      </trkpt>
      <trkpt lat="48.60454" lon="-4.54611">
        <ele>25</ele>
        <time>2026-05-17T09:13:49.876Z</time>
      </trkpt>
      <trkpt lat="48.60454" lon="-4.5461">
        <ele>25</ele>
        <time>2026-05-17T09:13:54.445Z</time>
      </trkpt>
      <trkpt lat="48.60455" lon="-4.54599">
        <ele>25</ele>
        <time>2026-05-17T09:13:58.463Z</time>
      </trkpt>
      <trkpt lat="48.60455" lon="-4.54593">
        <ele>26</ele>
        <time>2026-05-17T09:14:02.723Z</time>
      </trkpt>
      <trkpt lat="48.60455" lon="-4.54586">
        <ele>26</ele>
        <time>2026-05-17T09:14:06.876Z</time>
      </trkpt>
      <trkpt lat="48.60455" lon="-4.54577">
        <ele>26</ele>
        <time>2026-05-17T09:14:11.050Z</time>
      </trkpt>
      <trkpt lat="48.60454" lon="-4.5457">
        <ele>26</ele>
        <time>2026-05-17T09:14:15.382Z</time>
      </trkpt>
      <trkpt lat="48.60454" lon="-4.54562">
        <ele>26</ele>
        <time>2026-05-17T09:14:19.640Z</time>
      </trkpt>
      <trkpt lat="48.60454" lon="-4.54555">
        <ele>26</ele>
        <time>2026-05-17T09:14:23.876Z</time>
      </trkpt>
      <trkpt lat="48.60454" lon="-4.54547">
        <ele>26</ele>
        <time>2026-05-17T09:14:28.049Z</time>
      </trkpt>
      <trkpt lat="48.60453" lon="-4.54541">
        <ele>27</ele>
        <time>2026-05-17T09:14:32.100Z</time>
      </trkpt>
      <trkpt lat="48.60452" lon="-4.54533">
        <ele>27</ele>
        <time>2026-05-17T09:14:36.540Z</time>
      </trkpt>
      <trkpt lat="48.60452" lon="-4.54525">
        <ele>27</ele>
        <time>2026-05-17T09:14:41.128Z</time>
      </trkpt>
      <trkpt lat="48.60451" lon="-4.54517">
        <ele>27</ele>
        <time>2026-05-17T09:14:45.546Z</time>
      </trkpt>
      <trkpt lat="48.6045" lon="-4.54509">
        <ele>27</ele>
        <time>2026-05-17T09:14:49.876Z</time>
      </trkpt>
      <trkpt lat="48.60449" lon="-4.54501">
        <ele>27</ele>
        <time>2026-05-17T09:14:53.876Z</time>
      </trkpt>
      <trkpt lat="48.60449" lon="-4.54492">
        <ele>27</ele>
        <time>2026-05-17T09:14:58.326Z</time>
      </trkpt>
      <trkpt lat="48.60448" lon="-4.54483">
        <ele>27</ele>
        <time>2026-05-17T09:15:02.821Z</time>
      </trkpt>
      <trkpt lat="48.60448" lon="-4.54475">
        <ele>27</ele>
        <time>2026-05-17T09:15:07.301Z</time>
      </trkpt>
      <trkpt lat="48.60448" lon="-4.54468">
        <ele>27</ele>
        <time>2026-05-17T09:15:11.322Z</time>
      </trkpt>
      <trkpt lat="48.60447" lon="-4.5446">
        <ele>27</ele>
        <time>2026-05-17T09:15:15.800Z</time>
      </trkpt>
      <trkpt lat="48.60448" lon="-4.54451">
        <ele>28</ele>
        <time>2026-05-17T09:15:20.340Z</time>
      </trkpt>
      <trkpt lat="48.60447" lon="-4.54443">
        <ele>28</ele>
        <time>2026-05-17T09:15:24.861Z</time>
      </trkpt>
      <trkpt lat="48.60448" lon="-4.54435">
        <ele>28</ele>
        <time>2026-05-17T09:15:29.247Z</time>
      </trkpt>
      <trkpt lat="48.60448" lon="-4.54427">
        <ele>28</ele>
        <time>2026-05-17T09:15:33.702Z</time>
      </trkpt>
      <trkpt lat="48.60449" lon="-4.54419">
        <ele>28</ele>
        <time>2026-05-17T09:15:38.123Z</time>
      </trkpt>
      <trkpt lat="48.60449" lon="-4.5441">
        <ele>28</ele>
        <time>2026-05-17T09:15:42.602Z</time>
      </trkpt>
      <trkpt lat="48.60449" lon="-4.54402">
        <ele>28</ele>
        <time>2026-05-17T09:15:46.700Z</time>
      </trkpt>
      <trkpt lat="48.6045" lon="-4.54395">
        <ele>28</ele>
        <time>2026-05-17T09:15:51.342Z</time>
      </trkpt>
      <trkpt lat="48.6045" lon="-4.54388">
        <ele>28</ele>
        <time>2026-05-17T09:15:55.463Z</time>
      </trkpt>
      <trkpt lat="48.6045" lon="-4.54381">
        <ele>28</ele>
        <time>2026-05-17T09:15:59.600Z</time>
      </trkpt>
      <trkpt lat="48.6045" lon="-4.54372">
        <ele>29</ele>
        <time>2026-05-17T09:16:03.876Z</time>
      </trkpt>
      <trkpt lat="48.6045" lon="-4.54364">
        <ele>29</ele>
        <time>2026-05-17T09:16:08.519Z</time>
      </trkpt>
      <trkpt lat="48.60451" lon="-4.54356">
        <ele>29</ele>
        <time>2026-05-17T09:16:13.083Z</time>
      </trkpt>
      <trkpt lat="48.60452" lon="-4.54348">
        <ele>29</ele>
        <time>2026-05-17T09:16:17.640Z</time>
      </trkpt>
      <trkpt lat="48.60452" lon="-4.54341">
        <ele>30</ele>
        <time>2026-05-17T09:16:21.737Z</time>
      </trkpt>
      <trkpt lat="48.60453" lon="-4.54334">
        <ele>30</ele>
        <time>2026-05-17T09:16:25.858Z</time>
      </trkpt>
      <trkpt lat="48.60453" lon="-4.54325">
        <ele>30</ele>
        <time>2026-05-17T09:16:30.441Z</time>
      </trkpt>
      <trkpt lat="48.60451" lon="-4.54317">
        <ele>31</ele>
        <time>2026-05-17T09:16:35.056Z</time>
      </trkpt>
      <trkpt lat="48.60449" lon="-4.54312">
        <ele>31</ele>
        <time>2026-05-17T09:16:39.298Z</time>
      </trkpt>
      <trkpt lat="48.60445" lon="-4.54309">
        <ele>31</ele>
        <time>2026-05-17T09:16:43.563Z</time>
      </trkpt>
      <trkpt lat="48.60441" lon="-4.54309">
        <ele>31</ele>
        <time>2026-05-17T09:16:47.822Z</time>
      </trkpt>
      <trkpt lat="48.60436" lon="-4.54311">
        <ele>31</ele>
        <time>2026-05-17T09:16:52.219Z</time>
      </trkpt>
      <trkpt lat="48.60431" lon="-4.5431">
        <ele>31</ele>
        <time>2026-05-17T09:16:56.440Z</time>
      </trkpt>
      <trkpt lat="48.60427" lon="-4.54311">
        <ele>32</ele>
        <time>2026-05-17T09:17:00.655Z</time>
      </trkpt>
      <trkpt lat="48.60423" lon="-4.5431">
        <ele>32</ele>
        <time>2026-05-17T09:17:04.876Z</time>
      </trkpt>
      <trkpt lat="48.60418" lon="-4.54311">
        <ele>32</ele>
        <time>2026-05-17T09:17:09.598Z</time>
      </trkpt>
      <trkpt lat="48.60413" lon="-4.54312">
        <ele>32</ele>
        <time>2026-05-17T09:17:13.876Z</time>
      </trkpt>
      <trkpt lat="48.60409" lon="-4.54312">
        <ele>32</ele>
        <time>2026-05-17T09:17:18.004Z</time>
      </trkpt>
      <trkpt lat="48.60404" lon="-4.54313">
        <ele>32</ele>
        <time>2026-05-17T09:17:22.140Z</time>
      </trkpt>
      <trkpt lat="48.604" lon="-4.54313">
        <ele>33</ele>
        <time>2026-05-17T09:17:26.460Z</time>
      </trkpt>
      <trkpt lat="48.60394" lon="-4.54313">
        <ele>33</ele>
        <time>2026-05-17T09:17:30.881Z</time>
      </trkpt>
      <trkpt lat="48.60388" lon="-4.54315">
        <ele>33</ele>
        <time>2026-05-17T09:17:35.222Z</time>
      </trkpt>
      <trkpt lat="48.60384" lon="-4.54313">
        <ele>33</ele>
        <time>2026-05-17T09:17:39.876Z</time>
      </trkpt>
      <trkpt lat="48.6038" lon="-4.54312">
        <ele>33</ele>
        <time>2026-05-17T09:17:43.876Z</time>
      </trkpt>
      <trkpt lat="48.60376" lon="-4.54308">
        <ele>33</ele>
        <time>2026-05-17T09:17:47.980Z</time>
      </trkpt>
      <trkpt lat="48.60372" lon="-4.54313">
        <ele>32</ele>
        <time>2026-05-17T09:17:52.261Z</time>
      </trkpt>
      <trkpt lat="48.60367" lon="-4.5432">
        <ele>31</ele>
        <time>2026-05-17T09:17:56.760Z</time>
      </trkpt>
      <trkpt lat="48.60362" lon="-4.54322">
        <ele>31</ele>
        <time>2026-05-17T09:18:01.204Z</time>
      </trkpt>
      <trkpt lat="48.60353" lon="-4.54325">
        <ele>31</ele>
        <time>2026-05-17T09:18:23.876Z</time>
      </trkpt>
      <trkpt lat="48.6035" lon="-4.54326">
        <ele>31</ele>
        <time>2026-05-17T09:18:28.500Z</time>
      </trkpt>
      <trkpt lat="48.60345" lon="-4.54328">
        <ele>31</ele>
        <time>2026-05-17T09:18:32.876Z</time>
      </trkpt>
      <trkpt lat="48.60345" lon="-4.5433">
        <ele>31</ele>
        <time>2026-05-17T09:18:37.221Z</time>
      </trkpt>
      <trkpt lat="48.6034" lon="-4.54332">
        <ele>31</ele>
        <time>2026-05-17T09:18:41.725Z</time>
      </trkpt>
      <trkpt lat="48.6032" lon="-4.54339">
        <ele>31</ele>
        <time>2026-05-17T09:19:16.820Z</time>
      </trkpt>
      <trkpt lat="48.60316" lon="-4.5434">
        <ele>30</ele>
        <time>2026-05-17T09:19:20.876Z</time>
      </trkpt>
      <trkpt lat="48.60316" lon="-4.5434">
        <ele>30</ele>
        <time>2026-05-17T09:19:24.876Z</time>
      </trkpt>
      <trkpt lat="48.60316" lon="-4.5434">
        <ele>30</ele>
        <time>2026-05-17T09:19:28.876Z</time>
      </trkpt>
      <trkpt lat="48.60315" lon="-4.5434">
        <ele>30</ele>
        <time>2026-05-17T09:19:36.876Z</time>
      </trkpt>
      <trkpt lat="48.60311" lon="-4.54346">
        <ele>30</ele>
        <time>2026-05-17T09:20:26.147Z</time>
      </trkpt>
      <trkpt lat="48.60304" lon="-4.54345">
        <ele>30</ele>
        <time>2026-05-17T09:20:30.182Z</time>
      </trkpt>
      <trkpt lat="48.60298" lon="-4.54345">
        <ele>30</ele>
        <time>2026-05-17T09:20:34.346Z</time>
      </trkpt>
      <trkpt lat="48.60292" lon="-4.54346">
        <ele>30</ele>
        <time>2026-05-17T09:20:38.587Z</time>
      </trkpt>
      <trkpt lat="48.60287" lon="-4.54346">
        <ele>27</ele>
        <time>2026-05-17T09:20:42.537Z</time>
      </trkpt>
      <trkpt lat="48.60281" lon="-4.54342">
        <ele>27</ele>
        <time>2026-05-17T09:20:47.003Z</time>
      </trkpt>
      <trkpt lat="48.60277" lon="-4.54335">
        <ele>27</ele>
        <time>2026-05-17T09:20:51.181Z</time>
      </trkpt>
      <trkpt lat="48.60274" lon="-4.54328">
        <ele>27</ele>
        <time>2026-05-17T09:20:55.336Z</time>
      </trkpt>
      <trkpt lat="48.60271" lon="-4.54319">
        <ele>28</ele>
        <time>2026-05-17T09:20:59.601Z</time>
      </trkpt>
      <trkpt lat="48.60269" lon="-4.54311">
        <ele>28</ele>
        <time>2026-05-17T09:21:03.876Z</time>
      </trkpt>
      <trkpt lat="48.60266" lon="-4.54303">
        <ele>28</ele>
        <time>2026-05-17T09:21:08.321Z</time>
      </trkpt>
      <trkpt lat="48.60262" lon="-4.54297">
        <ele>23</ele>
        <time>2026-05-17T09:21:12.640Z</time>
      </trkpt>
      <trkpt lat="48.6026" lon="-4.54291">
        <ele>23</ele>
        <time>2026-05-17T09:21:16.876Z</time>
      </trkpt>
      <trkpt lat="48.60256" lon="-4.54283">
        <ele>23</ele>
        <time>2026-05-17T09:21:21.282Z</time>
      </trkpt>
      <trkpt lat="48.60254" lon="-4.54276">
        <ele>23</ele>
        <time>2026-05-17T09:21:25.522Z</time>
      </trkpt>
      <trkpt lat="48.60251" lon="-4.5427">
        <ele>23</ele>
        <time>2026-05-17T09:21:29.782Z</time>
      </trkpt>
      <trkpt lat="48.60248" lon="-4.54262">
        <ele>24</ele>
        <time>2026-05-17T09:21:34.200Z</time>
      </trkpt>
      <trkpt lat="48.60245" lon="-4.54255">
        <ele>24</ele>
        <time>2026-05-17T09:21:38.543Z</time>
      </trkpt>
      <trkpt lat="48.60241" lon="-4.54248">
        <ele>24</ele>
        <time>2026-05-17T09:21:42.861Z</time>
      </trkpt>
      <trkpt lat="48.60237" lon="-4.54243">
        <ele>24</ele>
        <time>2026-05-17T09:21:47.203Z</time>
      </trkpt>
      <trkpt lat="48.60233" lon="-4.54238">
        <ele>18</ele>
        <time>2026-05-17T09:21:51.876Z</time>
      </trkpt>
      <trkpt lat="48.60229" lon="-4.54229">
        <ele>19</ele>
        <time>2026-05-17T09:21:56.204Z</time>
      </trkpt>
      <trkpt lat="48.60226" lon="-4.54222">
        <ele>19</ele>
        <time>2026-05-17T09:22:00.506Z</time>
      </trkpt>
      <trkpt lat="48.60223" lon="-4.54214">
        <ele>19</ele>
        <time>2026-05-17T09:22:05.020Z</time>
      </trkpt>
      <trkpt lat="48.6022" lon="-4.54206">
        <ele>20</ele>
        <time>2026-05-17T09:22:09.876Z</time>
      </trkpt>
      <trkpt lat="48.60218" lon="-4.54205">
        <ele>20</ele>
        <time>2026-05-17T09:22:14.063Z</time>
      </trkpt>
      <trkpt lat="48.60213" lon="-4.54202">
        <ele>20</ele>
        <time>2026-05-17T09:22:18.423Z</time>
      </trkpt>
      <trkpt lat="48.60211" lon="-4.54198">
        <ele>20</ele>
        <time>2026-05-17T09:22:22.766Z</time>
      </trkpt>
      <trkpt lat="48.6021" lon="-4.54192">
        <ele>20</ele>
        <time>2026-05-17T09:22:26.822Z</time>
      </trkpt>
      <trkpt lat="48.60206" lon="-4.54188">
        <ele>16</ele>
        <time>2026-05-17T09:22:30.876Z</time>
      </trkpt>
      <trkpt lat="48.60202" lon="-4.54184">
        <ele>16</ele>
        <time>2026-05-17T09:22:35.223Z</time>
      </trkpt>
      <trkpt lat="48.60199" lon="-4.54179">
        <ele>16</ele>
        <time>2026-05-17T09:22:39.468Z</time>
      </trkpt>
      <trkpt lat="48.60196" lon="-4.54173">
        <ele>16</ele>
        <time>2026-05-17T09:22:43.876Z</time>
      </trkpt>
      <trkpt lat="48.60192" lon="-4.54168">
        <ele>16</ele>
        <time>2026-05-17T09:22:48.440Z</time>
      </trkpt>
      <trkpt lat="48.60188" lon="-4.54162">
        <ele>16</ele>
        <time>2026-05-17T09:22:52.876Z</time>
      </trkpt>
      <trkpt lat="48.60185" lon="-4.54156">
        <ele>16</ele>
        <time>2026-05-17T09:22:57.161Z</time>
      </trkpt>
      <trkpt lat="48.60181" lon="-4.54151">
        <ele>16</ele>
        <time>2026-05-17T09:23:01.205Z</time>
      </trkpt>
      <trkpt lat="48.60178" lon="-4.54146">
        <ele>11</ele>
        <time>2026-05-17T09:23:05.445Z</time>
      </trkpt>
      <trkpt lat="48.60175" lon="-4.54141">
        <ele>11</ele>
        <time>2026-05-17T09:23:09.523Z</time>
      </trkpt>
      <trkpt lat="48.60172" lon="-4.54136">
        <ele>11</ele>
        <time>2026-05-17T09:23:13.876Z</time>
      </trkpt>
      <trkpt lat="48.60168" lon="-4.5413">
        <ele>11</ele>
        <time>2026-05-17T09:23:18.323Z</time>
      </trkpt>
      <trkpt lat="48.60165" lon="-4.54125">
        <ele>11</ele>
        <time>2026-05-17T09:23:22.400Z</time>
      </trkpt>
      <trkpt lat="48.60162" lon="-4.54118">
        <ele>11</ele>
        <time>2026-05-17T09:23:26.876Z</time>
      </trkpt>
      <trkpt lat="48.60157" lon="-4.54112">
        <ele>11</ele>
        <time>2026-05-17T09:23:31.521Z</time>
      </trkpt>
      <trkpt lat="48.60154" lon="-4.54108">
        <ele>11</ele>
        <time>2026-05-17T09:23:35.563Z</time>
      </trkpt>
      <trkpt lat="48.60147" lon="-4.54108">
        <ele>5</ele>
        <time>2026-05-17T09:23:52.240Z</time>
      </trkpt>
      <trkpt lat="48.60144" lon="-4.54098">
        <ele>5</ele>
        <time>2026-05-17T09:23:56.686Z</time>
      </trkpt>
      <trkpt lat="48.60138" lon="-4.54091">
        <ele>5</ele>
        <time>2026-05-17T09:24:01.105Z</time>
      </trkpt>
      <trkpt lat="48.60134" lon="-4.54085">
        <ele>5</ele>
        <time>2026-05-17T09:24:05.705Z</time>
      </trkpt>
      <trkpt lat="48.6013" lon="-4.54079">
        <ele>5</ele>
        <time>2026-05-17T09:24:10.183Z</time>
      </trkpt>
      <trkpt lat="48.60128" lon="-4.54074">
        <ele>5</ele>
        <time>2026-05-17T09:24:14.876Z</time>
      </trkpt>
      <trkpt lat="48.60125" lon="-4.5407">
        <ele>2</ele>
        <time>2026-05-17T09:24:19.885Z</time>
      </trkpt>
      <trkpt lat="48.60123" lon="-4.54071">
        <ele>2</ele>
        <time>2026-05-17T09:24:24.876Z</time>
      </trkpt>
      <trkpt lat="48.60123" lon="-4.5407">
        <ele>2</ele>
        <time>2026-05-17T09:24:28.876Z</time>
      </trkpt>
      <trkpt lat="48.6012" lon="-4.54064">
        <ele>3</ele>
        <time>2026-05-17T09:24:33.876Z</time>
      </trkpt>
      <trkpt lat="48.6012" lon="-4.54063">
        <ele>3</ele>
        <time>2026-05-17T09:50:42.280Z</time>
      </trkpt>
      <trkpt lat="48.60117" lon="-4.54057">
        <ele>3</ele>
        <time>2026-05-17T09:50:46.876Z</time>
      </trkpt>
      <trkpt lat="48.60116" lon="-4.54054">
        <ele>3</ele>
        <time>2026-05-17T09:50:50.876Z</time>
      </trkpt>
      <trkpt lat="48.60114" lon="-4.54053">
        <ele>3</ele>
        <time>2026-05-17T09:50:55.876Z</time>
      </trkpt>
      <trkpt lat="48.60115" lon="-4.54052">
        <ele>3</ele>
        <time>2026-05-17T09:50:59.876Z</time>
      </trkpt>
      <trkpt lat="48.60114" lon="-4.54046">
        <ele>3</ele>
        <time>2026-05-17T09:51:04.720Z</time>
      </trkpt>
      <trkpt lat="48.60113" lon="-4.54043">
        <ele>3</ele>
        <time>2026-05-17T09:51:08.871Z</time>
      </trkpt>
      <trkpt lat="48.60112" lon="-4.54038">
        <ele>5</ele>
        <time>2026-05-17T09:51:13.473Z</time>
      </trkpt>
      <trkpt lat="48.60111" lon="-4.54034">
        <ele>5</ele>
        <time>2026-05-17T09:51:17.876Z</time>
      </trkpt>
      <trkpt lat="48.6011" lon="-4.54034">
        <ele>5</ele>
        <time>2026-05-17T09:51:22.875Z</time>
      </trkpt>
      <trkpt lat="48.60107" lon="-4.54034">
        <ele>5</ele>
        <time>2026-05-17T09:51:27.683Z</time>
      </trkpt>
      <trkpt lat="48.60104" lon="-4.54031">
        <ele>5</ele>
        <time>2026-05-17T09:51:32.073Z</time>
      </trkpt>
      <trkpt lat="48.601" lon="-4.54027">
        <ele>5</ele>
        <time>2026-05-17T09:51:36.876Z</time>
      </trkpt>
      <trkpt lat="48.60097" lon="-4.54022">
        <ele>2</ele>
        <time>2026-05-17T09:51:41.475Z</time>
      </trkpt>
      <trkpt lat="48.60094" lon="-4.54019">
        <ele>2</ele>
        <time>2026-05-17T09:51:45.874Z</time>
      </trkpt>
      <trkpt lat="48.60091" lon="-4.54017">
        <ele>2</ele>
        <time>2026-05-17T09:51:50.876Z</time>
      </trkpt>
      <trkpt lat="48.60088" lon="-4.54015">
        <ele>2</ele>
        <time>2026-05-17T09:51:55.520Z</time>
      </trkpt>
      <trkpt lat="48.60085" lon="-4.54012">
        <ele>6</ele>
        <time>2026-05-17T09:51:59.876Z</time>
      </trkpt>
      <trkpt lat="48.60082" lon="-4.5401">
        <ele>6</ele>
        <time>2026-05-17T09:52:04.393Z</time>
      </trkpt>
      <trkpt lat="48.60081" lon="-4.5401">
        <ele>6</ele>
        <time>2026-05-17T09:52:09.615Z</time>
      </trkpt>
      <trkpt lat="48.60077" lon="-4.54007">
        <ele>6</ele>
        <time>2026-05-17T09:52:14.120Z</time>
      </trkpt>
      <trkpt lat="48.60074" lon="-4.54003">
        <ele>6</ele>
        <time>2026-05-17T09:52:18.436Z</time>
      </trkpt>
      <trkpt lat="48.60071" lon="-4.54001">
        <ele>6</ele>
        <time>2026-05-17T09:52:22.875Z</time>
      </trkpt>
      <trkpt lat="48.60069" lon="-4.53999">
        <ele>2</ele>
        <time>2026-05-17T09:52:27.361Z</time>
      </trkpt>
      <trkpt lat="48.60068" lon="-4.53998">
        <ele>2</ele>
        <time>2026-05-17T09:52:31.576Z</time>
      </trkpt>
      <trkpt lat="48.60065" lon="-4.53995">
        <ele>2</ele>
        <time>2026-05-17T09:52:35.637Z</time>
      </trkpt>
      <trkpt lat="48.60065" lon="-4.53991">
        <ele>2</ele>
        <time>2026-05-17T09:52:39.835Z</time>
      </trkpt>
      <trkpt lat="48.60063" lon="-4.53987">
        <ele>2</ele>
        <time>2026-05-17T09:52:43.876Z</time>
      </trkpt>
      <trkpt lat="48.60064" lon="-4.53981">
        <ele>5</ele>
        <time>2026-05-17T09:52:48.614Z</time>
      </trkpt>
      <trkpt lat="48.60064" lon="-4.53976">
        <ele>5</ele>
        <time>2026-05-17T09:52:53.076Z</time>
      </trkpt>
      <trkpt lat="48.60066" lon="-4.53972">
        <ele>5</ele>
        <time>2026-05-17T09:52:57.155Z</time>
      </trkpt>
      <trkpt lat="48.60068" lon="-4.53967">
        <ele>5</ele>
        <time>2026-05-17T09:53:01.540Z</time>
      </trkpt>
      <trkpt lat="48.6007" lon="-4.53962">
        <ele>10</ele>
        <time>2026-05-17T09:53:05.873Z</time>
      </trkpt>
      <trkpt lat="48.60073" lon="-4.53957">
        <ele>13</ele>
        <time>2026-05-17T09:53:10.456Z</time>
      </trkpt>
      <trkpt lat="48.60076" lon="-4.53952">
        <ele>13</ele>
        <time>2026-05-17T09:53:14.681Z</time>
      </trkpt>
      <trkpt lat="48.60079" lon="-4.53947">
        <ele>13</ele>
        <time>2026-05-17T09:53:19.235Z</time>
      </trkpt>
      <trkpt lat="48.60082" lon="-4.53942">
        <ele>13</ele>
        <time>2026-05-17T09:53:23.401Z</time>
      </trkpt>
      <trkpt lat="48.60084" lon="-4.53936">
        <ele>13</ele>
        <time>2026-05-17T09:53:27.614Z</time>
      </trkpt>
      <trkpt lat="48.60085" lon="-4.5393">
        <ele>15</ele>
        <time>2026-05-17T09:53:31.854Z</time>
      </trkpt>
      <trkpt lat="48.60086" lon="-4.53922">
        <ele>15</ele>
        <time>2026-05-17T09:53:35.873Z</time>
      </trkpt>
      <trkpt lat="48.60087" lon="-4.53914">
        <ele>15</ele>
        <time>2026-05-17T09:53:40.259Z</time>
      </trkpt>
      <trkpt lat="48.60087" lon="-4.53907">
        <ele>15</ele>
        <time>2026-05-17T09:53:44.473Z</time>
      </trkpt>
      <trkpt lat="48.60088" lon="-4.53901">
        <ele>15</ele>
        <time>2026-05-17T09:53:48.516Z</time>
      </trkpt>
      <trkpt lat="48.60087" lon="-4.53893">
        <ele>15</ele>
        <time>2026-05-17T09:53:52.760Z</time>
      </trkpt>
      <trkpt lat="48.60086" lon="-4.53886">
        <ele>15</ele>
        <time>2026-05-17T09:53:56.876Z</time>
      </trkpt>
      <trkpt lat="48.60085" lon="-4.53879">
        <ele>15</ele>
        <time>2026-05-17T09:54:01.716Z</time>
      </trkpt>
      <trkpt lat="48.60083" lon="-4.53873">
        <ele>16</ele>
        <time>2026-05-17T09:54:05.880Z</time>
      </trkpt>
      <trkpt lat="48.60084" lon="-4.53863">
        <ele>16</ele>
        <time>2026-05-17T09:54:10.539Z</time>
      </trkpt>
      <trkpt lat="48.60084" lon="-4.53853">
        <ele>16</ele>
        <time>2026-05-17T09:54:15.137Z</time>
      </trkpt>
      <trkpt lat="48.60083" lon="-4.53845">
        <ele>16</ele>
        <time>2026-05-17T09:54:19.616Z</time>
      </trkpt>
      <trkpt lat="48.60082" lon="-4.53839">
        <ele>16</ele>
        <time>2026-05-17T09:54:23.876Z</time>
      </trkpt>
      <trkpt lat="48.60079" lon="-4.53831">
        <ele>16</ele>
        <time>2026-05-17T09:54:28.380Z</time>
      </trkpt>
      <trkpt lat="48.60077" lon="-4.53825">
        <ele>16</ele>
        <time>2026-05-17T09:54:32.756Z</time>
      </trkpt>
      <trkpt lat="48.60074" lon="-4.53819">
        <ele>18</ele>
        <time>2026-05-17T09:54:37.236Z</time>
      </trkpt>
      <trkpt lat="48.60072" lon="-4.53813">
        <ele>18</ele>
        <time>2026-05-17T09:54:41.873Z</time>
      </trkpt>
      <trkpt lat="48.60066" lon="-4.5381">
        <ele>19</ele>
        <time>2026-05-17T09:54:55.872Z</time>
      </trkpt>
      <trkpt lat="48.60066" lon="-4.53803">
        <ele>19</ele>
        <time>2026-05-17T09:55:00.495Z</time>
      </trkpt>
      <trkpt lat="48.60068" lon="-4.53798">
        <ele>19</ele>
        <time>2026-05-17T09:55:04.606Z</time>
      </trkpt>
      <trkpt lat="48.60066" lon="-4.53791">
        <ele>20</ele>
        <time>2026-05-17T09:55:08.821Z</time>
      </trkpt>
      <trkpt lat="48.60065" lon="-4.53785">
        <ele>20</ele>
        <time>2026-05-17T09:55:13.140Z</time>
      </trkpt>
      <trkpt lat="48.60063" lon="-4.53778">
        <ele>20</ele>
        <time>2026-05-17T09:55:17.294Z</time>
      </trkpt>
      <trkpt lat="48.60062" lon="-4.53772">
        <ele>20</ele>
        <time>2026-05-17T09:55:21.817Z</time>
      </trkpt>
      <trkpt lat="48.60061" lon="-4.53766">
        <ele>20</ele>
        <time>2026-05-17T09:55:26.210Z</time>
      </trkpt>
      <trkpt lat="48.6006" lon="-4.53759">
        <ele>22</ele>
        <time>2026-05-17T09:55:30.833Z</time>
      </trkpt>
      <trkpt lat="48.6006" lon="-4.53752">
        <ele>22</ele>
        <time>2026-05-17T09:55:35.287Z</time>
      </trkpt>
      <trkpt lat="48.60058" lon="-4.53746">
        <ele>22</ele>
        <time>2026-05-17T09:55:39.699Z</time>
      </trkpt>
      <trkpt lat="48.60057" lon="-4.5374">
        <ele>22</ele>
        <time>2026-05-17T09:55:43.717Z</time>
      </trkpt>
      <trkpt lat="48.60056" lon="-4.53734">
        <ele>24</ele>
        <time>2026-05-17T09:55:47.876Z</time>
      </trkpt>
      <trkpt lat="48.60055" lon="-4.53728">
        <ele>24</ele>
        <time>2026-05-17T09:55:52.080Z</time>
      </trkpt>
      <trkpt lat="48.60053" lon="-4.53721">
        <ele>24</ele>
        <time>2026-05-17T09:55:56.875Z</time>
      </trkpt>
      <trkpt lat="48.60053" lon="-4.53715">
        <ele>24</ele>
        <time>2026-05-17T09:56:01.319Z</time>
      </trkpt>
      <trkpt lat="48.60051" lon="-4.53709">
        <ele>24</ele>
        <time>2026-05-17T09:56:05.354Z</time>
      </trkpt>
      <trkpt lat="48.60051" lon="-4.53703">
        <ele>26</ele>
        <time>2026-05-17T09:56:09.500Z</time>
      </trkpt>
      <trkpt lat="48.60049" lon="-4.53695">
        <ele>26</ele>
        <time>2026-05-17T09:56:13.875Z</time>
      </trkpt>
      <trkpt lat="48.60048" lon="-4.53688">
        <ele>26</ele>
        <time>2026-05-17T09:56:18.034Z</time>
      </trkpt>
      <trkpt lat="48.60047" lon="-4.53682">
        <ele>26</ele>
        <time>2026-05-17T09:56:22.376Z</time>
      </trkpt>
      <trkpt lat="48.60046" lon="-4.53675">
        <ele>29</ele>
        <time>2026-05-17T09:56:26.439Z</time>
      </trkpt>
      <trkpt lat="48.60044" lon="-4.53665">
        <ele>29</ele>
        <time>2026-05-17T09:56:30.875Z</time>
      </trkpt>
      <trkpt lat="48.60042" lon="-4.53657">
        <ele>29</ele>
        <time>2026-05-17T09:56:35.294Z</time>
      </trkpt>
      <trkpt lat="48.60041" lon="-4.5365">
        <ele>31</ele>
        <time>2026-05-17T09:56:39.680Z</time>
      </trkpt>
      <trkpt lat="48.60041" lon="-4.53644">
        <ele>31</ele>
        <time>2026-05-17T09:56:43.871Z</time>
      </trkpt>
      <trkpt lat="48.60039" lon="-4.53638">
        <ele>31</ele>
        <time>2026-05-17T09:56:48.401Z</time>
      </trkpt>
      <trkpt lat="48.60038" lon="-4.53632">
        <ele>31</ele>
        <time>2026-05-17T09:56:52.775Z</time>
      </trkpt>
      <trkpt lat="48.60037" lon="-4.53625">
        <ele>31</ele>
        <time>2026-05-17T09:56:56.883Z</time>
      </trkpt>
      <trkpt lat="48.60035" lon="-4.53619">
        <ele>32</ele>
        <time>2026-05-17T09:57:01.095Z</time>
      </trkpt>
      <trkpt lat="48.60033" lon="-4.53613">
        <ele>32</ele>
        <time>2026-05-17T09:57:05.556Z</time>
      </trkpt>
      <trkpt lat="48.60031" lon="-4.53606">
        <ele>32</ele>
        <time>2026-05-17T09:57:09.600Z</time>
      </trkpt>
      <trkpt lat="48.6003" lon="-4.536">
        <ele>32</ele>
        <time>2026-05-17T09:57:14.216Z</time>
      </trkpt>
      <trkpt lat="48.60029" lon="-4.53593">
        <ele>34</ele>
        <time>2026-05-17T09:57:18.738Z</time>
      </trkpt>
      <trkpt lat="48.60028" lon="-4.53587">
        <ele>34</ele>
        <time>2026-05-17T09:57:23.381Z</time>
      </trkpt>
      <trkpt lat="48.60027" lon="-4.5358">
        <ele>34</ele>
        <time>2026-05-17T09:57:27.697Z</time>
      </trkpt>
      <trkpt lat="48.60025" lon="-4.53574">
        <ele>34</ele>
        <time>2026-05-17T09:57:31.876Z</time>
      </trkpt>
      <trkpt lat="48.60024" lon="-4.53566">
        <ele>35</ele>
        <time>2026-05-17T09:57:36.281Z</time>
      </trkpt>
      <trkpt lat="48.60023" lon="-4.53559">
        <ele>35</ele>
        <time>2026-05-17T09:57:40.581Z</time>
      </trkpt>
      <trkpt lat="48.60022" lon="-4.53551">
        <ele>35</ele>
        <time>2026-05-17T09:57:45.060Z</time>
      </trkpt>
      <trkpt lat="48.6002" lon="-4.53543">
        <ele>35</ele>
        <time>2026-05-17T09:57:49.641Z</time>
      </trkpt>
      <trkpt lat="48.60019" lon="-4.53535">
        <ele>37</ele>
        <time>2026-05-17T09:57:54.121Z</time>
      </trkpt>
      <trkpt lat="48.60016" lon="-4.53527">
        <ele>37</ele>
        <time>2026-05-17T09:57:58.513Z</time>
      </trkpt>
      <trkpt lat="48.60014" lon="-4.53521">
        <ele>37</ele>
        <time>2026-05-17T09:58:02.514Z</time>
      </trkpt>
      <trkpt lat="48.60012" lon="-4.53513">
        <ele>39</ele>
        <time>2026-05-17T09:58:06.621Z</time>
      </trkpt>
      <trkpt lat="48.6001" lon="-4.53507">
        <ele>39</ele>
        <time>2026-05-17T09:58:11.078Z</time>
      </trkpt>
      <trkpt lat="48.60009" lon="-4.535">
        <ele>39</ele>
        <time>2026-05-17T09:58:15.101Z</time>
      </trkpt>
      <trkpt lat="48.60006" lon="-4.53493">
        <ele>39</ele>
        <time>2026-05-17T09:58:19.178Z</time>
      </trkpt>
      <trkpt lat="48.60005" lon="-4.53486">
        <ele>39</ele>
        <time>2026-05-17T09:58:23.256Z</time>
      </trkpt>
      <trkpt lat="48.60005" lon="-4.5348">
        <ele>42</ele>
        <time>2026-05-17T09:58:27.436Z</time>
      </trkpt>
      <trkpt lat="48.60003" lon="-4.53472">
        <ele>42</ele>
        <time>2026-05-17T09:58:31.886Z</time>
      </trkpt>
      <trkpt lat="48.60001" lon="-4.53467">
        <ele>42</ele>
        <time>2026-05-17T09:58:36.053Z</time>
      </trkpt>
      <trkpt lat="48.59997" lon="-4.53462">
        <ele>42</ele>
        <time>2026-05-17T09:58:40.060Z</time>
      </trkpt>
      <trkpt lat="48.59994" lon="-4.53456">
        <ele>44</ele>
        <time>2026-05-17T09:58:44.236Z</time>
      </trkpt>
      <trkpt lat="48.59992" lon="-4.5345">
        <ele>44</ele>
        <time>2026-05-17T09:58:48.535Z</time>
      </trkpt>
      <trkpt lat="48.5999" lon="-4.53444">
        <ele>44</ele>
        <time>2026-05-17T09:58:52.794Z</time>
      </trkpt>
      <trkpt lat="48.59989" lon="-4.53439">
        <ele>44</ele>
        <time>2026-05-17T09:58:56.873Z</time>
      </trkpt>
      <trkpt lat="48.59988" lon="-4.53432">
        <ele>44</ele>
        <time>2026-05-17T09:59:01.121Z</time>
      </trkpt>
      <trkpt lat="48.59986" lon="-4.53425">
        <ele>48</ele>
        <time>2026-05-17T09:59:05.720Z</time>
      </trkpt>
      <trkpt lat="48.59984" lon="-4.53418">
        <ele>48</ele>
        <time>2026-05-17T09:59:09.780Z</time>
      </trkpt>
      <trkpt lat="48.59982" lon="-4.53412">
        <ele>48</ele>
        <time>2026-05-17T09:59:13.872Z</time>
      </trkpt>
      <trkpt lat="48.5998" lon="-4.53404">
        <ele>48</ele>
        <time>2026-05-17T09:59:18.320Z</time>
      </trkpt>
      <trkpt lat="48.59978" lon="-4.53398">
        <ele>49</ele>
        <time>2026-05-17T09:59:22.339Z</time>
      </trkpt>
      <trkpt lat="48.59977" lon="-4.53391">
        <ele>49</ele>
        <time>2026-05-17T09:59:26.698Z</time>
      </trkpt>
      <trkpt lat="48.59975" lon="-4.53384">
        <ele>49</ele>
        <time>2026-05-17T09:59:30.876Z</time>
      </trkpt>
      <trkpt lat="48.59974" lon="-4.53378">
        <ele>49</ele>
        <time>2026-05-17T09:59:35.136Z</time>
      </trkpt>
      <trkpt lat="48.59974" lon="-4.53371">
        <ele>50</ele>
        <time>2026-05-17T09:59:39.197Z</time>
      </trkpt>
      <trkpt lat="48.59973" lon="-4.53364">
        <ele>50</ele>
        <time>2026-05-17T09:59:43.556Z</time>
      </trkpt>
      <trkpt lat="48.59973" lon="-4.53358">
        <ele>50</ele>
        <time>2026-05-17T09:59:47.755Z</time>
      </trkpt>
      <trkpt lat="48.59972" lon="-4.53351">
        <ele>50</ele>
        <time>2026-05-17T09:59:52.066Z</time>
      </trkpt>
      <trkpt lat="48.59971" lon="-4.53344">
        <ele>52</ele>
        <time>2026-05-17T09:59:56.875Z</time>
      </trkpt>
      <trkpt lat="48.59969" lon="-4.53336">
        <ele>52</ele>
        <time>2026-05-17T10:00:01.277Z</time>
      </trkpt>
      <trkpt lat="48.59968" lon="-4.5333">
        <ele>52</ele>
        <time>2026-05-17T10:00:05.560Z</time>
      </trkpt>
      <trkpt lat="48.59966" lon="-4.53323">
        <ele>52</ele>
        <time>2026-05-17T10:00:09.836Z</time>
      </trkpt>
      <trkpt lat="48.59965" lon="-4.53316">
        <ele>54</ele>
        <time>2026-05-17T10:00:14.177Z</time>
      </trkpt>
      <trkpt lat="48.59964" lon="-4.53309">
        <ele>54</ele>
        <time>2026-05-17T10:00:18.282Z</time>
      </trkpt>
      <trkpt lat="48.59963" lon="-4.53303">
        <ele>54</ele>
        <time>2026-05-17T10:00:22.316Z</time>
      </trkpt>
      <trkpt lat="48.59961" lon="-4.53295">
        <ele>54</ele>
        <time>2026-05-17T10:00:26.454Z</time>
      </trkpt>
      <trkpt lat="48.59959" lon="-4.53288">
        <ele>55</ele>
        <time>2026-05-17T10:00:30.499Z</time>
      </trkpt>
      <trkpt lat="48.59957" lon="-4.53282">
        <ele>56</ele>
        <time>2026-05-17T10:00:34.681Z</time>
      </trkpt>
      <trkpt lat="48.59955" lon="-4.53274">
        <ele>56</ele>
        <time>2026-05-17T10:00:39.321Z</time>
      </trkpt>
      <trkpt lat="48.59953" lon="-4.53266">
        <ele>56</ele>
        <time>2026-05-17T10:00:43.873Z</time>
      </trkpt>
      <trkpt lat="48.59951" lon="-4.53257">
        <ele>57</ele>
        <time>2026-05-17T10:00:48.517Z</time>
      </trkpt>
      <trkpt lat="48.5995" lon="-4.53249">
        <ele>57</ele>
        <time>2026-05-17T10:00:53.100Z</time>
      </trkpt>
      <trkpt lat="48.59949" lon="-4.53241">
        <ele>57</ele>
        <time>2026-05-17T10:00:57.253Z</time>
      </trkpt>
      <trkpt lat="48.59947" lon="-4.53234">
        <ele>57</ele>
        <time>2026-05-17T10:01:01.699Z</time>
      </trkpt>
      <trkpt lat="48.59945" lon="-4.53226">
        <ele>57</ele>
        <time>2026-05-17T10:01:05.876Z</time>
      </trkpt>
      <trkpt lat="48.59943" lon="-4.53218">
        <ele>57</ele>
        <time>2026-05-17T10:01:10.401Z</time>
      </trkpt>
      <trkpt lat="48.59941" lon="-4.53211">
        <ele>57</ele>
        <time>2026-05-17T10:01:14.420Z</time>
      </trkpt>
      <trkpt lat="48.5994" lon="-4.53203">
        <ele>58</ele>
        <time>2026-05-17T10:01:18.661Z</time>
      </trkpt>
      <trkpt lat="48.59938" lon="-4.53195">
        <ele>58</ele>
        <time>2026-05-17T10:01:22.781Z</time>
      </trkpt>
      <trkpt lat="48.59936" lon="-4.53188">
        <ele>58</ele>
        <time>2026-05-17T10:01:27.115Z</time>
      </trkpt>
      <trkpt lat="48.59933" lon="-4.53181">
        <ele>58</ele>
        <time>2026-05-17T10:01:31.876Z</time>
      </trkpt>
      <trkpt lat="48.59931" lon="-4.53175">
        <ele>60</ele>
        <time>2026-05-17T10:01:36.141Z</time>
      </trkpt>
      <trkpt lat="48.5993" lon="-4.53165">
        <ele>59</ele>
        <time>2026-05-17T10:01:40.872Z</time>
      </trkpt>
      <trkpt lat="48.59928" lon="-4.53157">
        <ele>59</ele>
        <time>2026-05-17T10:01:45.260Z</time>
      </trkpt>
      <trkpt lat="48.59926" lon="-4.53149">
        <ele>60</ele>
        <time>2026-05-17T10:01:49.816Z</time>
      </trkpt>
      <trkpt lat="48.59925" lon="-4.53141">
        <ele>60</ele>
        <time>2026-05-17T10:01:53.835Z</time>
      </trkpt>
      <trkpt lat="48.59923" lon="-4.53134">
        <ele>60</ele>
        <time>2026-05-17T10:01:57.872Z</time>
      </trkpt>
      <trkpt lat="48.59922" lon="-4.53126">
        <ele>60</ele>
        <time>2026-05-17T10:02:02.201Z</time>
      </trkpt>
      <trkpt lat="48.59921" lon="-4.53117">
        <ele>60</ele>
        <time>2026-05-17T10:02:06.623Z</time>
      </trkpt>
      <trkpt lat="48.59918" lon="-4.5311">
        <ele>60</ele>
        <time>2026-05-17T10:02:10.869Z</time>
      </trkpt>
      <trkpt lat="48.59916" lon="-4.53103">
        <ele>60</ele>
        <time>2026-05-17T10:02:15.342Z</time>
      </trkpt>
      <trkpt lat="48.59916" lon="-4.53093">
        <ele>61</ele>
        <time>2026-05-17T10:02:19.715Z</time>
      </trkpt>
      <trkpt lat="48.59914" lon="-4.53085">
        <ele>61</ele>
        <time>2026-05-17T10:02:24.120Z</time>
      </trkpt>
      <trkpt lat="48.59913" lon="-4.53076">
        <ele>61</ele>
        <time>2026-05-17T10:02:28.597Z</time>
      </trkpt>
      <trkpt lat="48.59911" lon="-4.53068">
        <ele>63</ele>
        <time>2026-05-17T10:02:33.093Z</time>
      </trkpt>
      <trkpt lat="48.59909" lon="-4.5306">
        <ele>63</ele>
        <time>2026-05-17T10:02:37.640Z</time>
      </trkpt>
      <trkpt lat="48.59906" lon="-4.53052">
        <ele>63</ele>
        <time>2026-05-17T10:02:42.181Z</time>
      </trkpt>
      <trkpt lat="48.59905" lon="-4.53044">
        <ele>63</ele>
        <time>2026-05-17T10:02:46.240Z</time>
      </trkpt>
      <trkpt lat="48.59905" lon="-4.53038">
        <ele>64</ele>
        <time>2026-05-17T10:02:50.287Z</time>
      </trkpt>
      <trkpt lat="48.59902" lon="-4.5303">
        <ele>62</ele>
        <time>2026-05-17T10:02:54.872Z</time>
      </trkpt>
      <trkpt lat="48.59899" lon="-4.53021">
        <ele>62</ele>
        <time>2026-05-17T10:02:59.568Z</time>
      </trkpt>
      <trkpt lat="48.59897" lon="-4.53014">
        <ele>63</ele>
        <time>2026-05-17T10:03:03.586Z</time>
      </trkpt>
      <trkpt lat="48.59895" lon="-4.53007">
        <ele>63</ele>
        <time>2026-05-17T10:03:07.766Z</time>
      </trkpt>
      <trkpt lat="48.59894" lon="-4.52999">
        <ele>63</ele>
        <time>2026-05-17T10:03:12.245Z</time>
      </trkpt>
      <trkpt lat="48.59893" lon="-4.52992">
        <ele>63</ele>
        <time>2026-05-17T10:03:16.382Z</time>
      </trkpt>
      <trkpt lat="48.59892" lon="-4.52985">
        <ele>63</ele>
        <time>2026-05-17T10:03:20.463Z</time>
      </trkpt>
      <trkpt lat="48.59891" lon="-4.52978">
        <ele>63</ele>
        <time>2026-05-17T10:03:24.504Z</time>
      </trkpt>
      <trkpt lat="48.5989" lon="-4.52971">
        <ele>63</ele>
        <time>2026-05-17T10:03:28.565Z</time>
      </trkpt>
      <trkpt lat="48.59888" lon="-4.52963">
        <ele>63</ele>
        <time>2026-05-17T10:03:33.027Z</time>
      </trkpt>
      <trkpt lat="48.59886" lon="-4.52956">
        <ele>63</ele>
        <time>2026-05-17T10:03:37.062Z</time>
      </trkpt>
      <trkpt lat="48.59885" lon="-4.52948">
        <ele>63</ele>
        <time>2026-05-17T10:03:41.602Z</time>
      </trkpt>
      <trkpt lat="48.59883" lon="-4.5294">
        <ele>63</ele>
        <time>2026-05-17T10:03:46.168Z</time>
      </trkpt>
      <trkpt lat="48.59882" lon="-4.52932">
        <ele>63</ele>
        <time>2026-05-17T10:03:50.644Z</time>
      </trkpt>
      <trkpt lat="48.5988" lon="-4.52924">
        <ele>62</ele>
        <time>2026-05-17T10:03:54.868Z</time>
      </trkpt>
      <trkpt lat="48.59878" lon="-4.52918">
        <ele>62</ele>
        <time>2026-05-17T10:03:59.124Z</time>
      </trkpt>
      <trkpt lat="48.59877" lon="-4.52911">
        <ele>62</ele>
        <time>2026-05-17T10:04:03.185Z</time>
      </trkpt>
      <trkpt lat="48.59875" lon="-4.52902">
        <ele>60</ele>
        <time>2026-05-17T10:04:07.773Z</time>
      </trkpt>
      <trkpt lat="48.59872" lon="-4.52895">
        <ele>57</ele>
        <time>2026-05-17T10:04:12.323Z</time>
      </trkpt>
      <trkpt lat="48.59869" lon="-4.52889">
        <ele>57</ele>
        <time>2026-05-17T10:04:16.742Z</time>
      </trkpt>
      <trkpt lat="48.59865" lon="-4.52885">
        <ele>57</ele>
        <time>2026-05-17T10:04:20.820Z</time>
      </trkpt>
      <trkpt lat="48.59861" lon="-4.52879">
        <ele>57</ele>
        <time>2026-05-17T10:04:25.803Z</time>
      </trkpt>
      <trkpt lat="48.59857" lon="-4.52873">
        <ele>57</ele>
        <time>2026-05-17T10:04:30.281Z</time>
      </trkpt>
      <trkpt lat="48.59853" lon="-4.52866">
        <ele>57</ele>
        <time>2026-05-17T10:04:34.864Z</time>
      </trkpt>
      <trkpt lat="48.5985" lon="-4.5286">
        <ele>57</ele>
        <time>2026-05-17T10:04:39.368Z</time>
      </trkpt>
      <trkpt lat="48.59846" lon="-4.52853">
        <ele>55</ele>
        <time>2026-05-17T10:04:43.874Z</time>
      </trkpt>
      <trkpt lat="48.59843" lon="-4.52848">
        <ele>55</ele>
        <time>2026-05-17T10:04:47.941Z</time>
      </trkpt>
      <trkpt lat="48.59839" lon="-4.52842">
        <ele>56</ele>
        <time>2026-05-17T10:04:52.480Z</time>
      </trkpt>
      <trkpt lat="48.59836" lon="-4.52835">
        <ele>56</ele>
        <time>2026-05-17T10:04:56.875Z</time>
      </trkpt>
      <trkpt lat="48.59832" lon="-4.52828">
        <ele>56</ele>
        <time>2026-05-17T10:05:01.328Z</time>
      </trkpt>
      <trkpt lat="48.59829" lon="-4.52821">
        <ele>56</ele>
        <time>2026-05-17T10:05:05.747Z</time>
      </trkpt>
      <trkpt lat="48.59826" lon="-4.52815">
        <ele>57</ele>
        <time>2026-05-17T10:05:09.782Z</time>
      </trkpt>
      <trkpt lat="48.59822" lon="-4.52808">
        <ele>57</ele>
        <time>2026-05-17T10:05:14.287Z</time>
      </trkpt>
      <trkpt lat="48.59819" lon="-4.52801">
        <ele>56</ele>
        <time>2026-05-17T10:05:18.842Z</time>
      </trkpt>
      <trkpt lat="48.59815" lon="-4.52795">
        <ele>56</ele>
        <time>2026-05-17T10:05:23.424Z</time>
      </trkpt>
      <trkpt lat="48.59812" lon="-4.52788">
        <ele>56</ele>
        <time>2026-05-17T10:05:27.828Z</time>
      </trkpt>
      <trkpt lat="48.59809" lon="-4.5278">
        <ele>56</ele>
        <time>2026-05-17T10:05:32.347Z</time>
      </trkpt>
      <trkpt lat="48.59805" lon="-4.52773">
        <ele>56</ele>
        <time>2026-05-17T10:05:36.783Z</time>
      </trkpt>
      <trkpt lat="48.59802" lon="-4.52766">
        <ele>56</ele>
        <time>2026-05-17T10:05:41.203Z</time>
      </trkpt>
      <trkpt lat="48.59798" lon="-4.52759">
        <ele>56</ele>
        <time>2026-05-17T10:05:45.707Z</time>
      </trkpt>
      <trkpt lat="48.59795" lon="-4.52751">
        <ele>56</ele>
        <time>2026-05-17T10:05:50.221Z</time>
      </trkpt>
      <trkpt lat="48.59791" lon="-4.52745">
        <ele>52</ele>
        <time>2026-05-17T10:05:54.742Z</time>
      </trkpt>
      <trkpt lat="48.59787" lon="-4.52739">
        <ele>52</ele>
        <time>2026-05-17T10:05:59.305Z</time>
      </trkpt>
      <trkpt lat="48.59784" lon="-4.52733">
        <ele>52</ele>
        <time>2026-05-17T10:06:03.875Z</time>
      </trkpt>
      <trkpt lat="48.5978" lon="-4.52726">
        <ele>52</ele>
        <time>2026-05-17T10:06:08.426Z</time>
      </trkpt>
      <trkpt lat="48.59776" lon="-4.5272">
        <ele>52</ele>
        <time>2026-05-17T10:06:12.875Z</time>
      </trkpt>
      <trkpt lat="48.59772" lon="-4.52713">
        <ele>52</ele>
        <time>2026-05-17T10:06:17.384Z</time>
      </trkpt>
      <trkpt lat="48.59769" lon="-4.52707">
        <ele>52</ele>
        <time>2026-05-17T10:06:21.875Z</time>
      </trkpt>
      <trkpt lat="48.59765" lon="-4.527">
        <ele>52</ele>
        <time>2026-05-17T10:06:26.580Z</time>
      </trkpt>
      <trkpt lat="48.59761" lon="-4.52694">
        <ele>49</ele>
        <time>2026-05-17T10:06:30.623Z</time>
      </trkpt>
      <trkpt lat="48.59757" lon="-4.52689">
        <ele>49</ele>
        <time>2026-05-17T10:06:35.180Z</time>
      </trkpt>
      <trkpt lat="48.59754" lon="-4.52682">
        <ele>49</ele>
        <time>2026-05-17T10:06:39.761Z</time>
      </trkpt>
      <trkpt lat="48.5975" lon="-4.52676">
        <ele>50</ele>
        <time>2026-05-17T10:06:44.296Z</time>
      </trkpt>
      <trkpt lat="48.59746" lon="-4.52671">
        <ele>50</ele>
        <time>2026-05-17T10:06:48.302Z</time>
      </trkpt>
      <trkpt lat="48.59742" lon="-4.52664">
        <ele>50</ele>
        <time>2026-05-17T10:06:52.870Z</time>
      </trkpt>
      <trkpt lat="48.59738" lon="-4.52658">
        <ele>50</ele>
        <time>2026-05-17T10:06:57.524Z</time>
      </trkpt>
      <trkpt lat="48.59734" lon="-4.52652">
        <ele>47</ele>
        <time>2026-05-17T10:07:01.872Z</time>
      </trkpt>
      <trkpt lat="48.5973" lon="-4.52648">
        <ele>47</ele>
        <time>2026-05-17T10:07:06.022Z</time>
      </trkpt>
      <trkpt lat="48.59725" lon="-4.52644">
        <ele>47</ele>
        <time>2026-05-17T10:07:10.526Z</time>
      </trkpt>
      <trkpt lat="48.5972" lon="-4.52641">
        <ele>47</ele>
        <time>2026-05-17T10:07:14.621Z</time>
      </trkpt>
      <trkpt lat="48.59716" lon="-4.52636">
        <ele>47</ele>
        <time>2026-05-17T10:07:19.168Z</time>
      </trkpt>
      <trkpt lat="48.59711" lon="-4.5263">
        <ele>47</ele>
        <time>2026-05-17T10:07:23.766Z</time>
      </trkpt>
      <trkpt lat="48.59708" lon="-4.52623">
        <ele>48</ele>
        <time>2026-05-17T10:07:28.346Z</time>
      </trkpt>
      <trkpt lat="48.59706" lon="-4.52615">
        <ele>44</ele>
        <time>2026-05-17T10:07:32.873Z</time>
      </trkpt>
      <trkpt lat="48.59704" lon="-4.52605">
        <ele>44</ele>
        <time>2026-05-17T10:07:37.484Z</time>
      </trkpt>
      <trkpt lat="48.59703" lon="-4.52599">
        <ele>44</ele>
        <time>2026-05-17T10:07:41.872Z</time>
      </trkpt>
      <trkpt lat="48.59702" lon="-4.52591">
        <ele>46</ele>
        <time>2026-05-17T10:07:45.981Z</time>
      </trkpt>
      <trkpt lat="48.597" lon="-4.52583">
        <ele>46</ele>
        <time>2026-05-17T10:07:50.588Z</time>
      </trkpt>
      <trkpt lat="48.59698" lon="-4.52575">
        <ele>46</ele>
        <time>2026-05-17T10:07:55.024Z</time>
      </trkpt>
      <trkpt lat="48.59696" lon="-4.52568">
        <ele>47</ele>
        <time>2026-05-17T10:07:59.068Z</time>
      </trkpt>
      <trkpt lat="48.59693" lon="-4.5256">
        <ele>47</ele>
        <time>2026-05-17T10:08:03.726Z</time>
      </trkpt>
      <trkpt lat="48.59691" lon="-4.52554">
        <ele>47</ele>
        <time>2026-05-17T10:08:07.744Z</time>
      </trkpt>
      <trkpt lat="48.59689" lon="-4.52547">
        <ele>47</ele>
        <time>2026-05-17T10:08:11.874Z</time>
      </trkpt>
      <trkpt lat="48.59687" lon="-4.52539">
        <ele>48</ele>
        <time>2026-05-17T10:08:16.566Z</time>
      </trkpt>
      <trkpt lat="48.59686" lon="-4.52531">
        <ele>48</ele>
        <time>2026-05-17T10:08:20.704Z</time>
      </trkpt>
      <trkpt lat="48.59683" lon="-4.52529">
        <ele>48</ele>
        <time>2026-05-17T10:08:24.765Z</time>
      </trkpt>
      <trkpt lat="48.59683" lon="-4.52525">
        <ele>48</ele>
        <time>2026-05-17T10:08:29.124Z</time>
      </trkpt>
      <trkpt lat="48.59683" lon="-4.52517">
        <ele>48</ele>
        <time>2026-05-17T10:08:33.645Z</time>
      </trkpt>
      <trkpt lat="48.59682" lon="-4.5251">
        <ele>50</ele>
        <time>2026-05-17T10:08:37.723Z</time>
      </trkpt>
      <trkpt lat="48.5968" lon="-4.52501">
        <ele>46</ele>
        <time>2026-05-17T10:08:42.244Z</time>
      </trkpt>
      <trkpt lat="48.59678" lon="-4.52494">
        <ele>46</ele>
        <time>2026-05-17T10:08:46.784Z</time>
      </trkpt>
      <trkpt lat="48.59675" lon="-4.52488">
        <ele>46</ele>
        <time>2026-05-17T10:08:50.874Z</time>
      </trkpt>
      <trkpt lat="48.59672" lon="-4.52481">
        <ele>49</ele>
        <time>2026-05-17T10:08:55.501Z</time>
      </trkpt>
      <trkpt lat="48.59671" lon="-4.52472">
        <ele>49</ele>
        <time>2026-05-17T10:09:00.006Z</time>
      </trkpt>
      <trkpt lat="48.5967" lon="-4.52464">
        <ele>49</ele>
        <time>2026-05-17T10:09:04.119Z</time>
      </trkpt>
      <trkpt lat="48.59669" lon="-4.52457">
        <ele>51</ele>
        <time>2026-05-17T10:09:08.367Z</time>
      </trkpt>
      <trkpt lat="48.59662" lon="-4.52451">
        <ele>51</ele>
        <time>2026-05-17T10:09:50.870Z</time>
      </trkpt>
      <trkpt lat="48.59662" lon="-4.52453">
        <ele>51</ele>
        <time>2026-05-17T10:09:54.876Z</time>
      </trkpt>
      <trkpt lat="48.59662" lon="-4.52455">
        <ele>51</ele>
        <time>2026-05-17T10:09:59.876Z</time>
      </trkpt>
      <trkpt lat="48.59662" lon="-4.52456">
        <ele>51</ele>
        <time>2026-05-17T10:10:03.876Z</time>
      </trkpt>
      <trkpt lat="48.59657" lon="-4.52461">
        <ele>49</ele>
        <time>2026-05-17T10:10:08.620Z</time>
      </trkpt>
      <trkpt lat="48.59655" lon="-4.52464">
        <ele>49</ele>
        <time>2026-05-17T10:10:13.064Z</time>
      </trkpt>
      <trkpt lat="48.59651" lon="-4.52468">
        <ele>44</ele>
        <time>2026-05-17T10:10:17.322Z</time>
      </trkpt>
      <trkpt lat="48.59649" lon="-4.52473">
        <ele>44</ele>
        <time>2026-05-17T10:10:21.784Z</time>
      </trkpt>
      <trkpt lat="48.59646" lon="-4.52478">
        <ele>44</ele>
        <time>2026-05-17T10:10:26.246Z</time>
      </trkpt>
      <trkpt lat="48.59643" lon="-4.52482">
        <ele>44</ele>
        <time>2026-05-17T10:10:30.741Z</time>
      </trkpt>
      <trkpt lat="48.59641" lon="-4.52491">
        <ele>42</ele>
        <time>2026-05-17T10:10:35.106Z</time>
      </trkpt>
      <trkpt lat="48.59638" lon="-4.52499">
        <ele>42</ele>
        <time>2026-05-17T10:10:39.627Z</time>
      </trkpt>
      <trkpt lat="48.59636" lon="-4.52505">
        <ele>42</ele>
        <time>2026-05-17T10:10:43.842Z</time>
      </trkpt>
      <trkpt lat="48.59634" lon="-4.52512">
        <ele>42</ele>
        <time>2026-05-17T10:10:48.321Z</time>
      </trkpt>
      <trkpt lat="48.59634" lon="-4.52517">
        <ele>41</ele>
        <time>2026-05-17T10:10:52.875Z</time>
      </trkpt>
      <trkpt lat="48.59634" lon="-4.52525">
        <ele>41</ele>
        <time>2026-05-17T10:10:57.645Z</time>
      </trkpt>
      <trkpt lat="48.5963" lon="-4.52527">
        <ele>41</ele>
        <time>2026-05-17T10:11:01.874Z</time>
      </trkpt>
      <trkpt lat="48.59628" lon="-4.52534">
        <ele>41</ele>
        <time>2026-05-17T10:11:16.876Z</time>
      </trkpt>
      <trkpt lat="48.59628" lon="-4.52536">
        <ele>41</ele>
        <time>2026-05-17T10:11:21.226Z</time>
      </trkpt>
      <trkpt lat="48.59628" lon="-4.52543">
        <ele>38</ele>
        <time>2026-05-17T10:11:25.364Z</time>
      </trkpt>
      <trkpt lat="48.59627" lon="-4.5255">
        <ele>38</ele>
        <time>2026-05-17T10:11:29.767Z</time>
      </trkpt>
      <trkpt lat="48.59626" lon="-4.52556">
        <ele>38</ele>
        <time>2026-05-17T10:11:34.227Z</time>
      </trkpt>
      <trkpt lat="48.59626" lon="-4.52562">
        <ele>38</ele>
        <time>2026-05-17T10:11:38.366Z</time>
      </trkpt>
      <trkpt lat="48.59626" lon="-4.52568">
        <ele>38</ele>
        <time>2026-05-17T10:11:42.725Z</time>
      </trkpt>
      <trkpt lat="48.59626" lon="-4.52574">
        <ele>35</ele>
        <time>2026-05-17T10:11:47.144Z</time>
      </trkpt>
      <trkpt lat="48.59626" lon="-4.52581">
        <ele>35</ele>
        <time>2026-05-17T10:11:51.682Z</time>
      </trkpt>
      <trkpt lat="48.59624" lon="-4.52586">
        <ele>28</ele>
        <time>2026-05-17T10:11:56.009Z</time>
      </trkpt>
      <trkpt lat="48.59624" lon="-4.52594">
        <ele>28</ele>
        <time>2026-05-17T10:12:00.461Z</time>
      </trkpt>
      <trkpt lat="48.59622" lon="-4.52601">
        <ele>25</ele>
        <time>2026-05-17T10:12:05.503Z</time>
      </trkpt>
      <trkpt lat="48.59621" lon="-4.52607">
        <ele>25</ele>
        <time>2026-05-17T10:12:09.873Z</time>
      </trkpt>
      <trkpt lat="48.5962" lon="-4.52613">
        <ele>25</ele>
        <time>2026-05-17T10:12:14.504Z</time>
      </trkpt>
      <trkpt lat="48.59619" lon="-4.52619">
        <ele>25</ele>
        <time>2026-05-17T10:12:19.085Z</time>
      </trkpt>
      <trkpt lat="48.5962" lon="-4.52626">
        <ele>22</ele>
        <time>2026-05-17T10:12:23.876Z</time>
      </trkpt>
      <trkpt lat="48.5962" lon="-4.52632">
        <ele>22</ele>
        <time>2026-05-17T10:12:28.265Z</time>
      </trkpt>
      <trkpt lat="48.59618" lon="-4.52634">
        <ele>22</ele>
        <time>2026-05-17T10:13:47.021Z</time>
      </trkpt>
      <trkpt lat="48.5962" lon="-4.52641">
        <ele>22</ele>
        <time>2026-05-17T10:13:51.202Z</time>
      </trkpt>
      <trkpt lat="48.59623" lon="-4.52648">
        <ele>22</ele>
        <time>2026-05-17T10:13:55.874Z</time>
      </trkpt>
      <trkpt lat="48.5962" lon="-4.52654">
        <ele>18</ele>
        <time>2026-05-17T10:14:00.162Z</time>
      </trkpt>
      <trkpt lat="48.5962" lon="-4.52661">
        <ele>18</ele>
        <time>2026-05-17T10:14:04.562Z</time>
      </trkpt>
      <trkpt lat="48.59616" lon="-4.52666">
        <ele>18</ele>
        <time>2026-05-17T10:14:09.145Z</time>
      </trkpt>
      <trkpt lat="48.59616" lon="-4.52672">
        <ele>18</ele>
        <time>2026-05-17T10:14:13.607Z</time>
      </trkpt>
      <trkpt lat="48.59619" lon="-4.52677">
        <ele>18</ele>
        <time>2026-05-17T10:14:17.642Z</time>
      </trkpt>
      <trkpt lat="48.59619" lon="-4.52684">
        <ele>15</ele>
        <time>2026-05-17T10:14:22.267Z</time>
      </trkpt>
      <trkpt lat="48.59623" lon="-4.52692">
        <ele>15</ele>
        <time>2026-05-17T10:14:53.869Z</time>
      </trkpt>
      <trkpt lat="48.59623" lon="-4.52692">
        <ele>15</ele>
        <time>2026-05-17T10:15:02.876Z</time>
      </trkpt>
      <trkpt lat="48.59623" lon="-4.52692">
        <ele>15</ele>
        <time>2026-05-17T10:15:09.391Z</time>
      </trkpt>
      <trkpt lat="48.59625" lon="-4.52695">
        <ele>15</ele>
        <time>2026-05-17T10:15:13.687Z</time>
      </trkpt>
      <trkpt lat="48.5963" lon="-4.52698">
        <ele>23</ele>
        <time>2026-05-17T10:15:18.190Z</time>
      </trkpt>
      <trkpt lat="48.59634" lon="-4.52699">
        <ele>23</ele>
        <time>2026-05-17T10:15:22.611Z</time>
      </trkpt>
      <trkpt lat="48.59636" lon="-4.52702">
        <ele>23</ele>
        <time>2026-05-17T10:15:26.828Z</time>
      </trkpt>
      <trkpt lat="48.59637" lon="-4.52708">
        <ele>19</ele>
        <time>2026-05-17T10:15:31.725Z</time>
      </trkpt>
      <trkpt lat="48.59638" lon="-4.52715">
        <ele>19</ele>
        <time>2026-05-17T10:15:35.876Z</time>
      </trkpt>
      <trkpt lat="48.59641" lon="-4.52756">
        <ele>15</ele>
        <time>2026-05-17T10:16:47.874Z</time>
      </trkpt>
      <trkpt lat="48.59641" lon="-4.52756">
        <ele>15</ele>
        <time>2026-05-17T10:16:52.871Z</time>
      </trkpt>
      <trkpt lat="48.59641" lon="-4.52756">
        <ele>15</ele>
        <time>2026-05-17T10:17:07.872Z</time>
      </trkpt>
      <trkpt lat="48.59641" lon="-4.52757">
        <ele>15</ele>
        <time>2026-05-17T10:17:11.875Z</time>
      </trkpt>
      <trkpt lat="48.59641" lon="-4.52757">
        <ele>15</ele>
        <time>2026-05-17T10:17:16.873Z</time>
      </trkpt>
      <trkpt lat="48.59641" lon="-4.52757">
        <ele>15</ele>
        <time>2026-05-17T10:17:23.870Z</time>
      </trkpt>
      <trkpt lat="48.59643" lon="-4.52763">
        <ele>15</ele>
        <time>2026-05-17T10:17:28.065Z</time>
      </trkpt>
      <trkpt lat="48.59646" lon="-4.52771">
        <ele>13</ele>
        <time>2026-05-17T10:17:32.383Z</time>
      </trkpt>
      <trkpt lat="48.59648" lon="-4.52775">
        <ele>13</ele>
        <time>2026-05-17T10:17:36.786Z</time>
      </trkpt>
      <trkpt lat="48.59645" lon="-4.5278">
        <ele>13</ele>
        <time>2026-05-17T10:22:37.876Z</time>
      </trkpt>
      <trkpt lat="48.59646" lon="-4.52773">
        <ele>13</ele>
        <time>2026-05-17T10:22:42.318Z</time>
      </trkpt>
      <trkpt lat="48.59642" lon="-4.52763">
        <ele>15</ele>
        <time>2026-05-17T10:22:46.621Z</time>
      </trkpt>
      <trkpt lat="48.59641" lon="-4.52756">
        <ele>15</ele>
        <time>2026-05-17T10:22:50.697Z</time>
      </trkpt>
      <trkpt lat="48.59639" lon="-4.52748">
        <ele>15</ele>
        <time>2026-05-17T10:22:54.836Z</time>
      </trkpt>
      <trkpt lat="48.59638" lon="-4.52735">
        <ele>19</ele>
        <time>2026-05-17T10:23:12.455Z</time>
      </trkpt>
      <trkpt lat="48.5964" lon="-4.52732">
        <ele>19</ele>
        <time>2026-05-17T10:23:16.802Z</time>
      </trkpt>
      <trkpt lat="48.59639" lon="-4.52725">
        <ele>19</ele>
        <time>2026-05-17T10:23:21.296Z</time>
      </trkpt>
      <trkpt lat="48.59637" lon="-4.52719">
        <ele>19</ele>
        <time>2026-05-17T10:23:25.537Z</time>
      </trkpt>
      <trkpt lat="48.59635" lon="-4.52714">
        <ele>19</ele>
        <time>2026-05-17T10:23:29.874Z</time>
      </trkpt>
      <trkpt lat="48.59632" lon="-4.52702">
        <ele>23</ele>
        <time>2026-05-17T10:23:54.871Z</time>
      </trkpt>
      <trkpt lat="48.59632" lon="-4.52701">
        <ele>23</ele>
        <time>2026-05-17T10:23:58.870Z</time>
      </trkpt>
      <trkpt lat="48.59631" lon="-4.52699">
        <ele>23</ele>
        <time>2026-05-17T10:24:02.976Z</time>
      </trkpt>
      <trkpt lat="48.59629" lon="-4.52697">
        <ele>23</ele>
        <time>2026-05-17T10:24:07.080Z</time>
      </trkpt>
      <trkpt lat="48.59624" lon="-4.52694">
        <ele>15</ele>
        <time>2026-05-17T10:24:11.578Z</time>
      </trkpt>
      <trkpt lat="48.59623" lon="-4.52688">
        <ele>15</ele>
        <time>2026-05-17T10:24:15.870Z</time>
      </trkpt>
      <trkpt lat="48.5962" lon="-4.52681">
        <ele>15</ele>
        <time>2026-05-17T10:24:20.356Z</time>
      </trkpt>
      <trkpt lat="48.59619" lon="-4.52674">
        <ele>18</ele>
        <time>2026-05-17T10:24:24.869Z</time>
      </trkpt>
      <trkpt lat="48.59618" lon="-4.52667">
        <ele>18</ele>
        <time>2026-05-17T10:24:29.316Z</time>
      </trkpt>
      <trkpt lat="48.59619" lon="-4.52659">
        <ele>18</ele>
        <time>2026-05-17T10:24:33.870Z</time>
      </trkpt>
      <trkpt lat="48.59622" lon="-4.52653">
        <ele>22</ele>
        <time>2026-05-17T10:24:38.274Z</time>
      </trkpt>
      <trkpt lat="48.59623" lon="-4.52645">
        <ele>22</ele>
        <time>2026-05-17T10:24:42.533Z</time>
      </trkpt>
      <trkpt lat="48.59623" lon="-4.52639">
        <ele>22</ele>
        <time>2026-05-17T10:24:47.261Z</time>
      </trkpt>
      <trkpt lat="48.59621" lon="-4.52628">
        <ele>22</ele>
        <time>2026-05-17T10:25:09.095Z</time>
      </trkpt>
      <trkpt lat="48.59621" lon="-4.52623">
        <ele>25</ele>
        <time>2026-05-17T10:25:13.871Z</time>
      </trkpt>
      <trkpt lat="48.59622" lon="-4.5262">
        <ele>25</ele>
        <time>2026-05-17T10:25:18.821Z</time>
      </trkpt>
      <trkpt lat="48.59624" lon="-4.52612">
        <ele>25</ele>
        <time>2026-05-17T10:25:23.393Z</time>
      </trkpt>
      <trkpt lat="48.59624" lon="-4.52606">
        <ele>25</ele>
        <time>2026-05-17T10:25:27.540Z</time>
      </trkpt>
      <trkpt lat="48.59624" lon="-4.526">
        <ele>25</ele>
        <time>2026-05-17T10:25:31.720Z</time>
      </trkpt>
      <trkpt lat="48.59624" lon="-4.52595">
        <ele>28</ele>
        <time>2026-05-17T10:25:35.873Z</time>
      </trkpt>
      <trkpt lat="48.59624" lon="-4.52589">
        <ele>28</ele>
        <time>2026-05-17T10:25:40.442Z</time>
      </trkpt>
      <trkpt lat="48.59625" lon="-4.52584">
        <ele>28</ele>
        <time>2026-05-17T10:25:44.872Z</time>
      </trkpt>
      <trkpt lat="48.59624" lon="-4.52578">
        <ele>28</ele>
        <time>2026-05-17T10:25:49.654Z</time>
      </trkpt>
      <trkpt lat="48.59626" lon="-4.52573">
        <ele>35</ele>
        <time>2026-05-17T10:25:54.314Z</time>
      </trkpt>
      <trkpt lat="48.59626" lon="-4.52567">
        <ele>38</ele>
        <time>2026-05-17T10:25:58.582Z</time>
      </trkpt>
      <trkpt lat="48.59626" lon="-4.52562">
        <ele>38</ele>
        <time>2026-05-17T10:26:03.136Z</time>
      </trkpt>
      <trkpt lat="48.59624" lon="-4.52558">
        <ele>30</ele>
        <time>2026-05-17T10:26:07.156Z</time>
      </trkpt>
      <trkpt lat="48.59622" lon="-4.52553">
        <ele>30</ele>
        <time>2026-05-17T10:26:11.425Z</time>
      </trkpt>
      <trkpt lat="48.59622" lon="-4.52547">
        <ele>30</ele>
        <time>2026-05-17T10:26:15.870Z</time>
      </trkpt>
      <trkpt lat="48.59622" lon="-4.5254">
        <ele>33</ele>
        <time>2026-05-17T10:26:20.500Z</time>
      </trkpt>
      <trkpt lat="48.59624" lon="-4.52533">
        <ele>33</ele>
        <time>2026-05-17T10:26:24.872Z</time>
      </trkpt>
      <trkpt lat="48.59625" lon="-4.52525">
        <ele>41</ele>
        <time>2026-05-17T10:26:29.730Z</time>
      </trkpt>
      <trkpt lat="48.5963" lon="-4.52524">
        <ele>41</ele>
        <time>2026-05-17T10:26:34.252Z</time>
      </trkpt>
      <trkpt lat="48.59633" lon="-4.52518">
        <ele>41</ele>
        <time>2026-05-17T10:26:38.869Z</time>
      </trkpt>
      <trkpt lat="48.59633" lon="-4.52512">
        <ele>42</ele>
        <time>2026-05-17T10:26:43.871Z</time>
      </trkpt>
      <trkpt lat="48.59635" lon="-4.52506">
        <ele>42</ele>
        <time>2026-05-17T10:26:48.391Z</time>
      </trkpt>
      <trkpt lat="48.59637" lon="-4.52501">
        <ele>42</ele>
        <time>2026-05-17T10:26:52.674Z</time>
      </trkpt>
      <trkpt lat="48.59639" lon="-4.52496">
        <ele>42</ele>
        <time>2026-05-17T10:26:56.869Z</time>
      </trkpt>
      <trkpt lat="48.59642" lon="-4.52491">
        <ele>42</ele>
        <time>2026-05-17T10:27:00.870Z</time>
      </trkpt>
      <trkpt lat="48.59644" lon="-4.52486">
        <ele>44</ele>
        <time>2026-05-17T10:27:05.516Z</time>
      </trkpt>
      <trkpt lat="48.59647" lon="-4.52481">
        <ele>44</ele>
        <time>2026-05-17T10:27:09.870Z</time>
      </trkpt>
      <trkpt lat="48.59648" lon="-4.52476">
        <ele>44</ele>
        <time>2026-05-17T10:27:14.491Z</time>
      </trkpt>
      <trkpt lat="48.59651" lon="-4.52472">
        <ele>44</ele>
        <time>2026-05-17T10:27:19.115Z</time>
      </trkpt>
      <trkpt lat="48.59654" lon="-4.52467">
        <ele>49</ele>
        <time>2026-05-17T10:27:23.296Z</time>
      </trkpt>
      <trkpt lat="48.59656" lon="-4.52462">
        <ele>49</ele>
        <time>2026-05-17T10:27:27.757Z</time>
      </trkpt>
      <trkpt lat="48.59659" lon="-4.52457">
        <ele>51</ele>
        <time>2026-05-17T10:27:32.536Z</time>
      </trkpt>
      <trkpt lat="48.59662" lon="-4.52453">
        <ele>51</ele>
        <time>2026-05-17T10:27:36.553Z</time>
      </trkpt>
      <trkpt lat="48.59664" lon="-4.52449">
        <ele>51</ele>
        <time>2026-05-17T10:27:40.658Z</time>
      </trkpt>
      <trkpt lat="48.59666" lon="-4.52444">
        <ele>51</ele>
        <time>2026-05-17T10:27:44.856Z</time>
      </trkpt>
      <trkpt lat="48.59663" lon="-4.52438">
        <ele>51</ele>
        <time>2026-05-17T10:27:49.532Z</time>
      </trkpt>
      <trkpt lat="48.59662" lon="-4.52433">
        <ele>51</ele>
        <time>2026-05-17T10:27:54.335Z</time>
      </trkpt>
      <trkpt lat="48.59662" lon="-4.52433">
        <ele>51</ele>
        <time>2026-05-17T10:27:54.875Z</time>
      </trkpt>
      <trkpt lat="48.59662" lon="-4.52432">
        <ele>51</ele>
        <time>2026-05-17T10:28:04.540Z</time>
      </trkpt>
      <trkpt lat="48.59661" lon="-4.52428">
        <ele>52</ele>
        <time>2026-05-17T10:28:08.865Z</time>
      </trkpt>
      <trkpt lat="48.59661" lon="-4.5242">
        <ele>52</ele>
        <time>2026-05-17T10:28:13.868Z</time>
      </trkpt>
      <trkpt lat="48.59661" lon="-4.52414">
        <ele>52</ele>
        <time>2026-05-17T10:28:18.678Z</time>
      </trkpt>
      <trkpt lat="48.5966" lon="-4.52409">
        <ele>52</ele>
        <time>2026-05-17T10:28:22.872Z</time>
      </trkpt>
      <trkpt lat="48.59659" lon="-4.52403">
        <ele>52</ele>
        <time>2026-05-17T10:28:27.872Z</time>
      </trkpt>
      <trkpt lat="48.59658" lon="-4.52398">
        <ele>53</ele>
        <time>2026-05-17T10:28:32.296Z</time>
      </trkpt>
      <trkpt lat="48.59656" lon="-4.52391">
        <ele>53</ele>
        <time>2026-05-17T10:28:36.775Z</time>
      </trkpt>
      <trkpt lat="48.59654" lon="-4.52385">
        <ele>53</ele>
        <time>2026-05-17T10:28:41.076Z</time>
      </trkpt>
      <trkpt lat="48.59653" lon="-4.52378">
        <ele>51</ele>
        <time>2026-05-17T10:28:45.512Z</time>
      </trkpt>
      <trkpt lat="48.59651" lon="-4.52371">
        <ele>51</ele>
        <time>2026-05-17T10:28:49.710Z</time>
      </trkpt>
      <trkpt lat="48.5965" lon="-4.52364">
        <ele>51</ele>
        <time>2026-05-17T10:28:53.868Z</time>
      </trkpt>
      <trkpt lat="48.59649" lon="-4.52356">
        <ele>51</ele>
        <time>2026-05-17T10:28:58.277Z</time>
      </trkpt>
      <trkpt lat="48.59648" lon="-4.52349">
        <ele>51</ele>
        <time>2026-05-17T10:29:02.475Z</time>
      </trkpt>
      <trkpt lat="48.59647" lon="-4.52342">
        <ele>52</ele>
        <time>2026-05-17T10:29:06.873Z</time>
      </trkpt>
      <trkpt lat="48.59646" lon="-4.52336">
        <ele>52</ele>
        <time>2026-05-17T10:29:11.110Z</time>
      </trkpt>
      <trkpt lat="48.59645" lon="-4.52328">
        <ele>52</ele>
        <time>2026-05-17T10:29:15.693Z</time>
      </trkpt>
      <trkpt lat="48.59643" lon="-4.52319">
        <ele>51</ele>
        <time>2026-05-17T10:29:20.215Z</time>
      </trkpt>
      <trkpt lat="48.59642" lon="-4.5231">
        <ele>51</ele>
        <time>2026-05-17T10:29:24.677Z</time>
      </trkpt>
      <trkpt lat="48.5964" lon="-4.52301">
        <ele>51</ele>
        <time>2026-05-17T10:29:29.176Z</time>
      </trkpt>
      <trkpt lat="48.59638" lon="-4.52293">
        <ele>51</ele>
        <time>2026-05-17T10:29:33.252Z</time>
      </trkpt>
      <trkpt lat="48.59637" lon="-4.52285">
        <ele>52</ele>
        <time>2026-05-17T10:29:37.416Z</time>
      </trkpt>
      <trkpt lat="48.59635" lon="-4.52277">
        <ele>52</ele>
        <time>2026-05-17T10:29:41.876Z</time>
      </trkpt>
      <trkpt lat="48.59634" lon="-4.5227">
        <ele>52</ele>
        <time>2026-05-17T10:29:46.554Z</time>
      </trkpt>
      <trkpt lat="48.59633" lon="-4.52263">
        <ele>51</ele>
        <time>2026-05-17T10:29:51.229Z</time>
      </trkpt>
      <trkpt lat="48.59632" lon="-4.52256">
        <ele>51</ele>
        <time>2026-05-17T10:29:55.869Z</time>
      </trkpt>
      <trkpt lat="48.5963" lon="-4.52247">
        <ele>51</ele>
        <time>2026-05-17T10:30:00.530Z</time>
      </trkpt>
      <trkpt lat="48.59629" lon="-4.5224">
        <ele>51</ele>
        <time>2026-05-17T10:30:04.652Z</time>
      </trkpt>
      <trkpt lat="48.59627" lon="-4.52233">
        <ele>52</ele>
        <time>2026-05-17T10:30:08.815Z</time>
      </trkpt>
      <trkpt lat="48.59626" lon="-4.52226">
        <ele>52</ele>
        <time>2026-05-17T10:30:12.874Z</time>
      </trkpt>
      <trkpt lat="48.59625" lon="-4.52218">
        <ele>48</ele>
        <time>2026-05-17T10:30:17.535Z</time>
      </trkpt>
      <trkpt lat="48.59623" lon="-4.52211">
        <ele>48</ele>
        <time>2026-05-17T10:30:21.749Z</time>
      </trkpt>
      <trkpt lat="48.59621" lon="-4.52204">
        <ele>50</ele>
        <time>2026-05-17T10:30:25.777Z</time>
      </trkpt>
      <trkpt lat="48.59618" lon="-4.52198">
        <ele>50</ele>
        <time>2026-05-17T10:30:30.171Z</time>
      </trkpt>
      <trkpt lat="48.59616" lon="-4.52199">
        <ele>50</ele>
        <time>2026-05-17T10:30:33.870Z</time>
      </trkpt>
      <trkpt lat="48.59616" lon="-4.52199">
        <ele>50</ele>
        <time>2026-05-17T10:30:59.558Z</time>
      </trkpt>
      <trkpt lat="48.59616" lon="-4.52198">
        <ele>50</ele>
        <time>2026-05-17T10:31:18.876Z</time>
      </trkpt>
      <trkpt lat="48.59616" lon="-4.52197">
        <ele>50</ele>
        <time>2026-05-17T10:31:23.501Z</time>
      </trkpt>
      <trkpt lat="48.59616" lon="-4.5219">
        <ele>50</ele>
        <time>2026-05-17T10:31:27.867Z</time>
      </trkpt>
      <trkpt lat="48.59615" lon="-4.52182">
        <ele>50</ele>
        <time>2026-05-17T10:31:32.185Z</time>
      </trkpt>
      <trkpt lat="48.59613" lon="-4.52176">
        <ele>51</ele>
        <time>2026-05-17T10:31:36.636Z</time>
      </trkpt>
      <trkpt lat="48.5961" lon="-4.52171">
        <ele>51</ele>
        <time>2026-05-17T10:31:40.719Z</time>
      </trkpt>
      <trkpt lat="48.59608" lon="-4.52164">
        <ele>51</ele>
        <time>2026-05-17T10:31:44.866Z</time>
      </trkpt>
      <trkpt lat="48.59606" lon="-4.52158">
        <ele>51</ele>
        <time>2026-05-17T10:31:49.613Z</time>
      </trkpt>
      <trkpt lat="48.59603" lon="-4.52151">
        <ele>51</ele>
        <time>2026-05-17T10:31:54.299Z</time>
      </trkpt>
      <trkpt lat="48.596" lon="-4.52145">
        <ele>51</ele>
        <time>2026-05-17T10:31:58.868Z</time>
      </trkpt>
      <trkpt lat="48.59596" lon="-4.52139">
        <ele>48</ele>
        <time>2026-05-17T10:32:03.554Z</time>
      </trkpt>
      <trkpt lat="48.59593" lon="-4.52134">
        <ele>48</ele>
        <time>2026-05-17T10:32:07.676Z</time>
      </trkpt>
      <trkpt lat="48.59591" lon="-4.52128">
        <ele>48</ele>
        <time>2026-05-17T10:32:11.867Z</time>
      </trkpt>
      <trkpt lat="48.59589" lon="-4.52122">
        <ele>46</ele>
        <time>2026-05-17T10:32:16.056Z</time>
      </trkpt>
      <trkpt lat="48.59588" lon="-4.52114">
        <ele>46</ele>
        <time>2026-05-17T10:32:20.095Z</time>
      </trkpt>
      <trkpt lat="48.59587" lon="-4.52106">
        <ele>46</ele>
        <time>2026-05-17T10:32:24.713Z</time>
      </trkpt>
      <trkpt lat="48.59579" lon="-4.52091">
        <ele>44</ele>
        <time>2026-05-17T10:33:38.872Z</time>
      </trkpt>
      <trkpt lat="48.59579" lon="-4.52091">
        <ele>44</ele>
        <time>2026-05-17T10:33:43.870Z</time>
      </trkpt>
      <trkpt lat="48.59579" lon="-4.52091">
        <ele>44</ele>
        <time>2026-05-17T10:33:49.868Z</time>
      </trkpt>
      <trkpt lat="48.59579" lon="-4.52091">
        <ele>44</ele>
        <time>2026-05-17T10:33:56.867Z</time>
      </trkpt>
      <trkpt lat="48.59577" lon="-4.52089">
        <ele>44</ele>
        <time>2026-05-17T10:34:01.662Z</time>
      </trkpt>
      <trkpt lat="48.5958" lon="-4.5209">
        <ele>44</ele>
        <time>2026-05-17T10:35:32.375Z</time>
      </trkpt>
      <trkpt lat="48.5958" lon="-4.5209">
        <ele>44</ele>
        <time>2026-05-17T10:35:36.867Z</time>
      </trkpt>
      <trkpt lat="48.5958" lon="-4.52087">
        <ele>44</ele>
        <time>2026-05-17T10:35:41.223Z</time>
      </trkpt>
      <trkpt lat="48.59582" lon="-4.52082">
        <ele>44</ele>
        <time>2026-05-17T10:35:45.797Z</time>
      </trkpt>
      <trkpt lat="48.59582" lon="-4.52072">
        <ele>44</ele>
        <time>2026-05-17T10:35:50.064Z</time>
      </trkpt>
      <trkpt lat="48.5958" lon="-4.52064">
        <ele>43</ele>
        <time>2026-05-17T10:35:54.186Z</time>
      </trkpt>
      <trkpt lat="48.59577" lon="-4.52058">
        <ele>43</ele>
        <time>2026-05-17T10:35:58.564Z</time>
      </trkpt>
      <trkpt lat="48.59573" lon="-4.52052">
        <ele>43</ele>
        <time>2026-05-17T10:36:03.121Z</time>
      </trkpt>
      <trkpt lat="48.5957" lon="-4.52047">
        <ele>43</ele>
        <time>2026-05-17T10:36:07.200Z</time>
      </trkpt>
      <trkpt lat="48.59571" lon="-4.52045">
        <ele>43</ele>
        <time>2026-05-17T10:36:11.721Z</time>
      </trkpt>
      <trkpt lat="48.59568" lon="-4.52039">
        <ele>38</ele>
        <time>2026-05-17T10:36:15.758Z</time>
      </trkpt>
      <trkpt lat="48.59565" lon="-4.52031">
        <ele>38</ele>
        <time>2026-05-17T10:36:19.846Z</time>
      </trkpt>
      <trkpt lat="48.59564" lon="-4.52024">
        <ele>38</ele>
        <time>2026-05-17T10:36:24.384Z</time>
      </trkpt>
      <trkpt lat="48.59562" lon="-4.52016">
        <ele>38</ele>
        <time>2026-05-17T10:36:28.805Z</time>
      </trkpt>
      <trkpt lat="48.5956" lon="-4.52009">
        <ele>37</ele>
        <time>2026-05-17T10:36:32.870Z</time>
      </trkpt>
      <trkpt lat="48.59559" lon="-4.52002">
        <ele>37</ele>
        <time>2026-05-17T10:36:37.160Z</time>
      </trkpt>
      <trkpt lat="48.59558" lon="-4.51999">
        <ele>37</ele>
        <time>2026-05-17T10:36:41.444Z</time>
      </trkpt>
      <trkpt lat="48.59559" lon="-4.51991">
        <ele>37</ele>
        <time>2026-05-17T10:36:45.742Z</time>
      </trkpt>
      <trkpt lat="48.59559" lon="-4.51985">
        <ele>35</ele>
        <time>2026-05-17T10:36:49.867Z</time>
      </trkpt>
      <trkpt lat="48.59558" lon="-4.51979">
        <ele>35</ele>
        <time>2026-05-17T10:36:54.140Z</time>
      </trkpt>
      <trkpt lat="48.59558" lon="-4.51972">
        <ele>35</ele>
        <time>2026-05-17T10:36:58.381Z</time>
      </trkpt>
      <trkpt lat="48.59558" lon="-4.51966">
        <ele>35</ele>
        <time>2026-05-17T10:37:02.784Z</time>
      </trkpt>
      <trkpt lat="48.59557" lon="-4.51959">
        <ele>35</ele>
        <time>2026-05-17T10:37:06.874Z</time>
      </trkpt>
      <trkpt lat="48.59557" lon="-4.51953">
        <ele>33</ele>
        <time>2026-05-17T10:37:11.282Z</time>
      </trkpt>
      <trkpt lat="48.59555" lon="-4.51949">
        <ele>33</ele>
        <time>2026-05-17T10:37:15.873Z</time>
      </trkpt>
      <trkpt lat="48.59554" lon="-4.51946">
        <ele>33</ele>
        <time>2026-05-17T10:37:20.381Z</time>
      </trkpt>
      <trkpt lat="48.59557" lon="-4.5194">
        <ele>33</ele>
        <time>2026-05-17T10:37:24.603Z</time>
      </trkpt>
      <trkpt lat="48.59557" lon="-4.51932">
        <ele>33</ele>
        <time>2026-05-17T10:37:28.870Z</time>
      </trkpt>
      <trkpt lat="48.59555" lon="-4.51926">
        <ele>32</ele>
        <time>2026-05-17T10:37:33.546Z</time>
      </trkpt>
      <trkpt lat="48.59551" lon="-4.51921">
        <ele>32</ele>
        <time>2026-05-17T10:38:18.869Z</time>
      </trkpt>
      <trkpt lat="48.59548" lon="-4.51909">
        <ele>32</ele>
        <time>2026-05-17T10:38:22.869Z</time>
      </trkpt>
      <trkpt lat="48.59542" lon="-4.51903">
        <ele>32</ele>
        <time>2026-05-17T10:38:27.396Z</time>
      </trkpt>
      <trkpt lat="48.59535" lon="-4.51906">
        <ele>26</ele>
        <time>2026-05-17T10:38:31.523Z</time>
      </trkpt>
      <trkpt lat="48.59527" lon="-4.51908">
        <ele>26</ele>
        <time>2026-05-17T10:38:35.868Z</time>
      </trkpt>
      <trkpt lat="48.59522" lon="-4.51909">
        <ele>26</ele>
        <time>2026-05-17T10:38:40.136Z</time>
      </trkpt>
      <trkpt lat="48.59518" lon="-4.51907">
        <ele>26</ele>
        <time>2026-05-17T10:38:44.555Z</time>
      </trkpt>
      <trkpt lat="48.59511" lon="-4.51906">
        <ele>20</ele>
        <time>2026-05-17T10:38:49.019Z</time>
      </trkpt>
      <trkpt lat="48.59507" lon="-4.51904">
        <ele>20</ele>
        <time>2026-05-17T10:38:53.183Z</time>
      </trkpt>
      <trkpt lat="48.59502" lon="-4.51903">
        <ele>20</ele>
        <time>2026-05-17T10:38:57.398Z</time>
      </trkpt>
      <trkpt lat="48.59497" lon="-4.51901">
        <ele>22</ele>
        <time>2026-05-17T10:39:01.742Z</time>
      </trkpt>
      <trkpt lat="48.59493" lon="-4.51897">
        <ele>22</ele>
        <time>2026-05-17T10:39:05.872Z</time>
      </trkpt>
      <trkpt lat="48.59489" lon="-4.51891">
        <ele>22</ele>
        <time>2026-05-17T10:39:10.002Z</time>
      </trkpt>
      <trkpt lat="48.59487" lon="-4.51885">
        <ele>22</ele>
        <time>2026-05-17T10:39:14.277Z</time>
      </trkpt>
      <trkpt lat="48.59484" lon="-4.51878">
        <ele>16</ele>
        <time>2026-05-17T10:39:18.869Z</time>
      </trkpt>
      <trkpt lat="48.59482" lon="-4.5187">
        <ele>18</ele>
        <time>2026-05-17T10:39:23.423Z</time>
      </trkpt>
      <trkpt lat="48.59479" lon="-4.51864">
        <ele>18</ele>
        <time>2026-05-17T10:39:27.503Z</time>
      </trkpt>
      <trkpt lat="48.59479" lon="-4.51859">
        <ele>18</ele>
        <time>2026-05-17T10:39:31.760Z</time>
      </trkpt>
      <trkpt lat="48.59477" lon="-4.51854">
        <ele>18</ele>
        <time>2026-05-17T10:39:36.105Z</time>
      </trkpt>
      <trkpt lat="48.59474" lon="-4.51848">
        <ele>18</ele>
        <time>2026-05-17T10:39:40.378Z</time>
      </trkpt>
      <trkpt lat="48.5947" lon="-4.51843">
        <ele>19</ele>
        <time>2026-05-17T10:39:44.483Z</time>
      </trkpt>
      <trkpt lat="48.59461" lon="-4.51833">
        <ele>19</ele>
        <time>2026-05-17T10:40:01.241Z</time>
      </trkpt>
      <trkpt lat="48.59454" lon="-4.51829">
        <ele>10</ele>
        <time>2026-05-17T10:40:05.584Z</time>
      </trkpt>
      <trkpt lat="48.59451" lon="-4.51823">
        <ele>10</ele>
        <time>2026-05-17T10:40:09.723Z</time>
      </trkpt>
      <trkpt lat="48.59448" lon="-4.51818">
        <ele>13</ele>
        <time>2026-05-17T10:40:13.870Z</time>
      </trkpt>
      <trkpt lat="48.59445" lon="-4.51814">
        <ele>13</ele>
        <time>2026-05-17T10:40:18.419Z</time>
      </trkpt>
      <trkpt lat="48.59442" lon="-4.51809">
        <ele>13</ele>
        <time>2026-05-17T10:40:22.582Z</time>
      </trkpt>
      <trkpt lat="48.59439" lon="-4.51805">
        <ele>13</ele>
        <time>2026-05-17T10:40:26.870Z</time>
      </trkpt>
      <trkpt lat="48.59437" lon="-4.518">
        <ele>13</ele>
        <time>2026-05-17T10:40:31.404Z</time>
      </trkpt>
      <trkpt lat="48.59434" lon="-4.51795">
        <ele>13</ele>
        <time>2026-05-17T10:40:35.871Z</time>
      </trkpt>
      <trkpt lat="48.59429" lon="-4.5179">
        <ele>8</ele>
        <time>2026-05-17T10:40:40.639Z</time>
      </trkpt>
      <trkpt lat="48.59426" lon="-4.51785">
        <ele>8</ele>
        <time>2026-05-17T10:40:44.756Z</time>
      </trkpt>
      <trkpt lat="48.59423" lon="-4.51779">
        <ele>8</ele>
        <time>2026-05-17T10:40:48.869Z</time>
      </trkpt>
      <trkpt lat="48.5942" lon="-4.51774">
        <ele>8</ele>
        <time>2026-05-17T10:40:53.385Z</time>
      </trkpt>
      <trkpt lat="48.59417" lon="-4.51767">
        <ele>8</ele>
        <time>2026-05-17T10:40:57.875Z</time>
      </trkpt>
      <trkpt lat="48.59415" lon="-4.5176">
        <ele>10</ele>
        <time>2026-05-17T10:41:02.659Z</time>
      </trkpt>
      <trkpt lat="48.59413" lon="-4.51754">
        <ele>10</ele>
        <time>2026-05-17T10:41:06.722Z</time>
      </trkpt>
      <trkpt lat="48.59411" lon="-4.51747">
        <ele>10</ele>
        <time>2026-05-17T10:41:10.742Z</time>
      </trkpt>
      <trkpt lat="48.5941" lon="-4.5174">
        <ele>10</ele>
        <time>2026-05-17T10:41:14.862Z</time>
      </trkpt>
      <trkpt lat="48.59407" lon="-4.51733">
        <ele>12</ele>
        <time>2026-05-17T10:41:19.417Z</time>
      </trkpt>
      <trkpt lat="48.59405" lon="-4.51726">
        <ele>12</ele>
        <time>2026-05-17T10:41:23.540Z</time>
      </trkpt>
      <trkpt lat="48.59404" lon="-4.51719">
        <ele>12</ele>
        <time>2026-05-17T10:41:27.584Z</time>
      </trkpt>
      <trkpt lat="48.59403" lon="-4.51711">
        <ele>9</ele>
        <time>2026-05-17T10:41:32.157Z</time>
      </trkpt>
      <trkpt lat="48.59402" lon="-4.51704">
        <ele>10</ele>
        <time>2026-05-17T10:41:36.201Z</time>
      </trkpt>
      <trkpt lat="48.594" lon="-4.51696">
        <ele>10</ele>
        <time>2026-05-17T10:41:40.459Z</time>
      </trkpt>
      <trkpt lat="48.59399" lon="-4.51689">
        <ele>10</ele>
        <time>2026-05-17T10:41:44.596Z</time>
      </trkpt>
      <trkpt lat="48.59398" lon="-4.51682">
        <ele>10</ele>
        <time>2026-05-17T10:41:48.874Z</time>
      </trkpt>
      <trkpt lat="48.59398" lon="-4.51673">
        <ele>11</ele>
        <time>2026-05-17T10:41:53.420Z</time>
      </trkpt>
      <trkpt lat="48.59399" lon="-4.51666">
        <ele>11</ele>
        <time>2026-05-17T10:41:57.643Z</time>
      </trkpt>
      <trkpt lat="48.59399" lon="-4.51659">
        <ele>11</ele>
        <time>2026-05-17T10:42:01.680Z</time>
      </trkpt>
      <trkpt lat="48.59398" lon="-4.51653">
        <ele>11</ele>
        <time>2026-05-17T10:42:05.843Z</time>
      </trkpt>
      <trkpt lat="48.59395" lon="-4.5165">
        <ele>11</ele>
        <time>2026-05-17T10:42:10.340Z</time>
      </trkpt>
      <trkpt lat="48.5939" lon="-4.51651">
        <ele>11</ele>
        <time>2026-05-17T10:42:14.521Z</time>
      </trkpt>
      <trkpt lat="48.59389" lon="-4.51651">
        <ele>11</ele>
        <time>2026-05-17T10:42:18.869Z</time>
      </trkpt>
      <trkpt lat="48.59385" lon="-4.51652">
        <ele>11</ele>
        <time>2026-05-17T10:43:13.868Z</time>
      </trkpt>
      <trkpt lat="48.59383" lon="-4.51653">
        <ele>11</ele>
        <time>2026-05-17T10:43:18.421Z</time>
      </trkpt>
      <trkpt lat="48.5938" lon="-4.51653">
        <ele>11</ele>
        <time>2026-05-17T10:43:20.339Z</time>
      </trkpt>
      <trkpt lat="48.59376" lon="-4.51654">
        <ele>11</ele>
        <time>2026-05-17T10:43:28.865Z</time>
      </trkpt>
      <trkpt lat="48.59374" lon="-4.51654">
        <ele>12</ele>
        <time>2026-05-17T10:43:33.359Z</time>
      </trkpt>
      <trkpt lat="48.5936" lon="-4.51658">
        <ele>12</ele>
        <time>2026-05-17T10:43:50.803Z</time>
      </trkpt>
      <trkpt lat="48.5936" lon="-4.5166">
        <ele>12</ele>
        <time>2026-05-17T10:43:54.867Z</time>
      </trkpt>
      <trkpt lat="48.5936" lon="-4.5166">
        <ele>12</ele>
        <time>2026-05-17T10:43:59.866Z</time>
      </trkpt>
      <trkpt lat="48.5936" lon="-4.5166">
        <ele>12</ele>
        <time>2026-05-17T10:44:04.870Z</time>
      </trkpt>
      <trkpt lat="48.59359" lon="-4.51669">
        <ele>12</ele>
        <time>2026-05-17T10:44:09.644Z</time>
      </trkpt>
      <trkpt lat="48.5936" lon="-4.51677">
        <ele>12</ele>
        <time>2026-05-17T10:44:14.182Z</time>
      </trkpt>
      <trkpt lat="48.59362" lon="-4.51683">
        <ele>12</ele>
        <time>2026-05-17T10:44:18.757Z</time>
      </trkpt>
      <trkpt lat="48.59363" lon="-4.5169">
        <ele>12</ele>
        <time>2026-05-17T10:44:22.869Z</time>
      </trkpt>
      <trkpt lat="48.59363" lon="-4.51697">
        <ele>12</ele>
        <time>2026-05-17T10:44:26.984Z</time>
      </trkpt>
      <trkpt lat="48.59365" lon="-4.51704">
        <ele>12</ele>
        <time>2026-05-17T10:44:31.522Z</time>
      </trkpt>
      <trkpt lat="48.59365" lon="-4.51712">
        <ele>12</ele>
        <time>2026-05-17T10:44:35.857Z</time>
      </trkpt>
      <trkpt lat="48.59366" lon="-4.51719">
        <ele>12</ele>
        <time>2026-05-17T10:44:40.186Z</time>
      </trkpt>
      <trkpt lat="48.59366" lon="-4.51727">
        <ele>12</ele>
        <time>2026-05-17T10:44:44.296Z</time>
      </trkpt>
      <trkpt lat="48.59365" lon="-4.51735">
        <ele>12</ele>
        <time>2026-05-17T10:44:48.867Z</time>
      </trkpt>
      <trkpt lat="48.59365" lon="-4.51743">
        <ele>12</ele>
        <time>2026-05-17T10:44:53.522Z</time>
      </trkpt>
      <trkpt lat="48.59366" lon="-4.51751">
        <ele>12</ele>
        <time>2026-05-17T10:44:57.865Z</time>
      </trkpt>
      <trkpt lat="48.59366" lon="-4.5176">
        <ele>12</ele>
        <time>2026-05-17T10:45:01.868Z</time>
      </trkpt>
      <trkpt lat="48.59367" lon="-4.5177">
        <ele>10</ele>
        <time>2026-05-17T10:45:06.543Z</time>
      </trkpt>
      <trkpt lat="48.59366" lon="-4.51777">
        <ele>10</ele>
        <time>2026-05-17T10:45:10.639Z</time>
      </trkpt>
      <trkpt lat="48.59366" lon="-4.51783">
        <ele>10</ele>
        <time>2026-05-17T10:45:15.136Z</time>
      </trkpt>
      <trkpt lat="48.59365" lon="-4.51791">
        <ele>10</ele>
        <time>2026-05-17T10:45:19.743Z</time>
      </trkpt>
      <trkpt lat="48.59364" lon="-4.51798">
        <ele>8</ele>
        <time>2026-05-17T10:45:23.871Z</time>
      </trkpt>
      <trkpt lat="48.59364" lon="-4.51806">
        <ele>8</ele>
        <time>2026-05-17T10:45:28.541Z</time>
      </trkpt>
      <trkpt lat="48.59364" lon="-4.51813">
        <ele>8</ele>
        <time>2026-05-17T10:45:32.577Z</time>
      </trkpt>
      <trkpt lat="48.59364" lon="-4.5182">
        <ele>8</ele>
        <time>2026-05-17T10:45:36.682Z</time>
      </trkpt>
      <trkpt lat="48.59364" lon="-4.51829">
        <ele>8</ele>
        <time>2026-05-17T10:45:40.866Z</time>
      </trkpt>
      <trkpt lat="48.59364" lon="-4.51836">
        <ele>8</ele>
        <time>2026-05-17T10:45:45.107Z</time>
      </trkpt>
      <trkpt lat="48.59364" lon="-4.51844">
        <ele>8</ele>
        <time>2026-05-17T10:45:49.140Z</time>
      </trkpt>
      <trkpt lat="48.59364" lon="-4.51854">
        <ele>9</ele>
        <time>2026-05-17T10:45:53.679Z</time>
      </trkpt>
      <trkpt lat="48.59365" lon="-4.51863">
        <ele>9</ele>
        <time>2026-05-17T10:45:58.338Z</time>
      </trkpt>
      <trkpt lat="48.59365" lon="-4.51871">
        <ele>9</ele>
        <time>2026-05-17T10:46:02.866Z</time>
      </trkpt>
      <trkpt lat="48.59365" lon="-4.51879">
        <ele>8</ele>
        <time>2026-05-17T10:46:06.982Z</time>
      </trkpt>
      <trkpt lat="48.59365" lon="-4.51886">
        <ele>8</ele>
        <time>2026-05-17T10:46:11.110Z</time>
      </trkpt>
      <trkpt lat="48.59365" lon="-4.51893">
        <ele>8</ele>
        <time>2026-05-17T10:46:15.182Z</time>
      </trkpt>
      <trkpt lat="48.59365" lon="-4.51901">
        <ele>8</ele>
        <time>2026-05-17T10:46:19.457Z</time>
      </trkpt>
      <trkpt lat="48.59364" lon="-4.51909">
        <ele>8</ele>
        <time>2026-05-17T10:46:23.861Z</time>
      </trkpt>
      <trkpt lat="48.59364" lon="-4.51917">
        <ele>8</ele>
        <time>2026-05-17T10:46:28.280Z</time>
      </trkpt>
      <trkpt lat="48.59363" lon="-4.51926">
        <ele>8</ele>
        <time>2026-05-17T10:46:32.623Z</time>
      </trkpt>
      <trkpt lat="48.59362" lon="-4.51934">
        <ele>9</ele>
        <time>2026-05-17T10:46:36.864Z</time>
      </trkpt>
      <trkpt lat="48.59362" lon="-4.51941">
        <ele>9</ele>
        <time>2026-05-17T10:46:41.138Z</time>
      </trkpt>
      <trkpt lat="48.59362" lon="-4.51948">
        <ele>9</ele>
        <time>2026-05-17T10:46:45.558Z</time>
      </trkpt>
      <trkpt lat="48.59361" lon="-4.51956">
        <ele>9</ele>
        <time>2026-05-17T10:46:50.126Z</time>
      </trkpt>
      <trkpt lat="48.59361" lon="-4.51963">
        <ele>11</ele>
        <time>2026-05-17T10:46:54.220Z</time>
      </trkpt>
      <trkpt lat="48.5936" lon="-4.5197">
        <ele>11</ele>
        <time>2026-05-17T10:46:58.869Z</time>
      </trkpt>
      <trkpt lat="48.5936" lon="-4.51977">
        <ele>11</ele>
        <time>2026-05-17T10:47:03.477Z</time>
      </trkpt>
      <trkpt lat="48.59359" lon="-4.51984">
        <ele>11</ele>
        <time>2026-05-17T10:47:07.776Z</time>
      </trkpt>
      <trkpt lat="48.59358" lon="-4.51991">
        <ele>11</ele>
        <time>2026-05-17T10:47:11.869Z</time>
      </trkpt>
      <trkpt lat="48.59358" lon="-4.51993">
        <ele>11</ele>
        <time>2026-05-17T10:47:13.324Z</time>
      </trkpt>
      <trkpt lat="48.59358" lon="-4.51998">
        <ele>11</ele>
        <time>2026-05-17T10:47:22.758Z</time>
      </trkpt>
      <trkpt lat="48.59356" lon="-4.52011">
        <ele>11</ele>
        <time>2026-05-17T10:47:26.866Z</time>
      </trkpt>
      <trkpt lat="48.59356" lon="-4.5202">
        <ele>9</ele>
        <time>2026-05-17T10:47:31.481Z</time>
      </trkpt>
      <trkpt lat="48.59357" lon="-4.5203">
        <ele>9</ele>
        <time>2026-05-17T10:47:35.870Z</time>
      </trkpt>
      <trkpt lat="48.59357" lon="-4.52039">
        <ele>9</ele>
        <time>2026-05-17T10:47:40.561Z</time>
      </trkpt>
      <trkpt lat="48.59355" lon="-4.52047">
        <ele>7</ele>
        <time>2026-05-17T10:47:45.168Z</time>
      </trkpt>
      <trkpt lat="48.59345" lon="-4.52073">
        <ele>7</ele>
        <time>2026-05-17T10:49:23.871Z</time>
      </trkpt>
      <trkpt lat="48.59345" lon="-4.5208">
        <ele>7</ele>
        <time>2026-05-17T10:49:28.531Z</time>
      </trkpt>
      <trkpt lat="48.59344" lon="-4.5209">
        <ele>7</ele>
        <time>2026-05-17T10:49:32.876Z</time>
      </trkpt>
      <trkpt lat="48.59338" lon="-4.52095">
        <ele>7</ele>
        <time>2026-05-17T10:49:37.630Z</time>
      </trkpt>
      <trkpt lat="48.59334" lon="-4.521">
        <ele>2</ele>
        <time>2026-05-17T10:49:41.829Z</time>
      </trkpt>
      <trkpt lat="48.59331" lon="-4.52105">
        <ele>2</ele>
        <time>2026-05-17T10:49:45.833Z</time>
      </trkpt>
      <trkpt lat="48.59329" lon="-4.52111">
        <ele>2</ele>
        <time>2026-05-17T10:49:50.285Z</time>
      </trkpt>
      <trkpt lat="48.59334" lon="-4.52111">
        <ele>2</ele>
        <time>2026-05-17T10:49:54.570Z</time>
      </trkpt>
      <trkpt lat="48.59338" lon="-4.52113">
        <ele>2</ele>
        <time>2026-05-17T10:49:58.650Z</time>
      </trkpt>
      <trkpt lat="48.59338" lon="-4.52119">
        <ele>2</ele>
        <time>2026-05-17T10:50:02.876Z</time>
      </trkpt>
      <trkpt lat="48.59339" lon="-4.52126">
        <ele>1</ele>
        <time>2026-05-17T10:50:12.494Z</time>
      </trkpt>
      <trkpt lat="48.59339" lon="-4.52131">
        <ele>1</ele>
        <time>2026-05-17T10:50:17.308Z</time>
      </trkpt>
      <trkpt lat="48.59338" lon="-4.52135">
        <ele>1</ele>
        <time>2026-05-17T10:50:21.866Z</time>
      </trkpt>
      <trkpt lat="48.59337" lon="-4.52134">
        <ele>1</ele>
        <time>2026-05-17T10:52:17.870Z</time>
      </trkpt>
      <trkpt lat="48.59337" lon="-4.52126">
        <ele>1</ele>
        <time>2026-05-17T10:52:22.405Z</time>
      </trkpt>
      <trkpt lat="48.59336" lon="-4.52121">
        <ele>2</ele>
        <time>2026-05-17T10:52:26.647Z</time>
      </trkpt>
      <trkpt lat="48.59335" lon="-4.52114">
        <ele>2</ele>
        <time>2026-05-17T10:52:31.152Z</time>
      </trkpt>
      <trkpt lat="48.59332" lon="-4.52111">
        <ele>2</ele>
        <time>2026-05-17T10:52:35.291Z</time>
      </trkpt>
      <trkpt lat="48.5933" lon="-4.52108">
        <ele>2</ele>
        <time>2026-05-17T10:52:39.813Z</time>
      </trkpt>
      <trkpt lat="48.59325" lon="-4.52107">
        <ele>2</ele>
        <time>2026-05-17T10:52:44.310Z</time>
      </trkpt>
      <trkpt lat="48.59319" lon="-4.52107">
        <ele>6</ele>
        <time>2026-05-17T10:52:48.714Z</time>
      </trkpt>
      <trkpt lat="48.59314" lon="-4.52105">
        <ele>6</ele>
        <time>2026-05-17T10:52:53.109Z</time>
      </trkpt>
      <trkpt lat="48.59312" lon="-4.52104">
        <ele>6</ele>
        <time>2026-05-17T10:52:57.868Z</time>
      </trkpt>
      <trkpt lat="48.5931" lon="-4.52104">
        <ele>6</ele>
        <time>2026-05-17T10:53:02.415Z</time>
      </trkpt>
      <trkpt lat="48.59307" lon="-4.52105">
        <ele>6</ele>
        <time>2026-05-17T10:53:06.873Z</time>
      </trkpt>
      <trkpt lat="48.59304" lon="-4.52105">
        <ele>6</ele>
        <time>2026-05-17T10:53:11.386Z</time>
      </trkpt>
      <trkpt lat="48.59298" lon="-4.52106">
        <ele>6</ele>
        <time>2026-05-17T10:53:15.686Z</time>
      </trkpt>
      <trkpt lat="48.59293" lon="-4.52106">
        <ele>6</ele>
        <time>2026-05-17T10:53:19.730Z</time>
      </trkpt>
      <trkpt lat="48.59289" lon="-4.52107">
        <ele>6</ele>
        <time>2026-05-17T10:53:23.750Z</time>
      </trkpt>
      <trkpt lat="48.59285" lon="-4.52104">
        <ele>6</ele>
        <time>2026-05-17T10:53:27.871Z</time>
      </trkpt>
      <trkpt lat="48.5928" lon="-4.52101">
        <ele>6</ele>
        <time>2026-05-17T10:53:32.547Z</time>
      </trkpt>
      <trkpt lat="48.59275" lon="-4.521">
        <ele>6</ele>
        <time>2026-05-17T10:53:36.716Z</time>
      </trkpt>
      <trkpt lat="48.59271" lon="-4.52099">
        <ele>6</ele>
        <time>2026-05-17T10:53:40.867Z</time>
      </trkpt>
      <trkpt lat="48.59267" lon="-4.52096">
        <ele>12</ele>
        <time>2026-05-17T10:53:45.372Z</time>
      </trkpt>
      <trkpt lat="48.59263" lon="-4.52093">
        <ele>11</ele>
        <time>2026-05-17T10:53:49.494Z</time>
      </trkpt>
      <trkpt lat="48.59259" lon="-4.52089">
        <ele>11</ele>
        <time>2026-05-17T10:53:53.649Z</time>
      </trkpt>
      <trkpt lat="48.59255" lon="-4.52085">
        <ele>11</ele>
        <time>2026-05-17T10:53:57.865Z</time>
      </trkpt>
      <trkpt lat="48.59251" lon="-4.52081">
        <ele>11</ele>
        <time>2026-05-17T10:54:02.147Z</time>
      </trkpt>
      <trkpt lat="48.59247" lon="-4.52077">
        <ele>11</ele>
        <time>2026-05-17T10:54:06.747Z</time>
      </trkpt>
      <trkpt lat="48.59244" lon="-4.52075">
        <ele>11</ele>
        <time>2026-05-17T10:54:10.867Z</time>
      </trkpt>
      <trkpt lat="48.59245" lon="-4.5207">
        <ele>11</ele>
        <time>2026-05-17T10:54:15.330Z</time>
      </trkpt>
      <trkpt lat="48.5924" lon="-4.52065">
        <ele>17</ele>
        <time>2026-05-17T10:54:19.690Z</time>
      </trkpt>
      <trkpt lat="48.59237" lon="-4.52062">
        <ele>17</ele>
        <time>2026-05-17T10:54:23.867Z</time>
      </trkpt>
      <trkpt lat="48.59232" lon="-4.52059">
        <ele>14</ele>
        <time>2026-05-17T10:54:28.876Z</time>
      </trkpt>
      <trkpt lat="48.59231" lon="-4.52058">
        <ele>14</ele>
        <time>2026-05-17T10:54:31.589Z</time>
      </trkpt>
      <trkpt lat="48.59228" lon="-4.52056">
        <ele>14</ele>
        <time>2026-05-17T10:54:40.310Z</time>
      </trkpt>
      <trkpt lat="48.59223" lon="-4.5205">
        <ele>14</ele>
        <time>2026-05-17T10:54:44.615Z</time>
      </trkpt>
      <trkpt lat="48.59219" lon="-4.52044">
        <ele>14</ele>
        <time>2026-05-17T10:54:48.863Z</time>
      </trkpt>
      <trkpt lat="48.59216" lon="-4.52039">
        <ele>18</ele>
        <time>2026-05-17T10:54:53.868Z</time>
      </trkpt>
      <trkpt lat="48.59212" lon="-4.52035">
        <ele>18</ele>
        <time>2026-05-17T10:54:58.865Z</time>
      </trkpt>
      <trkpt lat="48.59209" lon="-4.5203">
        <ele>18</ele>
        <time>2026-05-17T10:55:03.289Z</time>
      </trkpt>
      <trkpt lat="48.59205" lon="-4.52024">
        <ele>13</ele>
        <time>2026-05-17T10:55:07.769Z</time>
      </trkpt>
      <trkpt lat="48.59201" lon="-4.52019">
        <ele>13</ele>
        <time>2026-05-17T10:55:12.095Z</time>
      </trkpt>
      <trkpt lat="48.59198" lon="-4.52013">
        <ele>17</ele>
        <time>2026-05-17T10:55:16.875Z</time>
      </trkpt>
      <trkpt lat="48.59194" lon="-4.52006">
        <ele>17</ele>
        <time>2026-05-17T10:55:21.863Z</time>
      </trkpt>
      <trkpt lat="48.5919" lon="-4.52001">
        <ele>17</ele>
        <time>2026-05-17T10:55:26.629Z</time>
      </trkpt>
      <trkpt lat="48.59187" lon="-4.51996">
        <ele>17</ele>
        <time>2026-05-17T10:55:30.666Z</time>
      </trkpt>
      <trkpt lat="48.59185" lon="-4.51988">
        <ele>17</ele>
        <time>2026-05-17T10:55:35.232Z</time>
      </trkpt>
      <trkpt lat="48.59183" lon="-4.51981">
        <ele>22</ele>
        <time>2026-05-17T10:55:39.747Z</time>
      </trkpt>
      <trkpt lat="48.5918" lon="-4.51975">
        <ele>19</ele>
        <time>2026-05-17T10:55:44.047Z</time>
      </trkpt>
      <trkpt lat="48.59177" lon="-4.51969">
        <ele>19</ele>
        <time>2026-05-17T10:55:48.544Z</time>
      </trkpt>
      <trkpt lat="48.59175" lon="-4.51963">
        <ele>19</ele>
        <time>2026-05-17T10:55:52.948Z</time>
      </trkpt>
      <trkpt lat="48.59173" lon="-4.51957">
        <ele>23</ele>
        <time>2026-05-17T10:55:57.864Z</time>
      </trkpt>
      <trkpt lat="48.59166" lon="-4.51946">
        <ele>23</ele>
        <time>2026-05-17T10:56:21.876Z</time>
      </trkpt>
      <trkpt lat="48.59166" lon="-4.51946">
        <ele>23</ele>
        <time>2026-05-17T10:56:26.867Z</time>
      </trkpt>
      <trkpt lat="48.59164" lon="-4.51943">
        <ele>23</ele>
        <time>2026-05-17T10:56:30.868Z</time>
      </trkpt>
      <trkpt lat="48.59162" lon="-4.51935">
        <ele>23</ele>
        <time>2026-05-17T10:56:35.692Z</time>
      </trkpt>
      <trkpt lat="48.59164" lon="-4.51928">
        <ele>26</ele>
        <time>2026-05-17T10:56:39.814Z</time>
      </trkpt>
      <trkpt lat="48.59158" lon="-4.51926">
        <ele>26</ele>
        <time>2026-05-17T10:56:43.851Z</time>
      </trkpt>
      <trkpt lat="48.59153" lon="-4.51925">
        <ele>24</ele>
        <time>2026-05-17T10:56:47.867Z</time>
      </trkpt>
      <trkpt lat="48.59147" lon="-4.51924">
        <ele>24</ele>
        <time>2026-05-17T10:56:52.350Z</time>
      </trkpt>
      <trkpt lat="48.59142" lon="-4.51922">
        <ele>24</ele>
        <time>2026-05-17T10:56:56.727Z</time>
      </trkpt>
      <trkpt lat="48.59136" lon="-4.51921">
        <ele>24</ele>
        <time>2026-05-17T10:57:00.869Z</time>
      </trkpt>
      <trkpt lat="48.59131" lon="-4.5192">
        <ele>24</ele>
        <time>2026-05-17T10:57:05.048Z</time>
      </trkpt>
      <trkpt lat="48.59124" lon="-4.51919">
        <ele>21</ele>
        <time>2026-05-17T10:57:09.690Z</time>
      </trkpt>
      <trkpt lat="48.59118" lon="-4.51918">
        <ele>21</ele>
        <time>2026-05-17T10:57:13.855Z</time>
      </trkpt>
      <trkpt lat="48.59112" lon="-4.51918">
        <ele>21</ele>
        <time>2026-05-17T10:57:18.530Z</time>
      </trkpt>
      <trkpt lat="48.59107" lon="-4.51916">
        <ele>21</ele>
        <time>2026-05-17T10:57:22.669Z</time>
      </trkpt>
      <trkpt lat="48.59101" lon="-4.51915">
        <ele>21</ele>
        <time>2026-05-17T10:57:26.987Z</time>
      </trkpt>
      <trkpt lat="48.59095" lon="-4.51914">
        <ele>19</ele>
        <time>2026-05-17T10:57:31.407Z</time>
      </trkpt>
      <trkpt lat="48.5909" lon="-4.51914">
        <ele>19</ele>
        <time>2026-05-17T10:57:35.875Z</time>
      </trkpt>
      <trkpt lat="48.59084" lon="-4.51912">
        <ele>19</ele>
        <time>2026-05-17T10:57:40.429Z</time>
      </trkpt>
      <trkpt lat="48.59079" lon="-4.51912">
        <ele>19</ele>
        <time>2026-05-17T10:57:44.635Z</time>
      </trkpt>
      <trkpt lat="48.59074" lon="-4.51911">
        <ele>19</ele>
        <time>2026-05-17T10:57:49.148Z</time>
      </trkpt>
      <trkpt lat="48.59069" lon="-4.5191">
        <ele>17</ele>
        <time>2026-05-17T10:57:53.748Z</time>
      </trkpt>
      <trkpt lat="48.59063" lon="-4.51909">
        <ele>17</ele>
        <time>2026-05-17T10:57:58.168Z</time>
      </trkpt>
      <trkpt lat="48.59057" lon="-4.51908">
        <ele>17</ele>
        <time>2026-05-17T10:58:02.469Z</time>
      </trkpt>
      <trkpt lat="48.59052" lon="-4.51908">
        <ele>17</ele>
        <time>2026-05-17T10:58:06.867Z</time>
      </trkpt>
      <trkpt lat="48.59046" lon="-4.51907">
        <ele>17</ele>
        <time>2026-05-17T10:58:10.869Z</time>
      </trkpt>
      <trkpt lat="48.59041" lon="-4.51906">
        <ele>16</ele>
        <time>2026-05-17T10:58:14.952Z</time>
      </trkpt>
      <trkpt lat="48.59035" lon="-4.51906">
        <ele>16</ele>
        <time>2026-05-17T10:58:19.330Z</time>
      </trkpt>
      <trkpt lat="48.59028" lon="-4.51907">
        <ele>16</ele>
        <time>2026-05-17T10:58:23.852Z</time>
      </trkpt>
      <trkpt lat="48.59024" lon="-4.51908">
        <ele>16</ele>
        <time>2026-05-17T10:58:28.272Z</time>
      </trkpt>
      <trkpt lat="48.59018" lon="-4.51908">
        <ele>16</ele>
        <time>2026-05-17T10:58:32.590Z</time>
      </trkpt>
      <trkpt lat="48.59013" lon="-4.51911">
        <ele>16</ele>
        <time>2026-05-17T10:58:36.968Z</time>
      </trkpt>
      <trkpt lat="48.59006" lon="-4.51913">
        <ele>16</ele>
        <time>2026-05-17T10:58:41.789Z</time>
      </trkpt>
      <trkpt lat="48.59001" lon="-4.51915">
        <ele>16</ele>
        <time>2026-05-17T10:58:46.055Z</time>
      </trkpt>
      <trkpt lat="48.58995" lon="-4.51916">
        <ele>16</ele>
        <time>2026-05-17T10:58:50.373Z</time>
      </trkpt>
      <trkpt lat="48.58989" lon="-4.51918">
        <ele>16</ele>
        <time>2026-05-17T10:58:54.648Z</time>
      </trkpt>
      <trkpt lat="48.58983" lon="-4.51919">
        <ele>15</ele>
        <time>2026-05-17T10:58:58.676Z</time>
      </trkpt>
      <trkpt lat="48.58979" lon="-4.5192">
        <ele>15</ele>
        <time>2026-05-17T10:59:02.949Z</time>
      </trkpt>
      <trkpt lat="48.58974" lon="-4.51919">
        <ele>15</ele>
        <time>2026-05-17T10:59:07.489Z</time>
      </trkpt>
      <trkpt lat="48.5897" lon="-4.51917">
        <ele>15</ele>
        <time>2026-05-17T10:59:11.534Z</time>
      </trkpt>
      <trkpt lat="48.58964" lon="-4.51916">
        <ele>15</ele>
        <time>2026-05-17T10:59:15.689Z</time>
      </trkpt>
      <trkpt lat="48.58958" lon="-4.51916">
        <ele>14</ele>
        <time>2026-05-17T10:59:19.868Z</time>
      </trkpt>
      <trkpt lat="48.58952" lon="-4.51919">
        <ele>14</ele>
        <time>2026-05-17T10:59:24.173Z</time>
      </trkpt>
      <trkpt lat="48.58946" lon="-4.51921">
        <ele>14</ele>
        <time>2026-05-17T10:59:28.669Z</time>
      </trkpt>
      <trkpt lat="48.58941" lon="-4.5192">
        <ele>14</ele>
        <time>2026-05-17T10:59:32.868Z</time>
      </trkpt>
      <trkpt lat="48.58935" lon="-4.51916">
        <ele>14</ele>
        <time>2026-05-17T10:59:37.866Z</time>
      </trkpt>
      <trkpt lat="48.58931" lon="-4.51913">
        <ele>14</ele>
        <time>2026-05-17T10:59:42.080Z</time>
      </trkpt>
      <trkpt lat="48.58928" lon="-4.51911">
        <ele>12</ele>
        <time>2026-05-17T10:59:46.748Z</time>
      </trkpt>
      <trkpt lat="48.58926" lon="-4.51905">
        <ele>12</ele>
        <time>2026-05-17T10:59:51.194Z</time>
      </trkpt>
      <trkpt lat="48.58923" lon="-4.519">
        <ele>13</ele>
        <time>2026-05-17T10:59:55.530Z</time>
      </trkpt>
      <trkpt lat="48.58921" lon="-4.51895">
        <ele>13</ele>
        <time>2026-05-17T10:59:59.667Z</time>
      </trkpt>
      <trkpt lat="48.58919" lon="-4.51888">
        <ele>13</ele>
        <time>2026-05-17T11:00:04.114Z</time>
      </trkpt>
      <trkpt lat="48.58917" lon="-4.51881">
        <ele>13</ele>
        <time>2026-05-17T11:00:08.355Z</time>
      </trkpt>
      <trkpt lat="48.58915" lon="-4.51874">
        <ele>13</ele>
        <time>2026-05-17T11:00:12.733Z</time>
      </trkpt>
      <trkpt lat="48.58913" lon="-4.51867">
        <ele>13</ele>
        <time>2026-05-17T11:00:16.855Z</time>
      </trkpt>
      <trkpt lat="48.58913" lon="-4.5186">
        <ele>13</ele>
        <time>2026-05-17T11:00:21.053Z</time>
      </trkpt>
      <trkpt lat="48.58913" lon="-4.51853">
        <ele>13</ele>
        <time>2026-05-17T11:00:25.070Z</time>
      </trkpt>
      <trkpt lat="48.58911" lon="-4.51846">
        <ele>14</ele>
        <time>2026-05-17T11:00:29.096Z</time>
      </trkpt>
      <trkpt lat="48.58911" lon="-4.51839">
        <ele>14</ele>
        <time>2026-05-17T11:00:33.194Z</time>
      </trkpt>
      <trkpt lat="48.58911" lon="-4.51832">
        <ele>14</ele>
        <time>2026-05-17T11:00:37.469Z</time>
      </trkpt>
      <trkpt lat="48.58911" lon="-4.51823">
        <ele>14</ele>
        <time>2026-05-17T11:00:41.867Z</time>
      </trkpt>
      <trkpt lat="48.5891" lon="-4.51814">
        <ele>13</ele>
        <time>2026-05-17T11:00:46.411Z</time>
      </trkpt>
      <trkpt lat="48.58909" lon="-4.51805">
        <ele>13</ele>
        <time>2026-05-17T11:00:50.819Z</time>
      </trkpt>
      <trkpt lat="48.58909" lon="-4.51797">
        <ele>13</ele>
        <time>2026-05-17T11:00:54.832Z</time>
      </trkpt>
      <trkpt lat="48.58909" lon="-4.51789">
        <ele>12</ele>
        <time>2026-05-17T11:00:59.373Z</time>
      </trkpt>
      <trkpt lat="48.58909" lon="-4.5178">
        <ele>12</ele>
        <time>2026-05-17T11:01:03.862Z</time>
      </trkpt>
      <trkpt lat="48.58908" lon="-4.51772">
        <ele>12</ele>
        <time>2026-05-17T11:01:08.451Z</time>
      </trkpt>
      <trkpt lat="48.58908" lon="-4.51764">
        <ele>11</ele>
        <time>2026-05-17T11:01:12.865Z</time>
      </trkpt>
      <trkpt lat="48.58907" lon="-4.51754">
        <ele>11</ele>
        <time>2026-05-17T11:01:17.530Z</time>
      </trkpt>
      <trkpt lat="48.58907" lon="-4.51747">
        <ele>11</ele>
        <time>2026-05-17T11:01:21.788Z</time>
      </trkpt>
      <trkpt lat="48.58907" lon="-4.5174">
        <ele>11</ele>
        <time>2026-05-17T11:01:26.234Z</time>
      </trkpt>
      <trkpt lat="48.58905" lon="-4.51733">
        <ele>12</ele>
        <time>2026-05-17T11:01:30.373Z</time>
      </trkpt>
      <trkpt lat="48.58904" lon="-4.51727">
        <ele>12</ele>
        <time>2026-05-17T11:01:34.586Z</time>
      </trkpt>
      <trkpt lat="48.58899" lon="-4.51723">
        <ele>8</ele>
        <time>2026-05-17T11:01:44.874Z</time>
      </trkpt>
      <trkpt lat="48.58899" lon="-4.51723">
        <ele>8</ele>
        <time>2026-05-17T11:01:49.870Z</time>
      </trkpt>
      <trkpt lat="48.58898" lon="-4.51722">
        <ele>8</ele>
        <time>2026-05-17T11:01:54.865Z</time>
      </trkpt>
      <trkpt lat="48.58896" lon="-4.51719">
        <ele>8</ele>
        <time>2026-05-17T11:01:58.876Z</time>
      </trkpt>
      <trkpt lat="48.58893" lon="-4.51712">
        <ele>8</ele>
        <time>2026-05-17T11:02:03.432Z</time>
      </trkpt>
      <trkpt lat="48.58891" lon="-4.51704">
        <ele>9</ele>
        <time>2026-05-17T11:02:07.754Z</time>
      </trkpt>
      <trkpt lat="48.58888" lon="-4.51696">
        <ele>9</ele>
        <time>2026-05-17T11:02:12.097Z</time>
      </trkpt>
      <trkpt lat="48.58886" lon="-4.51688">
        <ele>9</ele>
        <time>2026-05-17T11:02:16.431Z</time>
      </trkpt>
      <trkpt lat="48.58883" lon="-4.51682">
        <ele>9</ele>
        <time>2026-05-17T11:02:20.732Z</time>
      </trkpt>
      <trkpt lat="48.5888" lon="-4.51674">
        <ele>12</ele>
        <time>2026-05-17T11:02:25.135Z</time>
      </trkpt>
      <trkpt lat="48.58877" lon="-4.51666">
        <ele>12</ele>
        <time>2026-05-17T11:02:29.589Z</time>
      </trkpt>
      <trkpt lat="48.58874" lon="-4.51659">
        <ele>6</ele>
        <time>2026-05-17T11:02:34.155Z</time>
      </trkpt>
      <trkpt lat="48.58872" lon="-4.51651">
        <ele>6</ele>
        <time>2026-05-17T11:02:38.576Z</time>
      </trkpt>
      <trkpt lat="48.58869" lon="-4.51645">
        <ele>6</ele>
        <time>2026-05-17T11:02:42.866Z</time>
      </trkpt>
      <trkpt lat="48.58867" lon="-4.51636">
        <ele>6</ele>
        <time>2026-05-17T11:02:47.481Z</time>
      </trkpt>
      <trkpt lat="48.58866" lon="-4.51628">
        <ele>6</ele>
        <time>2026-05-17T11:02:51.863Z</time>
      </trkpt>
      <trkpt lat="48.58864" lon="-4.51619">
        <ele>6</ele>
        <time>2026-05-17T11:02:56.321Z</time>
      </trkpt>
      <trkpt lat="48.58863" lon="-4.51611">
        <ele>6</ele>
        <time>2026-05-17T11:03:00.819Z</time>
      </trkpt>
      <trkpt lat="48.58863" lon="-4.51602">
        <ele>6</ele>
        <time>2026-05-17T11:03:05.095Z</time>
      </trkpt>
      <trkpt lat="48.58862" lon="-4.51593">
        <ele>7</ele>
        <time>2026-05-17T11:03:09.538Z</time>
      </trkpt>
      <trkpt lat="48.58861" lon="-4.51585">
        <ele>7</ele>
        <time>2026-05-17T11:03:13.865Z</time>
      </trkpt>
      <trkpt lat="48.58858" lon="-4.51577">
        <ele>7</ele>
        <time>2026-05-17T11:03:18.373Z</time>
      </trkpt>
      <trkpt lat="48.58858" lon="-4.51569">
        <ele>8</ele>
        <time>2026-05-17T11:03:22.460Z</time>
      </trkpt>
      <trkpt lat="48.58857" lon="-4.51565">
        <ele>8</ele>
        <time>2026-05-17T11:03:25.701Z</time>
      </trkpt>
      <trkpt lat="48.58851" lon="-4.51549">
        <ele>8</ele>
        <time>2026-05-17T11:03:34.864Z</time>
      </trkpt>
      <trkpt lat="48.58846" lon="-4.51544">
        <ele>2</ele>
        <time>2026-05-17T11:03:47.870Z</time>
      </trkpt>
      <trkpt lat="48.58845" lon="-4.51543">
        <ele>2</ele>
        <time>2026-05-17T11:03:53.861Z</time>
      </trkpt>
      <trkpt lat="48.58843" lon="-4.51543">
        <ele>2</ele>
        <time>2026-05-17T11:03:58.866Z</time>
      </trkpt>
      <trkpt lat="48.58843" lon="-4.51538">
        <ele>3</ele>
        <time>2026-05-17T11:04:03.080Z</time>
      </trkpt>
      <trkpt lat="48.5884" lon="-4.5153">
        <ele>3</ele>
        <time>2026-05-17T11:04:07.138Z</time>
      </trkpt>
      <trkpt lat="48.58838" lon="-4.51524">
        <ele>3</ele>
        <time>2026-05-17T11:04:11.862Z</time>
      </trkpt>
      <trkpt lat="48.58837" lon="-4.51524">
        <ele>3</ele>
        <time>2026-05-17T11:04:16.582Z</time>
      </trkpt>
      <trkpt lat="48.58839" lon="-4.51522">
        <ele>3</ele>
        <time>2026-05-17T11:04:20.699Z</time>
      </trkpt>
      <trkpt lat="48.58844" lon="-4.51519">
        <ele>3</ele>
        <time>2026-05-17T11:04:24.701Z</time>
      </trkpt>
      <trkpt lat="48.58843" lon="-4.51513">
        <ele>4</ele>
        <time>2026-05-17T11:04:29.763Z</time>
      </trkpt>
      <trkpt lat="48.58841" lon="-4.51514">
        <ele>4</ele>
        <time>2026-05-17T11:04:52.860Z</time>
      </trkpt>
      <trkpt lat="48.58841" lon="-4.51514">
        <ele>3</ele>
        <time>2026-05-17T11:04:58.530Z</time>
      </trkpt>
      <trkpt lat="48.58839" lon="-4.51511">
        <ele>4</ele>
        <time>2026-05-17T11:05:03.820Z</time>
      </trkpt>
      <trkpt lat="48.58835" lon="-4.51508">
        <ele>4</ele>
        <time>2026-05-17T11:05:07.785Z</time>
      </trkpt>
      <trkpt lat="48.58833" lon="-4.51507">
        <ele>4</ele>
        <time>2026-05-17T11:05:16.399Z</time>
      </trkpt>
      <trkpt lat="48.58839" lon="-4.51492">
        <ele>4</ele>
        <time>2026-05-17T11:06:22.861Z</time>
      </trkpt>
      <trkpt lat="48.58839" lon="-4.51492">
        <ele>4</ele>
        <time>2026-05-17T11:06:26.864Z</time>
      </trkpt>
      <trkpt lat="48.58839" lon="-4.51492">
        <ele>4</ele>
        <time>2026-05-17T11:06:30.873Z</time>
      </trkpt>
      <trkpt lat="48.58839" lon="-4.51492">
        <ele>4</ele>
        <time>2026-05-17T11:06:35.873Z</time>
      </trkpt>
      <trkpt lat="48.58839" lon="-4.51492">
        <ele>4</ele>
        <time>2026-05-17T11:06:40.863Z</time>
      </trkpt>
      <trkpt lat="48.58839" lon="-4.51493">
        <ele>4</ele>
        <time>2026-05-17T11:42:55.859Z</time>
      </trkpt>
      <trkpt lat="48.5884" lon="-4.51496">
        <ele>4</ele>
        <time>2026-05-17T11:43:00.860Z</time>
      </trkpt>
      <trkpt lat="48.5884" lon="-4.51496">
        <ele>4</ele>
        <time>2026-05-17T11:43:01.600Z</time>
      </trkpt>
      <trkpt lat="48.58836" lon="-4.5151">
        <ele>4</ele>
        <time>2026-05-17T11:43:10.355Z</time>
      </trkpt>
      <trkpt lat="48.58834" lon="-4.51511">
        <ele>4</ele>
        <time>2026-05-17T11:43:14.854Z</time>
      </trkpt>
      <trkpt lat="48.58835" lon="-4.51511">
        <ele>4</ele>
        <time>2026-05-17T11:43:22.866Z</time>
      </trkpt>
      <trkpt lat="48.58836" lon="-4.51512">
        <ele>4</ele>
        <time>2026-05-17T11:43:27.575Z</time>
      </trkpt>
      <trkpt lat="48.58839" lon="-4.51516">
        <ele>3</ele>
        <time>2026-05-17T11:43:31.858Z</time>
      </trkpt>
      <trkpt lat="48.58842" lon="-4.51519">
        <ele>3</ele>
        <time>2026-05-17T11:43:36.854Z</time>
      </trkpt>
      <trkpt lat="48.58843" lon="-4.51517">
        <ele>3</ele>
        <time>2026-05-17T11:43:40.860Z</time>
      </trkpt>
      <trkpt lat="48.58842" lon="-4.51523">
        <ele>3</ele>
        <time>2026-05-17T11:43:57.861Z</time>
      </trkpt>
      <trkpt lat="48.58837" lon="-4.51523">
        <ele>3</ele>
        <time>2026-05-17T11:44:02.521Z</time>
      </trkpt>
      <trkpt lat="48.58836" lon="-4.5152">
        <ele>3</ele>
        <time>2026-05-17T11:44:06.862Z</time>
      </trkpt>
      <trkpt lat="48.58834" lon="-4.51522">
        <ele>3</ele>
        <time>2026-05-17T11:44:11.875Z</time>
      </trkpt>
      <trkpt lat="48.58832" lon="-4.51527">
        <ele>3</ele>
        <time>2026-05-17T11:44:16.563Z</time>
      </trkpt>
      <trkpt lat="48.58832" lon="-4.51528">
        <ele>3</ele>
        <time>2026-05-17T11:44:29.859Z</time>
      </trkpt>
      <trkpt lat="48.58832" lon="-4.51525">
        <ele>3</ele>
        <time>2026-05-17T11:44:34.198Z</time>
      </trkpt>
      <trkpt lat="48.58832" lon="-4.51522">
        <ele>3</ele>
        <time>2026-05-17T11:44:38.480Z</time>
      </trkpt>
      <trkpt lat="48.58826" lon="-4.51517">
        <ele>3</ele>
        <time>2026-05-17T11:44:43.175Z</time>
      </trkpt>
      <trkpt lat="48.58822" lon="-4.5152">
        <ele>3</ele>
        <time>2026-05-17T11:44:47.860Z</time>
      </trkpt>
      <trkpt lat="48.58819" lon="-4.51525">
        <ele>1</ele>
        <time>2026-05-17T11:44:52.675Z</time>
      </trkpt>
      <trkpt lat="48.58817" lon="-4.51531">
        <ele>1</ele>
        <time>2026-05-17T11:44:56.857Z</time>
      </trkpt>
      <trkpt lat="48.58815" lon="-4.51531">
        <ele>1</ele>
        <time>2026-05-17T11:45:01.620Z</time>
      </trkpt>
      <trkpt lat="48.58812" lon="-4.51528">
        <ele>1</ele>
        <time>2026-05-17T11:45:05.861Z</time>
      </trkpt>
      <trkpt lat="48.58806" lon="-4.51524">
        <ele>1</ele>
        <time>2026-05-17T11:45:10.476Z</time>
      </trkpt>
      <trkpt lat="48.58804" lon="-4.5152">
        <ele>1</ele>
        <time>2026-05-17T11:45:14.694Z</time>
      </trkpt>
      <trkpt lat="48.58798" lon="-4.51518">
        <ele>1</ele>
        <time>2026-05-17T11:45:19.859Z</time>
      </trkpt>
      <trkpt lat="48.58793" lon="-4.51514">
        <ele>1</ele>
        <time>2026-05-17T11:45:24.338Z</time>
      </trkpt>
      <trkpt lat="48.58788" lon="-4.51516">
        <ele>4</ele>
        <time>2026-05-17T11:45:28.865Z</time>
      </trkpt>
      <trkpt lat="48.58787" lon="-4.51516">
        <ele>4</ele>
        <time>2026-05-17T11:45:29.857Z</time>
      </trkpt>
      <trkpt lat="48.58784" lon="-4.51517">
        <ele>4</ele>
        <time>2026-05-17T11:45:38.864Z</time>
      </trkpt>
      <trkpt lat="48.58782" lon="-4.51516">
        <ele>4</ele>
        <time>2026-05-17T11:45:43.510Z</time>
      </trkpt>
      <trkpt lat="48.58776" lon="-4.51516">
        <time>2026-05-17T11:45:47.855Z</time>
      </trkpt>
      <trkpt lat="48.5877" lon="-4.51517">
        <time>2026-05-17T11:45:52.301Z</time>
      </trkpt>
      <trkpt lat="48.58767" lon="-4.51516">
        <time>2026-05-17T11:45:56.859Z</time>
      </trkpt>
      <trkpt lat="48.58762" lon="-4.51516">
        <time>2026-05-17T11:46:00.861Z</time>
      </trkpt>
      <trkpt lat="48.58757" lon="-4.51515">
        <time>2026-05-17T11:46:05.298Z</time>
      </trkpt>
      <trkpt lat="48.58753" lon="-4.5152">
        <time>2026-05-17T11:46:14.861Z</time>
      </trkpt>
      <trkpt lat="48.58752" lon="-4.51521">
        <time>2026-05-17T11:46:19.867Z</time>
      </trkpt>
      <trkpt lat="48.5875" lon="-4.5152">
        <time>2026-05-17T11:46:24.295Z</time>
      </trkpt>
      <trkpt lat="48.58748" lon="-4.51518">
        <time>2026-05-17T11:46:28.859Z</time>
      </trkpt>
      <trkpt lat="48.58741" lon="-4.51519">
        <time>2026-05-17T11:46:33.823Z</time>
      </trkpt>
      <trkpt lat="48.58736" lon="-4.51517">
        <ele>1</ele>
        <time>2026-05-17T11:46:38.117Z</time>
      </trkpt>
      <trkpt lat="48.5873" lon="-4.51517">
        <ele>1</ele>
        <time>2026-05-17T11:46:42.734Z</time>
      </trkpt>
      <trkpt lat="48.58724" lon="-4.51517">
        <ele>1</ele>
        <time>2026-05-17T11:46:46.860Z</time>
      </trkpt>
      <trkpt lat="48.58719" lon="-4.51516">
        <ele>1</ele>
        <time>2026-05-17T11:46:50.861Z</time>
      </trkpt>
      <trkpt lat="48.58713" lon="-4.51514">
        <ele>1</ele>
        <time>2026-05-17T11:46:55.834Z</time>
      </trkpt>
      <trkpt lat="48.58708" lon="-4.51513">
        <ele>1</ele>
        <time>2026-05-17T11:46:59.859Z</time>
      </trkpt>
      <trkpt lat="48.58705" lon="-4.5151">
        <ele>1</ele>
        <time>2026-05-17T11:47:03.857Z</time>
      </trkpt>
      <trkpt lat="48.58699" lon="-4.51513">
        <ele>1</ele>
        <time>2026-05-17T11:47:07.937Z</time>
      </trkpt>
      <trkpt lat="48.58693" lon="-4.51515">
        <ele>1</ele>
        <time>2026-05-17T11:47:12.863Z</time>
      </trkpt>
      <trkpt lat="48.58691" lon="-4.51514">
        <ele>1</ele>
        <time>2026-05-17T11:47:14.476Z</time>
      </trkpt>
      <trkpt lat="48.58683" lon="-4.5151">
        <ele>1</ele>
        <time>2026-05-17T11:47:23.854Z</time>
      </trkpt>
      <trkpt lat="48.58678" lon="-4.51508">
        <ele>3</ele>
        <time>2026-05-17T11:47:28.299Z</time>
      </trkpt>
      <trkpt lat="48.58676" lon="-4.51502">
        <ele>3</ele>
        <time>2026-05-17T11:49:46.856Z</time>
      </trkpt>
      <trkpt lat="48.58676" lon="-4.51502">
        <ele>3</ele>
        <time>2026-05-17T11:49:50.857Z</time>
      </trkpt>
      <trkpt lat="48.58676" lon="-4.51501">
        <ele>3</ele>
        <time>2026-05-17T11:49:55.855Z</time>
      </trkpt>
      <trkpt lat="48.58676" lon="-4.51501">
        <ele>3</ele>
        <time>2026-05-17T11:50:03.855Z</time>
      </trkpt>
      <trkpt lat="48.58675" lon="-4.51501">
        <ele>3</ele>
        <time>2026-05-17T11:50:11.856Z</time>
      </trkpt>
      <trkpt lat="48.58668" lon="-4.51493">
        <ele>3</ele>
        <time>2026-05-17T11:51:17.856Z</time>
      </trkpt>
      <trkpt lat="48.58668" lon="-4.51494">
        <ele>3</ele>
        <time>2026-05-17T11:51:21.856Z</time>
      </trkpt>
      <trkpt lat="48.58668" lon="-4.51494">
        <ele>3</ele>
        <time>2026-05-17T11:51:26.856Z</time>
      </trkpt>
      <trkpt lat="48.58667" lon="-4.51495">
        <ele>3</ele>
        <time>2026-05-17T11:51:31.855Z</time>
      </trkpt>
      <trkpt lat="48.58667" lon="-4.51495">
        <ele>3</ele>
        <time>2026-05-17T11:51:35.862Z</time>
      </trkpt>
      <trkpt lat="48.58672" lon="-4.51498">
        <ele>3</ele>
        <time>2026-05-17T12:20:43.856Z</time>
      </trkpt>
      <trkpt lat="48.58672" lon="-4.51497">
        <ele>3</ele>
        <time>2026-05-17T12:20:48.628Z</time>
      </trkpt>
      <trkpt lat="48.58673" lon="-4.51502">
        <ele>3</ele>
        <time>2026-05-17T12:20:52.851Z</time>
      </trkpt>
      <trkpt lat="48.58673" lon="-4.51505">
        <ele>3</ele>
        <time>2026-05-17T12:20:54.805Z</time>
      </trkpt>
      <trkpt lat="48.58676" lon="-4.51513">
        <ele>3</ele>
        <time>2026-05-17T12:21:03.849Z</time>
      </trkpt>
      <trkpt lat="48.58676" lon="-4.51514">
        <ele>3</ele>
        <time>2026-05-17T12:21:08.849Z</time>
      </trkpt>
      <trkpt lat="48.58674" lon="-4.51513">
        <ele>3</ele>
        <time>2026-05-17T12:21:13.200Z</time>
      </trkpt>
      <trkpt lat="48.58669" lon="-4.51513">
        <ele>3</ele>
        <time>2026-05-17T12:21:17.644Z</time>
      </trkpt>
      <trkpt lat="48.58663" lon="-4.51516">
        <ele>1</ele>
        <time>2026-05-17T12:21:21.849Z</time>
      </trkpt>
      <trkpt lat="48.58657" lon="-4.51514">
        <ele>3</ele>
        <time>2026-05-17T12:21:26.850Z</time>
      </trkpt>
      <trkpt lat="48.58657" lon="-4.51511">
        <ele>3</ele>
        <time>2026-05-17T12:21:31.849Z</time>
      </trkpt>
      <trkpt lat="48.58652" lon="-4.51512">
        <ele>6</ele>
        <time>2026-05-17T12:21:36.855Z</time>
      </trkpt>
      <trkpt lat="48.58647" lon="-4.51516">
        <ele>5</ele>
        <time>2026-05-17T12:21:41.291Z</time>
      </trkpt>
      <trkpt lat="48.58643" lon="-4.51519">
        <ele>5</ele>
        <time>2026-05-17T12:21:45.653Z</time>
      </trkpt>
      <trkpt lat="48.5864" lon="-4.51523">
        <ele>5</ele>
        <time>2026-05-17T12:21:49.855Z</time>
      </trkpt>
      <trkpt lat="48.58638" lon="-4.51529">
        <ele>5</ele>
        <time>2026-05-17T12:21:53.851Z</time>
      </trkpt>
      <trkpt lat="48.58634" lon="-4.51533">
        <ele>5</ele>
        <time>2026-05-17T12:21:58.112Z</time>
      </trkpt>
      <trkpt lat="48.58635" lon="-4.51537">
        <ele>5</ele>
        <time>2026-05-17T12:22:02.387Z</time>
      </trkpt>
      <trkpt lat="48.58638" lon="-4.51543">
        <ele>4</ele>
        <time>2026-05-17T12:22:06.408Z</time>
      </trkpt>
      <trkpt lat="48.58641" lon="-4.51544">
        <ele>4</ele>
        <time>2026-05-17T12:22:15.846Z</time>
      </trkpt>
      <trkpt lat="48.58638" lon="-4.51555">
        <ele>4</ele>
        <time>2026-05-17T12:22:19.853Z</time>
      </trkpt>
      <trkpt lat="48.58636" lon="-4.5156">
        <ele>4</ele>
        <time>2026-05-17T12:22:24.328Z</time>
      </trkpt>
      <trkpt lat="48.58633" lon="-4.51567">
        <ele>4</ele>
        <time>2026-05-17T12:22:28.863Z</time>
      </trkpt>
      <trkpt lat="48.5863" lon="-4.51572">
        <ele>3</ele>
        <time>2026-05-17T12:22:33.289Z</time>
      </trkpt>
      <trkpt lat="48.58627" lon="-4.5158">
        <ele>3</ele>
        <time>2026-05-17T12:22:37.850Z</time>
      </trkpt>
      <trkpt lat="48.58626" lon="-4.51589">
        <ele>3</ele>
        <time>2026-05-17T12:22:42.472Z</time>
      </trkpt>
      <trkpt lat="48.58625" lon="-4.51597">
        <ele>3</ele>
        <time>2026-05-17T12:22:46.847Z</time>
      </trkpt>
      <trkpt lat="48.58623" lon="-4.51604">
        <ele>6</ele>
        <time>2026-05-17T12:22:50.970Z</time>
      </trkpt>
      <trkpt lat="48.58622" lon="-4.51611">
        <ele>6</ele>
        <time>2026-05-17T12:22:55.392Z</time>
      </trkpt>
      <trkpt lat="48.5862" lon="-4.51619">
        <ele>6</ele>
        <time>2026-05-17T12:22:59.692Z</time>
      </trkpt>
      <trkpt lat="48.58618" lon="-4.51628">
        <ele>4</ele>
        <time>2026-05-17T12:23:04.087Z</time>
      </trkpt>
      <trkpt lat="48.58616" lon="-4.51636">
        <ele>4</ele>
        <time>2026-05-17T12:23:08.404Z</time>
      </trkpt>
      <trkpt lat="48.58615" lon="-4.51645">
        <ele>4</ele>
        <time>2026-05-17T12:23:12.424Z</time>
      </trkpt>
      <trkpt lat="48.58615" lon="-4.51654">
        <ele>4</ele>
        <time>2026-05-17T12:23:16.851Z</time>
      </trkpt>
      <trkpt lat="48.58615" lon="-4.51663">
        <ele>4</ele>
        <time>2026-05-17T12:23:21.325Z</time>
      </trkpt>
      <trkpt lat="48.58613" lon="-4.51671">
        <ele>4</ele>
        <time>2026-05-17T12:23:25.831Z</time>
      </trkpt>
      <trkpt lat="48.58612" lon="-4.51679">
        <ele>4</ele>
        <time>2026-05-17T12:23:29.852Z</time>
      </trkpt>
      <trkpt lat="48.58612" lon="-4.51686">
        <ele>4</ele>
        <time>2026-05-17T12:23:34.066Z</time>
      </trkpt>
      <trkpt lat="48.58613" lon="-4.51693">
        <ele>4</ele>
        <time>2026-05-17T12:23:38.188Z</time>
      </trkpt>
      <trkpt lat="48.58618" lon="-4.51695">
        <ele>4</ele>
        <time>2026-05-17T12:23:42.266Z</time>
      </trkpt>
      <trkpt lat="48.58618" lon="-4.51696">
        <ele>4</ele>
        <time>2026-05-17T12:23:45.853Z</time>
      </trkpt>
      <trkpt lat="48.58616" lon="-4.51701">
        <ele>4</ele>
        <time>2026-05-17T12:23:54.849Z</time>
      </trkpt>
      <trkpt lat="48.58616" lon="-4.51704">
        <ele>4</ele>
        <time>2026-05-17T12:23:59.116Z</time>
      </trkpt>
      <trkpt lat="48.58613" lon="-4.51713">
        <ele>4</ele>
        <time>2026-05-17T12:24:03.664Z</time>
      </trkpt>
      <trkpt lat="48.58611" lon="-4.51723">
        <ele>4</ele>
        <time>2026-05-17T12:24:08.054Z</time>
      </trkpt>
      <trkpt lat="48.5861" lon="-4.51732">
        <ele>4</ele>
        <time>2026-05-17T12:24:12.251Z</time>
      </trkpt>
      <trkpt lat="48.5861" lon="-4.5174">
        <ele>5</ele>
        <time>2026-05-17T12:24:16.491Z</time>
      </trkpt>
      <trkpt lat="48.58609" lon="-4.51749">
        <ele>5</ele>
        <time>2026-05-17T12:24:20.689Z</time>
      </trkpt>
      <trkpt lat="48.58608" lon="-4.51757">
        <ele>5</ele>
        <time>2026-05-17T12:24:24.856Z</time>
      </trkpt>
      <trkpt lat="48.58608" lon="-4.51766">
        <ele>4</ele>
        <time>2026-05-17T12:24:29.147Z</time>
      </trkpt>
      <trkpt lat="48.58607" lon="-4.51775">
        <ele>4</ele>
        <time>2026-05-17T12:24:33.412Z</time>
      </trkpt>
      <trkpt lat="48.58607" lon="-4.51784">
        <ele>4</ele>
        <time>2026-05-17T12:24:37.748Z</time>
      </trkpt>
      <trkpt lat="48.58606" lon="-4.51793">
        <ele>4</ele>
        <time>2026-05-17T12:24:41.852Z</time>
      </trkpt>
      <trkpt lat="48.58605" lon="-4.51801">
        <ele>4</ele>
        <time>2026-05-17T12:24:46.307Z</time>
      </trkpt>
      <trkpt lat="48.58603" lon="-4.5181">
        <ele>4</ele>
        <time>2026-05-17T12:24:50.684Z</time>
      </trkpt>
      <trkpt lat="48.58602" lon="-4.51814">
        <ele>4</ele>
        <time>2026-05-17T12:24:54.720Z</time>
      </trkpt>
      <trkpt lat="48.586" lon="-4.51819">
        <ele>4</ele>
        <time>2026-05-17T12:24:59.209Z</time>
      </trkpt>
      <trkpt lat="48.58598" lon="-4.51826">
        <ele>4</ele>
        <time>2026-05-17T12:25:03.570Z</time>
      </trkpt>
      <trkpt lat="48.58595" lon="-4.51833">
        <ele>6</ele>
        <time>2026-05-17T12:25:07.754Z</time>
      </trkpt>
      <trkpt lat="48.58592" lon="-4.51839">
        <ele>6</ele>
        <time>2026-05-17T12:25:11.853Z</time>
      </trkpt>
      <trkpt lat="48.58589" lon="-4.51845">
        <ele>6</ele>
        <time>2026-05-17T12:25:16.165Z</time>
      </trkpt>
      <trkpt lat="48.58587" lon="-4.51854">
        <ele>6</ele>
        <time>2026-05-17T12:25:20.406Z</time>
      </trkpt>
      <trkpt lat="48.58583" lon="-4.51862">
        <ele>6</ele>
        <time>2026-05-17T12:25:24.672Z</time>
      </trkpt>
      <trkpt lat="48.5858" lon="-4.51869">
        <ele>6</ele>
        <time>2026-05-17T12:25:28.854Z</time>
      </trkpt>
      <trkpt lat="48.58577" lon="-4.51876">
        <ele>4</ele>
        <time>2026-05-17T12:25:33.051Z</time>
      </trkpt>
      <trkpt lat="48.58574" lon="-4.51883">
        <ele>4</ele>
        <time>2026-05-17T12:25:37.385Z</time>
      </trkpt>
      <trkpt lat="48.5857" lon="-4.51889">
        <ele>4</ele>
        <time>2026-05-17T12:25:41.854Z</time>
      </trkpt>
      <trkpt lat="48.58566" lon="-4.51896">
        <ele>6</ele>
        <time>2026-05-17T12:25:46.209Z</time>
      </trkpt>
      <trkpt lat="48.58563" lon="-4.51903">
        <ele>6</ele>
        <time>2026-05-17T12:25:50.545Z</time>
      </trkpt>
      <trkpt lat="48.58549" lon="-4.51931">
        <ele>4</ele>
        <time>2026-05-17T12:26:31.863Z</time>
      </trkpt>
      <trkpt lat="48.58549" lon="-4.51931">
        <ele>4</ele>
        <time>2026-05-17T12:26:36.859Z</time>
      </trkpt>
      <trkpt lat="48.58547" lon="-4.51934">
        <ele>4</ele>
        <time>2026-05-17T12:26:41.770Z</time>
      </trkpt>
      <trkpt lat="48.58542" lon="-4.5194">
        <ele>4</ele>
        <time>2026-05-17T12:26:46.361Z</time>
      </trkpt>
      <trkpt lat="48.58538" lon="-4.51945">
        <ele>7</ele>
        <time>2026-05-17T12:26:50.448Z</time>
      </trkpt>
      <trkpt lat="48.58535" lon="-4.51951">
        <ele>7</ele>
        <time>2026-05-17T12:26:54.850Z</time>
      </trkpt>
      <trkpt lat="48.58533" lon="-4.51959">
        <ele>6</ele>
        <time>2026-05-17T12:26:59.707Z</time>
      </trkpt>
      <trkpt lat="48.58532" lon="-4.51965">
        <ele>6</ele>
        <time>2026-05-17T12:27:03.871Z</time>
      </trkpt>
      <trkpt lat="48.5853" lon="-4.51972">
        <ele>6</ele>
        <time>2026-05-17T12:27:08.145Z</time>
      </trkpt>
      <trkpt lat="48.58526" lon="-4.51978">
        <ele>6</ele>
        <time>2026-05-17T12:27:12.669Z</time>
      </trkpt>
      <trkpt lat="48.58524" lon="-4.51985">
        <ele>6</ele>
        <time>2026-05-17T12:27:17.267Z</time>
      </trkpt>
      <trkpt lat="48.58523" lon="-4.51992">
        <ele>5</ele>
        <time>2026-05-17T12:27:21.853Z</time>
      </trkpt>
      <trkpt lat="48.58521" lon="-4.51996">
        <ele>5</ele>
        <time>2026-05-17T12:27:26.858Z</time>
      </trkpt>
      <trkpt lat="48.5852" lon="-4.52001">
        <ele>5</ele>
        <time>2026-05-17T12:27:31.288Z</time>
      </trkpt>
      <trkpt lat="48.58517" lon="-4.52007">
        <ele>5</ele>
        <time>2026-05-17T12:27:35.589Z</time>
      </trkpt>
      <trkpt lat="48.58516" lon="-4.52011">
        <ele>5</ele>
        <time>2026-05-17T12:27:39.848Z</time>
      </trkpt>
      <trkpt lat="48.58516" lon="-4.52011">
        <ele>5</ele>
        <time>2026-05-17T12:27:40.387Z</time>
      </trkpt>
      <trkpt lat="48.58514" lon="-4.52016">
        <ele>9</ele>
        <time>2026-05-17T12:27:49.467Z</time>
      </trkpt>
      <trkpt lat="48.5851" lon="-4.52022">
        <ele>9</ele>
        <time>2026-05-17T12:27:53.726Z</time>
      </trkpt>
      <trkpt lat="48.58507" lon="-4.52028">
        <ele>9</ele>
        <time>2026-05-17T12:27:57.855Z</time>
      </trkpt>
      <trkpt lat="48.58504" lon="-4.52035">
        <ele>9</ele>
        <time>2026-05-17T12:28:02.413Z</time>
      </trkpt>
      <trkpt lat="48.58502" lon="-4.52041">
        <ele>9</ele>
        <time>2026-05-17T12:28:06.610Z</time>
      </trkpt>
      <trkpt lat="48.585" lon="-4.52047">
        <ele>7</ele>
        <time>2026-05-17T12:28:10.707Z</time>
      </trkpt>
      <trkpt lat="48.58497" lon="-4.52054">
        <ele>7</ele>
        <time>2026-05-17T12:28:14.768Z</time>
      </trkpt>
      <trkpt lat="48.58494" lon="-4.52059">
        <ele>7</ele>
        <time>2026-05-17T12:28:18.846Z</time>
      </trkpt>
      <trkpt lat="48.58491" lon="-4.52066">
        <ele>7</ele>
        <time>2026-05-17T12:28:23.351Z</time>
      </trkpt>
      <trkpt lat="48.58488" lon="-4.52073">
        <ele>4</ele>
        <time>2026-05-17T12:28:27.464Z</time>
      </trkpt>
      <trkpt lat="48.58486" lon="-4.52079">
        <ele>7</ele>
        <time>2026-05-17T12:28:31.848Z</time>
      </trkpt>
      <trkpt lat="48.58482" lon="-4.52083">
        <ele>7</ele>
        <time>2026-05-17T12:28:36.032Z</time>
      </trkpt>
      <trkpt lat="48.58478" lon="-4.52089">
        <ele>7</ele>
        <time>2026-05-17T12:28:40.690Z</time>
      </trkpt>
      <trkpt lat="48.58478" lon="-4.52095">
        <ele>7</ele>
        <time>2026-05-17T12:28:44.849Z</time>
      </trkpt>
      <trkpt lat="48.58473" lon="-4.52099">
        <ele>4</ele>
        <time>2026-05-17T12:28:48.856Z</time>
      </trkpt>
      <trkpt lat="48.58467" lon="-4.52106">
        <ele>4</ele>
        <time>2026-05-17T12:28:53.864Z</time>
      </trkpt>
      <trkpt lat="48.58461" lon="-4.52104">
        <ele>4</ele>
        <time>2026-05-17T12:28:58.310Z</time>
      </trkpt>
      <trkpt lat="48.58457" lon="-4.52107">
        <ele>8</ele>
        <time>2026-05-17T12:29:02.431Z</time>
      </trkpt>
      <trkpt lat="48.58456" lon="-4.52109">
        <ele>8</ele>
        <time>2026-05-17T12:29:06.792Z</time>
      </trkpt>
      <trkpt lat="48.58451" lon="-4.52115">
        <ele>8</ele>
        <time>2026-05-17T12:29:11.349Z</time>
      </trkpt>
      <trkpt lat="48.58448" lon="-4.52121">
        <ele>8</ele>
        <time>2026-05-17T12:29:15.436Z</time>
      </trkpt>
      <trkpt lat="48.58449" lon="-4.5212">
        <ele>8</ele>
        <time>2026-05-17T12:29:19.856Z</time>
      </trkpt>
      <trkpt lat="48.58447" lon="-4.52121">
        <ele>8</ele>
        <time>2026-05-17T12:29:24.860Z</time>
      </trkpt>
      <trkpt lat="48.58442" lon="-4.52125">
        <ele>8</ele>
        <time>2026-05-17T12:29:29.098Z</time>
      </trkpt>
      <trkpt lat="48.58438" lon="-4.52129">
        <ele>7</ele>
        <time>2026-05-17T12:29:33.704Z</time>
      </trkpt>
      <trkpt lat="48.58434" lon="-4.52137">
        <ele>7</ele>
        <time>2026-05-17T12:29:37.767Z</time>
      </trkpt>
      <trkpt lat="48.58433" lon="-4.52144">
        <ele>7</ele>
        <time>2026-05-17T12:29:41.853Z</time>
      </trkpt>
      <trkpt lat="48.58433" lon="-4.52152">
        <ele>7</ele>
        <time>2026-05-17T12:29:46.529Z</time>
      </trkpt>
      <trkpt lat="48.58434" lon="-4.52154">
        <ele>8</ele>
        <time>2026-05-17T12:29:50.625Z</time>
      </trkpt>
      <trkpt lat="48.58433" lon="-4.5216">
        <ele>8</ele>
        <time>2026-05-17T12:29:55.193Z</time>
      </trkpt>
      <trkpt lat="48.58431" lon="-4.52168">
        <ele>8</ele>
        <time>2026-05-17T12:29:59.670Z</time>
      </trkpt>
      <trkpt lat="48.5843" lon="-4.52176">
        <ele>9</ele>
        <time>2026-05-17T12:30:04.268Z</time>
      </trkpt>
      <trkpt lat="48.58429" lon="-4.52183">
        <ele>11</ele>
        <time>2026-05-17T12:30:08.710Z</time>
      </trkpt>
      <trkpt lat="48.58427" lon="-4.52189">
        <ele>11</ele>
        <time>2026-05-17T12:30:12.854Z</time>
      </trkpt>
      <trkpt lat="48.58425" lon="-4.52196">
        <ele>11</ele>
        <time>2026-05-17T12:30:17.486Z</time>
      </trkpt>
      <trkpt lat="48.58423" lon="-4.52199">
        <ele>11</ele>
        <time>2026-05-17T12:30:21.856Z</time>
      </trkpt>
      <trkpt lat="48.58428" lon="-4.52202">
        <ele>11</ele>
        <time>2026-05-17T12:30:26.291Z</time>
      </trkpt>
      <trkpt lat="48.58435" lon="-4.52202">
        <ele>11</ele>
        <time>2026-05-17T12:30:30.473Z</time>
      </trkpt>
      <trkpt lat="48.58441" lon="-4.52203">
        <ele>11</ele>
        <time>2026-05-17T12:30:34.551Z</time>
      </trkpt>
      <trkpt lat="48.58448" lon="-4.52207">
        <ele>11</ele>
        <time>2026-05-17T12:30:39.112Z</time>
      </trkpt>
      <trkpt lat="48.58453" lon="-4.52211">
        <ele>13</ele>
        <time>2026-05-17T12:30:43.331Z</time>
      </trkpt>
      <trkpt lat="48.58458" lon="-4.52215">
        <ele>13</ele>
        <time>2026-05-17T12:30:47.857Z</time>
      </trkpt>
      <trkpt lat="48.58461" lon="-4.52218">
        <ele>13</ele>
        <time>2026-05-17T12:30:51.858Z</time>
      </trkpt>
      <trkpt lat="48.58466" lon="-4.52221">
        <ele>13</ele>
        <time>2026-05-17T12:30:56.583Z</time>
      </trkpt>
      <trkpt lat="48.5847" lon="-4.52224">
        <ele>13</ele>
        <time>2026-05-17T12:31:00.797Z</time>
      </trkpt>
      <trkpt lat="48.58474" lon="-4.52228">
        <ele>13</ele>
        <time>2026-05-17T12:31:04.851Z</time>
      </trkpt>
      <trkpt lat="48.58477" lon="-4.52231">
        <ele>13</ele>
        <time>2026-05-17T12:31:09.056Z</time>
      </trkpt>
      <trkpt lat="48.58481" lon="-4.52235">
        <ele>13</ele>
        <time>2026-05-17T12:31:13.578Z</time>
      </trkpt>
      <trkpt lat="48.58486" lon="-4.52239">
        <ele>16</ele>
        <time>2026-05-17T12:31:18.016Z</time>
      </trkpt>
      <trkpt lat="48.58491" lon="-4.52244">
        <ele>14</ele>
        <time>2026-05-17T12:31:22.462Z</time>
      </trkpt>
      <trkpt lat="48.58496" lon="-4.52247">
        <ele>14</ele>
        <time>2026-05-17T12:31:26.851Z</time>
      </trkpt>
      <trkpt lat="48.58502" lon="-4.52249">
        <ele>14</ele>
        <time>2026-05-17T12:31:31.395Z</time>
      </trkpt>
      <trkpt lat="48.58508" lon="-4.52251">
        <ele>14</ele>
        <time>2026-05-17T12:31:35.858Z</time>
      </trkpt>
      <trkpt lat="48.58511" lon="-4.52249">
        <ele>14</ele>
        <time>2026-05-17T12:31:39.862Z</time>
      </trkpt>
      <trkpt lat="48.58517" lon="-4.52248">
        <ele>12</ele>
        <time>2026-05-17T12:31:44.118Z</time>
      </trkpt>
      <trkpt lat="48.58523" lon="-4.52249">
        <ele>12</ele>
        <time>2026-05-17T12:31:48.417Z</time>
      </trkpt>
      <trkpt lat="48.58529" lon="-4.52248">
        <ele>12</ele>
        <time>2026-05-17T12:31:52.851Z</time>
      </trkpt>
      <trkpt lat="48.58535" lon="-4.52247">
        <ele>12</ele>
        <time>2026-05-17T12:31:57.462Z</time>
      </trkpt>
      <trkpt lat="48.5854" lon="-4.52245">
        <ele>12</ele>
        <time>2026-05-17T12:32:01.854Z</time>
      </trkpt>
      <trkpt lat="48.58546" lon="-4.52242">
        <ele>11</ele>
        <time>2026-05-17T12:32:06.338Z</time>
      </trkpt>
      <trkpt lat="48.58551" lon="-4.52238">
        <ele>11</ele>
        <time>2026-05-17T12:32:10.755Z</time>
      </trkpt>
      <trkpt lat="48.58556" lon="-4.52237">
        <ele>11</ele>
        <time>2026-05-17T12:32:15.201Z</time>
      </trkpt>
      <trkpt lat="48.58561" lon="-4.52236">
        <ele>10</ele>
        <time>2026-05-17T12:32:19.564Z</time>
      </trkpt>
      <trkpt lat="48.58566" lon="-4.52233">
        <ele>10</ele>
        <time>2026-05-17T12:32:23.854Z</time>
      </trkpt>
      <trkpt lat="48.58572" lon="-4.52228">
        <ele>11</ele>
        <time>2026-05-17T12:32:28.168Z</time>
      </trkpt>
      <trkpt lat="48.58577" lon="-4.52225">
        <ele>11</ele>
        <time>2026-05-17T12:32:32.481Z</time>
      </trkpt>
      <trkpt lat="48.58582" lon="-4.5222">
        <ele>11</ele>
        <time>2026-05-17T12:32:36.779Z</time>
      </trkpt>
      <trkpt lat="48.58587" lon="-4.52217">
        <ele>11</ele>
        <time>2026-05-17T12:32:41.116Z</time>
      </trkpt>
      <trkpt lat="48.58592" lon="-4.52214">
        <ele>11</ele>
        <time>2026-05-17T12:32:45.441Z</time>
      </trkpt>
      <trkpt lat="48.58597" lon="-4.52211">
        <ele>11</ele>
        <time>2026-05-17T12:32:49.800Z</time>
      </trkpt>
      <trkpt lat="48.58602" lon="-4.5221">
        <ele>14</ele>
        <time>2026-05-17T12:32:54.161Z</time>
      </trkpt>
      <trkpt lat="48.58608" lon="-4.52209">
        <ele>14</ele>
        <time>2026-05-17T12:32:58.494Z</time>
      </trkpt>
      <trkpt lat="48.58614" lon="-4.52209">
        <ele>14</ele>
        <time>2026-05-17T12:33:02.840Z</time>
      </trkpt>
      <trkpt lat="48.58619" lon="-4.52208">
        <ele>11</ele>
        <time>2026-05-17T12:33:07.156Z</time>
      </trkpt>
      <trkpt lat="48.58625" lon="-4.52208">
        <ele>14</ele>
        <time>2026-05-17T12:33:11.456Z</time>
      </trkpt>
      <trkpt lat="48.5863" lon="-4.52209">
        <ele>14</ele>
        <time>2026-05-17T12:33:15.816Z</time>
      </trkpt>
      <trkpt lat="48.58635" lon="-4.5221">
        <ele>14</ele>
        <time>2026-05-17T12:33:20.262Z</time>
      </trkpt>
      <trkpt lat="48.58641" lon="-4.5221">
        <ele>14</ele>
        <time>2026-05-17T12:33:24.597Z</time>
      </trkpt>
      <trkpt lat="48.58647" lon="-4.5221">
        <ele>14</ele>
        <time>2026-05-17T12:33:29.042Z</time>
      </trkpt>
      <trkpt lat="48.58652" lon="-4.52211">
        <ele>14</ele>
        <time>2026-05-17T12:33:33.342Z</time>
      </trkpt>
      <trkpt lat="48.58658" lon="-4.52212">
        <ele>12</ele>
        <time>2026-05-17T12:33:37.778Z</time>
      </trkpt>
      <trkpt lat="48.58662" lon="-4.52213">
        <ele>12</ele>
        <time>2026-05-17T12:33:41.840Z</time>
      </trkpt>
      <trkpt lat="48.58664" lon="-4.52211">
        <ele>12</ele>
        <time>2026-05-17T12:33:46.850Z</time>
      </trkpt>
      <trkpt lat="48.58664" lon="-4.52211">
        <ele>12</ele>
        <time>2026-05-17T12:33:48.615Z</time>
      </trkpt>
      <trkpt lat="48.58666" lon="-4.52213">
        <ele>12</ele>
        <time>2026-05-17T12:33:56.355Z</time>
      </trkpt>
      <trkpt lat="48.58672" lon="-4.52213">
        <ele>12</ele>
        <time>2026-05-17T12:34:00.862Z</time>
      </trkpt>
      <trkpt lat="48.58677" lon="-4.52212">
        <ele>12</ele>
        <time>2026-05-17T12:34:05.381Z</time>
      </trkpt>
      <trkpt lat="48.58682" lon="-4.52214">
        <ele>13</ele>
        <time>2026-05-17T12:34:09.855Z</time>
      </trkpt>
      <trkpt lat="48.58688" lon="-4.52214">
        <ele>13</ele>
        <time>2026-05-17T12:34:14.401Z</time>
      </trkpt>
      <trkpt lat="48.58694" lon="-4.52212">
        <ele>13</ele>
        <time>2026-05-17T12:34:18.860Z</time>
      </trkpt>
      <trkpt lat="48.587" lon="-4.52209">
        <ele>13</ele>
        <time>2026-05-17T12:34:23.376Z</time>
      </trkpt>
      <trkpt lat="48.58705" lon="-4.52207">
        <ele>9</ele>
        <time>2026-05-17T12:34:27.514Z</time>
      </trkpt>
      <trkpt lat="48.58711" lon="-4.52206">
        <ele>11</ele>
        <time>2026-05-17T12:34:31.852Z</time>
      </trkpt>
      <trkpt lat="48.58716" lon="-4.52204">
        <ele>11</ele>
        <time>2026-05-17T12:34:36.264Z</time>
      </trkpt>
      <trkpt lat="48.58721" lon="-4.52201">
        <ele>11</ele>
        <time>2026-05-17T12:34:40.807Z</time>
      </trkpt>
      <trkpt lat="48.58727" lon="-4.52199">
        <ele>11</ele>
        <time>2026-05-17T12:34:45.220Z</time>
      </trkpt>
      <trkpt lat="48.58732" lon="-4.52197">
        <ele>11</ele>
        <time>2026-05-17T12:34:49.657Z</time>
      </trkpt>
      <trkpt lat="48.58737" lon="-4.52195">
        <ele>12</ele>
        <time>2026-05-17T12:34:54.256Z</time>
      </trkpt>
      <trkpt lat="48.58742" lon="-4.52192">
        <ele>12</ele>
        <time>2026-05-17T12:34:58.852Z</time>
      </trkpt>
      <trkpt lat="48.58747" lon="-4.52191">
        <ele>12</ele>
        <time>2026-05-17T12:35:03.438Z</time>
      </trkpt>
      <trkpt lat="48.58752" lon="-4.52189">
        <ele>12</ele>
        <time>2026-05-17T12:35:07.849Z</time>
      </trkpt>
      <trkpt lat="48.58757" lon="-4.52187">
        <ele>12</ele>
        <time>2026-05-17T12:35:11.920Z</time>
      </trkpt>
      <trkpt lat="48.58762" lon="-4.52185">
        <ele>12</ele>
        <time>2026-05-17T12:35:16.079Z</time>
      </trkpt>
      <trkpt lat="48.58766" lon="-4.52184">
        <ele>12</ele>
        <time>2026-05-17T12:35:20.297Z</time>
      </trkpt>
      <trkpt lat="48.5877" lon="-4.52181">
        <ele>12</ele>
        <time>2026-05-17T12:35:24.658Z</time>
      </trkpt>
      <trkpt lat="48.58775" lon="-4.52182">
        <ele>12</ele>
        <time>2026-05-17T12:35:28.851Z</time>
      </trkpt>
      <trkpt lat="48.5878" lon="-4.5218">
        <ele>7</ele>
        <time>2026-05-17T12:35:33.363Z</time>
      </trkpt>
      <trkpt lat="48.58784" lon="-4.52178">
        <ele>7</ele>
        <time>2026-05-17T12:35:37.602Z</time>
      </trkpt>
      <trkpt lat="48.58789" lon="-4.52176">
        <ele>7</ele>
        <time>2026-05-17T12:35:41.740Z</time>
      </trkpt>
      <trkpt lat="48.58793" lon="-4.52176">
        <ele>6</ele>
        <time>2026-05-17T12:35:46.219Z</time>
      </trkpt>
      <trkpt lat="48.58798" lon="-4.52176">
        <ele>6</ele>
        <time>2026-05-17T12:35:50.845Z</time>
      </trkpt>
      <trkpt lat="48.588" lon="-4.52175">
        <ele>6</ele>
        <time>2026-05-17T12:35:52.844Z</time>
      </trkpt>
      <trkpt lat="48.58799" lon="-4.52179">
        <ele>6</ele>
        <time>2026-05-17T12:36:02.856Z</time>
      </trkpt>
      <trkpt lat="48.58802" lon="-4.52181">
        <ele>10</ele>
        <time>2026-05-17T12:36:07.847Z</time>
      </trkpt>
      <trkpt lat="48.58807" lon="-4.52184">
        <ele>10</ele>
        <time>2026-05-17T12:36:12.852Z</time>
      </trkpt>
      <trkpt lat="48.5881" lon="-4.52186">
        <ele>10</ele>
        <time>2026-05-17T12:36:17.279Z</time>
      </trkpt>
      <trkpt lat="48.58814" lon="-4.52186">
        <ele>10</ele>
        <time>2026-05-17T12:36:21.477Z</time>
      </trkpt>
      <trkpt lat="48.5882" lon="-4.52186">
        <ele>8</ele>
        <time>2026-05-17T12:36:25.856Z</time>
      </trkpt>
      <trkpt lat="48.58825" lon="-4.52189">
        <ele>8</ele>
        <time>2026-05-17T12:36:30.851Z</time>
      </trkpt>
      <trkpt lat="48.58826" lon="-4.52197">
        <ele>8</ele>
        <time>2026-05-17T12:37:00.523Z</time>
      </trkpt>
      <trkpt lat="48.58831" lon="-4.52199">
        <ele>8</ele>
        <time>2026-05-17T12:37:05.121Z</time>
      </trkpt>
      <trkpt lat="48.58835" lon="-4.52203">
        <ele>8</ele>
        <time>2026-05-17T12:37:09.354Z</time>
      </trkpt>
      <trkpt lat="48.58839" lon="-4.52204">
        <ele>8</ele>
        <time>2026-05-17T12:37:13.849Z</time>
      </trkpt>
      <trkpt lat="48.5884" lon="-4.52204">
        <ele>8</ele>
        <time>2026-05-17T12:37:16.734Z</time>
      </trkpt>
      <trkpt lat="48.5884" lon="-4.52204">
        <ele>8</ele>
        <time>2026-05-17T12:37:25.847Z</time>
      </trkpt>
      <trkpt lat="48.58843" lon="-4.52209">
        <ele>16</ele>
        <time>2026-05-17T12:37:29.846Z</time>
      </trkpt>
      <trkpt lat="48.58849" lon="-4.52214">
        <ele>19</ele>
        <time>2026-05-17T12:37:34.182Z</time>
      </trkpt>
      <trkpt lat="48.58855" lon="-4.52217">
        <ele>19</ele>
        <time>2026-05-17T12:37:38.602Z</time>
      </trkpt>
      <trkpt lat="48.58855" lon="-4.52215">
        <ele>19</ele>
        <time>2026-05-17T12:37:42.852Z</time>
      </trkpt>
      <trkpt lat="48.58856" lon="-4.52217">
        <ele>19</ele>
        <time>2026-05-17T12:37:47.341Z</time>
      </trkpt>
      <trkpt lat="48.5886" lon="-4.5222">
        <ele>19</ele>
        <time>2026-05-17T12:37:51.417Z</time>
      </trkpt>
      <trkpt lat="48.58864" lon="-4.52222">
        <ele>19</ele>
        <time>2026-05-17T12:37:55.616Z</time>
      </trkpt>
      <trkpt lat="48.58869" lon="-4.52225">
        <ele>19</ele>
        <time>2026-05-17T12:37:59.840Z</time>
      </trkpt>
      <trkpt lat="48.58872" lon="-4.52222">
        <ele>19</ele>
        <time>2026-05-17T12:38:03.853Z</time>
      </trkpt>
      <trkpt lat="48.58874" lon="-4.52216">
        <ele>19</ele>
        <time>2026-05-17T12:38:08.853Z</time>
      </trkpt>
      <trkpt lat="48.58876" lon="-4.52216">
        <ele>22</ele>
        <time>2026-05-17T12:38:12.859Z</time>
      </trkpt>
      <trkpt lat="48.58879" lon="-4.52221">
        <ele>22</ele>
        <time>2026-05-17T12:38:16.976Z</time>
      </trkpt>
      <trkpt lat="48.58883" lon="-4.52227">
        <ele>22</ele>
        <time>2026-05-17T12:38:21.241Z</time>
      </trkpt>
      <trkpt lat="48.58887" lon="-4.52232">
        <ele>22</ele>
        <time>2026-05-17T12:38:25.694Z</time>
      </trkpt>
      <trkpt lat="48.58892" lon="-4.52234">
        <ele>22</ele>
        <time>2026-05-17T12:38:29.858Z</time>
      </trkpt>
      <trkpt lat="48.58897" lon="-4.52238">
        <ele>28</ele>
        <time>2026-05-17T12:38:34.356Z</time>
      </trkpt>
      <trkpt lat="48.58901" lon="-4.52241">
        <ele>28</ele>
        <time>2026-05-17T12:38:38.417Z</time>
      </trkpt>
      <trkpt lat="48.58905" lon="-4.52244">
        <ele>27</ele>
        <time>2026-05-17T12:38:42.555Z</time>
      </trkpt>
      <trkpt lat="48.58909" lon="-4.52241">
        <ele>27</ele>
        <time>2026-05-17T12:38:47.241Z</time>
      </trkpt>
      <trkpt lat="48.58914" lon="-4.52242">
        <ele>27</ele>
        <time>2026-05-17T12:38:51.421Z</time>
      </trkpt>
      <trkpt lat="48.5892" lon="-4.52245">
        <ele>27</ele>
        <time>2026-05-17T12:38:55.679Z</time>
      </trkpt>
      <trkpt lat="48.58925" lon="-4.52246">
        <ele>27</ele>
        <time>2026-05-17T12:39:00.040Z</time>
      </trkpt>
      <trkpt lat="48.58928" lon="-4.52254">
        <ele>27</ele>
        <time>2026-05-17T12:39:04.400Z</time>
      </trkpt>
      <trkpt lat="48.58933" lon="-4.52257">
        <ele>23</ele>
        <time>2026-05-17T12:39:08.735Z</time>
      </trkpt>
      <trkpt lat="48.58939" lon="-4.52259">
        <ele>23</ele>
        <time>2026-05-17T12:39:13.120Z</time>
      </trkpt>
      <trkpt lat="48.58945" lon="-4.52262">
        <ele>23</ele>
        <time>2026-05-17T12:39:17.676Z</time>
      </trkpt>
      <trkpt lat="48.5895" lon="-4.52263">
        <ele>23</ele>
        <time>2026-05-17T12:39:22.085Z</time>
      </trkpt>
      <trkpt lat="48.58956" lon="-4.52265">
        <ele>31</ele>
        <time>2026-05-17T12:39:26.396Z</time>
      </trkpt>
      <trkpt lat="48.58961" lon="-4.52267">
        <ele>29</ele>
        <time>2026-05-17T12:39:30.783Z</time>
      </trkpt>
      <trkpt lat="48.58967" lon="-4.52268">
        <ele>29</ele>
        <time>2026-05-17T12:39:35.262Z</time>
      </trkpt>
      <trkpt lat="48.58972" lon="-4.5227">
        <ele>29</ele>
        <time>2026-05-17T12:39:39.700Z</time>
      </trkpt>
      <trkpt lat="48.58978" lon="-4.5227">
        <ele>29</ele>
        <time>2026-05-17T12:39:43.851Z</time>
      </trkpt>
      <trkpt lat="48.58984" lon="-4.52271">
        <ele>29</ele>
        <time>2026-05-17T12:39:48.240Z</time>
      </trkpt>
      <trkpt lat="48.58989" lon="-4.52272">
        <ele>26</ele>
        <time>2026-05-17T12:39:52.616Z</time>
      </trkpt>
      <trkpt lat="48.58995" lon="-4.52273">
        <ele>26</ele>
        <time>2026-05-17T12:39:56.850Z</time>
      </trkpt>
      <trkpt lat="48.59" lon="-4.52276">
        <ele>26</ele>
        <time>2026-05-17T12:40:01.277Z</time>
      </trkpt>
      <trkpt lat="48.59006" lon="-4.52278">
        <ele>26</ele>
        <time>2026-05-17T12:40:05.620Z</time>
      </trkpt>
      <trkpt lat="48.59011" lon="-4.52279">
        <ele>26</ele>
        <time>2026-05-17T12:40:09.849Z</time>
      </trkpt>
      <trkpt lat="48.59015" lon="-4.52282">
        <ele>25</ele>
        <time>2026-05-17T12:40:14.315Z</time>
      </trkpt>
      <trkpt lat="48.5902" lon="-4.52284">
        <ele>25</ele>
        <time>2026-05-17T12:40:18.641Z</time>
      </trkpt>
      <trkpt lat="48.59026" lon="-4.52286">
        <ele>25</ele>
        <time>2026-05-17T12:40:23Z</time>
      </trkpt>
      <trkpt lat="48.59032" lon="-4.52287">
        <ele>25</ele>
        <time>2026-05-17T12:40:27.318Z</time>
      </trkpt>
      <trkpt lat="48.59038" lon="-4.52286">
        <ele>25</ele>
        <time>2026-05-17T12:40:31.635Z</time>
      </trkpt>
      <trkpt lat="48.59044" lon="-4.52283">
        <ele>23</ele>
        <time>2026-05-17T12:40:35.852Z</time>
      </trkpt>
      <trkpt lat="48.59051" lon="-4.52281">
        <ele>23</ele>
        <time>2026-05-17T12:40:40.260Z</time>
      </trkpt>
      <trkpt lat="48.59057" lon="-4.52279">
        <ele>23</ele>
        <time>2026-05-17T12:40:44.854Z</time>
      </trkpt>
      <trkpt lat="48.59064" lon="-4.52276">
        <ele>23</ele>
        <time>2026-05-17T12:40:49.382Z</time>
      </trkpt>
      <trkpt lat="48.59071" lon="-4.52275">
        <ele>19</ele>
        <time>2026-05-17T12:40:53.819Z</time>
      </trkpt>
      <trkpt lat="48.59077" lon="-4.52273">
        <ele>19</ele>
        <time>2026-05-17T12:40:58.717Z</time>
      </trkpt>
      <trkpt lat="48.59083" lon="-4.52272">
        <ele>19</ele>
        <time>2026-05-17T12:41:02.849Z</time>
      </trkpt>
      <trkpt lat="48.59089" lon="-4.52272">
        <ele>19</ele>
        <time>2026-05-17T12:41:07.300Z</time>
      </trkpt>
      <trkpt lat="48.59094" lon="-4.5227">
        <ele>19</ele>
        <time>2026-05-17T12:41:11.677Z</time>
      </trkpt>
      <trkpt lat="48.591" lon="-4.52271">
        <ele>16</ele>
        <time>2026-05-17T12:41:15.854Z</time>
      </trkpt>
      <trkpt lat="48.59106" lon="-4.52269">
        <ele>16</ele>
        <time>2026-05-17T12:41:20.380Z</time>
      </trkpt>
      <trkpt lat="48.59113" lon="-4.52267">
        <ele>16</ele>
        <time>2026-05-17T12:41:24.697Z</time>
      </trkpt>
      <trkpt lat="48.59119" lon="-4.52265">
        <ele>16</ele>
        <time>2026-05-17T12:41:29.040Z</time>
      </trkpt>
      <trkpt lat="48.59125" lon="-4.52265">
        <ele>16</ele>
        <time>2026-05-17T12:41:33.358Z</time>
      </trkpt>
      <trkpt lat="48.5913" lon="-4.52267">
        <ele>13</ele>
        <time>2026-05-17T12:41:37.718Z</time>
      </trkpt>
      <trkpt lat="48.59136" lon="-4.52269">
        <ele>13</ele>
        <time>2026-05-17T12:41:41.975Z</time>
      </trkpt>
      <trkpt lat="48.59141" lon="-4.52272">
        <ele>13</ele>
        <time>2026-05-17T12:41:46.122Z</time>
      </trkpt>
      <trkpt lat="48.59146" lon="-4.52276">
        <ele>13</ele>
        <time>2026-05-17T12:41:50.363Z</time>
      </trkpt>
      <trkpt lat="48.59152" lon="-4.52279">
        <ele>13</ele>
        <time>2026-05-17T12:41:54.850Z</time>
      </trkpt>
      <trkpt lat="48.59158" lon="-4.52283">
        <ele>10</ele>
        <time>2026-05-17T12:41:59.499Z</time>
      </trkpt>
      <trkpt lat="48.59162" lon="-4.52287">
        <ele>10</ele>
        <time>2026-05-17T12:42:03.639Z</time>
      </trkpt>
      <trkpt lat="48.59167" lon="-4.52292">
        <ele>13</ele>
        <time>2026-05-17T12:42:07.804Z</time>
      </trkpt>
      <trkpt lat="48.59171" lon="-4.52297">
        <ele>13</ele>
        <time>2026-05-17T12:42:11.820Z</time>
      </trkpt>
      <trkpt lat="48.59176" lon="-4.52302">
        <ele>13</ele>
        <time>2026-05-17T12:42:16.318Z</time>
      </trkpt>
      <trkpt lat="48.59181" lon="-4.52308">
        <ele>8</ele>
        <time>2026-05-17T12:42:20.821Z</time>
      </trkpt>
      <trkpt lat="48.59185" lon="-4.52314">
        <ele>8</ele>
        <time>2026-05-17T12:42:25.258Z</time>
      </trkpt>
      <trkpt lat="48.5919" lon="-4.5232">
        <ele>13</ele>
        <time>2026-05-17T12:42:29.849Z</time>
      </trkpt>
      <trkpt lat="48.59191" lon="-4.52328">
        <ele>13</ele>
        <time>2026-05-17T12:42:34.379Z</time>
      </trkpt>
      <trkpt lat="48.59191" lon="-4.52337">
        <ele>13</ele>
        <time>2026-05-17T12:42:38.848Z</time>
      </trkpt>
      <trkpt lat="48.59192" lon="-4.52345">
        <ele>13</ele>
        <time>2026-05-17T12:42:42.937Z</time>
      </trkpt>
      <trkpt lat="48.59192" lon="-4.52354">
        <ele>18</ele>
        <time>2026-05-17T12:42:47.563Z</time>
      </trkpt>
      <trkpt lat="48.59192" lon="-4.52361">
        <ele>18</ele>
        <time>2026-05-17T12:42:51.656Z</time>
      </trkpt>
      <trkpt lat="48.59195" lon="-4.52368">
        <ele>18</ele>
        <time>2026-05-17T12:42:56.239Z</time>
      </trkpt>
      <trkpt lat="48.59197" lon="-4.52376">
        <ele>22</ele>
        <time>2026-05-17T12:43:00.761Z</time>
      </trkpt>
      <trkpt lat="48.59201" lon="-4.52384">
        <ele>22</ele>
        <time>2026-05-17T12:43:05.360Z</time>
      </trkpt>
      <trkpt lat="48.59204" lon="-4.52392">
        <ele>22</ele>
        <time>2026-05-17T12:43:09.856Z</time>
      </trkpt>
      <trkpt lat="48.59205" lon="-4.52397">
        <ele>22</ele>
        <time>2026-05-17T12:43:13.935Z</time>
      </trkpt>
      <trkpt lat="48.59208" lon="-4.52403">
        <ele>23</ele>
        <time>2026-05-17T12:43:18.099Z</time>
      </trkpt>
      <trkpt lat="48.59212" lon="-4.52409">
        <ele>19</ele>
        <time>2026-05-17T12:43:22.596Z</time>
      </trkpt>
      <trkpt lat="48.59216" lon="-4.52414">
        <ele>19</ele>
        <time>2026-05-17T12:43:26.639Z</time>
      </trkpt>
      <trkpt lat="48.5922" lon="-4.52419">
        <ele>19</ele>
        <time>2026-05-17T12:43:30.677Z</time>
      </trkpt>
      <trkpt lat="48.59224" lon="-4.52425">
        <ele>19</ele>
        <time>2026-05-17T12:43:35.120Z</time>
      </trkpt>
      <trkpt lat="48.59229" lon="-4.52431">
        <ele>22</ele>
        <time>2026-05-17T12:43:39.599Z</time>
      </trkpt>
      <trkpt lat="48.59232" lon="-4.52436">
        <ele>22</ele>
        <time>2026-05-17T12:43:43.636Z</time>
      </trkpt>
      <trkpt lat="48.59236" lon="-4.52442">
        <ele>22</ele>
        <time>2026-05-17T12:43:48.096Z</time>
      </trkpt>
      <trkpt lat="48.59239" lon="-4.52448">
        <ele>17</ele>
        <time>2026-05-17T12:43:52.381Z</time>
      </trkpt>
      <trkpt lat="48.59241" lon="-4.52453">
        <ele>17</ele>
        <time>2026-05-17T12:43:56.441Z</time>
      </trkpt>
      <trkpt lat="48.59244" lon="-4.5246">
        <ele>22</ele>
        <time>2026-05-17T12:44:01.160Z</time>
      </trkpt>
      <trkpt lat="48.59245" lon="-4.52467">
        <ele>22</ele>
        <time>2026-05-17T12:44:05.196Z</time>
      </trkpt>
      <trkpt lat="48.59247" lon="-4.52475">
        <ele>22</ele>
        <time>2026-05-17T12:44:09.342Z</time>
      </trkpt>
      <trkpt lat="48.59248" lon="-4.52482">
        <ele>22</ele>
        <time>2026-05-17T12:44:13.599Z</time>
      </trkpt>
      <trkpt lat="48.59248" lon="-4.52489">
        <ele>26</ele>
        <time>2026-05-17T12:44:17.661Z</time>
      </trkpt>
      <trkpt lat="48.59248" lon="-4.52496">
        <ele>26</ele>
        <time>2026-05-17T12:44:21.847Z</time>
      </trkpt>
      <trkpt lat="48.59248" lon="-4.52503">
        <ele>26</ele>
        <time>2026-05-17T12:44:26.337Z</time>
      </trkpt>
      <trkpt lat="48.59251" lon="-4.52508">
        <ele>26</ele>
        <time>2026-05-17T12:44:30.535Z</time>
      </trkpt>
      <trkpt lat="48.59252" lon="-4.52515">
        <ele>28</ele>
        <time>2026-05-17T12:44:34.985Z</time>
      </trkpt>
      <trkpt lat="48.59251" lon="-4.52524">
        <ele>28</ele>
        <time>2026-05-17T12:44:39.817Z</time>
      </trkpt>
      <trkpt lat="48.59251" lon="-4.52531">
        <ele>28</ele>
        <time>2026-05-17T12:44:44.058Z</time>
      </trkpt>
      <trkpt lat="48.5925" lon="-4.52538">
        <ele>28</ele>
        <time>2026-05-17T12:44:48.640Z</time>
      </trkpt>
      <trkpt lat="48.59249" lon="-4.52546">
        <ele>30</ele>
        <time>2026-05-17T12:44:52.736Z</time>
      </trkpt>
      <trkpt lat="48.59248" lon="-4.52554">
        <ele>30</ele>
        <time>2026-05-17T12:44:57.301Z</time>
      </trkpt>
      <trkpt lat="48.59246" lon="-4.52561">
        <ele>30</ele>
        <time>2026-05-17T12:45:01.335Z</time>
      </trkpt>
      <trkpt lat="48.59245" lon="-4.52568">
        <ele>30</ele>
        <time>2026-05-17T12:45:05.379Z</time>
      </trkpt>
      <trkpt lat="48.59243" lon="-4.52575">
        <ele>29</ele>
        <time>2026-05-17T12:45:09.850Z</time>
      </trkpt>
      <trkpt lat="48.59244" lon="-4.52583">
        <ele>29</ele>
        <time>2026-05-17T12:45:14.015Z</time>
      </trkpt>
      <trkpt lat="48.59241" lon="-4.5259">
        <ele>29</ele>
        <time>2026-05-17T12:45:18.041Z</time>
      </trkpt>
      <trkpt lat="48.59238" lon="-4.52597">
        <ele>29</ele>
        <time>2026-05-17T12:45:22.656Z</time>
      </trkpt>
      <trkpt lat="48.59237" lon="-4.52596">
        <ele>29</ele>
        <time>2026-05-17T12:45:26.852Z</time>
      </trkpt>
      <trkpt lat="48.59236" lon="-4.52593">
        <ele>29</ele>
        <time>2026-05-17T12:46:00.851Z</time>
      </trkpt>
      <trkpt lat="48.59237" lon="-4.52593">
        <ele>29</ele>
        <time>2026-05-17T12:46:05.847Z</time>
      </trkpt>
      <trkpt lat="48.59237" lon="-4.52592">
        <ele>29</ele>
        <time>2026-05-17T12:46:10.335Z</time>
      </trkpt>
      <trkpt lat="48.59239" lon="-4.52587">
        <ele>29</ele>
        <time>2026-05-17T12:46:14.704Z</time>
      </trkpt>
      <trkpt lat="48.59242" lon="-4.52581">
        <ele>29</ele>
        <time>2026-05-17T12:46:18.841Z</time>
      </trkpt>
      <trkpt lat="48.59245" lon="-4.52576">
        <ele>29</ele>
        <time>2026-05-17T12:46:23.158Z</time>
      </trkpt>
      <trkpt lat="48.59247" lon="-4.52569">
        <ele>30</ele>
        <time>2026-05-17T12:46:27.852Z</time>
      </trkpt>
      <trkpt lat="48.59246" lon="-4.52568">
        <ele>30</ele>
        <time>2026-05-17T12:46:32.848Z</time>
      </trkpt>
      <trkpt lat="48.59248" lon="-4.52569">
        <ele>30</ele>
        <time>2026-05-17T12:46:37.175Z</time>
      </trkpt>
      <trkpt lat="48.59252" lon="-4.52566">
        <ele>30</ele>
        <time>2026-05-17T12:46:41.637Z</time>
      </trkpt>
      <trkpt lat="48.59258" lon="-4.52565">
        <ele>30</ele>
        <time>2026-05-17T12:46:46.142Z</time>
      </trkpt>
      <trkpt lat="48.5926" lon="-4.52559">
        <ele>30</ele>
        <time>2026-05-17T12:46:50.220Z</time>
      </trkpt>
      <trkpt lat="48.59263" lon="-4.52553">
        <ele>30</ele>
        <time>2026-05-17T12:46:54.580Z</time>
      </trkpt>
      <trkpt lat="48.59266" lon="-4.52546">
        <ele>25</ele>
        <time>2026-05-17T12:46:58.864Z</time>
      </trkpt>
      <trkpt lat="48.59265" lon="-4.52538">
        <ele>24</ele>
        <time>2026-05-17T12:47:03.679Z</time>
      </trkpt>
      <trkpt lat="48.59268" lon="-4.5253">
        <ele>24</ele>
        <time>2026-05-17T12:47:08.022Z</time>
      </trkpt>
      <trkpt lat="48.59269" lon="-4.52522">
        <ele>24</ele>
        <time>2026-05-17T12:47:12.400Z</time>
      </trkpt>
      <trkpt lat="48.59271" lon="-4.52515">
        <ele>24</ele>
        <time>2026-05-17T12:47:16.980Z</time>
      </trkpt>
      <trkpt lat="48.59272" lon="-4.52507">
        <ele>21</ele>
        <time>2026-05-17T12:47:21.417Z</time>
      </trkpt>
      <trkpt lat="48.59273" lon="-4.52499">
        <ele>21</ele>
        <time>2026-05-17T12:47:25.819Z</time>
      </trkpt>
      <trkpt lat="48.59272" lon="-4.52491">
        <ele>21</ele>
        <time>2026-05-17T12:47:30.299Z</time>
      </trkpt>
      <trkpt lat="48.59272" lon="-4.52483">
        <ele>17</ele>
        <time>2026-05-17T12:47:34.658Z</time>
      </trkpt>
      <trkpt lat="48.59272" lon="-4.52475">
        <ele>17</ele>
        <time>2026-05-17T12:47:38.847Z</time>
      </trkpt>
      <trkpt lat="48.59273" lon="-4.52468">
        <ele>17</ele>
        <time>2026-05-17T12:47:42.849Z</time>
      </trkpt>
      <trkpt lat="48.59272" lon="-4.5246">
        <ele>17</ele>
        <time>2026-05-17T12:47:47.483Z</time>
      </trkpt>
      <trkpt lat="48.59271" lon="-4.52453">
        <ele>11</ele>
        <time>2026-05-17T12:47:51.849Z</time>
      </trkpt>
      <trkpt lat="48.59272" lon="-4.52445">
        <ele>11</ele>
        <time>2026-05-17T12:47:56.272Z</time>
      </trkpt>
      <trkpt lat="48.59274" lon="-4.52439">
        <ele>11</ele>
        <time>2026-05-17T12:48:00.367Z</time>
      </trkpt>
      <trkpt lat="48.59279" lon="-4.52439">
        <ele>11</ele>
        <time>2026-05-17T12:48:04.725Z</time>
      </trkpt>
      <trkpt lat="48.59284" lon="-4.52439">
        <ele>11</ele>
        <time>2026-05-17T12:48:09.144Z</time>
      </trkpt>
      <trkpt lat="48.59289" lon="-4.52442">
        <ele>11</ele>
        <time>2026-05-17T12:48:13.606Z</time>
      </trkpt>
      <trkpt lat="48.59291" lon="-4.52448">
        <ele>11</ele>
        <time>2026-05-17T12:48:17.668Z</time>
      </trkpt>
      <trkpt lat="48.59293" lon="-4.52455">
        <ele>4</ele>
        <time>2026-05-17T12:48:22.291Z</time>
      </trkpt>
      <trkpt lat="48.59294" lon="-4.52463">
        <ele>9</ele>
        <time>2026-05-17T12:48:26.771Z</time>
      </trkpt>
      <trkpt lat="48.59295" lon="-4.5247">
        <ele>9</ele>
        <time>2026-05-17T12:48:31.250Z</time>
      </trkpt>
      <trkpt lat="48.59295" lon="-4.52477">
        <ele>9</ele>
        <time>2026-05-17T12:48:35.794Z</time>
      </trkpt>
      <trkpt lat="48.59296" lon="-4.52484">
        <ele>9</ele>
        <time>2026-05-17T12:48:40.267Z</time>
      </trkpt>
      <trkpt lat="48.59294" lon="-4.52489">
        <ele>13</ele>
        <time>2026-05-17T12:48:44.568Z</time>
      </trkpt>
      <trkpt lat="48.59296" lon="-4.52497">
        <ele>13</ele>
        <time>2026-05-17T12:48:48.986Z</time>
      </trkpt>
      <trkpt lat="48.59299" lon="-4.52504">
        <ele>13</ele>
        <time>2026-05-17T12:48:53.492Z</time>
      </trkpt>
      <trkpt lat="48.59303" lon="-4.52513">
        <ele>13</ele>
        <time>2026-05-17T12:48:57.928Z</time>
      </trkpt>
      <trkpt lat="48.59305" lon="-4.52521">
        <ele>17</ele>
        <time>2026-05-17T12:49:02.409Z</time>
      </trkpt>
      <trkpt lat="48.59308" lon="-4.52528">
        <ele>17</ele>
        <time>2026-05-17T12:49:06.452Z</time>
      </trkpt>
      <trkpt lat="48.5931" lon="-4.52535">
        <ele>17</ele>
        <time>2026-05-17T12:49:10.858Z</time>
      </trkpt>
      <trkpt lat="48.59314" lon="-4.52543">
        <ele>19</ele>
        <time>2026-05-17T12:49:15.208Z</time>
      </trkpt>
      <trkpt lat="48.59318" lon="-4.5255">
        <ele>19</ele>
        <time>2026-05-17T12:49:19.712Z</time>
      </trkpt>
      <trkpt lat="48.59322" lon="-4.52557">
        <ele>13</ele>
        <time>2026-05-17T12:49:23.770Z</time>
      </trkpt>
      <trkpt lat="48.59325" lon="-4.52563">
        <ele>13</ele>
        <time>2026-05-17T12:49:28.284Z</time>
      </trkpt>
      <trkpt lat="48.59327" lon="-4.5257">
        <ele>12</ele>
        <time>2026-05-17T12:49:32.789Z</time>
      </trkpt>
      <trkpt lat="48.59331" lon="-4.52577">
        <ele>12</ele>
        <time>2026-05-17T12:49:37.370Z</time>
      </trkpt>
      <trkpt lat="48.59334" lon="-4.52584">
        <ele>12</ele>
        <time>2026-05-17T12:49:41.849Z</time>
      </trkpt>
      <trkpt lat="48.59337" lon="-4.52591">
        <ele>12</ele>
        <time>2026-05-17T12:49:46.447Z</time>
      </trkpt>
      <trkpt lat="48.59339" lon="-4.52599">
        <ele>12</ele>
        <time>2026-05-17T12:49:51.004Z</time>
      </trkpt>
      <trkpt lat="48.59342" lon="-4.52607">
        <ele>12</ele>
        <time>2026-05-17T12:49:55.111Z</time>
      </trkpt>
      <trkpt lat="48.59345" lon="-4.52614">
        <ele>12</ele>
        <time>2026-05-17T12:49:59.212Z</time>
      </trkpt>
      <trkpt lat="48.59348" lon="-4.52621">
        <ele>6</ele>
        <time>2026-05-17T12:50:03.826Z</time>
      </trkpt>
      <trkpt lat="48.59351" lon="-4.52629">
        <ele>6</ele>
        <time>2026-05-17T12:50:08.528Z</time>
      </trkpt>
      <trkpt lat="48.59354" lon="-4.52637">
        <ele>6</ele>
        <time>2026-05-17T12:50:13.066Z</time>
      </trkpt>
      <trkpt lat="48.59356" lon="-4.52644">
        <ele>6</ele>
        <time>2026-05-17T12:50:17.127Z</time>
      </trkpt>
      <trkpt lat="48.59359" lon="-4.52652">
        <ele>6</ele>
        <time>2026-05-17T12:50:21.529Z</time>
      </trkpt>
      <trkpt lat="48.59362" lon="-4.52657">
        <ele>5</ele>
        <time>2026-05-17T12:50:25.769Z</time>
      </trkpt>
      <trkpt lat="48.59365" lon="-4.52663">
        <ele>5</ele>
        <time>2026-05-17T12:50:29.771Z</time>
      </trkpt>
      <trkpt lat="48.59368" lon="-4.52669">
        <ele>5</ele>
        <time>2026-05-17T12:50:34.190Z</time>
      </trkpt>
      <trkpt lat="48.59369" lon="-4.52675">
        <ele>5</ele>
        <time>2026-05-17T12:50:38.413Z</time>
      </trkpt>
      <trkpt lat="48.5937" lon="-4.52684">
        <ele>4</ele>
        <time>2026-05-17T12:50:43.191Z</time>
      </trkpt>
      <trkpt lat="48.59369" lon="-4.52691">
        <ele>4</ele>
        <time>2026-05-17T12:50:47.286Z</time>
      </trkpt>
      <trkpt lat="48.59368" lon="-4.52695">
        <ele>4</ele>
        <time>2026-05-17T12:50:51.849Z</time>
      </trkpt>
      <trkpt lat="48.59369" lon="-4.52694">
        <ele>4</ele>
        <time>2026-05-17T12:50:55.853Z</time>
      </trkpt>
      <trkpt lat="48.59369" lon="-4.52694">
        <ele>4</ele>
        <time>2026-05-17T12:51:00.365Z</time>
      </trkpt>
      <trkpt lat="48.59366" lon="-4.52701">
        <ele>4</ele>
        <time>2026-05-17T12:51:04.851Z</time>
      </trkpt>
      <trkpt lat="48.59362" lon="-4.52709">
        <ele>4</ele>
        <time>2026-05-17T12:51:09.187Z</time>
      </trkpt>
      <trkpt lat="48.59352" lon="-4.52721">
        <ele>4</ele>
        <time>2026-05-17T12:51:27.857Z</time>
      </trkpt>
      <trkpt lat="48.59351" lon="-4.52721">
        <ele>4</ele>
        <time>2026-05-17T12:51:33.848Z</time>
      </trkpt>
      <trkpt lat="48.59351" lon="-4.52721">
        <ele>4</ele>
        <time>2026-05-17T12:51:39.848Z</time>
      </trkpt>
      <trkpt lat="48.59351" lon="-4.52721">
        <ele>4</ele>
        <time>2026-05-17T12:51:45.849Z</time>
      </trkpt>
      <trkpt lat="48.59347" lon="-4.52724">
        <ele>5</ele>
        <time>2026-05-17T12:51:49.950Z</time>
      </trkpt>
      <trkpt lat="48.5934" lon="-4.52726">
        <ele>5</ele>
        <time>2026-05-17T12:51:54.370Z</time>
      </trkpt>
      <trkpt lat="48.59335" lon="-4.52726">
        <ele>5</ele>
        <time>2026-05-17T12:51:58.371Z</time>
      </trkpt>
      <trkpt lat="48.59329" lon="-4.52729">
        <ele>5</ele>
        <time>2026-05-17T12:52:02.629Z</time>
      </trkpt>
      <trkpt lat="48.59325" lon="-4.52734">
        <ele>5</ele>
        <time>2026-05-17T12:52:07.048Z</time>
      </trkpt>
      <trkpt lat="48.5932" lon="-4.52739">
        <ele>3</ele>
        <time>2026-05-17T12:52:11.425Z</time>
      </trkpt>
      <trkpt lat="48.59316" lon="-4.52745">
        <ele>5</ele>
        <time>2026-05-17T12:52:15.846Z</time>
      </trkpt>
      <trkpt lat="48.59313" lon="-4.52752">
        <ele>5</ele>
        <time>2026-05-17T12:52:20.588Z</time>
      </trkpt>
      <trkpt lat="48.59313" lon="-4.5276">
        <ele>5</ele>
        <time>2026-05-17T12:52:25.025Z</time>
      </trkpt>
      <trkpt lat="48.59314" lon="-4.52766">
        <ele>2</ele>
        <time>2026-05-17T12:52:29.350Z</time>
      </trkpt>
      <trkpt lat="48.59312" lon="-4.52768">
        <ele>2</ele>
        <time>2026-05-17T12:52:31.844Z</time>
      </trkpt>
      <trkpt lat="48.59309" lon="-4.52766">
        <ele>2</ele>
        <time>2026-05-17T12:52:40.049Z</time>
      </trkpt>
      <trkpt lat="48.59303" lon="-4.52767">
        <ele>2</ele>
        <time>2026-05-17T12:52:44.127Z</time>
      </trkpt>
      <trkpt lat="48.59297" lon="-4.52771">
        <ele>2</ele>
        <time>2026-05-17T12:52:48.385Z</time>
      </trkpt>
      <trkpt lat="48.59291" lon="-4.52774">
        <ele>4</ele>
        <time>2026-05-17T12:52:52.774Z</time>
      </trkpt>
      <trkpt lat="48.59286" lon="-4.52777">
        <ele>4</ele>
        <time>2026-05-17T12:52:57.207Z</time>
      </trkpt>
      <trkpt lat="48.59281" lon="-4.5278">
        <ele>4</ele>
        <time>2026-05-17T12:53:01.668Z</time>
      </trkpt>
      <trkpt lat="48.59276" lon="-4.52783">
        <ele>4</ele>
        <time>2026-05-17T12:53:06.100Z</time>
      </trkpt>
      <trkpt lat="48.5927" lon="-4.52787">
        <ele>4</ele>
        <time>2026-05-17T12:53:10.669Z</time>
      </trkpt>
      <trkpt lat="48.59265" lon="-4.52791">
        <ele>4</ele>
        <time>2026-05-17T12:53:15.225Z</time>
      </trkpt>
      <trkpt lat="48.59264" lon="-4.52797">
        <ele>6</ele>
        <time>2026-05-17T12:53:19.846Z</time>
      </trkpt>
      <trkpt lat="48.5927" lon="-4.528">
        <ele>4</ele>
        <time>2026-05-17T12:53:41.845Z</time>
      </trkpt>
      <trkpt lat="48.59262" lon="-4.52798">
        <ele>6</ele>
        <time>2026-05-17T12:53:46.176Z</time>
      </trkpt>
      <trkpt lat="48.59256" lon="-4.52802">
        <ele>6</ele>
        <time>2026-05-17T12:53:50.746Z</time>
      </trkpt>
      <trkpt lat="48.59251" lon="-4.52806">
        <ele>6</ele>
        <time>2026-05-17T12:53:55.215Z</time>
      </trkpt>
      <trkpt lat="48.59247" lon="-4.52812">
        <ele>6</ele>
        <time>2026-05-17T12:53:59.704Z</time>
      </trkpt>
      <trkpt lat="48.59242" lon="-4.52817">
        <ele>6</ele>
        <time>2026-05-17T12:54:04.316Z</time>
      </trkpt>
      <trkpt lat="48.59238" lon="-4.52822">
        <ele>6</ele>
        <time>2026-05-17T12:54:08.861Z</time>
      </trkpt>
      <trkpt lat="48.59235" lon="-4.52826">
        <ele>10</ele>
        <time>2026-05-17T12:54:13.254Z</time>
      </trkpt>
      <trkpt lat="48.59231" lon="-4.5283">
        <ele>10</ele>
        <time>2026-05-17T12:54:17.631Z</time>
      </trkpt>
      <trkpt lat="48.59228" lon="-4.52834">
        <ele>10</ele>
        <time>2026-05-17T12:54:21.845Z</time>
      </trkpt>
      <trkpt lat="48.59224" lon="-4.52836">
        <ele>10</ele>
        <time>2026-05-17T12:54:26.351Z</time>
      </trkpt>
      <trkpt lat="48.5922" lon="-4.52841">
        <ele>10</ele>
        <time>2026-05-17T12:54:30.606Z</time>
      </trkpt>
      <trkpt lat="48.59216" lon="-4.52845">
        <ele>10</ele>
        <time>2026-05-17T12:54:34.843Z</time>
      </trkpt>
      <trkpt lat="48.59212" lon="-4.52843">
        <ele>10</ele>
        <time>2026-05-17T12:54:39.566Z</time>
      </trkpt>
      <trkpt lat="48.59208" lon="-4.52849">
        <ele>14</ele>
        <time>2026-05-17T12:54:44.091Z</time>
      </trkpt>
      <trkpt lat="48.59205" lon="-4.52854">
        <ele>14</ele>
        <time>2026-05-17T12:54:48.134Z</time>
      </trkpt>
      <trkpt lat="48.59201" lon="-4.52862">
        <ele>14</ele>
        <time>2026-05-17T12:54:52.430Z</time>
      </trkpt>
      <trkpt lat="48.59201" lon="-4.52873">
        <ele>14</ele>
        <time>2026-05-17T12:57:07.858Z</time>
      </trkpt>
      <trkpt lat="48.59201" lon="-4.52873">
        <ele>14</ele>
        <time>2026-05-17T12:57:12.847Z</time>
      </trkpt>
      <trkpt lat="48.59201" lon="-4.52873">
        <ele>14</ele>
        <time>2026-05-17T12:57:19.563Z</time>
      </trkpt>
      <trkpt lat="48.59198" lon="-4.52875">
        <ele>14</ele>
        <time>2026-05-17T12:57:23.744Z</time>
      </trkpt>
      <trkpt lat="48.59193" lon="-4.52881">
        <ele>12</ele>
        <time>2026-05-17T12:57:27.747Z</time>
      </trkpt>
      <trkpt lat="48.59189" lon="-4.52886">
        <ele>12</ele>
        <time>2026-05-17T12:57:32.150Z</time>
      </trkpt>
      <trkpt lat="48.5919" lon="-4.5289">
        <ele>12</ele>
        <time>2026-05-17T12:57:36.846Z</time>
      </trkpt>
      <trkpt lat="48.59191" lon="-4.52892">
        <ele>12</ele>
        <time>2026-05-17T12:57:41.447Z</time>
      </trkpt>
      <trkpt lat="48.59187" lon="-4.52893">
        <ele>12</ele>
        <time>2026-05-17T12:57:45.732Z</time>
      </trkpt>
      <trkpt lat="48.59182" lon="-4.52901">
        <ele>12</ele>
        <time>2026-05-17T12:57:50.191Z</time>
      </trkpt>
      <trkpt lat="48.59179" lon="-4.52908">
        <ele>18</ele>
        <time>2026-05-17T12:57:54.210Z</time>
      </trkpt>
      <trkpt lat="48.59176" lon="-4.52915">
        <ele>18</ele>
        <time>2026-05-17T12:57:58.264Z</time>
      </trkpt>
      <trkpt lat="48.59174" lon="-4.52922">
        <ele>18</ele>
        <time>2026-05-17T12:58:02.530Z</time>
      </trkpt>
      <trkpt lat="48.59173" lon="-4.52929">
        <ele>18</ele>
        <time>2026-05-17T12:58:06.729Z</time>
      </trkpt>
      <trkpt lat="48.59169" lon="-4.52935">
        <ele>16</ele>
        <time>2026-05-17T12:58:11.183Z</time>
      </trkpt>
      <trkpt lat="48.59166" lon="-4.52943">
        <ele>16</ele>
        <time>2026-05-17T12:58:15.706Z</time>
      </trkpt>
      <trkpt lat="48.59162" lon="-4.52948">
        <ele>16</ele>
        <time>2026-05-17T12:58:20.024Z</time>
      </trkpt>
      <trkpt lat="48.59159" lon="-4.52954">
        <ele>16</ele>
        <time>2026-05-17T12:58:24.368Z</time>
      </trkpt>
      <trkpt lat="48.59155" lon="-4.52961">
        <ele>16</ele>
        <time>2026-05-17T12:58:28.847Z</time>
      </trkpt>
      <trkpt lat="48.59152" lon="-4.52968">
        <ele>21</ele>
        <time>2026-05-17T12:58:33.268Z</time>
      </trkpt>
      <trkpt lat="48.59149" lon="-4.52976">
        <ele>21</ele>
        <time>2026-05-17T12:58:37.610Z</time>
      </trkpt>
      <trkpt lat="48.59146" lon="-4.52983">
        <ele>21</ele>
        <time>2026-05-17T12:58:42.807Z</time>
      </trkpt>
      <trkpt lat="48.59142" lon="-4.5299">
        <ele>19</ele>
        <time>2026-05-17T12:58:47.245Z</time>
      </trkpt>
      <trkpt lat="48.59139" lon="-4.52994">
        <ele>19</ele>
        <time>2026-05-17T12:58:51.264Z</time>
      </trkpt>
      <trkpt lat="48.59135" lon="-4.52998">
        <ele>19</ele>
        <time>2026-05-17T12:58:55.488Z</time>
      </trkpt>
      <trkpt lat="48.59131" lon="-4.53003">
        <ele>19</ele>
        <time>2026-05-17T12:58:59.848Z</time>
      </trkpt>
      <trkpt lat="48.59127" lon="-4.53007">
        <ele>19</ele>
        <time>2026-05-17T12:59:04.048Z</time>
      </trkpt>
      <trkpt lat="48.59122" lon="-4.53011">
        <ele>23</ele>
        <time>2026-05-17T12:59:08.424Z</time>
      </trkpt>
      <trkpt lat="48.59117" lon="-4.53015">
        <ele>20</ele>
        <time>2026-05-17T12:59:12.828Z</time>
      </trkpt>
      <trkpt lat="48.59113" lon="-4.53019">
        <ele>20</ele>
        <time>2026-05-17T12:59:17.351Z</time>
      </trkpt>
      <trkpt lat="48.59108" lon="-4.53024">
        <ele>20</ele>
        <time>2026-05-17T12:59:21.669Z</time>
      </trkpt>
      <trkpt lat="48.59105" lon="-4.53029">
        <ele>20</ele>
        <time>2026-05-17T12:59:25.764Z</time>
      </trkpt>
      <trkpt lat="48.59101" lon="-4.53034">
        <ele>20</ele>
        <time>2026-05-17T12:59:30.031Z</time>
      </trkpt>
      <trkpt lat="48.59096" lon="-4.53038">
        <ele>26</ele>
        <time>2026-05-17T12:59:34.307Z</time>
      </trkpt>
      <trkpt lat="48.59092" lon="-4.53043">
        <ele>23</ele>
        <time>2026-05-17T12:59:38.650Z</time>
      </trkpt>
      <trkpt lat="48.59088" lon="-4.53048">
        <ele>23</ele>
        <time>2026-05-17T12:59:43.028Z</time>
      </trkpt>
      <trkpt lat="48.59086" lon="-4.53054">
        <ele>23</ele>
        <time>2026-05-17T12:59:47.430Z</time>
      </trkpt>
      <trkpt lat="48.59082" lon="-4.5306">
        <ele>23</ele>
        <time>2026-05-17T12:59:51.732Z</time>
      </trkpt>
      <trkpt lat="48.5908" lon="-4.53069">
        <ele>23</ele>
        <time>2026-05-17T12:59:56.049Z</time>
      </trkpt>
      <trkpt lat="48.59076" lon="-4.53076">
        <ele>22</ele>
        <time>2026-05-17T13:00:00.443Z</time>
      </trkpt>
      <trkpt lat="48.59072" lon="-4.53081">
        <ele>22</ele>
        <time>2026-05-17T13:00:04.709Z</time>
      </trkpt>
      <trkpt lat="48.59068" lon="-4.53088">
        <ele>24</ele>
        <time>2026-05-17T13:00:09.044Z</time>
      </trkpt>
      <trkpt lat="48.59064" lon="-4.53095">
        <ele>24</ele>
        <time>2026-05-17T13:00:13.464Z</time>
      </trkpt>
      <trkpt lat="48.59058" lon="-4.53098">
        <ele>23</ele>
        <time>2026-05-17T13:00:17.846Z</time>
      </trkpt>
      <trkpt lat="48.59052" lon="-4.53099">
        <ele>23</ele>
        <time>2026-05-17T13:00:22.229Z</time>
      </trkpt>
      <trkpt lat="48.59046" lon="-4.53099">
        <ele>23</ele>
        <time>2026-05-17T13:00:26.649Z</time>
      </trkpt>
      <trkpt lat="48.59041" lon="-4.531">
        <ele>25</ele>
        <time>2026-05-17T13:00:31.096Z</time>
      </trkpt>
      <trkpt lat="48.59035" lon="-4.531">
        <ele>25</ele>
        <time>2026-05-17T13:00:35.846Z</time>
      </trkpt>
      <trkpt lat="48.59031" lon="-4.531">
        <ele>25</ele>
        <time>2026-05-17T13:00:40.266Z</time>
      </trkpt>
      <trkpt lat="48.59026" lon="-4.53101">
        <ele>25</ele>
        <time>2026-05-17T13:00:44.372Z</time>
      </trkpt>
      <trkpt lat="48.59021" lon="-4.53101">
        <ele>25</ele>
        <time>2026-05-17T13:00:48.848Z</time>
      </trkpt>
      <trkpt lat="48.59016" lon="-4.53101">
        <ele>25</ele>
        <time>2026-05-17T13:00:53.409Z</time>
      </trkpt>
      <trkpt lat="48.59011" lon="-4.531">
        <ele>31</ele>
        <time>2026-05-17T13:00:57.849Z</time>
      </trkpt>
      <trkpt lat="48.59005" lon="-4.53099">
        <ele>31</ele>
        <time>2026-05-17T13:01:02.368Z</time>
      </trkpt>
      <trkpt lat="48.58999" lon="-4.53098">
        <ele>31</ele>
        <time>2026-05-17T13:01:06.843Z</time>
      </trkpt>
      <trkpt lat="48.58993" lon="-4.53098">
        <ele>31</ele>
        <time>2026-05-17T13:01:11.848Z</time>
      </trkpt>
      <trkpt lat="48.58987" lon="-4.53097">
        <ele>32</ele>
        <time>2026-05-17T13:01:16.490Z</time>
      </trkpt>
      <trkpt lat="48.58984" lon="-4.53098">
        <ele>36</ele>
        <time>2026-05-17T13:01:20.849Z</time>
      </trkpt>
      <trkpt lat="48.58983" lon="-4.53103">
        <ele>36</ele>
        <time>2026-05-17T13:01:25.510Z</time>
      </trkpt>
      <trkpt lat="48.58985" lon="-4.53111">
        <ele>36</ele>
        <time>2026-05-17T13:01:29.972Z</time>
      </trkpt>
      <trkpt lat="48.58988" lon="-4.53113">
        <ele>31</ele>
        <time>2026-05-17T13:01:33.993Z</time>
      </trkpt>
      <trkpt lat="48.58989" lon="-4.53119">
        <ele>31</ele>
        <time>2026-05-17T13:01:38.470Z</time>
      </trkpt>
      <trkpt lat="48.58989" lon="-4.53126">
        <ele>31</ele>
        <time>2026-05-17T13:01:42.890Z</time>
      </trkpt>
      <trkpt lat="48.58989" lon="-4.53132">
        <ele>31</ele>
        <time>2026-05-17T13:01:47.191Z</time>
      </trkpt>
      <trkpt lat="48.58988" lon="-4.53138">
        <ele>31</ele>
        <time>2026-05-17T13:01:51.406Z</time>
      </trkpt>
      <trkpt lat="48.58987" lon="-4.53143">
        <ele>31</ele>
        <time>2026-05-17T13:01:55.467Z</time>
      </trkpt>
      <trkpt lat="48.58986" lon="-4.53149">
        <ele>31</ele>
        <time>2026-05-17T13:01:59.632Z</time>
      </trkpt>
      <trkpt lat="48.58985" lon="-4.53156">
        <ele>36</ele>
        <time>2026-05-17T13:02:03.728Z</time>
      </trkpt>
      <trkpt lat="48.58984" lon="-4.53162">
        <ele>36</ele>
        <time>2026-05-17T13:02:07.789Z</time>
      </trkpt>
      <trkpt lat="48.58981" lon="-4.53171">
        <ele>36</ele>
        <time>2026-05-17T13:02:12.844Z</time>
      </trkpt>
      <trkpt lat="48.58979" lon="-4.53178">
        <ele>36</ele>
        <time>2026-05-17T13:02:16.856Z</time>
      </trkpt>
      <trkpt lat="48.5898" lon="-4.53179">
        <ele>36</ele>
        <time>2026-05-17T13:02:22.552Z</time>
      </trkpt>
      <trkpt lat="48.58979" lon="-4.53185">
        <ele>35</ele>
        <time>2026-05-17T13:02:26.849Z</time>
      </trkpt>
      <trkpt lat="48.58976" lon="-4.53191">
        <ele>35</ele>
        <time>2026-05-17T13:02:31.169Z</time>
      </trkpt>
      <trkpt lat="48.58975" lon="-4.53198">
        <ele>35</ele>
        <time>2026-05-17T13:02:35.189Z</time>
      </trkpt>
      <trkpt lat="48.58975" lon="-4.53206">
        <ele>35</ele>
        <time>2026-05-17T13:02:39.252Z</time>
      </trkpt>
      <trkpt lat="48.58974" lon="-4.53215">
        <ele>33</ele>
        <time>2026-05-17T13:02:43.704Z</time>
      </trkpt>
      <trkpt lat="48.58973" lon="-4.53224">
        <ele>33</ele>
        <time>2026-05-17T13:02:47.849Z</time>
      </trkpt>
      <trkpt lat="48.5897" lon="-4.53239">
        <ele>33</ele>
        <time>2026-05-17T13:02:56.846Z</time>
      </trkpt>
      <trkpt lat="48.58971" lon="-4.53241">
        <ele>33</ele>
        <time>2026-05-17T13:03:01.848Z</time>
      </trkpt>
      <trkpt lat="48.58972" lon="-4.53243">
        <ele>33</ele>
        <time>2026-05-17T13:03:06.351Z</time>
      </trkpt>
      <trkpt lat="48.58973" lon="-4.53246">
        <ele>33</ele>
        <time>2026-05-17T13:03:10.852Z</time>
      </trkpt>
      <trkpt lat="48.58974" lon="-4.53251">
        <ele>33</ele>
        <time>2026-05-17T13:03:14.848Z</time>
      </trkpt>
      <trkpt lat="48.58974" lon="-4.53261">
        <ele>33</ele>
        <time>2026-05-17T13:03:23.845Z</time>
      </trkpt>
      <trkpt lat="48.58973" lon="-4.53262">
        <ele>33</ele>
        <time>2026-05-17T13:03:28.850Z</time>
      </trkpt>
      <trkpt lat="48.58973" lon="-4.53262">
        <ele>33</ele>
        <time>2026-05-17T13:03:33.847Z</time>
      </trkpt>
      <trkpt lat="48.58972" lon="-4.53268">
        <ele>34</ele>
        <time>2026-05-17T13:03:37.845Z</time>
      </trkpt>
      <trkpt lat="48.58975" lon="-4.53275">
        <ele>34</ele>
        <time>2026-05-17T13:03:41.975Z</time>
      </trkpt>
      <trkpt lat="48.58976" lon="-4.53281">
        <ele>34</ele>
        <time>2026-05-17T13:03:46.296Z</time>
      </trkpt>
      <trkpt lat="48.58977" lon="-4.53287">
        <ele>34</ele>
        <time>2026-05-17T13:03:50.847Z</time>
      </trkpt>
      <trkpt lat="48.58977" lon="-4.53293">
        <ele>36</ele>
        <time>2026-05-17T13:03:54.972Z</time>
      </trkpt>
      <trkpt lat="48.58979" lon="-4.533">
        <ele>36</ele>
        <time>2026-05-17T13:03:59.716Z</time>
      </trkpt>
      <trkpt lat="48.5898" lon="-4.53306">
        <ele>36</ele>
        <time>2026-05-17T13:04:04.230Z</time>
      </trkpt>
      <trkpt lat="48.58982" lon="-4.53311">
        <ele>36</ele>
        <time>2026-05-17T13:04:08.377Z</time>
      </trkpt>
      <trkpt lat="48.58984" lon="-4.53313">
        <ele>36</ele>
        <time>2026-05-17T13:04:12.847Z</time>
      </trkpt>
      <trkpt lat="48.58984" lon="-4.53317">
        <ele>36</ele>
        <time>2026-05-17T13:04:17.414Z</time>
      </trkpt>
      <trkpt lat="48.58986" lon="-4.53324">
        <ele>37</ele>
        <time>2026-05-17T13:04:21.475Z</time>
      </trkpt>
      <trkpt lat="48.58987" lon="-4.53332">
        <ele>32</ele>
        <time>2026-05-17T13:04:25.536Z</time>
      </trkpt>
      <trkpt lat="48.58988" lon="-4.53338">
        <ele>32</ele>
        <time>2026-05-17T13:04:29.843Z</time>
      </trkpt>
      <trkpt lat="48.58987" lon="-4.53339">
        <ele>32</ele>
        <time>2026-05-17T13:04:34.851Z</time>
      </trkpt>
      <trkpt lat="48.58987" lon="-4.5334">
        <ele>32</ele>
        <time>2026-05-17T13:04:39.378Z</time>
      </trkpt>
      <trkpt lat="48.58986" lon="-4.53348">
        <ele>33</ele>
        <time>2026-05-17T13:04:43.848Z</time>
      </trkpt>
      <trkpt lat="48.58988" lon="-4.53352">
        <ele>33</ele>
        <time>2026-05-17T13:04:48.447Z</time>
      </trkpt>
      <trkpt lat="48.58988" lon="-4.5336">
        <ele>33</ele>
        <time>2026-05-17T13:04:52.610Z</time>
      </trkpt>
      <trkpt lat="48.58989" lon="-4.53368">
        <ele>33</ele>
        <time>2026-05-17T13:04:56.613Z</time>
      </trkpt>
      <trkpt lat="48.58991" lon="-4.53376">
        <ele>33</ele>
        <time>2026-05-17T13:05:01.015Z</time>
      </trkpt>
      <trkpt lat="48.58993" lon="-4.53382">
        <ele>33</ele>
        <time>2026-05-17T13:05:05.170Z</time>
      </trkpt>
      <trkpt lat="48.58995" lon="-4.5339">
        <ele>33</ele>
        <time>2026-05-17T13:05:09.276Z</time>
      </trkpt>
      <trkpt lat="48.58997" lon="-4.53397">
        <ele>33</ele>
        <time>2026-05-17T13:05:13.593Z</time>
      </trkpt>
      <trkpt lat="48.58998" lon="-4.53405">
        <ele>33</ele>
        <time>2026-05-17T13:05:18.237Z</time>
      </trkpt>
      <trkpt lat="48.58998" lon="-4.53412">
        <ele>33</ele>
        <time>2026-05-17T13:05:22.850Z</time>
      </trkpt>
      <trkpt lat="48.58998" lon="-4.5342">
        <ele>33</ele>
        <time>2026-05-17T13:05:27.474Z</time>
      </trkpt>
      <trkpt lat="48.59001" lon="-4.53426">
        <ele>33</ele>
        <time>2026-05-17T13:05:32.176Z</time>
      </trkpt>
      <trkpt lat="48.59006" lon="-4.53429">
        <ele>33</ele>
        <time>2026-05-17T13:05:36.496Z</time>
      </trkpt>
      <trkpt lat="48.5901" lon="-4.53434">
        <ele>33</ele>
        <time>2026-05-17T13:05:40.614Z</time>
      </trkpt>
      <trkpt lat="48.59012" lon="-4.53441">
        <ele>33</ele>
        <time>2026-05-17T13:05:45.112Z</time>
      </trkpt>
      <trkpt lat="48.59014" lon="-4.53448">
        <ele>33</ele>
        <time>2026-05-17T13:05:49.413Z</time>
      </trkpt>
      <trkpt lat="48.59014" lon="-4.53454">
        <ele>30</ele>
        <time>2026-05-17T13:05:53.773Z</time>
      </trkpt>
      <trkpt lat="48.59013" lon="-4.5346">
        <ele>32</ele>
        <time>2026-05-17T13:05:58.457Z</time>
      </trkpt>
      <trkpt lat="48.59013" lon="-4.53465">
        <ele>32</ele>
        <time>2026-05-17T13:06:02.844Z</time>
      </trkpt>
      <trkpt lat="48.5901" lon="-4.53471">
        <ele>32</ele>
        <time>2026-05-17T13:06:07.535Z</time>
      </trkpt>
      <trkpt lat="48.59011" lon="-4.53478">
        <ele>32</ele>
        <time>2026-05-17T13:06:11.856Z</time>
      </trkpt>
      <trkpt lat="48.59011" lon="-4.53484">
        <ele>32</ele>
        <time>2026-05-17T13:06:16.214Z</time>
      </trkpt>
      <trkpt lat="48.59011" lon="-4.53489">
        <ele>29</ele>
        <time>2026-05-17T13:06:20.796Z</time>
      </trkpt>
      <trkpt lat="48.59012" lon="-4.53494">
        <ele>29</ele>
        <time>2026-05-17T13:06:24.854Z</time>
      </trkpt>
      <trkpt lat="48.59015" lon="-4.53498">
        <ele>29</ele>
        <time>2026-05-17T13:06:29.638Z</time>
      </trkpt>
      <trkpt lat="48.59023" lon="-4.53499">
        <ele>29</ele>
        <time>2026-05-17T13:07:07.846Z</time>
      </trkpt>
      <trkpt lat="48.59024" lon="-4.53502">
        <ele>29</ele>
        <time>2026-05-17T13:07:12.847Z</time>
      </trkpt>
      <trkpt lat="48.59024" lon="-4.53504">
        <ele>29</ele>
        <time>2026-05-17T13:07:16.852Z</time>
      </trkpt>
      <trkpt lat="48.59024" lon="-4.53505">
        <ele>29</ele>
        <time>2026-05-17T13:07:20.851Z</time>
      </trkpt>
      <trkpt lat="48.59028" lon="-4.5351">
        <ele>29</ele>
        <time>2026-05-17T13:07:25.106Z</time>
      </trkpt>
      <trkpt lat="48.59033" lon="-4.53515">
        <ele>28</ele>
        <time>2026-05-17T13:07:38.518Z</time>
      </trkpt>
      <trkpt lat="48.59037" lon="-4.53521">
        <ele>28</ele>
        <time>2026-05-17T13:07:42.537Z</time>
      </trkpt>
      <trkpt lat="48.59043" lon="-4.53525">
        <ele>33</ele>
        <time>2026-05-17T13:07:47.118Z</time>
      </trkpt>
      <trkpt lat="48.59046" lon="-4.53526">
        <ele>33</ele>
        <time>2026-05-17T13:07:51.332Z</time>
      </trkpt>
      <trkpt lat="48.59048" lon="-4.53527">
        <ele>33</ele>
        <time>2026-05-17T13:07:55.735Z</time>
      </trkpt>
      <trkpt lat="48.59048" lon="-4.53525">
        <ele>33</ele>
        <time>2026-05-17T13:07:59.847Z</time>
      </trkpt>
      <trkpt lat="48.59048" lon="-4.53525">
        <ele>33</ele>
        <time>2026-05-17T13:08:03.848Z</time>
      </trkpt>
      <trkpt lat="48.59049" lon="-4.53524">
        <ele>33</ele>
        <time>2026-05-17T13:08:08.849Z</time>
      </trkpt>
      <trkpt lat="48.59054" lon="-4.53528">
        <ele>33</ele>
        <time>2026-05-17T13:08:13.311Z</time>
      </trkpt>
      <trkpt lat="48.59059" lon="-4.5353">
        <ele>33</ele>
        <time>2026-05-17T13:08:17.613Z</time>
      </trkpt>
      <trkpt lat="48.59063" lon="-4.53528">
        <ele>33</ele>
        <time>2026-05-17T13:08:21.847Z</time>
      </trkpt>
      <trkpt lat="48.59066" lon="-4.53529">
        <ele>33</ele>
        <time>2026-05-17T13:08:26.537Z</time>
      </trkpt>
      <trkpt lat="48.59069" lon="-4.53526">
        <ele>33</ele>
        <time>2026-05-17T13:08:30.859Z</time>
      </trkpt>
      <trkpt lat="48.59073" lon="-4.53525">
        <ele>36</ele>
        <time>2026-05-17T13:08:35.436Z</time>
      </trkpt>
      <trkpt lat="48.59074" lon="-4.5353">
        <ele>36</ele>
        <time>2026-05-17T13:08:39.845Z</time>
      </trkpt>
      <trkpt lat="48.59074" lon="-4.53535">
        <ele>36</ele>
        <time>2026-05-17T13:08:44.395Z</time>
      </trkpt>
      <trkpt lat="48.59073" lon="-4.53542">
        <ele>38</ele>
        <time>2026-05-17T13:08:48.490Z</time>
      </trkpt>
      <trkpt lat="48.59071" lon="-4.53551">
        <ele>38</ele>
        <time>2026-05-17T13:08:52.775Z</time>
      </trkpt>
      <trkpt lat="48.59068" lon="-4.53567">
        <ele>35</ele>
        <time>2026-05-17T13:09:14.853Z</time>
      </trkpt>
      <trkpt lat="48.59068" lon="-4.53568">
        <ele>35</ele>
        <time>2026-05-17T13:09:19.847Z</time>
      </trkpt>
      <trkpt lat="48.59066" lon="-4.53573">
        <ele>37</ele>
        <time>2026-05-17T13:09:24.854Z</time>
      </trkpt>
      <trkpt lat="48.59065" lon="-4.53579">
        <ele>37</ele>
        <time>2026-05-17T13:09:29.275Z</time>
      </trkpt>
      <trkpt lat="48.59064" lon="-4.53587">
        <ele>37</ele>
        <time>2026-05-17T13:09:33.550Z</time>
      </trkpt>
      <trkpt lat="48.59062" lon="-4.53594">
        <ele>37</ele>
        <time>2026-05-17T13:09:37.671Z</time>
      </trkpt>
      <trkpt lat="48.5906" lon="-4.53601">
        <ele>39</ele>
        <time>2026-05-17T13:09:42.177Z</time>
      </trkpt>
      <trkpt lat="48.59057" lon="-4.53606">
        <ele>39</ele>
        <time>2026-05-17T13:09:46.195Z</time>
      </trkpt>
      <trkpt lat="48.59055" lon="-4.5361">
        <ele>39</ele>
        <time>2026-05-17T13:09:50.718Z</time>
      </trkpt>
      <trkpt lat="48.59055" lon="-4.53626">
        <ele>40</ele>
        <time>2026-05-17T13:10:03.845Z</time>
      </trkpt>
      <trkpt lat="48.59055" lon="-4.53627">
        <ele>40</ele>
        <time>2026-05-17T13:10:07.854Z</time>
      </trkpt>
      <trkpt lat="48.59055" lon="-4.53628">
        <ele>40</ele>
        <time>2026-05-17T13:10:12.550Z</time>
      </trkpt>
      <trkpt lat="48.59056" lon="-4.53628">
        <ele>40</ele>
        <time>2026-05-17T13:10:16.849Z</time>
      </trkpt>
      <trkpt lat="48.59058" lon="-4.53627">
        <ele>40</ele>
        <time>2026-05-17T13:10:21.843Z</time>
      </trkpt>
      <trkpt lat="48.59059" lon="-4.53628">
        <ele>40</ele>
        <time>2026-05-17T13:11:08.845Z</time>
      </trkpt>
      <trkpt lat="48.59058" lon="-4.53629">
        <ele>40</ele>
        <time>2026-05-17T13:11:13.655Z</time>
      </trkpt>
      <trkpt lat="48.5906" lon="-4.53633">
        <ele>40</ele>
        <time>2026-05-17T13:11:17.749Z</time>
      </trkpt>
      <trkpt lat="48.59064" lon="-4.53635">
        <ele>40</ele>
        <time>2026-05-17T13:11:22.254Z</time>
      </trkpt>
      <trkpt lat="48.59068" lon="-4.53636">
        <ele>40</ele>
        <time>2026-05-17T13:11:26.632Z</time>
      </trkpt>
      <trkpt lat="48.59072" lon="-4.53638">
        <ele>43</ele>
        <time>2026-05-17T13:11:31.035Z</time>
      </trkpt>
      <trkpt lat="48.59076" lon="-4.5364">
        <ele>43</ele>
        <time>2026-05-17T13:11:35.376Z</time>
      </trkpt>
      <trkpt lat="48.5908" lon="-4.53641">
        <ele>43</ele>
        <time>2026-05-17T13:11:39.570Z</time>
      </trkpt>
      <trkpt lat="48.59084" lon="-4.53642">
        <ele>43</ele>
        <time>2026-05-17T13:11:44.131Z</time>
      </trkpt>
      <trkpt lat="48.59088" lon="-4.53644">
        <ele>43</ele>
        <time>2026-05-17T13:11:48.551Z</time>
      </trkpt>
      <trkpt lat="48.59092" lon="-4.53645">
        <ele>43</ele>
        <time>2026-05-17T13:11:52.690Z</time>
      </trkpt>
      <trkpt lat="48.59096" lon="-4.53647">
        <ele>43</ele>
        <time>2026-05-17T13:11:56.743Z</time>
      </trkpt>
      <trkpt lat="48.59101" lon="-4.53649">
        <ele>46</ele>
        <time>2026-05-17T13:12:00.949Z</time>
      </trkpt>
      <trkpt lat="48.59106" lon="-4.53652">
        <ele>46</ele>
        <time>2026-05-17T13:12:05.852Z</time>
      </trkpt>
      <trkpt lat="48.59111" lon="-4.53655">
        <ele>47</ele>
        <time>2026-05-17T13:12:10.471Z</time>
      </trkpt>
      <trkpt lat="48.59116" lon="-4.53657">
        <ele>47</ele>
        <time>2026-05-17T13:12:14.711Z</time>
      </trkpt>
      <trkpt lat="48.59121" lon="-4.5366">
        <ele>47</ele>
        <time>2026-05-17T13:12:19.090Z</time>
      </trkpt>
      <trkpt lat="48.59125" lon="-4.53662">
        <ele>47</ele>
        <time>2026-05-17T13:12:23.569Z</time>
      </trkpt>
      <trkpt lat="48.59129" lon="-4.53665">
        <ele>47</ele>
        <time>2026-05-17T13:12:27.846Z</time>
      </trkpt>
      <trkpt lat="48.59133" lon="-4.53669">
        <ele>47</ele>
        <time>2026-05-17T13:12:32.212Z</time>
      </trkpt>
      <trkpt lat="48.59137" lon="-4.53671">
        <ele>47</ele>
        <time>2026-05-17T13:12:36.290Z</time>
      </trkpt>
      <trkpt lat="48.59142" lon="-4.53674">
        <ele>47</ele>
        <time>2026-05-17T13:12:40.530Z</time>
      </trkpt>
      <trkpt lat="48.59146" lon="-4.53675">
        <ele>47</ele>
        <time>2026-05-17T13:12:44.852Z</time>
      </trkpt>
      <trkpt lat="48.5915" lon="-4.53673">
        <ele>47</ele>
        <time>2026-05-17T13:12:49.080Z</time>
      </trkpt>
      <trkpt lat="48.59153" lon="-4.53669">
        <ele>47</ele>
        <time>2026-05-17T13:12:53.252Z</time>
      </trkpt>
      <trkpt lat="48.59158" lon="-4.53666">
        <ele>47</ele>
        <time>2026-05-17T13:12:57.467Z</time>
      </trkpt>
      <trkpt lat="48.59162" lon="-4.53668">
        <ele>47</ele>
        <time>2026-05-17T13:13:01.751Z</time>
      </trkpt>
      <trkpt lat="48.59166" lon="-4.53671">
        <ele>47</ele>
        <time>2026-05-17T13:13:06.170Z</time>
      </trkpt>
      <trkpt lat="48.5917" lon="-4.53677">
        <ele>47</ele>
        <time>2026-05-17T13:13:10.812Z</time>
      </trkpt>
      <trkpt lat="48.59175" lon="-4.53683">
        <ele>47</ele>
        <time>2026-05-17T13:13:15.849Z</time>
      </trkpt>
      <trkpt lat="48.59178" lon="-4.53689">
        <ele>47</ele>
        <time>2026-05-17T13:13:20.291Z</time>
      </trkpt>
      <trkpt lat="48.59182" lon="-4.53695">
        <ele>48</ele>
        <time>2026-05-17T13:13:24.829Z</time>
      </trkpt>
      <trkpt lat="48.59185" lon="-4.537">
        <ele>48</ele>
        <time>2026-05-17T13:13:28.832Z</time>
      </trkpt>
      <trkpt lat="48.59191" lon="-4.53707">
        <ele>48</ele>
        <time>2026-05-17T13:13:33.747Z</time>
      </trkpt>
      <trkpt lat="48.59196" lon="-4.53712">
        <ele>47</ele>
        <time>2026-05-17T13:13:38.073Z</time>
      </trkpt>
      <trkpt lat="48.592" lon="-4.53717">
        <ele>47</ele>
        <time>2026-05-17T13:13:42.569Z</time>
      </trkpt>
      <trkpt lat="48.59204" lon="-4.53722">
        <ele>47</ele>
        <time>2026-05-17T13:13:46.605Z</time>
      </trkpt>
      <trkpt lat="48.59208" lon="-4.53725">
        <ele>48</ele>
        <time>2026-05-17T13:13:50.726Z</time>
      </trkpt>
      <trkpt lat="48.59212" lon="-4.53732">
        <ele>48</ele>
        <time>2026-05-17T13:13:55.171Z</time>
      </trkpt>
      <trkpt lat="48.59215" lon="-4.53738">
        <ele>48</ele>
        <time>2026-05-17T13:13:59.668Z</time>
      </trkpt>
      <trkpt lat="48.59218" lon="-4.53744">
        <ele>48</ele>
        <time>2026-05-17T13:14:03.771Z</time>
      </trkpt>
      <trkpt lat="48.59222" lon="-4.53751">
        <ele>48</ele>
        <time>2026-05-17T13:14:08.371Z</time>
      </trkpt>
      <trkpt lat="48.59225" lon="-4.53756">
        <ele>48</ele>
        <time>2026-05-17T13:14:12.449Z</time>
      </trkpt>
      <trkpt lat="48.59228" lon="-4.53761">
        <ele>48</ele>
        <time>2026-05-17T13:14:16.631Z</time>
      </trkpt>
      <trkpt lat="48.59232" lon="-4.53767">
        <ele>49</ele>
        <time>2026-05-17T13:14:21.211Z</time>
      </trkpt>
      <trkpt lat="48.59236" lon="-4.53772">
        <ele>49</ele>
        <time>2026-05-17T13:14:25.767Z</time>
      </trkpt>
      <trkpt lat="48.59241" lon="-4.53775">
        <ele>49</ele>
        <time>2026-05-17T13:14:29.786Z</time>
      </trkpt>
      <trkpt lat="48.59246" lon="-4.53777">
        <ele>49</ele>
        <time>2026-05-17T13:14:33.843Z</time>
      </trkpt>
      <trkpt lat="48.59251" lon="-4.5378">
        <ele>49</ele>
        <time>2026-05-17T13:14:38.030Z</time>
      </trkpt>
      <trkpt lat="48.59258" lon="-4.53787">
        <ele>49</ele>
        <time>2026-05-17T13:14:51.449Z</time>
      </trkpt>
      <trkpt lat="48.5926" lon="-4.53791">
        <ele>49</ele>
        <time>2026-05-17T13:14:55.630Z</time>
      </trkpt>
      <trkpt lat="48.5926" lon="-4.53797">
        <ele>49</ele>
        <time>2026-05-17T13:14:59.845Z</time>
      </trkpt>
      <trkpt lat="48.59261" lon="-4.53799">
        <ele>49</ele>
        <time>2026-05-17T13:15:04.350Z</time>
      </trkpt>
      <trkpt lat="48.5926" lon="-4.53806">
        <ele>49</ele>
        <time>2026-05-17T13:15:08.843Z</time>
      </trkpt>
      <trkpt lat="48.59258" lon="-4.53814">
        <ele>49</ele>
        <time>2026-05-17T13:15:13.147Z</time>
      </trkpt>
      <trkpt lat="48.59257" lon="-4.53822">
        <ele>49</ele>
        <time>2026-05-17T13:15:17.191Z</time>
      </trkpt>
      <trkpt lat="48.59257" lon="-4.53829">
        <ele>49</ele>
        <time>2026-05-17T13:15:21.270Z</time>
      </trkpt>
      <trkpt lat="48.59257" lon="-4.53837">
        <ele>49</ele>
        <time>2026-05-17T13:15:25.846Z</time>
      </trkpt>
      <trkpt lat="48.59256" lon="-4.53845">
        <ele>49</ele>
        <time>2026-05-17T13:15:30.509Z</time>
      </trkpt>
      <trkpt lat="48.59255" lon="-4.53853">
        <ele>48</ele>
        <time>2026-05-17T13:15:35.049Z</time>
      </trkpt>
      <trkpt lat="48.59255" lon="-4.53862">
        <ele>48</ele>
        <time>2026-05-17T13:15:39.848Z</time>
      </trkpt>
      <trkpt lat="48.59255" lon="-4.53871">
        <ele>48</ele>
        <time>2026-05-17T13:15:44.425Z</time>
      </trkpt>
      <trkpt lat="48.59254" lon="-4.5388">
        <ele>47</ele>
        <time>2026-05-17T13:15:48.847Z</time>
      </trkpt>
      <trkpt lat="48.59254" lon="-4.53888">
        <ele>47</ele>
        <time>2026-05-17T13:15:53.384Z</time>
      </trkpt>
      <trkpt lat="48.59258" lon="-4.53892">
        <ele>47</ele>
        <time>2026-05-17T13:15:57.506Z</time>
      </trkpt>
      <trkpt lat="48.59265" lon="-4.53891">
        <ele>48</ele>
        <time>2026-05-17T13:16:01.841Z</time>
      </trkpt>
      <trkpt lat="48.59269" lon="-4.53889">
        <ele>48</ele>
        <time>2026-05-17T13:16:05.846Z</time>
      </trkpt>
      <trkpt lat="48.59276" lon="-4.53889">
        <ele>48</ele>
        <time>2026-05-17T13:16:10.410Z</time>
      </trkpt>
      <trkpt lat="48.59282" lon="-4.53891">
        <ele>48</ele>
        <time>2026-05-17T13:16:14.845Z</time>
      </trkpt>
      <trkpt lat="48.59288" lon="-4.53893">
        <ele>48</ele>
        <time>2026-05-17T13:16:19.327Z</time>
      </trkpt>
      <trkpt lat="48.59292" lon="-4.53895">
        <ele>48</ele>
        <time>2026-05-17T13:16:23.371Z</time>
      </trkpt>
      <trkpt lat="48.59296" lon="-4.53898">
        <ele>48</ele>
        <time>2026-05-17T13:16:27.450Z</time>
      </trkpt>
      <trkpt lat="48.59299" lon="-4.53895">
        <ele>48</ele>
        <time>2026-05-17T13:16:31.845Z</time>
      </trkpt>
      <trkpt lat="48.59303" lon="-4.53897">
        <ele>48</ele>
        <time>2026-05-17T13:16:36.109Z</time>
      </trkpt>
      <trkpt lat="48.59308" lon="-4.53901">
        <ele>48</ele>
        <time>2026-05-17T13:16:40.426Z</time>
      </trkpt>
      <trkpt lat="48.59315" lon="-4.53905">
        <ele>48</ele>
        <time>2026-05-17T13:16:44.769Z</time>
      </trkpt>
      <trkpt lat="48.59321" lon="-4.53906">
        <ele>48</ele>
        <time>2026-05-17T13:16:49.131Z</time>
      </trkpt>
      <trkpt lat="48.59326" lon="-4.53908">
        <ele>48</ele>
        <time>2026-05-17T13:16:53.224Z</time>
      </trkpt>
      <trkpt lat="48.59331" lon="-4.5391">
        <ele>48</ele>
        <time>2026-05-17T13:16:57.704Z</time>
      </trkpt>
      <trkpt lat="48.59337" lon="-4.53912">
        <ele>48</ele>
        <time>2026-05-17T13:17:02.252Z</time>
      </trkpt>
      <trkpt lat="48.59342" lon="-4.53915">
        <ele>48</ele>
        <time>2026-05-17T13:17:06.808Z</time>
      </trkpt>
      <trkpt lat="48.59346" lon="-4.53917">
        <ele>48</ele>
        <time>2026-05-17T13:17:10.848Z</time>
      </trkpt>
      <trkpt lat="48.59351" lon="-4.53917">
        <ele>48</ele>
        <time>2026-05-17T13:17:15.370Z</time>
      </trkpt>
      <trkpt lat="48.59356" lon="-4.5392">
        <ele>48</ele>
        <time>2026-05-17T13:17:19.449Z</time>
      </trkpt>
      <trkpt lat="48.5936" lon="-4.53922">
        <ele>48</ele>
        <time>2026-05-17T13:17:23.509Z</time>
      </trkpt>
      <trkpt lat="48.59364" lon="-4.53924">
        <ele>48</ele>
        <time>2026-05-17T13:17:27.574Z</time>
      </trkpt>
      <trkpt lat="48.59369" lon="-4.53926">
        <ele>48</ele>
        <time>2026-05-17T13:17:31.632Z</time>
      </trkpt>
      <trkpt lat="48.59375" lon="-4.53929">
        <ele>48</ele>
        <time>2026-05-17T13:17:36.078Z</time>
      </trkpt>
      <trkpt lat="48.59379" lon="-4.53931">
        <ele>46</ele>
        <time>2026-05-17T13:17:40.147Z</time>
      </trkpt>
      <trkpt lat="48.59385" lon="-4.53932">
        <ele>46</ele>
        <time>2026-05-17T13:17:44.772Z</time>
      </trkpt>
      <trkpt lat="48.59389" lon="-4.53933">
        <ele>46</ele>
        <time>2026-05-17T13:17:48.970Z</time>
      </trkpt>
      <trkpt lat="48.59394" lon="-4.53934">
        <ele>46</ele>
        <time>2026-05-17T13:17:53.108Z</time>
      </trkpt>
      <trkpt lat="48.59398" lon="-4.53935">
        <ele>46</ele>
        <time>2026-05-17T13:17:57.349Z</time>
      </trkpt>
      <trkpt lat="48.59403" lon="-4.53935">
        <ele>45</ele>
        <time>2026-05-17T13:18:01.607Z</time>
      </trkpt>
      <trkpt lat="48.59408" lon="-4.53936">
        <ele>45</ele>
        <time>2026-05-17T13:18:05.763Z</time>
      </trkpt>
      <trkpt lat="48.59413" lon="-4.53937">
        <ele>45</ele>
        <time>2026-05-17T13:18:09.845Z</time>
      </trkpt>
      <trkpt lat="48.59418" lon="-4.53937">
        <ele>45</ele>
        <time>2026-05-17T13:18:14.064Z</time>
      </trkpt>
      <trkpt lat="48.59422" lon="-4.53937">
        <ele>45</ele>
        <time>2026-05-17T13:18:18.186Z</time>
      </trkpt>
      <trkpt lat="48.59427" lon="-4.53936">
        <ele>45</ele>
        <time>2026-05-17T13:18:22.382Z</time>
      </trkpt>
      <trkpt lat="48.59432" lon="-4.53936">
        <ele>46</ele>
        <time>2026-05-17T13:18:26.504Z</time>
      </trkpt>
      <trkpt lat="48.59438" lon="-4.53936">
        <ele>46</ele>
        <time>2026-05-17T13:18:30.523Z</time>
      </trkpt>
      <trkpt lat="48.59442" lon="-4.53936">
        <ele>46</ele>
        <time>2026-05-17T13:18:34.525Z</time>
      </trkpt>
      <trkpt lat="48.59448" lon="-4.53936">
        <ele>46</ele>
        <time>2026-05-17T13:18:39.084Z</time>
      </trkpt>
      <trkpt lat="48.59453" lon="-4.53936">
        <ele>46</ele>
        <time>2026-05-17T13:18:43.587Z</time>
      </trkpt>
      <trkpt lat="48.59459" lon="-4.53936">
        <ele>45</ele>
        <time>2026-05-17T13:18:48.108Z</time>
      </trkpt>
      <trkpt lat="48.59464" lon="-4.53937">
        <ele>45</ele>
        <time>2026-05-17T13:18:52.503Z</time>
      </trkpt>
      <trkpt lat="48.5947" lon="-4.53937">
        <ele>45</ele>
        <time>2026-05-17T13:18:56.844Z</time>
      </trkpt>
      <trkpt lat="48.59475" lon="-4.53937">
        <ele>45</ele>
        <time>2026-05-17T13:19:01.369Z</time>
      </trkpt>
      <trkpt lat="48.5948" lon="-4.53936">
        <ele>45</ele>
        <time>2026-05-17T13:19:05.685Z</time>
      </trkpt>
      <trkpt lat="48.59486" lon="-4.53935">
        <ele>44</ele>
        <time>2026-05-17T13:19:10.123Z</time>
      </trkpt>
      <trkpt lat="48.59492" lon="-4.53934">
        <ele>44</ele>
        <time>2026-05-17T13:19:14.449Z</time>
      </trkpt>
      <trkpt lat="48.59498" lon="-4.5393">
        <ele>43</ele>
        <time>2026-05-17T13:19:18.809Z</time>
      </trkpt>
      <trkpt lat="48.59504" lon="-4.53926">
        <ele>43</ele>
        <time>2026-05-17T13:19:23.382Z</time>
      </trkpt>
      <trkpt lat="48.59509" lon="-4.53921">
        <ele>43</ele>
        <time>2026-05-17T13:19:27.845Z</time>
      </trkpt>
      <trkpt lat="48.59515" lon="-4.53917">
        <ele>42</ele>
        <time>2026-05-17T13:19:32.460Z</time>
      </trkpt>
      <trkpt lat="48.5952" lon="-4.53916">
        <ele>42</ele>
        <time>2026-05-17T13:19:36.488Z</time>
      </trkpt>
      <trkpt lat="48.59525" lon="-4.53915">
        <ele>42</ele>
        <time>2026-05-17T13:19:40.841Z</time>
      </trkpt>
      <trkpt lat="48.5953" lon="-4.53913">
        <ele>42</ele>
        <time>2026-05-17T13:19:45.148Z</time>
      </trkpt>
      <trkpt lat="48.59536" lon="-4.5391">
        <ele>42</ele>
        <time>2026-05-17T13:19:49.509Z</time>
      </trkpt>
      <trkpt lat="48.59541" lon="-4.53908">
        <ele>42</ele>
        <time>2026-05-17T13:19:53.527Z</time>
      </trkpt>
      <trkpt lat="48.59546" lon="-4.53905">
        <ele>40</ele>
        <time>2026-05-17T13:19:57.849Z</time>
      </trkpt>
      <trkpt lat="48.59552" lon="-4.53901">
        <ele>40</ele>
        <time>2026-05-17T13:20:02.683Z</time>
      </trkpt>
      <trkpt lat="48.59557" lon="-4.53897">
        <ele>40</ele>
        <time>2026-05-17T13:20:06.843Z</time>
      </trkpt>
      <trkpt lat="48.59563" lon="-4.53896">
        <ele>40</ele>
        <time>2026-05-17T13:20:11.229Z</time>
      </trkpt>
      <trkpt lat="48.59568" lon="-4.53894">
        <ele>40</ele>
        <time>2026-05-17T13:20:15.263Z</time>
      </trkpt>
      <trkpt lat="48.59573" lon="-4.53891">
        <ele>36</ele>
        <time>2026-05-17T13:20:19.848Z</time>
      </trkpt>
      <trkpt lat="48.59578" lon="-4.53889">
        <ele>36</ele>
        <time>2026-05-17T13:20:24.249Z</time>
      </trkpt>
      <trkpt lat="48.59582" lon="-4.53887">
        <ele>36</ele>
        <time>2026-05-17T13:20:28.386Z</time>
      </trkpt>
      <trkpt lat="48.59586" lon="-4.53886">
        <ele>36</ele>
        <time>2026-05-17T13:20:32.687Z</time>
      </trkpt>
      <trkpt lat="48.5959" lon="-4.53889">
        <ele>36</ele>
        <time>2026-05-17T13:20:37.090Z</time>
      </trkpt>
      <trkpt lat="48.59593" lon="-4.53896">
        <ele>36</ele>
        <time>2026-05-17T13:20:41.587Z</time>
      </trkpt>
      <trkpt lat="48.59597" lon="-4.53903">
        <ele>37</ele>
        <time>2026-05-17T13:20:46.049Z</time>
      </trkpt>
      <trkpt lat="48.59601" lon="-4.539">
        <ele>27</ele>
        <time>2026-05-17T13:20:50.843Z</time>
      </trkpt>
      <trkpt lat="48.59604" lon="-4.53902">
        <ele>27</ele>
        <time>2026-05-17T13:20:54.948Z</time>
      </trkpt>
      <trkpt lat="48.59601" lon="-4.53904">
        <ele>28</ele>
        <time>2026-05-17T13:21:47.846Z</time>
      </trkpt>
      <trkpt lat="48.59601" lon="-4.53905">
        <ele>28</ele>
        <time>2026-05-17T13:21:51.844Z</time>
      </trkpt>
      <trkpt lat="48.59601" lon="-4.53908">
        <ele>28</ele>
        <time>2026-05-17T13:21:55.841Z</time>
      </trkpt>
      <trkpt lat="48.59603" lon="-4.53916">
        <ele>28</ele>
        <time>2026-05-17T13:22:00.844Z</time>
      </trkpt>
      <trkpt lat="48.59605" lon="-4.53923">
        <ele>28</ele>
        <time>2026-05-17T13:22:04.845Z</time>
      </trkpt>
      <trkpt lat="48.59607" lon="-4.53933">
        <ele>30</ele>
        <time>2026-05-17T13:22:09.841Z</time>
      </trkpt>
      <trkpt lat="48.59609" lon="-4.53942">
        <ele>30</ele>
        <time>2026-05-17T13:22:14.462Z</time>
      </trkpt>
      <trkpt lat="48.59611" lon="-4.5395">
        <ele>30</ele>
        <time>2026-05-17T13:22:18.841Z</time>
      </trkpt>
      <trkpt lat="48.59614" lon="-4.53958">
        <ele>30</ele>
        <time>2026-05-17T13:22:23.361Z</time>
      </trkpt>
      <trkpt lat="48.59616" lon="-4.53966">
        <ele>30</ele>
        <time>2026-05-17T13:22:27.845Z</time>
      </trkpt>
      <trkpt lat="48.59619" lon="-4.53974">
        <ele>30</ele>
        <time>2026-05-17T13:22:32.389Z</time>
      </trkpt>
      <trkpt lat="48.59621" lon="-4.53981">
        <ele>30</ele>
        <time>2026-05-17T13:22:36.845Z</time>
      </trkpt>
      <trkpt lat="48.59624" lon="-4.53988">
        <ele>32</ele>
        <time>2026-05-17T13:22:41.289Z</time>
      </trkpt>
      <trkpt lat="48.59627" lon="-4.53996">
        <ele>22</ele>
        <time>2026-05-17T13:22:45.769Z</time>
      </trkpt>
      <trkpt lat="48.59629" lon="-4.54004">
        <ele>22</ele>
        <time>2026-05-17T13:22:50.146Z</time>
      </trkpt>
      <trkpt lat="48.59632" lon="-4.5401">
        <ele>22</ele>
        <time>2026-05-17T13:22:54.583Z</time>
      </trkpt>
      <trkpt lat="48.59635" lon="-4.54018">
        <ele>25</ele>
        <time>2026-05-17T13:22:59.686Z</time>
      </trkpt>
      <trkpt lat="48.59638" lon="-4.54026">
        <ele>25</ele>
        <time>2026-05-17T13:23:04.149Z</time>
      </trkpt>
      <trkpt lat="48.59641" lon="-4.54033">
        <ele>25</ele>
        <time>2026-05-17T13:23:08.705Z</time>
      </trkpt>
      <trkpt lat="48.59644" lon="-4.54038">
        <ele>25</ele>
        <time>2026-05-17T13:23:12.767Z</time>
      </trkpt>
      <trkpt lat="48.59647" lon="-4.54043">
        <ele>28</ele>
        <time>2026-05-17T13:23:17.144Z</time>
      </trkpt>
      <trkpt lat="48.59652" lon="-4.54048">
        <ele>28</ele>
        <time>2026-05-17T13:23:21.606Z</time>
      </trkpt>
      <trkpt lat="48.59655" lon="-4.54055">
        <ele>16</ele>
        <time>2026-05-17T13:23:26.081Z</time>
      </trkpt>
      <trkpt lat="48.59658" lon="-4.54063">
        <ele>16</ele>
        <time>2026-05-17T13:23:30.582Z</time>
      </trkpt>
      <trkpt lat="48.59661" lon="-4.5407">
        <ele>19</ele>
        <time>2026-05-17T13:23:35.062Z</time>
      </trkpt>
      <trkpt lat="48.59664" lon="-4.54077">
        <ele>19</ele>
        <time>2026-05-17T13:23:39.687Z</time>
      </trkpt>
      <trkpt lat="48.59668" lon="-4.54083">
        <ele>19</ele>
        <time>2026-05-17T13:23:44.226Z</time>
      </trkpt>
      <trkpt lat="48.59672" lon="-4.5409">
        <ele>19</ele>
        <time>2026-05-17T13:23:48.649Z</time>
      </trkpt>
      <trkpt lat="48.59675" lon="-4.54097">
        <ele>19</ele>
        <time>2026-05-17T13:23:53.142Z</time>
      </trkpt>
      <trkpt lat="48.59679" lon="-4.54103">
        <ele>21</ele>
        <time>2026-05-17T13:23:57.486Z</time>
      </trkpt>
      <trkpt lat="48.59682" lon="-4.5411">
        <ele>11</ele>
        <time>2026-05-17T13:24:01.965Z</time>
      </trkpt>
      <trkpt lat="48.59686" lon="-4.54117">
        <ele>11</ele>
        <time>2026-05-17T13:24:06.445Z</time>
      </trkpt>
      <trkpt lat="48.59689" lon="-4.54124">
        <ele>11</ele>
        <time>2026-05-17T13:24:10.609Z</time>
      </trkpt>
      <trkpt lat="48.59692" lon="-4.54131">
        <ele>12</ele>
        <time>2026-05-17T13:24:15.122Z</time>
      </trkpt>
      <trkpt lat="48.59695" lon="-4.54137">
        <ele>12</ele>
        <time>2026-05-17T13:24:19.568Z</time>
      </trkpt>
      <trkpt lat="48.59698" lon="-4.54143">
        <ele>12</ele>
        <time>2026-05-17T13:24:24.021Z</time>
      </trkpt>
      <trkpt lat="48.59701" lon="-4.5415">
        <ele>12</ele>
        <time>2026-05-17T13:24:28.483Z</time>
      </trkpt>
      <trkpt lat="48.59705" lon="-4.54155">
        <ele>14</ele>
        <time>2026-05-17T13:24:32.528Z</time>
      </trkpt>
      <trkpt lat="48.59706" lon="-4.54163">
        <ele>14</ele>
        <time>2026-05-17T13:24:37.143Z</time>
      </trkpt>
      <trkpt lat="48.59709" lon="-4.54169">
        <ele>6</ele>
        <time>2026-05-17T13:24:41.307Z</time>
      </trkpt>
      <trkpt lat="48.59712" lon="-4.54174">
        <ele>6</ele>
        <time>2026-05-17T13:24:45.507Z</time>
      </trkpt>
      <trkpt lat="48.59714" lon="-4.54171">
        <ele>6</ele>
        <time>2026-05-17T13:24:49.842Z</time>
      </trkpt>
      <trkpt lat="48.59714" lon="-4.5417">
        <ele>6</ele>
        <time>2026-05-17T13:24:53.847Z</time>
      </trkpt>
      <trkpt lat="48.59715" lon="-4.54174">
        <ele>6</ele>
        <time>2026-05-17T13:24:58.346Z</time>
      </trkpt>
      <trkpt lat="48.59719" lon="-4.54181">
        <ele>10</ele>
        <time>2026-05-17T13:25:02.725Z</time>
      </trkpt>
      <trkpt lat="48.59725" lon="-4.54184">
        <ele>10</ele>
        <time>2026-05-17T13:25:07.111Z</time>
      </trkpt>
      <trkpt lat="48.59731" lon="-4.54187">
        <ele>10</ele>
        <time>2026-05-17T13:25:11.429Z</time>
      </trkpt>
      <trkpt lat="48.59737" lon="-4.54189">
        <ele>8.2</ele>
        <time>2026-05-17T13:25:15.841Z</time>
      </trkpt>
      <trkpt lat="48.59743" lon="-4.54191">
        <ele>7.6</ele>
        <time>2026-05-17T13:25:20.206Z</time>
      </trkpt>
      <trkpt lat="48.59748" lon="-4.54194">
        <ele>7.1</ele>
        <time>2026-05-17T13:25:24.489Z</time>
      </trkpt>
      <trkpt lat="48.59754" lon="-4.54196">
        <ele>6.8</ele>
        <time>2026-05-17T13:25:29.029Z</time>
      </trkpt>
      <trkpt lat="48.59758" lon="-4.54199">
        <ele>6.6</ele>
        <time>2026-05-17T13:25:33.602Z</time>
      </trkpt>
      <trkpt lat="48.59763" lon="-4.54203">
        <ele>6.5</ele>
        <time>2026-05-17T13:25:38.124Z</time>
      </trkpt>
      <trkpt lat="48.59767" lon="-4.54209">
        <ele>5</ele>
        <time>2026-05-17T13:25:42.705Z</time>
      </trkpt>
      <trkpt lat="48.5977" lon="-4.54213">
        <ele>5</ele>
        <time>2026-05-17T13:25:46.767Z</time>
      </trkpt>
      <trkpt lat="48.59773" lon="-4.54216">
        <ele>5</ele>
        <time>2026-05-17T13:25:50.844Z</time>
      </trkpt>
      <trkpt lat="48.59773" lon="-4.54225">
        <ele>5</ele>
        <time>2026-05-17T13:25:55.649Z</time>
      </trkpt>
      <trkpt lat="48.59771" lon="-4.54232">
        <ele>5</ele>
        <time>2026-05-17T13:26:00.043Z</time>
      </trkpt>
      <trkpt lat="48.59765" lon="-4.54243">
        <ele>6</ele>
        <time>2026-05-17T13:26:30.848Z</time>
      </trkpt>
      <trkpt lat="48.59765" lon="-4.54243">
        <ele>6</ele>
        <time>2026-05-17T13:26:37.839Z</time>
      </trkpt>
      <trkpt lat="48.59765" lon="-4.54243">
        <ele>6</ele>
        <time>2026-05-17T13:26:41.840Z</time>
      </trkpt>
      <trkpt lat="48.59765" lon="-4.54243">
        <ele>6</ele>
        <time>2026-05-17T13:26:45.843Z</time>
      </trkpt>
      <trkpt lat="48.59762" lon="-4.5425">
        <ele>11</ele>
        <time>2026-05-17T13:26:49.853Z</time>
      </trkpt>
      <trkpt lat="48.59759" lon="-4.54257">
        <ele>11</ele>
        <time>2026-05-17T13:26:54.128Z</time>
      </trkpt>
      <trkpt lat="48.59757" lon="-4.54264">
        <ele>11</ele>
        <time>2026-05-17T13:26:58.404Z</time>
      </trkpt>
      <trkpt lat="48.59754" lon="-4.54271">
        <ele>11</ele>
        <time>2026-05-17T13:27:02.843Z</time>
      </trkpt>
      <trkpt lat="48.59749" lon="-4.54278">
        <ele>11</ele>
        <time>2026-05-17T13:27:07.841Z</time>
      </trkpt>
      <trkpt lat="48.59746" lon="-4.54284">
        <ele>11</ele>
        <time>2026-05-17T13:27:12.421Z</time>
      </trkpt>
      <trkpt lat="48.59743" lon="-4.54291">
        <ele>11</ele>
        <time>2026-05-17T13:27:16.782Z</time>
      </trkpt>
      <trkpt lat="48.5974" lon="-4.54299">
        <ele>11</ele>
        <time>2026-05-17T13:27:21.023Z</time>
      </trkpt>
      <trkpt lat="48.59738" lon="-4.54307">
        <ele>11</ele>
        <time>2026-05-17T13:27:25.324Z</time>
      </trkpt>
      <trkpt lat="48.59735" lon="-4.54314">
        <ele>18</ele>
        <time>2026-05-17T13:27:29.847Z</time>
      </trkpt>
      <trkpt lat="48.59732" lon="-4.54321">
        <ele>16</ele>
        <time>2026-05-17T13:27:33.924Z</time>
      </trkpt>
      <trkpt lat="48.59729" lon="-4.54329">
        <ele>16</ele>
        <time>2026-05-17T13:27:38.344Z</time>
      </trkpt>
      <trkpt lat="48.59729" lon="-4.54337">
        <ele>16</ele>
        <time>2026-05-17T13:27:42.849Z</time>
      </trkpt>
      <trkpt lat="48.59728" lon="-4.54347">
        <ele>16</ele>
        <time>2026-05-17T13:27:51.847Z</time>
      </trkpt>
      <trkpt lat="48.59726" lon="-4.54346">
        <ele>16</ele>
        <time>2026-05-17T13:27:56.851Z</time>
      </trkpt>
      <trkpt lat="48.59726" lon="-4.54347">
        <ele>16</ele>
        <time>2026-05-17T13:28:01.526Z</time>
      </trkpt>
      <trkpt lat="48.59727" lon="-4.54355">
        <ele>14</ele>
        <time>2026-05-17T13:28:05.588Z</time>
      </trkpt>
      <trkpt lat="48.59728" lon="-4.54363">
        <ele>14</ele>
        <time>2026-05-17T13:28:09.743Z</time>
      </trkpt>
      <trkpt lat="48.59728" lon="-4.54372">
        <ele>14</ele>
        <time>2026-05-17T13:28:14.104Z</time>
      </trkpt>
      <trkpt lat="48.59728" lon="-4.54382">
        <ele>13</ele>
        <time>2026-05-17T13:28:18.823Z</time>
      </trkpt>
      <trkpt lat="48.59728" lon="-4.54385">
        <ele>13</ele>
        <time>2026-05-17T13:28:20.545Z</time>
      </trkpt>
      <trkpt lat="48.59731" lon="-4.54404">
        <ele>11</ele>
        <time>2026-05-17T13:28:29.847Z</time>
      </trkpt>
      <trkpt lat="48.59735" lon="-4.54409">
        <ele>11</ele>
        <time>2026-05-17T13:28:34.144Z</time>
      </trkpt>
      <trkpt lat="48.5974" lon="-4.54414">
        <ele>11</ele>
        <time>2026-05-17T13:28:38.389Z</time>
      </trkpt>
      <trkpt lat="48.59745" lon="-4.54419">
        <ele>11</ele>
        <time>2026-05-17T13:28:42.726Z</time>
      </trkpt>
      <trkpt lat="48.59749" lon="-4.54424">
        <ele>11</ele>
        <time>2026-05-17T13:28:47.153Z</time>
      </trkpt>
      <trkpt lat="48.59751" lon="-4.54432">
        <ele>10</ele>
        <time>2026-05-17T13:28:51.632Z</time>
      </trkpt>
      <trkpt lat="48.59753" lon="-4.54434">
        <ele>10</ele>
        <time>2026-05-17T13:28:55.744Z</time>
      </trkpt>
      <trkpt lat="48.59754" lon="-4.54439">
        <ele>10</ele>
        <time>2026-05-17T13:29:00.403Z</time>
      </trkpt>
      <trkpt lat="48.59753" lon="-4.54448">
        <ele>10</ele>
        <time>2026-05-17T13:29:04.845Z</time>
      </trkpt>
      <trkpt lat="48.59751" lon="-4.54455">
        <ele>10</ele>
        <time>2026-05-17T13:29:09.845Z</time>
      </trkpt>
      <trkpt lat="48.59749" lon="-4.54461">
        <ele>7</ele>
        <time>2026-05-17T13:29:14.842Z</time>
      </trkpt>
      <trkpt lat="48.59748" lon="-4.54461">
        <ele>7</ele>
        <time>2026-05-17T13:29:19.455Z</time>
      </trkpt>
      <trkpt lat="48.59748" lon="-4.54468">
        <ele>7</ele>
        <time>2026-05-17T13:29:23.505Z</time>
      </trkpt>
      <trkpt lat="48.59747" lon="-4.54478">
        <ele>7</ele>
        <time>2026-05-17T13:29:28.046Z</time>
      </trkpt>
      <trkpt lat="48.59747" lon="-4.54485">
        <ele>7</ele>
        <time>2026-05-17T13:29:32.185Z</time>
      </trkpt>
      <trkpt lat="48.59746" lon="-4.54492">
        <ele>5</ele>
        <time>2026-05-17T13:29:36.383Z</time>
      </trkpt>
      <trkpt lat="48.59745" lon="-4.54497">
        <ele>5</ele>
        <time>2026-05-17T13:29:40.848Z</time>
      </trkpt>
      <trkpt lat="48.59742" lon="-4.54498">
        <ele>5</ele>
        <time>2026-05-17T13:30:07.245Z</time>
      </trkpt>
      <trkpt lat="48.59745" lon="-4.545">
        <ele>5</ele>
        <time>2026-05-17T13:30:11.309Z</time>
      </trkpt>
      <trkpt lat="48.59745" lon="-4.54506">
        <ele>5</ele>
        <time>2026-05-17T13:30:15.406Z</time>
      </trkpt>
      <trkpt lat="48.59741" lon="-4.5452">
        <ele>4</ele>
        <time>2026-05-17T13:30:23.702Z</time>
      </trkpt>
      <trkpt lat="48.5974" lon="-4.54529">
        <ele>4</ele>
        <time>2026-05-17T13:30:27.969Z</time>
      </trkpt>
      <trkpt lat="48.59738" lon="-4.54538">
        <ele>4</ele>
        <time>2026-05-17T13:30:32.466Z</time>
      </trkpt>
      <trkpt lat="48.59736" lon="-4.54545">
        <ele>3</ele>
        <time>2026-05-17T13:30:36.562Z</time>
      </trkpt>
      <trkpt lat="48.59734" lon="-4.54551">
        <ele>7</ele>
        <time>2026-05-17T13:30:40.687Z</time>
      </trkpt>
      <trkpt lat="48.59732" lon="-4.54557">
        <ele>7</ele>
        <time>2026-05-17T13:30:44.748Z</time>
      </trkpt>
      <trkpt lat="48.59731" lon="-4.54563">
        <ele>7</ele>
        <time>2026-05-17T13:30:48.843Z</time>
      </trkpt>
      <trkpt lat="48.5973" lon="-4.5457">
        <ele>7</ele>
        <time>2026-05-17T13:30:53.066Z</time>
      </trkpt>
      <trkpt lat="48.5973" lon="-4.54576">
        <ele>7</ele>
        <time>2026-05-17T13:30:57.283Z</time>
      </trkpt>
      <trkpt lat="48.5973" lon="-4.54584">
        <ele>7</ele>
        <time>2026-05-17T13:31:01.447Z</time>
      </trkpt>
      <trkpt lat="48.59731" lon="-4.54591">
        <ele>7</ele>
        <time>2026-05-17T13:31:05.723Z</time>
      </trkpt>
      <trkpt lat="48.59731" lon="-4.54598">
        <ele>5</ele>
        <time>2026-05-17T13:31:09.882Z</time>
      </trkpt>
      <trkpt lat="48.59731" lon="-4.54599">
        <ele>5</ele>
        <time>2026-05-17T13:31:10.581Z</time>
      </trkpt>
      <trkpt lat="48.5973" lon="-4.54613">
        <ele>5</ele>
        <time>2026-05-17T13:31:19.589Z</time>
      </trkpt>
      <trkpt lat="48.59728" lon="-4.54619">
        <ele>5</ele>
        <time>2026-05-17T13:31:23.702Z</time>
      </trkpt>
      <trkpt lat="48.59726" lon="-4.54624">
        <ele>5</ele>
        <time>2026-05-17T13:31:27.747Z</time>
      </trkpt>
      <trkpt lat="48.59729" lon="-4.54632">
        <ele>5</ele>
        <time>2026-05-17T13:31:31.809Z</time>
      </trkpt>
      <trkpt lat="48.59729" lon="-4.54641">
        <ele>5</ele>
        <time>2026-05-17T13:31:36.028Z</time>
      </trkpt>
      <trkpt lat="48.59729" lon="-4.5465">
        <ele>5</ele>
        <time>2026-05-17T13:31:40.842Z</time>
      </trkpt>
      <trkpt lat="48.59727" lon="-4.54658">
        <ele>4</ele>
        <time>2026-05-17T13:31:44.968Z</time>
      </trkpt>
      <trkpt lat="48.59728" lon="-4.54667">
        <ele>4</ele>
        <time>2026-05-17T13:31:49.406Z</time>
      </trkpt>
      <trkpt lat="48.59731" lon="-4.54668">
        <ele>4</ele>
        <time>2026-05-17T13:31:53.605Z</time>
      </trkpt>
      <trkpt lat="48.59734" lon="-4.54676">
        <ele>4</ele>
        <time>2026-05-17T13:31:58.043Z</time>
      </trkpt>
      <trkpt lat="48.59735" lon="-4.54685">
        <ele>4</ele>
        <time>2026-05-17T13:32:02.844Z</time>
      </trkpt>
      <trkpt lat="48.59736" lon="-4.54695">
        <ele>3</ele>
        <time>2026-05-17T13:32:07.701Z</time>
      </trkpt>
      <trkpt lat="48.59737" lon="-4.54703">
        <ele>3</ele>
        <time>2026-05-17T13:32:12.095Z</time>
      </trkpt>
      <trkpt lat="48.59736" lon="-4.54712">
        <ele>3</ele>
        <time>2026-05-17T13:32:16.509Z</time>
      </trkpt>
      <trkpt lat="48.59738" lon="-4.5472">
        <ele>3</ele>
        <time>2026-05-17T13:32:21.023Z</time>
      </trkpt>
      <trkpt lat="48.59738" lon="-4.54728">
        <ele>3</ele>
        <time>2026-05-17T13:32:25.206Z</time>
      </trkpt>
      <trkpt lat="48.59739" lon="-4.54736">
        <ele>3</ele>
        <time>2026-05-17T13:32:29.308Z</time>
      </trkpt>
      <trkpt lat="48.59739" lon="-4.54745">
        <ele>3</ele>
        <time>2026-05-17T13:32:33.848Z</time>
      </trkpt>
      <trkpt lat="48.59738" lon="-4.54755">
        <ele>3</ele>
        <time>2026-05-17T13:32:38.487Z</time>
      </trkpt>
      <trkpt lat="48.59738" lon="-4.54764">
        <ele>3</ele>
        <time>2026-05-17T13:32:42.841Z</time>
      </trkpt>
      <trkpt lat="48.59739" lon="-4.54773">
        <ele>3</ele>
        <time>2026-05-17T13:32:47.122Z</time>
      </trkpt>
      <trkpt lat="48.5974" lon="-4.54782">
        <ele>3</ele>
        <time>2026-05-17T13:32:51.840Z</time>
      </trkpt>
      <trkpt lat="48.59741" lon="-4.54789">
        <ele>3</ele>
        <time>2026-05-17T13:32:56.110Z</time>
      </trkpt>
      <trkpt lat="48.59742" lon="-4.54797">
        <ele>3</ele>
        <time>2026-05-17T13:33:00.475Z</time>
      </trkpt>
      <trkpt lat="48.59742" lon="-4.54806">
        <ele>3</ele>
        <time>2026-05-17T13:33:04.842Z</time>
      </trkpt>
      <trkpt lat="48.59741" lon="-4.54814">
        <ele>3</ele>
        <time>2026-05-17T13:33:08.844Z</time>
      </trkpt>
      <trkpt lat="48.59739" lon="-4.54822">
        <ele>3</ele>
        <time>2026-05-17T13:33:13.404Z</time>
      </trkpt>
      <trkpt lat="48.59736" lon="-4.5483">
        <ele>3</ele>
        <time>2026-05-17T13:33:17.846Z</time>
      </trkpt>
      <trkpt lat="48.59732" lon="-4.54834">
        <ele>6</ele>
        <time>2026-05-17T13:33:22.422Z</time>
      </trkpt>
      <trkpt lat="48.59727" lon="-4.54837">
        <ele>6</ele>
        <time>2026-05-17T13:33:26.848Z</time>
      </trkpt>
      <trkpt lat="48.59722" lon="-4.54835">
        <ele>6</ele>
        <time>2026-05-17T13:33:31.314Z</time>
      </trkpt>
      <trkpt lat="48.59715" lon="-4.54832">
        <ele>6</ele>
        <time>2026-05-17T13:33:35.938Z</time>
      </trkpt>
      <trkpt lat="48.59711" lon="-4.5483">
        <ele>6</ele>
        <time>2026-05-17T13:33:40.017Z</time>
      </trkpt>
      <trkpt lat="48.59706" lon="-4.54827">
        <ele>9</ele>
        <time>2026-05-17T13:33:44.258Z</time>
      </trkpt>
      <trkpt lat="48.59701" lon="-4.54822">
        <ele>9</ele>
        <time>2026-05-17T13:33:48.536Z</time>
      </trkpt>
      <trkpt lat="48.59696" lon="-4.5482">
        <ele>9</ele>
        <time>2026-05-17T13:33:53.137Z</time>
      </trkpt>
      <trkpt lat="48.59691" lon="-4.54821">
        <ele>9</ele>
        <time>2026-05-17T13:33:57.523Z</time>
      </trkpt>
      <trkpt lat="48.59687" lon="-4.5482">
        <ele>9</ele>
        <time>2026-05-17T13:34:02.660Z</time>
      </trkpt>
      <trkpt lat="48.59682" lon="-4.54821">
        <ele>9</ele>
        <time>2026-05-17T13:34:07.319Z</time>
      </trkpt>
      <trkpt lat="48.59678" lon="-4.54821">
        <ele>16</ele>
        <time>2026-05-17T13:34:11.602Z</time>
      </trkpt>
      <trkpt lat="48.59674" lon="-4.54822">
        <ele>16</ele>
        <time>2026-05-17T13:34:15.725Z</time>
      </trkpt>
      <trkpt lat="48.5967" lon="-4.54823">
        <ele>16</ele>
        <time>2026-05-17T13:34:19.980Z</time>
      </trkpt>
      <trkpt lat="48.59666" lon="-4.54826">
        <ele>16</ele>
        <time>2026-05-17T13:34:24.462Z</time>
      </trkpt>
      <trkpt lat="48.59662" lon="-4.54829">
        <ele>16</ele>
        <time>2026-05-17T13:34:28.675Z</time>
      </trkpt>
      <trkpt lat="48.59658" lon="-4.54833">
        <ele>16</ele>
        <time>2026-05-17T13:34:33.214Z</time>
      </trkpt>
      <trkpt lat="48.59654" lon="-4.54835">
        <ele>16</ele>
        <time>2026-05-17T13:34:37.843Z</time>
      </trkpt>
      <trkpt lat="48.5965" lon="-4.54836">
        <ele>24</ele>
        <time>2026-05-17T13:34:42.541Z</time>
      </trkpt>
      <trkpt lat="48.59647" lon="-4.54837">
        <ele>24</ele>
        <time>2026-05-17T13:34:46.843Z</time>
      </trkpt>
      <trkpt lat="48.59643" lon="-4.54838">
        <ele>24</ele>
        <time>2026-05-17T13:34:51.203Z</time>
      </trkpt>
      <trkpt lat="48.59641" lon="-4.5484">
        <ele>24</ele>
        <time>2026-05-17T13:34:55.340Z</time>
      </trkpt>
      <trkpt lat="48.59637" lon="-4.54841">
        <ele>24</ele>
        <time>2026-05-17T13:34:59.599Z</time>
      </trkpt>
      <trkpt lat="48.59633" lon="-4.54843">
        <ele>24</ele>
        <time>2026-05-17T13:35:03.844Z</time>
      </trkpt>
      <trkpt lat="48.59629" lon="-4.54843">
        <ele>24</ele>
        <time>2026-05-17T13:35:08.842Z</time>
      </trkpt>
      <trkpt lat="48.59617" lon="-4.54847">
        <ele>26</ele>
        <time>2026-05-17T13:35:22.842Z</time>
      </trkpt>
      <trkpt lat="48.59617" lon="-4.54848">
        <ele>26</ele>
        <time>2026-05-17T13:35:31.840Z</time>
      </trkpt>
      <trkpt lat="48.59617" lon="-4.54848">
        <ele>26</ele>
        <time>2026-05-17T13:35:40.843Z</time>
      </trkpt>
      <trkpt lat="48.59616" lon="-4.54848">
        <ele>26</ele>
        <time>2026-05-17T13:35:45.181Z</time>
      </trkpt>
      <trkpt lat="48.59611" lon="-4.54848">
        <ele>26</ele>
        <time>2026-05-17T13:35:49.244Z</time>
      </trkpt>
      <trkpt lat="48.59604" lon="-4.5485">
        <ele>26</ele>
        <time>2026-05-17T13:35:57.841Z</time>
      </trkpt>
      <trkpt lat="48.59603" lon="-4.5485">
        <ele>26</ele>
        <time>2026-05-17T13:36:02.043Z</time>
      </trkpt>
      <trkpt lat="48.59604" lon="-4.54852">
        <ele>26</ele>
        <time>2026-05-17T13:36:06.838Z</time>
      </trkpt>
      <trkpt lat="48.59602" lon="-4.54853">
        <ele>26</ele>
        <time>2026-05-17T13:36:11.375Z</time>
      </trkpt>
      <trkpt lat="48.596" lon="-4.54859">
        <ele>26</ele>
        <time>2026-05-17T13:36:15.734Z</time>
      </trkpt>
      <trkpt lat="48.59597" lon="-4.54865">
        <ele>28</ele>
        <time>2026-05-17T13:36:19.842Z</time>
      </trkpt>
      <trkpt lat="48.59594" lon="-4.5487">
        <ele>28</ele>
        <time>2026-05-17T13:36:24.159Z</time>
      </trkpt>
      <trkpt lat="48.59591" lon="-4.54874">
        <ele>28</ele>
        <time>2026-05-17T13:36:28.220Z</time>
      </trkpt>
      <trkpt lat="48.59589" lon="-4.54881">
        <ele>25</ele>
        <time>2026-05-17T13:36:32.639Z</time>
      </trkpt>
      <trkpt lat="48.59586" lon="-4.54888">
        <ele>25</ele>
        <time>2026-05-17T13:36:37.087Z</time>
      </trkpt>
      <trkpt lat="48.59585" lon="-4.54896">
        <ele>25</ele>
        <time>2026-05-17T13:36:41.317Z</time>
      </trkpt>
      <trkpt lat="48.59582" lon="-4.54904">
        <ele>23</ele>
        <time>2026-05-17T13:36:45.780Z</time>
      </trkpt>
      <trkpt lat="48.5958" lon="-4.54911">
        <ele>23</ele>
        <time>2026-05-17T13:36:50.097Z</time>
      </trkpt>
      <trkpt lat="48.59579" lon="-4.54919">
        <ele>23</ele>
        <time>2026-05-17T13:36:54.218Z</time>
      </trkpt>
      <trkpt lat="48.59578" lon="-4.54928">
        <ele>23</ele>
        <time>2026-05-17T13:36:58.697Z</time>
      </trkpt>
      <trkpt lat="48.59577" lon="-4.54937">
        <ele>20</ele>
        <time>2026-05-17T13:37:03.097Z</time>
      </trkpt>
      <trkpt lat="48.59579" lon="-4.54945">
        <ele>20</ele>
        <time>2026-05-17T13:37:07.555Z</time>
      </trkpt>
      <trkpt lat="48.59582" lon="-4.54955">
        <ele>20</ele>
        <time>2026-05-17T13:38:19.842Z</time>
      </trkpt>
      <trkpt lat="48.59582" lon="-4.54955">
        <ele>20</ele>
        <time>2026-05-17T13:38:23.844Z</time>
      </trkpt>
      <trkpt lat="48.59582" lon="-4.54955">
        <ele>20</ele>
        <time>2026-05-17T13:38:28.378Z</time>
      </trkpt>
      <trkpt lat="48.59581" lon="-4.54965">
        <ele>18</ele>
        <time>2026-05-17T13:38:32.763Z</time>
      </trkpt>
      <trkpt lat="48.59585" lon="-4.54974">
        <ele>18</ele>
        <time>2026-05-17T13:38:37.169Z</time>
      </trkpt>
      <trkpt lat="48.59586" lon="-4.54981">
        <ele>18</ele>
        <time>2026-05-17T13:38:41.379Z</time>
      </trkpt>
      <trkpt lat="48.59587" lon="-4.54987">
        <ele>17</ele>
        <time>2026-05-17T13:38:45.841Z</time>
      </trkpt>
      <trkpt lat="48.5959" lon="-4.54994">
        <ele>17</ele>
        <time>2026-05-17T13:38:50.039Z</time>
      </trkpt>
      <trkpt lat="48.59593" lon="-4.55001">
        <ele>17</ele>
        <time>2026-05-17T13:38:54.383Z</time>
      </trkpt>
      <trkpt lat="48.59597" lon="-4.55007">
        <ele>17</ele>
        <time>2026-05-17T13:38:58.836Z</time>
      </trkpt>
      <trkpt lat="48.596" lon="-4.55014">
        <ele>11</ele>
        <time>2026-05-17T13:39:03.119Z</time>
      </trkpt>
      <trkpt lat="48.59603" lon="-4.55021">
        <ele>11</ele>
        <time>2026-05-17T13:39:07.480Z</time>
      </trkpt>
      <trkpt lat="48.59606" lon="-4.55027">
        <ele>11</ele>
        <time>2026-05-17T13:39:11.839Z</time>
      </trkpt>
      <trkpt lat="48.5961" lon="-4.55035">
        <ele>11</ele>
        <time>2026-05-17T13:39:16.421Z</time>
      </trkpt>
      <trkpt lat="48.59612" lon="-4.55043">
        <ele>9</ele>
        <time>2026-05-17T13:39:20.843Z</time>
      </trkpt>
      <trkpt lat="48.59613" lon="-4.55052">
        <ele>9</ele>
        <time>2026-05-17T13:39:25.202Z</time>
      </trkpt>
      <trkpt lat="48.59612" lon="-4.55062">
        <ele>9</ele>
        <time>2026-05-17T13:39:29.562Z</time>
      </trkpt>
      <trkpt lat="48.5961" lon="-4.55071">
        <ele>8</ele>
        <time>2026-05-17T13:39:33.836Z</time>
      </trkpt>
      <trkpt lat="48.59609" lon="-4.5508">
        <ele>8</ele>
        <time>2026-05-17T13:39:38.444Z</time>
      </trkpt>
      <trkpt lat="48.59608" lon="-4.55088">
        <ele>8</ele>
        <time>2026-05-17T13:39:42.843Z</time>
      </trkpt>
      <trkpt lat="48.59607" lon="-4.55098">
        <ele>6</ele>
        <time>2026-05-17T13:39:47.700Z</time>
      </trkpt>
      <trkpt lat="48.59606" lon="-4.55108">
        <ele>6</ele>
        <time>2026-05-17T13:39:52.084Z</time>
      </trkpt>
      <trkpt lat="48.59605" lon="-4.55117">
        <ele>6</ele>
        <time>2026-05-17T13:39:56.181Z</time>
      </trkpt>
      <trkpt lat="48.59604" lon="-4.55126">
        <ele>4</ele>
        <time>2026-05-17T13:40:00.559Z</time>
      </trkpt>
      <trkpt lat="48.59603" lon="-4.55135">
        <ele>4</ele>
        <time>2026-05-17T13:40:04.902Z</time>
      </trkpt>
      <trkpt lat="48.59601" lon="-4.55144">
        <ele>4</ele>
        <time>2026-05-17T13:40:09.843Z</time>
      </trkpt>
      <trkpt lat="48.596" lon="-4.55152">
        <ele>4</ele>
        <time>2026-05-17T13:40:14.399Z</time>
      </trkpt>
      <trkpt lat="48.59598" lon="-4.5516">
        <ele>1</ele>
        <time>2026-05-17T13:40:18.845Z</time>
      </trkpt>
      <trkpt lat="48.59597" lon="-4.55167">
        <ele>8</ele>
        <time>2026-05-17T13:40:22.844Z</time>
      </trkpt>
      <trkpt lat="48.59596" lon="-4.55176">
        <ele>8</ele>
        <time>2026-05-17T13:40:27.437Z</time>
      </trkpt>
      <trkpt lat="48.59594" lon="-4.55185">
        <ele>5</ele>
        <time>2026-05-17T13:40:31.822Z</time>
      </trkpt>
      <trkpt lat="48.59592" lon="-4.55191">
        <ele>5</ele>
        <time>2026-05-17T13:40:35.845Z</time>
      </trkpt>
      <trkpt lat="48.59591" lon="-4.552">
        <ele>5</ele>
        <time>2026-05-17T13:40:40.660Z</time>
      </trkpt>
      <trkpt lat="48.5959" lon="-4.55209">
        <ele>3</ele>
        <time>2026-05-17T13:40:45.063Z</time>
      </trkpt>
      <trkpt lat="48.59588" lon="-4.55218">
        <ele>3</ele>
        <time>2026-05-17T13:40:49.695Z</time>
      </trkpt>
      <trkpt lat="48.59587" lon="-4.55225">
        <ele>3</ele>
        <time>2026-05-17T13:40:53.843Z</time>
      </trkpt>
      <trkpt lat="48.59585" lon="-4.55234">
        <ele>3</ele>
        <time>2026-05-17T13:40:58.323Z</time>
      </trkpt>
      <trkpt lat="48.59583" lon="-4.55242">
        <ele>3</ele>
        <time>2026-05-17T13:41:02.742Z</time>
      </trkpt>
      <trkpt lat="48.59581" lon="-4.55249">
        <ele>3</ele>
        <time>2026-05-17T13:41:07.041Z</time>
      </trkpt>
      <trkpt lat="48.5958" lon="-4.55258">
        <ele>3</ele>
        <time>2026-05-17T13:41:11.361Z</time>
      </trkpt>
      <trkpt lat="48.59579" lon="-4.55267">
        <ele>3</ele>
        <time>2026-05-17T13:41:15.737Z</time>
      </trkpt>
      <trkpt lat="48.59578" lon="-4.55276">
        <ele>3</ele>
        <time>2026-05-17T13:41:20.200Z</time>
      </trkpt>
      <trkpt lat="48.59576" lon="-4.55284">
        <ele>3</ele>
        <time>2026-05-17T13:41:24.842Z</time>
      </trkpt>
      <trkpt lat="48.59576" lon="-4.55292">
        <ele>1</ele>
        <time>2026-05-17T13:41:29.038Z</time>
      </trkpt>
      <trkpt lat="48.59573" lon="-4.553">
        <ele>1</ele>
        <time>2026-05-17T13:41:33.338Z</time>
      </trkpt>
      <trkpt lat="48.59572" lon="-4.55308">
        <ele>1</ele>
        <time>2026-05-17T13:41:37.682Z</time>
      </trkpt>
      <trkpt lat="48.5957" lon="-4.55316">
        <ele>1</ele>
        <time>2026-05-17T13:41:42.059Z</time>
      </trkpt>
      <trkpt lat="48.59568" lon="-4.55325">
        <ele>10</ele>
        <time>2026-05-17T13:41:46.417Z</time>
      </trkpt>
      <trkpt lat="48.59568" lon="-4.55334">
        <ele>10</ele>
        <time>2026-05-17T13:41:50.761Z</time>
      </trkpt>
      <trkpt lat="48.59567" lon="-4.55343">
        <ele>10</ele>
        <time>2026-05-17T13:41:54.845Z</time>
      </trkpt>
      <trkpt lat="48.59566" lon="-4.55352">
        <ele>10</ele>
        <time>2026-05-17T13:41:59.617Z</time>
      </trkpt>
      <trkpt lat="48.59564" lon="-4.5536">
        <ele>10</ele>
        <time>2026-05-17T13:42:03.844Z</time>
      </trkpt>
      <trkpt lat="48.59563" lon="-4.55369">
        <ele>10</ele>
        <time>2026-05-17T13:42:08.260Z</time>
      </trkpt>
      <trkpt lat="48.59556" lon="-4.55384">
        <ele>9</ele>
        <time>2026-05-17T13:42:28.574Z</time>
      </trkpt>
      <trkpt lat="48.59557" lon="-4.55393">
        <ele>9</ele>
        <time>2026-05-17T13:42:32.842Z</time>
      </trkpt>
      <trkpt lat="48.59555" lon="-4.55402">
        <ele>9</ele>
        <time>2026-05-17T13:42:37.380Z</time>
      </trkpt>
      <trkpt lat="48.59553" lon="-4.5541">
        <ele>8</ele>
        <time>2026-05-17T13:42:41.655Z</time>
      </trkpt>
      <trkpt lat="48.59551" lon="-4.55417">
        <ele>8</ele>
        <time>2026-05-17T13:42:45.717Z</time>
      </trkpt>
      <trkpt lat="48.59551" lon="-4.55421">
        <ele>8</ele>
        <time>2026-05-17T13:42:58.844Z</time>
      </trkpt>
      <trkpt lat="48.59548" lon="-4.55427">
        <ele>8</ele>
        <time>2026-05-17T13:43:03.182Z</time>
      </trkpt>
      <trkpt lat="48.59546" lon="-4.55435">
        <ele>7</ele>
        <time>2026-05-17T13:43:07.602Z</time>
      </trkpt>
      <trkpt lat="48.59545" lon="-4.55444">
        <ele>7</ele>
        <time>2026-05-17T13:43:12.039Z</time>
      </trkpt>
      <trkpt lat="48.59543" lon="-4.55452">
        <ele>7</ele>
        <time>2026-05-17T13:43:16.621Z</time>
      </trkpt>
      <trkpt lat="48.59543" lon="-4.5546">
        <ele>7</ele>
        <time>2026-05-17T13:43:20.716Z</time>
      </trkpt>
      <trkpt lat="48.59541" lon="-4.55467">
        <ele>15</ele>
        <time>2026-05-17T13:43:24.684Z</time>
      </trkpt>
      <trkpt lat="48.5954" lon="-4.55474">
        <ele>15</ele>
        <time>2026-05-17T13:43:28.822Z</time>
      </trkpt>
      <trkpt lat="48.59539" lon="-4.55482">
        <ele>15</ele>
        <time>2026-05-17T13:43:33.243Z</time>
      </trkpt>
      <trkpt lat="48.59538" lon="-4.55489">
        <ele>17</ele>
        <time>2026-05-17T13:43:37.320Z</time>
      </trkpt>
      <trkpt lat="48.59536" lon="-4.55497">
        <ele>17</ele>
        <time>2026-05-17T13:43:41.816Z</time>
      </trkpt>
      <trkpt lat="48.59535" lon="-4.55505">
        <ele>17</ele>
        <time>2026-05-17T13:43:46.417Z</time>
      </trkpt>
      <trkpt lat="48.59534" lon="-4.55512">
        <ele>17</ele>
        <time>2026-05-17T13:43:50.501Z</time>
      </trkpt>
      <trkpt lat="48.59533" lon="-4.5552">
        <ele>16</ele>
        <time>2026-05-17T13:43:55.042Z</time>
      </trkpt>
      <trkpt lat="48.59532" lon="-4.55528">
        <ele>16</ele>
        <time>2026-05-17T13:43:59.256Z</time>
      </trkpt>
      <trkpt lat="48.5953" lon="-4.55536">
        <ele>16</ele>
        <time>2026-05-17T13:44:03.643Z</time>
      </trkpt>
      <trkpt lat="48.59529" lon="-4.55543">
        <ele>12</ele>
        <time>2026-05-17T13:44:08.123Z</time>
      </trkpt>
      <trkpt lat="48.59529" lon="-4.55552">
        <ele>12</ele>
        <time>2026-05-17T13:44:12.363Z</time>
      </trkpt>
      <trkpt lat="48.59526" lon="-4.55559">
        <ele>12</ele>
        <time>2026-05-17T13:44:16.638Z</time>
      </trkpt>
      <trkpt lat="48.59522" lon="-4.55566">
        <ele>12</ele>
        <time>2026-05-17T13:44:20.937Z</time>
      </trkpt>
      <trkpt lat="48.59518" lon="-4.55572">
        <ele>6</ele>
        <time>2026-05-17T13:44:25.143Z</time>
      </trkpt>
      <trkpt lat="48.59514" lon="-4.55577">
        <ele>9</ele>
        <time>2026-05-17T13:44:29.419Z</time>
      </trkpt>
      <trkpt lat="48.59509" lon="-4.55582">
        <ele>9</ele>
        <time>2026-05-17T13:44:33.701Z</time>
      </trkpt>
      <trkpt lat="48.59504" lon="-4.55586">
        <ele>9</ele>
        <time>2026-05-17T13:44:38.020Z</time>
      </trkpt>
      <trkpt lat="48.59498" lon="-4.5559">
        <ele>9</ele>
        <time>2026-05-17T13:44:42.438Z</time>
      </trkpt>
      <trkpt lat="48.59492" lon="-4.55594">
        <ele>9</ele>
        <time>2026-05-17T13:44:46.623Z</time>
      </trkpt>
      <trkpt lat="48.59487" lon="-4.556">
        <ele>5</ele>
        <time>2026-05-17T13:44:51.039Z</time>
      </trkpt>
      <trkpt lat="48.59483" lon="-4.55606">
        <ele>9</ele>
        <time>2026-05-17T13:44:55.380Z</time>
      </trkpt>
      <trkpt lat="48.59479" lon="-4.55612">
        <ele>9</ele>
        <time>2026-05-17T13:44:59.775Z</time>
      </trkpt>
      <trkpt lat="48.59475" lon="-4.55619">
        <ele>9</ele>
        <time>2026-05-17T13:45:04.178Z</time>
      </trkpt>
      <trkpt lat="48.5947" lon="-4.55625">
        <ele>9</ele>
        <time>2026-05-17T13:45:08.496Z</time>
      </trkpt>
      <trkpt lat="48.59466" lon="-4.55629">
        <ele>5</ele>
        <time>2026-05-17T13:45:12.864Z</time>
      </trkpt>
      <trkpt lat="48.59462" lon="-4.55636">
        <ele>5</ele>
        <time>2026-05-17T13:45:17.241Z</time>
      </trkpt>
      <trkpt lat="48.5946" lon="-4.55645">
        <ele>5</ele>
        <time>2026-05-17T13:45:21.842Z</time>
      </trkpt>
      <trkpt lat="48.59459" lon="-4.55648">
        <ele>5</ele>
        <time>2026-05-17T13:45:26.004Z</time>
      </trkpt>
      <trkpt lat="48.59453" lon="-4.55653">
        <ele>5</ele>
        <time>2026-05-17T13:45:30.422Z</time>
      </trkpt>
      <trkpt lat="48.59448" lon="-4.55657">
        <ele>5</ele>
        <time>2026-05-17T13:45:34.842Z</time>
      </trkpt>
      <trkpt lat="48.59443" lon="-4.55661">
        <ele>5</ele>
        <time>2026-05-17T13:45:39.111Z</time>
      </trkpt>
      <trkpt lat="48.59439" lon="-4.55668">
        <ele>5</ele>
        <time>2026-05-17T13:45:43.416Z</time>
      </trkpt>
      <trkpt lat="48.59434" lon="-4.55672">
        <ele>5</ele>
        <time>2026-05-17T13:45:47.818Z</time>
      </trkpt>
      <trkpt lat="48.59432" lon="-4.55679">
        <ele>5</ele>
        <time>2026-05-17T13:45:52.089Z</time>
      </trkpt>
      <trkpt lat="48.59429" lon="-4.55686">
        <ele>5</ele>
        <time>2026-05-17T13:45:56.538Z</time>
      </trkpt>
      <trkpt lat="48.59427" lon="-4.55694">
        <ele>5</ele>
        <time>2026-05-17T13:46:01.061Z</time>
      </trkpt>
      <trkpt lat="48.59429" lon="-4.55704">
        <ele>5</ele>
        <time>2026-05-17T13:46:05.480Z</time>
      </trkpt>
      <trkpt lat="48.59431" lon="-4.55712">
        <ele>3</ele>
        <time>2026-05-17T13:46:09.842Z</time>
      </trkpt>
      <trkpt lat="48.59431" lon="-4.5572">
        <ele>3</ele>
        <time>2026-05-17T13:46:14.456Z</time>
      </trkpt>
      <trkpt lat="48.59431" lon="-4.55727">
        <ele>3</ele>
        <time>2026-05-17T13:46:18.841Z</time>
      </trkpt>
      <trkpt lat="48.59431" lon="-4.55734">
        <ele>3</ele>
        <time>2026-05-17T13:46:23.517Z</time>
      </trkpt>
      <trkpt lat="48.59432" lon="-4.55742">
        <ele>5</ele>
        <time>2026-05-17T13:46:28.116Z</time>
      </trkpt>
      <trkpt lat="48.59432" lon="-4.55749">
        <ele>5</ele>
        <time>2026-05-17T13:46:32.518Z</time>
      </trkpt>
      <trkpt lat="48.59437" lon="-4.55751">
        <ele>5</ele>
        <time>2026-05-17T13:46:36.758Z</time>
      </trkpt>
      <trkpt lat="48.59437" lon="-4.55759">
        <ele>5</ele>
        <time>2026-05-17T13:46:41.238Z</time>
      </trkpt>
      <trkpt lat="48.59437" lon="-4.55769">
        <ele>6</ele>
        <time>2026-05-17T13:46:45.842Z</time>
      </trkpt>
      <trkpt lat="48.5944" lon="-4.55778">
        <ele>6</ele>
        <time>2026-05-17T13:46:50.375Z</time>
      </trkpt>
      <trkpt lat="48.59443" lon="-4.55785">
        <ele>6</ele>
        <time>2026-05-17T13:46:54.720Z</time>
      </trkpt>
      <trkpt lat="48.59445" lon="-4.55792">
        <ele>5</ele>
        <time>2026-05-17T13:46:59.003Z</time>
      </trkpt>
      <trkpt lat="48.59448" lon="-4.55799">
        <ele>5</ele>
        <time>2026-05-17T13:47:03.438Z</time>
      </trkpt>
      <trkpt lat="48.59455" lon="-4.55811">
        <ele>5</ele>
        <time>2026-05-17T13:47:12.277Z</time>
      </trkpt>
      <trkpt lat="48.59458" lon="-4.55814">
        <ele>5</ele>
        <time>2026-05-17T13:47:16.843Z</time>
      </trkpt>
      <trkpt lat="48.59458" lon="-4.55814">
        <ele>5</ele>
        <time>2026-05-17T13:47:19.360Z</time>
      </trkpt>
      <trkpt lat="48.59458" lon="-4.55815">
        <ele>5</ele>
        <time>2026-05-17T13:47:29.852Z</time>
      </trkpt>
      <trkpt lat="48.59458" lon="-4.55816">
        <ele>3</ele>
        <time>2026-05-17T13:47:34.457Z</time>
      </trkpt>
      <trkpt lat="48.59459" lon="-4.5582">
        <ele>4</ele>
        <time>2026-05-17T13:47:42.847Z</time>
      </trkpt>
      <trkpt lat="48.59459" lon="-4.5582">
        <ele>4</ele>
        <time>2026-05-17T13:47:47.660Z</time>
      </trkpt>
      <trkpt lat="48.5946" lon="-4.55823">
        <ele>4</ele>
        <time>2026-05-17T13:47:51.838Z</time>
      </trkpt>
      <trkpt lat="48.59463" lon="-4.5583">
        <ele>4</ele>
        <time>2026-05-17T13:47:56.488Z</time>
      </trkpt>
      <trkpt lat="48.59466" lon="-4.55836">
        <ele>4</ele>
        <time>2026-05-17T13:48:00.563Z</time>
      </trkpt>
      <trkpt lat="48.59468" lon="-4.55841">
        <ele>4</ele>
        <time>2026-05-17T13:48:04.842Z</time>
      </trkpt>
      <trkpt lat="48.59472" lon="-4.55848">
        <ele>6</ele>
        <time>2026-05-17T13:48:09.446Z</time>
      </trkpt>
      <trkpt lat="48.59475" lon="-4.55854">
        <ele>6</ele>
        <time>2026-05-17T13:48:13.843Z</time>
      </trkpt>
      <trkpt lat="48.59478" lon="-4.55861">
        <ele>6</ele>
        <time>2026-05-17T13:48:18.363Z</time>
      </trkpt>
      <trkpt lat="48.5948" lon="-4.55866">
        <ele>6</ele>
        <time>2026-05-17T13:48:22.466Z</time>
      </trkpt>
      <trkpt lat="48.59484" lon="-4.55873">
        <ele>6</ele>
        <time>2026-05-17T13:48:26.801Z</time>
      </trkpt>
      <trkpt lat="48.59487" lon="-4.55878">
        <ele>3</ele>
        <time>2026-05-17T13:48:30.846Z</time>
      </trkpt>
      <trkpt lat="48.59492" lon="-4.55883">
        <ele>3</ele>
        <time>2026-05-17T13:48:35.283Z</time>
      </trkpt>
      <trkpt lat="48.59496" lon="-4.55888">
        <ele>3</ele>
        <time>2026-05-17T13:48:39.842Z</time>
      </trkpt>
      <trkpt lat="48.59499" lon="-4.55893">
        <ele>3</ele>
        <time>2026-05-17T13:48:44.225Z</time>
      </trkpt>
      <trkpt lat="48.59503" lon="-4.55891">
        <ele>3</ele>
        <time>2026-05-17T13:48:48.849Z</time>
      </trkpt>
      <trkpt lat="48.59508" lon="-4.55891">
        <ele>3</ele>
        <time>2026-05-17T13:48:53.619Z</time>
      </trkpt>
      <trkpt lat="48.59516" lon="-4.55895">
        <ele>2</ele>
        <time>2026-05-17T13:49:38.706Z</time>
      </trkpt>
      <trkpt lat="48.59519" lon="-4.55895">
        <ele>2</ele>
        <time>2026-05-17T13:49:42.822Z</time>
      </trkpt>
      <trkpt lat="48.59522" lon="-4.55891">
        <ele>2</ele>
        <time>2026-05-17T13:49:47.123Z</time>
      </trkpt>
      <trkpt lat="48.59525" lon="-4.55886">
        <ele>2</ele>
        <time>2026-05-17T13:49:51.542Z</time>
      </trkpt>
      <trkpt lat="48.59529" lon="-4.55886">
        <ele>2</ele>
        <time>2026-05-17T13:49:55.827Z</time>
      </trkpt>
      <trkpt lat="48.59535" lon="-4.55884">
        <ele>2</ele>
        <time>2026-05-17T13:49:59.968Z</time>
      </trkpt>
      <trkpt lat="48.5954" lon="-4.55884">
        <ele>2</ele>
        <time>2026-05-17T13:50:04.324Z</time>
      </trkpt>
      <trkpt lat="48.59546" lon="-4.55882">
        <ele>2</ele>
        <time>2026-05-17T13:50:08.837Z</time>
      </trkpt>
      <trkpt lat="48.59547" lon="-4.5588">
        <ele>2</ele>
        <time>2026-05-17T13:50:13.423Z</time>
      </trkpt>
      <trkpt lat="48.5955" lon="-4.55877">
        <ele>2</ele>
        <time>2026-05-17T13:50:17.665Z</time>
      </trkpt>
      <trkpt lat="48.59557" lon="-4.55876">
        <ele>2</ele>
        <time>2026-05-17T13:50:22.120Z</time>
      </trkpt>
      <trkpt lat="48.59562" lon="-4.55873">
        <ele>2</ele>
        <time>2026-05-17T13:50:26.566Z</time>
      </trkpt>
      <trkpt lat="48.59567" lon="-4.55871">
        <ele>2</ele>
        <time>2026-05-17T13:50:30.799Z</time>
      </trkpt>
      <trkpt lat="48.5957" lon="-4.55868">
        <ele>4.5</ele>
        <time>2026-05-17T13:50:34.844Z</time>
      </trkpt>
      <trkpt lat="48.59573" lon="-4.55863">
        <ele>4.7</ele>
        <time>2026-05-17T13:50:39.101Z</time>
      </trkpt>
      <trkpt lat="48.59576" lon="-4.55857">
        <ele>4.7</ele>
        <time>2026-05-17T13:50:43.124Z</time>
      </trkpt>
      <trkpt lat="48.5958" lon="-4.55851">
        <ele>4.9</ele>
        <time>2026-05-17T13:50:47.720Z</time>
      </trkpt>
      <trkpt lat="48.59583" lon="-4.55846">
        <ele>4.9</ele>
        <time>2026-05-17T13:50:51.825Z</time>
      </trkpt>
      <trkpt lat="48.59588" lon="-4.55845">
        <ele>4.6</ele>
        <time>2026-05-17T13:50:55.861Z</time>
      </trkpt>
      <trkpt lat="48.59593" lon="-4.55845">
        <ele>4.4</ele>
        <time>2026-05-17T13:51:00.383Z</time>
      </trkpt>
      <trkpt lat="48.59598" lon="-4.55846">
        <ele>4.3</ele>
        <time>2026-05-17T13:51:04.840Z</time>
      </trkpt>
      <trkpt lat="48.59604" lon="-4.55846">
        <ele>4.2</ele>
        <time>2026-05-17T13:51:09.111Z</time>
      </trkpt>
      <trkpt lat="48.59608" lon="-4.55847">
        <ele>4</ele>
        <time>2026-05-17T13:51:13.289Z</time>
      </trkpt>
      <trkpt lat="48.59612" lon="-4.55848">
        <ele>4.1</ele>
        <time>2026-05-17T13:51:17.339Z</time>
      </trkpt>
      <trkpt lat="48.59618" lon="-4.55848">
        <ele>4</ele>
        <time>2026-05-17T13:51:21.460Z</time>
      </trkpt>
      <trkpt lat="48.59623" lon="-4.55849">
        <ele>4</ele>
        <time>2026-05-17T13:51:25.835Z</time>
      </trkpt>
      <trkpt lat="48.59627" lon="-4.5585">
        <ele>4.1</ele>
        <time>2026-05-17T13:51:30.003Z</time>
      </trkpt>
      <trkpt lat="48.59632" lon="-4.55851">
        <ele>4.3</ele>
        <time>2026-05-17T13:51:34.201Z</time>
      </trkpt>
      <trkpt lat="48.59636" lon="-4.55851">
        <ele>4.3</ele>
        <time>2026-05-17T13:51:38.219Z</time>
      </trkpt>
      <trkpt lat="48.59641" lon="-4.55852">
        <ele>4.3</ele>
        <time>2026-05-17T13:51:42.282Z</time>
      </trkpt>
      <trkpt lat="48.59647" lon="-4.55851">
        <ele>4.3</ele>
        <time>2026-05-17T13:51:46.779Z</time>
      </trkpt>
      <trkpt lat="48.59653" lon="-4.55849">
        <ele>4</ele>
        <time>2026-05-17T13:51:51.643Z</time>
      </trkpt>
      <trkpt lat="48.59659" lon="-4.55851">
        <ele>4.5</ele>
        <time>2026-05-17T13:51:56.164Z</time>
      </trkpt>
      <trkpt lat="48.59665" lon="-4.55851">
        <ele>4.6</ele>
        <time>2026-05-17T13:52:00.346Z</time>
      </trkpt>
      <trkpt lat="48.59666" lon="-4.55855">
        <ele>5.2</ele>
        <time>2026-05-17T13:52:04.720Z</time>
      </trkpt>
      <trkpt lat="48.59672" lon="-4.55858">
        <ele>5.2</ele>
        <time>2026-05-17T13:52:08.782Z</time>
      </trkpt>
      <trkpt lat="48.59677" lon="-4.55859">
        <ele>5</ele>
        <time>2026-05-17T13:52:12.800Z</time>
      </trkpt>
      <trkpt lat="48.59684" lon="-4.5586">
        <ele>4.7</ele>
        <time>2026-05-17T13:52:17.177Z</time>
      </trkpt>
      <trkpt lat="48.59689" lon="-4.55864">
        <ele>4.6</ele>
        <time>2026-05-17T13:52:21.598Z</time>
      </trkpt>
      <trkpt lat="48.59693" lon="-4.55869">
        <ele>4.7</ele>
        <time>2026-05-17T13:52:26.138Z</time>
      </trkpt>
      <trkpt lat="48.59697" lon="-4.55875">
        <ele>5</ele>
        <time>2026-05-17T13:52:30.648Z</time>
      </trkpt>
      <trkpt lat="48.59698" lon="-4.55883">
        <ele>5.6</ele>
        <time>2026-05-17T13:52:35.430Z</time>
      </trkpt>
      <trkpt lat="48.597" lon="-4.55892">
        <ele>6</ele>
        <time>2026-05-17T13:52:39.902Z</time>
      </trkpt>
      <trkpt lat="48.59701" lon="-4.55901">
        <ele>6</ele>
        <time>2026-05-17T13:52:44.322Z</time>
      </trkpt>
      <trkpt lat="48.59702" lon="-4.55909">
        <ele>1</ele>
        <time>2026-05-17T13:52:48.840Z</time>
      </trkpt>
      <trkpt lat="48.59702" lon="-4.55918">
        <ele>1</ele>
        <time>2026-05-17T13:52:53.400Z</time>
      </trkpt>
      <trkpt lat="48.59701" lon="-4.55926">
        <ele>1</ele>
        <time>2026-05-17T13:52:57.760Z</time>
      </trkpt>
      <trkpt lat="48.59701" lon="-4.55933">
        <ele>-1</ele>
        <time>2026-05-17T13:53:01.839Z</time>
      </trkpt>
      <trkpt lat="48.59707" lon="-4.55936">
        <ele>-1</ele>
        <time>2026-05-17T13:53:06.335Z</time>
      </trkpt>
      <trkpt lat="48.59706" lon="-4.55946">
        <ele>-1</ele>
        <time>2026-05-17T13:53:10.380Z</time>
      </trkpt>
      <trkpt lat="48.59704" lon="-4.55953">
        <ele>-1</ele>
        <time>2026-05-17T13:53:14.843Z</time>
      </trkpt>
      <trkpt lat="48.59702" lon="-4.55961">
        <ele>5.2</ele>
        <time>2026-05-17T13:53:19.024Z</time>
      </trkpt>
      <trkpt lat="48.59701" lon="-4.55969">
        <ele>5.4</ele>
        <time>2026-05-17T13:53:23.178Z</time>
      </trkpt>
      <trkpt lat="48.59702" lon="-4.55971">
        <ele>5.5</ele>
        <time>2026-05-17T13:53:27.496Z</time>
      </trkpt>
      <trkpt lat="48.59701" lon="-4.5598">
        <ele>5.4</ele>
        <time>2026-05-17T13:53:31.677Z</time>
      </trkpt>
      <trkpt lat="48.597" lon="-4.5599">
        <ele>1</ele>
        <time>2026-05-17T13:53:36.003Z</time>
      </trkpt>
      <trkpt lat="48.59703" lon="-4.55998">
        <ele>1</ele>
        <time>2026-05-17T13:53:40.636Z</time>
      </trkpt>
      <trkpt lat="48.59704" lon="-4.56005">
        <ele>1</ele>
        <time>2026-05-17T13:53:44.851Z</time>
      </trkpt>
      <trkpt lat="48.59701" lon="-4.56011">
        <ele>1</ele>
        <time>2026-05-17T13:53:48.937Z</time>
      </trkpt>
      <trkpt lat="48.59704" lon="-4.56017">
        <ele>1</ele>
        <time>2026-05-17T13:53:53.582Z</time>
      </trkpt>
      <trkpt lat="48.59699" lon="-4.56025">
        <ele>1</ele>
        <time>2026-05-17T13:53:57.957Z</time>
      </trkpt>
      <trkpt lat="48.59697" lon="-4.56034">
        <ele>1</ele>
        <time>2026-05-17T13:54:02.360Z</time>
      </trkpt>
      <trkpt lat="48.59696" lon="-4.56042">
        <ele>1</ele>
        <time>2026-05-17T13:54:06.823Z</time>
      </trkpt>
      <trkpt lat="48.59697" lon="-4.56049">
        <ele>1</ele>
        <time>2026-05-17T13:54:10.858Z</time>
      </trkpt>
      <trkpt lat="48.597" lon="-4.56056">
        <ele>1</ele>
        <time>2026-05-17T13:54:15.841Z</time>
      </trkpt>
      <trkpt lat="48.5969" lon="-4.56067">
        <ele>1</ele>
        <time>2026-05-17T13:54:36.656Z</time>
      </trkpt>
      <trkpt lat="48.59691" lon="-4.56077">
        <ele>2</ele>
        <time>2026-05-17T13:54:41.016Z</time>
      </trkpt>
      <trkpt lat="48.59696" lon="-4.56085">
        <ele>2</ele>
        <time>2026-05-17T13:54:45.019Z</time>
      </trkpt>
      <trkpt lat="48.59698" lon="-4.56093">
        <ele>2</ele>
        <time>2026-05-17T13:54:49.087Z</time>
      </trkpt>
      <trkpt lat="48.59701" lon="-4.56101">
        <ele>2</ele>
        <time>2026-05-17T13:54:53.458Z</time>
      </trkpt>
      <trkpt lat="48.59702" lon="-4.56109">
        <ele>2</ele>
        <time>2026-05-17T13:54:57.840Z</time>
      </trkpt>
      <trkpt lat="48.59705" lon="-4.56118">
        <ele>2</ele>
        <time>2026-05-17T13:55:02.845Z</time>
      </trkpt>
      <trkpt lat="48.59707" lon="-4.56125">
        <ele>3</ele>
        <time>2026-05-17T13:55:07.416Z</time>
      </trkpt>
      <trkpt lat="48.59708" lon="-4.56134">
        <ele>3</ele>
        <time>2026-05-17T13:55:11.598Z</time>
      </trkpt>
      <trkpt lat="48.59704" lon="-4.56136">
        <ele>3</ele>
        <time>2026-05-17T13:55:15.643Z</time>
      </trkpt>
      <trkpt lat="48.59698" lon="-4.56138">
        <ele>3</ele>
        <time>2026-05-17T13:55:19.840Z</time>
      </trkpt>
      <trkpt lat="48.59693" lon="-4.5614">
        <ele>3</ele>
        <time>2026-05-17T13:55:24.738Z</time>
      </trkpt>
      <trkpt lat="48.5969" lon="-4.56144">
        <ele>3</ele>
        <time>2026-05-17T13:55:28.840Z</time>
      </trkpt>
      <trkpt lat="48.59691" lon="-4.56147">
        <ele>3</ele>
        <time>2026-05-17T13:55:42.845Z</time>
      </trkpt>
      <trkpt lat="48.59691" lon="-4.56148">
        <ele>3</ele>
        <time>2026-05-17T13:55:46.855Z</time>
      </trkpt>
      <trkpt lat="48.5969" lon="-4.56154">
        <ele>5</ele>
        <time>2026-05-17T13:55:51.797Z</time>
      </trkpt>
      <trkpt lat="48.59688" lon="-4.56157">
        <ele>5</ele>
        <time>2026-05-17T13:55:55.842Z</time>
      </trkpt>
      <trkpt lat="48.59689" lon="-4.56163">
        <ele>5</ele>
        <time>2026-05-17T13:56:00.843Z</time>
      </trkpt>
      <trkpt lat="48.59689" lon="-4.56163">
        <ele>5</ele>
        <time>2026-05-17T13:56:09.846Z</time>
      </trkpt>
      <trkpt lat="48.59689" lon="-4.5616">
        <ele>5</ele>
        <time>2026-05-17T13:56:14.639Z</time>
      </trkpt>
      <trkpt lat="48.5969" lon="-4.56159">
        <ele>5</ele>
        <time>2026-05-17T13:56:18.841Z</time>
      </trkpt>
      <trkpt lat="48.59684" lon="-4.56154">
        <ele>5</ele>
        <time>2026-05-17T13:56:23.495Z</time>
      </trkpt>
      <trkpt lat="48.5968" lon="-4.56148">
        <ele>4</ele>
        <time>2026-05-17T13:56:27.839Z</time>
      </trkpt>
      <trkpt lat="48.59679" lon="-4.56145">
        <ele>4</ele>
        <time>2026-05-17T13:57:02.676Z</time>
      </trkpt>
      <trkpt lat="48.59679" lon="-4.56145">
        <ele>4</ele>
        <time>2026-05-17T13:57:07.497Z</time>
      </trkpt>
      <trkpt lat="48.59681" lon="-4.56142">
        <ele>3</ele>
        <time>2026-05-17T13:57:11.575Z</time>
      </trkpt>
      <trkpt lat="48.59682" lon="-4.56147">
        <ele>3</ele>
        <time>2026-05-17T13:57:15.838Z</time>
      </trkpt>
      <trkpt lat="48.59684" lon="-4.56156">
        <ele>5</ele>
        <time>2026-05-17T13:57:20.337Z</time>
      </trkpt>
      <trkpt lat="48.59687" lon="-4.56164">
        <ele>5</ele>
        <time>2026-05-17T13:57:24.840Z</time>
      </trkpt>
      <trkpt lat="48.59686" lon="-4.56169">
        <ele>5</ele>
        <time>2026-05-17T13:57:28.840Z</time>
      </trkpt>
      <trkpt lat="48.59686" lon="-4.56174">
        <ele>5</ele>
        <time>2026-05-17T13:57:33Z</time>
      </trkpt>
      <trkpt lat="48.5969" lon="-4.56177">
        <ele>5</ele>
        <time>2026-05-17T13:57:37.037Z</time>
      </trkpt>
      <trkpt lat="48.59692" lon="-4.56182">
        <ele>7</ele>
        <time>2026-05-17T13:57:41.063Z</time>
      </trkpt>
      <trkpt lat="48.59694" lon="-4.56188">
        <ele>7</ele>
        <time>2026-05-17T13:57:45.484Z</time>
      </trkpt>
      <trkpt lat="48.59697" lon="-4.56194">
        <ele>7</ele>
        <time>2026-05-17T13:57:49.846Z</time>
      </trkpt>
      <trkpt lat="48.59699" lon="-4.56199">
        <ele>7</ele>
        <time>2026-05-17T13:57:53.938Z</time>
      </trkpt>
      <trkpt lat="48.59702" lon="-4.56203">
        <ele>7</ele>
        <time>2026-05-17T13:57:58.162Z</time>
      </trkpt>
      <trkpt lat="48.59706" lon="-4.56206">
        <ele>7</ele>
        <time>2026-05-17T13:58:02.241Z</time>
      </trkpt>
      <trkpt lat="48.5971" lon="-4.56211">
        <ele>6</ele>
        <time>2026-05-17T13:58:06.481Z</time>
      </trkpt>
      <trkpt lat="48.59712" lon="-4.56217">
        <ele>6</ele>
        <time>2026-05-17T13:58:10.603Z</time>
      </trkpt>
      <trkpt lat="48.59716" lon="-4.5622">
        <ele>6</ele>
        <time>2026-05-17T13:58:14.832Z</time>
      </trkpt>
      <trkpt lat="48.5972" lon="-4.56225">
        <ele>6</ele>
        <time>2026-05-17T13:58:19.458Z</time>
      </trkpt>
      <trkpt lat="48.59724" lon="-4.5623">
        <ele>6</ele>
        <time>2026-05-17T13:58:23.801Z</time>
      </trkpt>
      <trkpt lat="48.59727" lon="-4.56236">
        <ele>6</ele>
        <time>2026-05-17T13:58:27.837Z</time>
      </trkpt>
      <trkpt lat="48.5973" lon="-4.56244">
        <ele>10</ele>
        <time>2026-05-17T13:58:31.839Z</time>
      </trkpt>
      <trkpt lat="48.59734" lon="-4.5625">
        <ele>10</ele>
        <time>2026-05-17T13:58:36.718Z</time>
      </trkpt>
      <trkpt lat="48.59737" lon="-4.56255">
        <ele>4</ele>
        <time>2026-05-17T13:58:40.835Z</time>
      </trkpt>
      <trkpt lat="48.59739" lon="-4.56262">
        <ele>4</ele>
        <time>2026-05-17T13:58:44.837Z</time>
      </trkpt>
      <trkpt lat="48.59741" lon="-4.56264">
        <ele>8</ele>
        <time>2026-05-17T13:59:16.841Z</time>
      </trkpt>
      <trkpt lat="48.59743" lon="-4.56269">
        <ele>8</ele>
        <time>2026-05-17T13:59:21.436Z</time>
      </trkpt>
      <trkpt lat="48.59746" lon="-4.56276">
        <ele>8</ele>
        <time>2026-05-17T13:59:25.701Z</time>
      </trkpt>
      <trkpt lat="48.59751" lon="-4.56282">
        <ele>8</ele>
        <time>2026-05-17T13:59:29.841Z</time>
      </trkpt>
      <trkpt lat="48.59753" lon="-4.56289">
        <ele>8</ele>
        <time>2026-05-17T13:59:34.140Z</time>
      </trkpt>
      <trkpt lat="48.59758" lon="-4.56296">
        <ele>11</ele>
        <time>2026-05-17T13:59:38.722Z</time>
      </trkpt>
      <trkpt lat="48.59763" lon="-4.56303">
        <ele>11</ele>
        <time>2026-05-17T13:59:42.841Z</time>
      </trkpt>
      <trkpt lat="48.59768" lon="-4.56311">
        <ele>7</ele>
        <time>2026-05-17T13:59:47.381Z</time>
      </trkpt>
      <trkpt lat="48.59772" lon="-4.56316">
        <ele>7</ele>
        <time>2026-05-17T13:59:51.536Z</time>
      </trkpt>
      <trkpt lat="48.59775" lon="-4.56321">
        <ele>8</ele>
        <time>2026-05-17T13:59:55.841Z</time>
      </trkpt>
      <trkpt lat="48.59779" lon="-4.56328">
        <ele>8</ele>
        <time>2026-05-17T14:00:00.417Z</time>
      </trkpt>
      <trkpt lat="48.59784" lon="-4.56333">
        <ele>8</ele>
        <time>2026-05-17T14:00:04.840Z</time>
      </trkpt>
      <trkpt lat="48.59788" lon="-4.56337">
        <ele>8</ele>
        <time>2026-05-17T14:00:08.841Z</time>
      </trkpt>
      <trkpt lat="48.59791" lon="-4.56345">
        <ele>8</ele>
        <time>2026-05-17T14:00:13.701Z</time>
      </trkpt>
      <trkpt lat="48.59795" lon="-4.56351">
        <ele>6</ele>
        <time>2026-05-17T14:00:17.837Z</time>
      </trkpt>
      <trkpt lat="48.59799" lon="-4.56357">
        <ele>6</ele>
        <time>2026-05-17T14:00:22.244Z</time>
      </trkpt>
      <trkpt lat="48.59804" lon="-4.56362">
        <ele>6</ele>
        <time>2026-05-17T14:00:26.696Z</time>
      </trkpt>
      <trkpt lat="48.59806" lon="-4.56369">
        <ele>6</ele>
        <time>2026-05-17T14:00:30.724Z</time>
      </trkpt>
      <trkpt lat="48.59808" lon="-4.56376">
        <ele>3</ele>
        <time>2026-05-17T14:00:34.839Z</time>
      </trkpt>
      <trkpt lat="48.5981" lon="-4.56382">
        <ele>3</ele>
        <time>2026-05-17T14:00:39Z</time>
      </trkpt>
      <trkpt lat="48.59811" lon="-4.56385">
        <ele>3</ele>
        <time>2026-05-17T14:00:40.837Z</time>
      </trkpt>
      <trkpt lat="48.59807" lon="-4.56395">
        <ele>3</ele>
        <time>2026-05-17T14:02:37.841Z</time>
      </trkpt>
      <trkpt lat="48.59805" lon="-4.56395">
        <ele>3</ele>
        <time>2026-05-17T14:02:41.841Z</time>
      </trkpt>
      <trkpt lat="48.59804" lon="-4.56394">
        <ele>3</ele>
        <time>2026-05-17T14:02:46.838Z</time>
      </trkpt>
      <trkpt lat="48.59804" lon="-4.56394">
        <ele>3</ele>
        <time>2026-05-17T14:02:53.840Z</time>
      </trkpt>
      <trkpt lat="48.59804" lon="-4.56394">
        <ele>3</ele>
        <time>2026-05-17T14:02:57.835Z</time>
      </trkpt>
      <trkpt lat="48.59811" lon="-4.56397">
        <ele>3</ele>
        <time>2026-05-17T14:11:30.753Z</time>
      </trkpt>
      <trkpt lat="48.59812" lon="-4.56397">
        <ele>3</ele>
        <time>2026-05-17T14:11:35.769Z</time>
      </trkpt>
      <trkpt lat="48.59812" lon="-4.56398">
        <ele>3</ele>
        <time>2026-05-17T14:11:39.836Z</time>
      </trkpt>
      <trkpt lat="48.59812" lon="-4.56397">
        <ele>3</ele>
        <time>2026-05-17T14:11:43.837Z</time>
      </trkpt>
      <trkpt lat="48.59812" lon="-4.56397">
        <ele>3</ele>
        <time>2026-05-17T14:11:47.836Z</time>
      </trkpt>
      <trkpt lat="48.59811" lon="-4.56398">
        <ele>3</ele>
        <time>2026-05-17T14:17:40.840Z</time>
      </trkpt>
      <trkpt lat="48.59812" lon="-4.56399">
        <ele>3</ele>
        <time>2026-05-17T14:17:45.832Z</time>
      </trkpt>
      <trkpt lat="48.5981" lon="-4.564">
        <ele>3</ele>
        <time>2026-05-17T14:17:50.836Z</time>
      </trkpt>
      <trkpt lat="48.5981" lon="-4.56402">
        <ele>3</ele>
        <time>2026-05-17T14:17:54.842Z</time>
      </trkpt>
      <trkpt lat="48.5981" lon="-4.5641">
        <ele>4</ele>
        <time>2026-05-17T14:17:59.681Z</time>
      </trkpt>
      <trkpt lat="48.59809" lon="-4.56413">
        <ele>4</ele>
        <time>2026-05-17T14:24:33.300Z</time>
      </trkpt>
      <trkpt lat="48.59812" lon="-4.56418">
        <ele>4</ele>
        <time>2026-05-17T14:24:37.838Z</time>
      </trkpt>
      <trkpt lat="48.59813" lon="-4.56428">
        <ele>4</ele>
        <time>2026-05-17T14:24:42.364Z</time>
      </trkpt>
      <trkpt lat="48.59813" lon="-4.56429">
        <ele>4</ele>
        <time>2026-05-17T14:24:46.384Z</time>
      </trkpt>
      <trkpt lat="48.59812" lon="-4.56436">
        <ele>6</ele>
        <time>2026-05-17T14:24:50.837Z</time>
      </trkpt>
      <trkpt lat="48.59812" lon="-4.56436">
        <ele>6</ele>
        <time>2026-05-17T14:24:55.843Z</time>
      </trkpt>
      <trkpt lat="48.59812" lon="-4.56436">
        <ele>6</ele>
        <time>2026-05-17T14:25:01.479Z</time>
      </trkpt>
      <trkpt lat="48.59809" lon="-4.5644">
        <ele>6</ele>
        <time>2026-05-17T14:25:05.837Z</time>
      </trkpt>
      <trkpt lat="48.59803" lon="-4.56438">
        <ele>6</ele>
        <time>2026-05-17T14:25:10.482Z</time>
      </trkpt>
      <trkpt lat="48.59799" lon="-4.56439">
        <ele>6</ele>
        <time>2026-05-17T14:25:14.544Z</time>
      </trkpt>
      <trkpt lat="48.59797" lon="-4.56446">
        <ele>6</ele>
        <time>2026-05-17T14:25:19.111Z</time>
      </trkpt>
      <trkpt lat="48.59796" lon="-4.56452">
        <ele>6</ele>
        <time>2026-05-17T14:25:23.555Z</time>
      </trkpt>
      <trkpt lat="48.59794" lon="-4.56462">
        <ele>8</ele>
        <time>2026-05-17T14:25:28.096Z</time>
      </trkpt>
      <trkpt lat="48.59791" lon="-4.56471">
        <ele>14</ele>
        <time>2026-05-17T14:25:32.601Z</time>
      </trkpt>
      <trkpt lat="48.59789" lon="-4.5648">
        <ele>14</ele>
        <time>2026-05-17T14:25:37.037Z</time>
      </trkpt>
      <trkpt lat="48.59789" lon="-4.56489">
        <ele>15</ele>
        <time>2026-05-17T14:25:41.458Z</time>
      </trkpt>
      <trkpt lat="48.59792" lon="-4.56498">
        <ele>7</ele>
        <time>2026-05-17T14:25:45.775Z</time>
      </trkpt>
      <trkpt lat="48.59789" lon="-4.56507">
        <ele>15</ele>
        <time>2026-05-17T14:25:49.804Z</time>
      </trkpt>
      <trkpt lat="48.59787" lon="-4.56514">
        <ele>12</ele>
        <time>2026-05-17T14:25:53.838Z</time>
      </trkpt>
      <trkpt lat="48.59782" lon="-4.56516">
        <ele>12</ele>
        <time>2026-05-17T14:25:57.836Z</time>
      </trkpt>
      <trkpt lat="48.5978" lon="-4.56525">
        <ele>12</ele>
        <time>2026-05-17T14:26:02.024Z</time>
      </trkpt>
      <trkpt lat="48.5978" lon="-4.56535">
        <ele>12</ele>
        <time>2026-05-17T14:26:06.299Z</time>
      </trkpt>
      <trkpt lat="48.59779" lon="-4.56549">
        <ele>9</ele>
        <time>2026-05-17T14:26:24.840Z</time>
      </trkpt>
      <trkpt lat="48.59778" lon="-4.56549">
        <ele>9</ele>
        <time>2026-05-17T14:26:29.279Z</time>
      </trkpt>
      <trkpt lat="48.59776" lon="-4.56554">
        <ele>9</ele>
        <time>2026-05-17T14:26:33.520Z</time>
      </trkpt>
      <trkpt lat="48.59774" lon="-4.56561">
        <ele>9</ele>
        <time>2026-05-17T14:26:37.836Z</time>
      </trkpt>
      <trkpt lat="48.59772" lon="-4.56565">
        <ele>9</ele>
        <time>2026-05-17T14:26:41.840Z</time>
      </trkpt>
      <trkpt lat="48.5977" lon="-4.56572">
        <ele>7</ele>
        <time>2026-05-17T14:26:46.364Z</time>
      </trkpt>
      <trkpt lat="48.59769" lon="-4.56577">
        <ele>7</ele>
        <time>2026-05-17T14:26:50.430Z</time>
      </trkpt>
      <trkpt lat="48.59769" lon="-4.56581">
        <ele>7</ele>
        <time>2026-05-17T14:26:54.844Z</time>
      </trkpt>
      <trkpt lat="48.59768" lon="-4.56588">
        <ele>7</ele>
        <time>2026-05-17T14:26:59.265Z</time>
      </trkpt>
      <trkpt lat="48.59767" lon="-4.56595">
        <ele>7</ele>
        <time>2026-05-17T14:27:03.522Z</time>
      </trkpt>
      <trkpt lat="48.59765" lon="-4.56602">
        <ele>6</ele>
        <time>2026-05-17T14:27:07.837Z</time>
      </trkpt>
      <trkpt lat="48.59765" lon="-4.56608">
        <ele>6</ele>
        <time>2026-05-17T14:27:12.456Z</time>
      </trkpt>
      <trkpt lat="48.59763" lon="-4.56617">
        <ele>16</ele>
        <time>2026-05-17T14:27:17.022Z</time>
      </trkpt>
      <trkpt lat="48.59762" lon="-4.56624">
        <ele>16</ele>
        <time>2026-05-17T14:27:21.296Z</time>
      </trkpt>
      <trkpt lat="48.59761" lon="-4.56629">
        <ele>14</ele>
        <time>2026-05-17T14:27:25.342Z</time>
      </trkpt>
      <trkpt lat="48.5976" lon="-4.56634">
        <ele>14</ele>
        <time>2026-05-17T14:27:29.377Z</time>
      </trkpt>
      <trkpt lat="48.59758" lon="-4.56644">
        <ele>14</ele>
        <time>2026-05-17T14:27:33.617Z</time>
      </trkpt>
      <trkpt lat="48.59756" lon="-4.56651">
        <ele>14</ele>
        <time>2026-05-17T14:27:37.835Z</time>
      </trkpt>
      <trkpt lat="48.59756" lon="-4.5666">
        <ele>12</ele>
        <time>2026-05-17T14:27:42.383Z</time>
      </trkpt>
      <trkpt lat="48.59755" lon="-4.56668">
        <ele>12</ele>
        <time>2026-05-17T14:27:46.418Z</time>
      </trkpt>
      <trkpt lat="48.59755" lon="-4.56675">
        <ele>12</ele>
        <time>2026-05-17T14:27:50.701Z</time>
      </trkpt>
      <trkpt lat="48.59748" lon="-4.56675">
        <ele>12</ele>
        <time>2026-05-17T14:28:13.057Z</time>
      </trkpt>
      <trkpt lat="48.59747" lon="-4.56676">
        <ele>12</ele>
        <time>2026-05-17T14:28:18.502Z</time>
      </trkpt>
      <trkpt lat="48.59746" lon="-4.56677">
        <ele>12</ele>
        <time>2026-05-17T14:28:22.641Z</time>
      </trkpt>
      <trkpt lat="48.59741" lon="-4.56678">
        <ele>12</ele>
        <time>2026-05-17T14:28:27.198Z</time>
      </trkpt>
      <trkpt lat="48.59739" lon="-4.56677">
        <ele>12</ele>
        <time>2026-05-17T14:28:31.583Z</time>
      </trkpt>
      <trkpt lat="48.59738" lon="-4.56676">
        <ele>12</ele>
        <time>2026-05-17T14:28:35.833Z</time>
      </trkpt>
      <trkpt lat="48.59735" lon="-4.56674">
        <ele>20</ele>
        <time>2026-05-17T14:28:40.024Z</time>
      </trkpt>
      <trkpt lat="48.59731" lon="-4.56671">
        <ele>20</ele>
        <time>2026-05-17T14:28:44.656Z</time>
      </trkpt>
      <trkpt lat="48.59728" lon="-4.56671">
        <ele>20</ele>
        <time>2026-05-17T14:28:48.841Z</time>
      </trkpt>
      <trkpt lat="48.59731" lon="-4.56676">
        <ele>20</ele>
        <time>2026-05-17T14:28:53.684Z</time>
      </trkpt>
      <trkpt lat="48.59729" lon="-4.56677">
        <ele>20</ele>
        <time>2026-05-17T14:28:58.301Z</time>
      </trkpt>
      <trkpt lat="48.59725" lon="-4.56674">
        <ele>20</ele>
        <time>2026-05-17T14:29:02.838Z</time>
      </trkpt>
      <trkpt lat="48.59723" lon="-4.5667">
        <ele>20</ele>
        <time>2026-05-17T14:29:07.541Z</time>
      </trkpt>
      <trkpt lat="48.59718" lon="-4.56669">
        <ele>20</ele>
        <time>2026-05-17T14:29:12.097Z</time>
      </trkpt>
      <trkpt lat="48.59713" lon="-4.56669">
        <ele>20</ele>
        <time>2026-05-17T14:29:39.302Z</time>
      </trkpt>
      <trkpt lat="48.59713" lon="-4.56678">
        <ele>20</ele>
        <time>2026-05-17T14:29:43.620Z</time>
      </trkpt>
      <trkpt lat="48.59711" lon="-4.56687">
        <ele>18</ele>
        <time>2026-05-17T14:29:48.142Z</time>
      </trkpt>
      <trkpt lat="48.59709" lon="-4.56694">
        <ele>18</ele>
        <time>2026-05-17T14:29:52.324Z</time>
      </trkpt>
      <trkpt lat="48.59704" lon="-4.56698">
        <ele>23</ele>
        <time>2026-05-17T14:29:56.403Z</time>
      </trkpt>
      <trkpt lat="48.59699" lon="-4.56701">
        <ele>23</ele>
        <time>2026-05-17T14:30:00.839Z</time>
      </trkpt>
      <trkpt lat="48.59695" lon="-4.56704">
        <ele>23</ele>
        <time>2026-05-17T14:30:05.243Z</time>
      </trkpt>
      <trkpt lat="48.59692" lon="-4.56705">
        <ele>23</ele>
        <time>2026-05-17T14:30:09.427Z</time>
      </trkpt>
      <trkpt lat="48.59688" lon="-4.56704">
        <ele>23</ele>
        <time>2026-05-17T14:30:13.833Z</time>
      </trkpt>
      <trkpt lat="48.59688" lon="-4.56701">
        <ele>23</ele>
        <time>2026-05-17T14:30:18.142Z</time>
      </trkpt>
      <trkpt lat="48.59686" lon="-4.56699">
        <ele>23</ele>
        <time>2026-05-17T14:30:22.360Z</time>
      </trkpt>
      <trkpt lat="48.59682" lon="-4.56695">
        <ele>23</ele>
        <time>2026-05-17T14:30:26.833Z</time>
      </trkpt>
      <trkpt lat="48.59679" lon="-4.5669">
        <ele>29</ele>
        <time>2026-05-17T14:30:30.833Z</time>
      </trkpt>
      <trkpt lat="48.59673" lon="-4.5669">
        <ele>29</ele>
        <time>2026-05-17T14:30:53.402Z</time>
      </trkpt>
      <trkpt lat="48.59666" lon="-4.56687">
        <ele>29</ele>
        <time>2026-05-17T14:30:57.841Z</time>
      </trkpt>
      <trkpt lat="48.59661" lon="-4.56687">
        <ele>29</ele>
        <time>2026-05-17T14:31:01.837Z</time>
      </trkpt>
      <trkpt lat="48.59656" lon="-4.56687">
        <ele>29</ele>
        <time>2026-05-17T14:31:06.824Z</time>
      </trkpt>
      <trkpt lat="48.59652" lon="-4.5669">
        <ele>33</ele>
        <time>2026-05-17T14:31:10.846Z</time>
      </trkpt>
      <trkpt lat="48.59645" lon="-4.56689">
        <ele>33</ele>
        <time>2026-05-17T14:31:15.837Z</time>
      </trkpt>
      <trkpt lat="48.5964" lon="-4.56691">
        <ele>33</ele>
        <time>2026-05-17T14:31:20.246Z</time>
      </trkpt>
      <trkpt lat="48.59637" lon="-4.56693">
        <ele>33</ele>
        <time>2026-05-17T14:31:24.837Z</time>
      </trkpt>
      <trkpt lat="48.59633" lon="-4.56688">
        <ele>33</ele>
        <time>2026-05-17T14:31:29.343Z</time>
      </trkpt>
      <trkpt lat="48.59635" lon="-4.56683">
        <ele>33</ele>
        <time>2026-05-17T14:31:33.746Z</time>
      </trkpt>
      <trkpt lat="48.5964" lon="-4.5668">
        <ele>33</ele>
        <time>2026-05-17T14:31:38.223Z</time>
      </trkpt>
      <trkpt lat="48.59644" lon="-4.56676">
        <ele>33</ele>
        <time>2026-05-17T14:31:42.526Z</time>
      </trkpt>
      <trkpt lat="48.59644" lon="-4.56675">
        <ele>33</ele>
        <time>2026-05-17T14:31:46.693Z</time>
      </trkpt>
      <trkpt lat="48.59645" lon="-4.56675">
        <ele>33</ele>
        <time>2026-05-17T14:31:51.318Z</time>
      </trkpt>
      <trkpt lat="48.59642" lon="-4.56672">
        <ele>33</ele>
        <time>2026-05-17T14:31:55.741Z</time>
      </trkpt>
      <trkpt lat="48.59635" lon="-4.5667">
        <ele>33</ele>
        <time>2026-05-17T14:32:00.449Z</time>
      </trkpt>
      <trkpt lat="48.59633" lon="-4.56664">
        <ele>33</ele>
        <time>2026-05-17T14:32:04.840Z</time>
      </trkpt>
      <trkpt lat="48.59638" lon="-4.56659">
        <ele>33</ele>
        <time>2026-05-17T14:32:09.352Z</time>
      </trkpt>
      <trkpt lat="48.59642" lon="-4.56656">
        <ele>33</ele>
        <time>2026-05-17T14:32:13.427Z</time>
      </trkpt>
      <trkpt lat="48.59646" lon="-4.56653">
        <ele>33</ele>
        <time>2026-05-17T14:32:17.835Z</time>
      </trkpt>
      <trkpt lat="48.59649" lon="-4.56653">
        <ele>33</ele>
        <time>2026-05-17T14:32:22.203Z</time>
      </trkpt>
      <trkpt lat="48.59647" lon="-4.56658">
        <ele>33</ele>
        <time>2026-05-17T14:37:31.836Z</time>
      </trkpt>
      <trkpt lat="48.59646" lon="-4.56657">
        <ele>33</ele>
        <time>2026-05-17T14:37:35.833Z</time>
      </trkpt>
      <trkpt lat="48.59645" lon="-4.56656">
        <ele>33</ele>
        <time>2026-05-17T14:37:40.505Z</time>
      </trkpt>
      <trkpt lat="48.59645" lon="-4.56661">
        <ele>33</ele>
        <time>2026-05-17T14:37:44.833Z</time>
      </trkpt>
      <trkpt lat="48.59643" lon="-4.56664">
        <ele>33</ele>
        <time>2026-05-17T14:37:49.831Z</time>
      </trkpt>
      <trkpt lat="48.59637" lon="-4.56669">
        <ele>33</ele>
        <time>2026-05-17T14:39:00.839Z</time>
      </trkpt>
      <trkpt lat="48.59637" lon="-4.56669">
        <ele>33</ele>
        <time>2026-05-17T14:39:06.181Z</time>
      </trkpt>
      <trkpt lat="48.59635" lon="-4.56671">
        <ele>33</ele>
        <time>2026-05-17T14:39:10.482Z</time>
      </trkpt>
      <trkpt lat="48.59634" lon="-4.56675">
        <ele>33</ele>
        <time>2026-05-17T14:39:14.697Z</time>
      </trkpt>
      <trkpt lat="48.59635" lon="-4.56682">
        <ele>33</ele>
        <time>2026-05-17T14:39:18.999Z</time>
      </trkpt>
      <trkpt lat="48.59631" lon="-4.567">
        <ele>33</ele>
        <time>2026-05-17T14:40:13.763Z</time>
      </trkpt>
      <trkpt lat="48.59625" lon="-4.56697">
        <ele>33</ele>
        <time>2026-05-17T14:40:17.830Z</time>
      </trkpt>
      <trkpt lat="48.59621" lon="-4.56692">
        <ele>35</ele>
        <time>2026-05-17T14:40:22.279Z</time>
      </trkpt>
      <trkpt lat="48.59618" lon="-4.56688">
        <ele>35</ele>
        <time>2026-05-17T14:40:26.831Z</time>
      </trkpt>
      <trkpt lat="48.59614" lon="-4.56684">
        <ele>35</ele>
        <time>2026-05-17T14:40:31.718Z</time>
      </trkpt>
      <trkpt lat="48.59612" lon="-4.56682">
        <ele>35</ele>
        <time>2026-05-17T14:40:36.834Z</time>
      </trkpt>
      <trkpt lat="48.59612" lon="-4.56683">
        <ele>35</ele>
        <time>2026-05-17T14:40:40.836Z</time>
      </trkpt>
      <trkpt lat="48.59611" lon="-4.56682">
        <ele>35</ele>
        <time>2026-05-17T14:40:45.560Z</time>
      </trkpt>
      <trkpt lat="48.59604" lon="-4.56677">
        <ele>35</ele>
        <time>2026-05-17T14:40:49.844Z</time>
      </trkpt>
      <trkpt lat="48.596" lon="-4.56669">
        <ele>35</ele>
        <time>2026-05-17T14:40:54.104Z</time>
      </trkpt>
      <trkpt lat="48.59595" lon="-4.56664">
        <ele>37</ele>
        <time>2026-05-17T14:40:58.183Z</time>
      </trkpt>
      <trkpt lat="48.5959" lon="-4.56659">
        <ele>37</ele>
        <time>2026-05-17T14:41:02.304Z</time>
      </trkpt>
      <trkpt lat="48.59585" lon="-4.56655">
        <ele>37</ele>
        <time>2026-05-17T14:41:06.832Z</time>
      </trkpt>
      <trkpt lat="48.59579" lon="-4.56648">
        <ele>36</ele>
        <time>2026-05-17T14:41:11.785Z</time>
      </trkpt>
      <trkpt lat="48.59573" lon="-4.56645">
        <ele>36</ele>
        <time>2026-05-17T14:41:16.017Z</time>
      </trkpt>
      <trkpt lat="48.59567" lon="-4.5664">
        <ele>38</ele>
        <time>2026-05-17T14:41:20.507Z</time>
      </trkpt>
      <trkpt lat="48.59562" lon="-4.56633">
        <ele>38</ele>
        <time>2026-05-17T14:41:24.833Z</time>
      </trkpt>
      <trkpt lat="48.59557" lon="-4.56629">
        <ele>38</ele>
        <time>2026-05-17T14:41:28.837Z</time>
      </trkpt>
      <trkpt lat="48.59554" lon="-4.56629">
        <ele>38</ele>
        <time>2026-05-17T14:42:04.644Z</time>
      </trkpt>
      <trkpt lat="48.59556" lon="-4.56628">
        <ele>38</ele>
        <time>2026-05-17T14:42:08.844Z</time>
      </trkpt>
      <trkpt lat="48.59561" lon="-4.56629">
        <ele>38</ele>
        <time>2026-05-17T14:42:13.502Z</time>
      </trkpt>
      <trkpt lat="48.59566" lon="-4.56637">
        <ele>38</ele>
        <time>2026-05-17T14:42:17.832Z</time>
      </trkpt>
      <trkpt lat="48.5957" lon="-4.56643">
        <ele>36</ele>
        <time>2026-05-17T14:42:22.506Z</time>
      </trkpt>
      <trkpt lat="48.59575" lon="-4.56647">
        <ele>36</ele>
        <time>2026-05-17T14:42:26.835Z</time>
      </trkpt>
      <trkpt lat="48.5958" lon="-4.5665">
        <ele>36</ele>
        <time>2026-05-17T14:42:30.831Z</time>
      </trkpt>
      <trkpt lat="48.59585" lon="-4.56654">
        <ele>37</ele>
        <time>2026-05-17T14:42:35.164Z</time>
      </trkpt>
      <trkpt lat="48.59589" lon="-4.56659">
        <ele>37</ele>
        <time>2026-05-17T14:42:39.564Z</time>
      </trkpt>
      <trkpt lat="48.59593" lon="-4.56664">
        <ele>37</ele>
        <time>2026-05-17T14:42:44.274Z</time>
      </trkpt>
      <trkpt lat="48.59596" lon="-4.5667">
        <ele>37</ele>
        <time>2026-05-17T14:42:48.624Z</time>
      </trkpt>
      <trkpt lat="48.59601" lon="-4.56671">
        <ele>35</ele>
        <time>2026-05-17T14:42:52.543Z</time>
      </trkpt>
      <trkpt lat="48.59607" lon="-4.56675">
        <ele>35</ele>
        <time>2026-05-17T14:42:57.441Z</time>
      </trkpt>
      <trkpt lat="48.59611" lon="-4.56681">
        <ele>35</ele>
        <time>2026-05-17T14:43:01.700Z</time>
      </trkpt>
      <trkpt lat="48.59615" lon="-4.56684">
        <ele>35</ele>
        <time>2026-05-17T14:43:05.835Z</time>
      </trkpt>
      <trkpt lat="48.5962" lon="-4.56687">
        <ele>35</ele>
        <time>2026-05-17T14:43:10.241Z</time>
      </trkpt>
      <trkpt lat="48.59621" lon="-4.56687">
        <ele>35</ele>
        <time>2026-05-17T14:43:10.829Z</time>
      </trkpt>
      <trkpt lat="48.59621" lon="-4.56688">
        <ele>35</ele>
        <time>2026-05-17T14:43:19.827Z</time>
      </trkpt>
      <trkpt lat="48.59626" lon="-4.56695">
        <ele>33</ele>
        <time>2026-05-17T14:43:23.946Z</time>
      </trkpt>
      <trkpt lat="48.59632" lon="-4.56699">
        <ele>33</ele>
        <time>2026-05-17T14:43:28.227Z</time>
      </trkpt>
      <trkpt lat="48.59638" lon="-4.56704">
        <ele>33</ele>
        <time>2026-05-17T14:43:32.458Z</time>
      </trkpt>
      <trkpt lat="48.59642" lon="-4.5671">
        <ele>34</ele>
        <time>2026-05-17T14:43:36.830Z</time>
      </trkpt>
      <trkpt lat="48.59644" lon="-4.56713">
        <ele>34</ele>
        <time>2026-05-17T14:43:41.768Z</time>
      </trkpt>
      <trkpt lat="48.59648" lon="-4.56717">
        <ele>34</ele>
        <time>2026-05-17T14:43:46.284Z</time>
      </trkpt>
      <trkpt lat="48.59651" lon="-4.56721">
        <ele>34</ele>
        <time>2026-05-17T14:43:50.833Z</time>
      </trkpt>
      <trkpt lat="48.59653" lon="-4.5673">
        <ele>30</ele>
        <time>2026-05-17T14:43:55.484Z</time>
      </trkpt>
      <trkpt lat="48.59656" lon="-4.56735">
        <ele>30</ele>
        <time>2026-05-17T14:43:59.503Z</time>
      </trkpt>
      <trkpt lat="48.59658" lon="-4.56741">
        <ele>29</ele>
        <time>2026-05-17T14:44:03.805Z</time>
      </trkpt>
      <trkpt lat="48.59657" lon="-4.56746">
        <ele>29</ele>
        <time>2026-05-17T14:44:07.835Z</time>
      </trkpt>
      <trkpt lat="48.5966" lon="-4.56748">
        <ele>29</ele>
        <time>2026-05-17T14:44:12.837Z</time>
      </trkpt>
      <trkpt lat="48.59662" lon="-4.56753">
        <ele>29</ele>
        <time>2026-05-17T14:44:17.263Z</time>
      </trkpt>
      <trkpt lat="48.59664" lon="-4.5676">
        <ele>29</ele>
        <time>2026-05-17T14:44:21.623Z</time>
      </trkpt>
      <trkpt lat="48.59666" lon="-4.56765">
        <ele>27</ele>
        <time>2026-05-17T14:44:25.830Z</time>
      </trkpt>
      <trkpt lat="48.59668" lon="-4.5677">
        <ele>27</ele>
        <time>2026-05-17T14:44:30.285Z</time>
      </trkpt>
      <trkpt lat="48.5967" lon="-4.56774">
        <ele>27</ele>
        <time>2026-05-17T14:44:34.833Z</time>
      </trkpt>
      <trkpt lat="48.59672" lon="-4.56781">
        <ele>27</ele>
        <time>2026-05-17T14:44:39.126Z</time>
      </trkpt>
      <trkpt lat="48.59676" lon="-4.56787">
        <ele>27</ele>
        <time>2026-05-17T14:44:43.640Z</time>
      </trkpt>
      <trkpt lat="48.59679" lon="-4.56791">
        <ele>27</ele>
        <time>2026-05-17T14:44:47.659Z</time>
      </trkpt>
      <trkpt lat="48.59683" lon="-4.56794">
        <ele>17</ele>
        <time>2026-05-17T14:44:51.703Z</time>
      </trkpt>
      <trkpt lat="48.59688" lon="-4.56797">
        <ele>17</ele>
        <time>2026-05-17T14:44:55.829Z</time>
      </trkpt>
      <trkpt lat="48.59695" lon="-4.56798">
        <ele>17</ele>
        <time>2026-05-17T14:45:00.203Z</time>
      </trkpt>
      <trkpt lat="48.59701" lon="-4.568">
        <ele>17</ele>
        <time>2026-05-17T14:45:04.624Z</time>
      </trkpt>
      <trkpt lat="48.59706" lon="-4.56802">
        <ele>17</ele>
        <time>2026-05-17T14:45:08.686Z</time>
      </trkpt>
      <trkpt lat="48.59713" lon="-4.56802">
        <ele>14</ele>
        <time>2026-05-17T14:45:12.768Z</time>
      </trkpt>
      <trkpt lat="48.59718" lon="-4.56801">
        <ele>14</ele>
        <time>2026-05-17T14:45:17.203Z</time>
      </trkpt>
      <trkpt lat="48.59724" lon="-4.56801">
        <ele>14</ele>
        <time>2026-05-17T14:45:21.664Z</time>
      </trkpt>
      <trkpt lat="48.59729" lon="-4.56801">
        <ele>14</ele>
        <time>2026-05-17T14:45:26.264Z</time>
      </trkpt>
      <trkpt lat="48.59733" lon="-4.56802">
        <ele>14</ele>
        <time>2026-05-17T14:45:30.317Z</time>
      </trkpt>
      <trkpt lat="48.59738" lon="-4.56802">
        <ele>11</ele>
        <time>2026-05-17T14:45:34.831Z</time>
      </trkpt>
      <trkpt lat="48.59738" lon="-4.56803">
        <ele>11</ele>
        <time>2026-05-17T14:45:39.835Z</time>
      </trkpt>
      <trkpt lat="48.59739" lon="-4.56803">
        <ele>11</ele>
        <time>2026-05-17T14:45:44.440Z</time>
      </trkpt>
      <trkpt lat="48.59746" lon="-4.56803">
        <ele>11</ele>
        <time>2026-05-17T14:45:48.622Z</time>
      </trkpt>
      <trkpt lat="48.59752" lon="-4.56807">
        <ele>11</ele>
        <time>2026-05-17T14:45:52.835Z</time>
      </trkpt>
      <trkpt lat="48.59757" lon="-4.56812">
        <ele>11</ele>
        <time>2026-05-17T14:45:56.836Z</time>
      </trkpt>
      <trkpt lat="48.59762" lon="-4.56816">
        <ele>11</ele>
        <time>2026-05-17T14:46:01.242Z</time>
      </trkpt>
      <trkpt lat="48.59765" lon="-4.5682">
        <ele>5</ele>
        <time>2026-05-17T14:46:05.502Z</time>
      </trkpt>
      <trkpt lat="48.59767" lon="-4.56826">
        <ele>5</ele>
        <time>2026-05-17T14:46:09.838Z</time>
      </trkpt>
      <trkpt lat="48.5977" lon="-4.56831">
        <ele>5</ele>
        <time>2026-05-17T14:46:14.459Z</time>
      </trkpt>
      <trkpt lat="48.5977" lon="-4.5684">
        <ele>5</ele>
        <time>2026-05-17T14:46:19.605Z</time>
      </trkpt>
      <trkpt lat="48.59765" lon="-4.56848">
        <ele>4</ele>
        <time>2026-05-17T14:46:24.087Z</time>
      </trkpt>
      <trkpt lat="48.59762" lon="-4.56853">
        <ele>7</ele>
        <time>2026-05-17T14:46:28.836Z</time>
      </trkpt>
      <trkpt lat="48.59763" lon="-4.56851">
        <ele>7</ele>
        <time>2026-05-17T14:46:33.835Z</time>
      </trkpt>
      <trkpt lat="48.59762" lon="-4.56851">
        <ele>7</ele>
        <time>2026-05-17T14:46:38.703Z</time>
      </trkpt>
      <trkpt lat="48.5976" lon="-4.56853">
        <ele>7</ele>
        <time>2026-05-17T14:46:40.289Z</time>
      </trkpt>
      <trkpt lat="48.59752" lon="-4.5685">
        <ele>7</ele>
        <time>2026-05-17T14:46:49.836Z</time>
      </trkpt>
      <trkpt lat="48.59753" lon="-4.5685">
        <ele>7</ele>
        <time>2026-05-17T14:46:54.699Z</time>
      </trkpt>
      <trkpt lat="48.59755" lon="-4.56848">
        <ele>7</ele>
        <time>2026-05-17T14:46:58.744Z</time>
      </trkpt>
      <trkpt lat="48.59762" lon="-4.56847">
        <ele>10</ele>
        <time>2026-05-17T14:47:03.480Z</time>
      </trkpt>
      <trkpt lat="48.59764" lon="-4.56837">
        <ele>10</ele>
        <time>2026-05-17T14:47:07.746Z</time>
      </trkpt>
      <trkpt lat="48.59764" lon="-4.56834">
        <ele>5</ele>
        <time>2026-05-17T14:47:33.721Z</time>
      </trkpt>
      <trkpt lat="48.59762" lon="-4.56838">
        <ele>10</ele>
        <time>2026-05-17T14:47:38.023Z</time>
      </trkpt>
      <trkpt lat="48.59758" lon="-4.56844">
        <ele>10</ele>
        <time>2026-05-17T14:47:42.443Z</time>
      </trkpt>
      <trkpt lat="48.59758" lon="-4.56845">
        <ele>10</ele>
        <time>2026-05-17T14:47:46.841Z</time>
      </trkpt>
      <trkpt lat="48.59758" lon="-4.56846">
        <ele>10</ele>
        <time>2026-05-17T14:47:51.837Z</time>
      </trkpt>
      <trkpt lat="48.59756" lon="-4.56855">
        <ele>7</ele>
        <time>2026-05-17T14:49:32.828Z</time>
      </trkpt>
      <trkpt lat="48.59753" lon="-4.56858">
        <ele>7</ele>
        <time>2026-05-17T14:49:36.834Z</time>
      </trkpt>
      <trkpt lat="48.59748" lon="-4.56861">
        <ele>7</ele>
        <time>2026-05-17T14:49:41.220Z</time>
      </trkpt>
      <trkpt lat="48.59743" lon="-4.56861">
        <ele>7</ele>
        <time>2026-05-17T14:49:45.439Z</time>
      </trkpt>
      <trkpt lat="48.59739" lon="-4.56863">
        <ele>7</ele>
        <time>2026-05-17T14:49:49.580Z</time>
      </trkpt>
      <trkpt lat="48.59735" lon="-4.56867">
        <ele>8</ele>
        <time>2026-05-17T14:49:53.835Z</time>
      </trkpt>
      <trkpt lat="48.5973" lon="-4.56869">
        <ele>8</ele>
        <time>2026-05-17T14:49:57.829Z</time>
      </trkpt>
      <trkpt lat="48.59726" lon="-4.56874">
        <ele>8</ele>
        <time>2026-05-17T14:50:02.081Z</time>
      </trkpt>
      <trkpt lat="48.59721" lon="-4.56881">
        <ele>4</ele>
        <time>2026-05-17T14:50:06.520Z</time>
      </trkpt>
      <trkpt lat="48.59717" lon="-4.56887">
        <ele>4</ele>
        <time>2026-05-17T14:50:10.832Z</time>
      </trkpt>
      <trkpt lat="48.59713" lon="-4.56893">
        <ele>4</ele>
        <time>2026-05-17T14:50:15.677Z</time>
      </trkpt>
      <trkpt lat="48.5971" lon="-4.569">
        <ele>4</ele>
        <time>2026-05-17T14:50:19.720Z</time>
      </trkpt>
      <trkpt lat="48.59708" lon="-4.56903">
        <ele>4.9</ele>
        <time>2026-05-17T14:50:23.827Z</time>
      </trkpt>
      <trkpt lat="48.59706" lon="-4.56905">
        <ele>4</ele>
        <time>2026-05-17T14:50:27.834Z</time>
      </trkpt>
      <trkpt lat="48.59701" lon="-4.56912">
        <ele>4</ele>
        <time>2026-05-17T14:50:32.579Z</time>
      </trkpt>
      <trkpt lat="48.59698" lon="-4.56917">
        <ele>4</ele>
        <time>2026-05-17T14:50:36.756Z</time>
      </trkpt>
      <trkpt lat="48.59694" lon="-4.56922">
        <ele>4</ele>
        <time>2026-05-17T14:50:41.441Z</time>
      </trkpt>
      <trkpt lat="48.5969" lon="-4.56928">
        <ele>4</ele>
        <time>2026-05-17T14:50:46.040Z</time>
      </trkpt>
      <trkpt lat="48.5969" lon="-4.56932">
        <ele>1</ele>
        <time>2026-05-17T14:50:50.704Z</time>
      </trkpt>
      <trkpt lat="48.59692" lon="-4.56933">
        <ele>1</ele>
        <time>2026-05-17T14:50:54.820Z</time>
      </trkpt>
      <trkpt lat="48.59685" lon="-4.56938">
        <ele>1</ele>
        <time>2026-05-17T14:50:59.199Z</time>
      </trkpt>
      <trkpt lat="48.5968" lon="-4.56945">
        <ele>4</ele>
        <time>2026-05-17T14:51:03.836Z</time>
      </trkpt>
      <trkpt lat="48.59675" lon="-4.56951">
        <ele>4</ele>
        <time>2026-05-17T14:51:08.536Z</time>
      </trkpt>
      <trkpt lat="48.59672" lon="-4.56959">
        <ele>3</ele>
        <time>2026-05-17T14:51:13.155Z</time>
      </trkpt>
      <trkpt lat="48.59668" lon="-4.56966">
        <ele>3</ele>
        <time>2026-05-17T14:51:17.755Z</time>
      </trkpt>
      <trkpt lat="48.59666" lon="-4.56974">
        <ele>3</ele>
        <time>2026-05-17T14:51:22.379Z</time>
      </trkpt>
      <trkpt lat="48.59663" lon="-4.56972">
        <ele>3</ele>
        <time>2026-05-17T14:51:44.831Z</time>
      </trkpt>
      <trkpt lat="48.59663" lon="-4.56972">
        <ele>3</ele>
        <time>2026-05-17T14:51:52.385Z</time>
      </trkpt>
      <trkpt lat="48.59661" lon="-4.5697">
        <ele>3</ele>
        <time>2026-05-17T14:51:56.830Z</time>
      </trkpt>
      <trkpt lat="48.59656" lon="-4.56979">
        <ele>3</ele>
        <time>2026-05-17T14:52:01.421Z</time>
      </trkpt>
      <trkpt lat="48.59652" lon="-4.56985">
        <ele>6</ele>
        <time>2026-05-17T14:52:06.718Z</time>
      </trkpt>
      <trkpt lat="48.59646" lon="-4.5698">
        <ele>6</ele>
        <time>2026-05-17T14:52:24.541Z</time>
      </trkpt>
      <trkpt lat="48.5965" lon="-4.56982">
        <ele>6</ele>
        <time>2026-05-17T14:52:28.827Z</time>
      </trkpt>
      <trkpt lat="48.59654" lon="-4.56994">
        <ele>2</ele>
        <time>2026-05-17T14:52:33.237Z</time>
      </trkpt>
      <trkpt lat="48.59656" lon="-4.56995">
        <ele>2</ele>
        <time>2026-05-17T14:52:37.325Z</time>
      </trkpt>
      <trkpt lat="48.59656" lon="-4.56997">
        <ele>2</ele>
        <time>2026-05-17T14:52:41.828Z</time>
      </trkpt>
      <trkpt lat="48.59656" lon="-4.56996">
        <ele>2</ele>
        <time>2026-05-17T14:53:01.828Z</time>
      </trkpt>
      <trkpt lat="48.59654" lon="-4.57004">
        <ele>2</ele>
        <time>2026-05-17T14:53:06.463Z</time>
      </trkpt>
      <trkpt lat="48.59651" lon="-4.57011">
        <ele>4</ele>
        <time>2026-05-17T14:53:10.834Z</time>
      </trkpt>
      <trkpt lat="48.59648" lon="-4.5702">
        <ele>2</ele>
        <time>2026-05-17T14:53:15.698Z</time>
      </trkpt>
      <trkpt lat="48.59646" lon="-4.57026">
        <ele>2</ele>
        <time>2026-05-17T14:53:19.759Z</time>
      </trkpt>
      <trkpt lat="48.59643" lon="-4.57032">
        <ele>2</ele>
        <time>2026-05-17T14:53:23.849Z</time>
      </trkpt>
      <trkpt lat="48.59639" lon="-4.57032">
        <ele>2</ele>
        <time>2026-05-17T14:53:28.717Z</time>
      </trkpt>
      <trkpt lat="48.59637" lon="-4.57039">
        <ele>2</ele>
        <time>2026-05-17T14:53:33.834Z</time>
      </trkpt>
      <trkpt lat="48.59634" lon="-4.57045">
        <ele>-1</ele>
        <time>2026-05-17T14:53:37.861Z</time>
      </trkpt>
      <trkpt lat="48.59628" lon="-4.57057">
        <ele>-1</ele>
        <time>2026-05-17T14:53:56.140Z</time>
      </trkpt>
      <trkpt lat="48.59627" lon="-4.57057">
        <ele>-1</ele>
        <time>2026-05-17T14:54:00.830Z</time>
      </trkpt>
      <trkpt lat="48.59627" lon="-4.57058">
        <ele>-1</ele>
        <time>2026-05-17T14:54:05.836Z</time>
      </trkpt>
      <trkpt lat="48.59626" lon="-4.5706">
        <ele>-1</ele>
        <time>2026-05-17T14:54:10.377Z</time>
      </trkpt>
      <trkpt lat="48.5963" lon="-4.5707">
        <ele>-2</ele>
        <time>2026-05-17T14:54:14.835Z</time>
      </trkpt>
      <trkpt lat="48.59632" lon="-4.57081">
        <ele>-2</ele>
        <time>2026-05-17T14:54:19.641Z</time>
      </trkpt>
      <trkpt lat="48.59631" lon="-4.57086">
        <ele>-2</ele>
        <time>2026-05-17T14:54:23.830Z</time>
      </trkpt>
      <trkpt lat="48.59629" lon="-4.57091">
        <ele>-2</ele>
        <time>2026-05-17T14:54:28.040Z</time>
      </trkpt>
      <trkpt lat="48.59627" lon="-4.57098">
        <ele>1</ele>
        <time>2026-05-17T14:54:32.449Z</time>
      </trkpt>
      <trkpt lat="48.59625" lon="-4.57104">
        <ele>5</ele>
        <time>2026-05-17T14:54:46.830Z</time>
      </trkpt>
      <trkpt lat="48.59624" lon="-4.57107">
        <ele>5</ele>
        <time>2026-05-17T14:54:50.838Z</time>
      </trkpt>
      <trkpt lat="48.59622" lon="-4.57116">
        <ele>5</ele>
        <time>2026-05-17T14:54:55.831Z</time>
      </trkpt>
      <trkpt lat="48.59619" lon="-4.57122">
        <ele>5</ele>
        <time>2026-05-17T14:55:00.829Z</time>
      </trkpt>
      <trkpt lat="48.59616" lon="-4.57128">
        <ele>7</ele>
        <time>2026-05-17T14:55:05.231Z</time>
      </trkpt>
      <trkpt lat="48.59615" lon="-4.57136">
        <ele>7</ele>
        <time>2026-05-17T14:55:09.736Z</time>
      </trkpt>
      <trkpt lat="48.59614" lon="-4.57144">
        <ele>7</ele>
        <time>2026-05-17T14:55:14.235Z</time>
      </trkpt>
      <trkpt lat="48.59612" lon="-4.57151">
        <ele>7</ele>
        <time>2026-05-17T14:55:18.611Z</time>
      </trkpt>
      <trkpt lat="48.5961" lon="-4.57158">
        <ele>5</ele>
        <time>2026-05-17T14:55:22.619Z</time>
      </trkpt>
      <trkpt lat="48.59608" lon="-4.57165">
        <ele>5</ele>
        <time>2026-05-17T14:55:26.915Z</time>
      </trkpt>
      <trkpt lat="48.59605" lon="-4.57173">
        <ele>5</ele>
        <time>2026-05-17T14:55:31.115Z</time>
      </trkpt>
      <trkpt lat="48.59603" lon="-4.5718">
        <ele>5</ele>
        <time>2026-05-17T14:55:35.434Z</time>
      </trkpt>
      <trkpt lat="48.596" lon="-4.57188">
        <ele>3</ele>
        <time>2026-05-17T14:55:39.775Z</time>
      </trkpt>
      <trkpt lat="48.59597" lon="-4.57195">
        <ele>3</ele>
        <time>2026-05-17T14:55:44.008Z</time>
      </trkpt>
      <trkpt lat="48.59595" lon="-4.57203">
        <ele>12</ele>
        <time>2026-05-17T14:55:48.274Z</time>
      </trkpt>
      <trkpt lat="48.59594" lon="-4.57211">
        <ele>8</ele>
        <time>2026-05-17T14:55:52.354Z</time>
      </trkpt>
      <trkpt lat="48.59592" lon="-4.57218">
        <ele>8</ele>
        <time>2026-05-17T14:55:56.374Z</time>
      </trkpt>
      <trkpt lat="48.59589" lon="-4.57225">
        <ele>8</ele>
        <time>2026-05-17T14:56:00.825Z</time>
      </trkpt>
      <trkpt lat="48.59586" lon="-4.57231">
        <ele>8</ele>
        <time>2026-05-17T14:56:04.826Z</time>
      </trkpt>
      <trkpt lat="48.59584" lon="-4.57238">
        <ele>6</ele>
        <time>2026-05-17T14:56:08.936Z</time>
      </trkpt>
      <trkpt lat="48.59582" lon="-4.57246">
        <ele>6</ele>
        <time>2026-05-17T14:56:13.371Z</time>
      </trkpt>
      <trkpt lat="48.5958" lon="-4.57252">
        <ele>6</ele>
        <time>2026-05-17T14:56:17.535Z</time>
      </trkpt>
      <trkpt lat="48.5958" lon="-4.57258">
        <ele>6</ele>
        <time>2026-05-17T14:56:21.555Z</time>
      </trkpt>
      <trkpt lat="48.59577" lon="-4.57265">
        <ele>5</ele>
        <time>2026-05-17T14:56:25.827Z</time>
      </trkpt>
      <trkpt lat="48.59577" lon="-4.57273">
        <ele>5</ele>
        <time>2026-05-17T14:56:29.834Z</time>
      </trkpt>
      <trkpt lat="48.59578" lon="-4.57282">
        <ele>5</ele>
        <time>2026-05-17T14:56:34.448Z</time>
      </trkpt>
      <trkpt lat="48.59579" lon="-4.5729">
        <ele>5</ele>
        <time>2026-05-17T14:56:38.596Z</time>
      </trkpt>
      <trkpt lat="48.5958" lon="-4.57296">
        <ele>4</ele>
        <time>2026-05-17T14:56:42.708Z</time>
      </trkpt>
      <trkpt lat="48.59581" lon="-4.57303">
        <ele>4</ele>
        <time>2026-05-17T14:56:46.832Z</time>
      </trkpt>
      <trkpt lat="48.59581" lon="-4.57309">
        <ele>4</ele>
        <time>2026-05-17T14:56:51.591Z</time>
      </trkpt>
      <trkpt lat="48.59581" lon="-4.57315">
        <ele>4</ele>
        <time>2026-05-17T14:56:56.013Z</time>
      </trkpt>
      <trkpt lat="48.59581" lon="-4.57323">
        <ele>4</ele>
        <time>2026-05-17T14:57:00.475Z</time>
      </trkpt>
      <trkpt lat="48.59582" lon="-4.57329">
        <ele>4</ele>
        <time>2026-05-17T14:57:04.733Z</time>
      </trkpt>
      <trkpt lat="48.59584" lon="-4.57339">
        <ele>4</ele>
        <time>2026-05-17T14:57:09.408Z</time>
      </trkpt>
      <trkpt lat="48.59584" lon="-4.57347">
        <ele>4</ele>
        <time>2026-05-17T14:57:13.634Z</time>
      </trkpt>
      <trkpt lat="48.59584" lon="-4.57355">
        <ele>4</ele>
        <time>2026-05-17T14:57:17.838Z</time>
      </trkpt>
      <trkpt lat="48.59587" lon="-4.57359">
        <ele>4</ele>
        <time>2026-05-17T14:57:22.081Z</time>
      </trkpt>
      <trkpt lat="48.59589" lon="-4.57367">
        <ele>4</ele>
        <time>2026-05-17T14:57:26.715Z</time>
      </trkpt>
      <trkpt lat="48.59586" lon="-4.57374">
        <ele>4</ele>
        <time>2026-05-17T14:57:30.991Z</time>
      </trkpt>
      <trkpt lat="48.59588" lon="-4.57382">
        <ele>3</ele>
        <time>2026-05-17T14:57:35.337Z</time>
      </trkpt>
      <trkpt lat="48.59587" lon="-4.5739">
        <ele>3</ele>
        <time>2026-05-17T14:57:39.455Z</time>
      </trkpt>
      <trkpt lat="48.59584" lon="-4.57399">
        <ele>3</ele>
        <time>2026-05-17T14:57:43.832Z</time>
      </trkpt>
      <trkpt lat="48.59579" lon="-4.57404">
        <ele>2</ele>
        <time>2026-05-17T14:57:48.415Z</time>
      </trkpt>
      <trkpt lat="48.59576" lon="-4.57405">
        <ele>2</ele>
        <time>2026-05-17T14:57:52.827Z</time>
      </trkpt>
      <trkpt lat="48.59573" lon="-4.57408">
        <ele>2</ele>
        <time>2026-05-17T14:57:57.809Z</time>
      </trkpt>
      <trkpt lat="48.5957" lon="-4.57413">
        <ele>2</ele>
        <time>2026-05-17T14:58:02.472Z</time>
      </trkpt>
      <trkpt lat="48.59566" lon="-4.57417">
        <ele>8</ele>
        <time>2026-05-17T14:58:06.826Z</time>
      </trkpt>
      <trkpt lat="48.59564" lon="-4.57421">
        <ele>8</ele>
        <time>2026-05-17T14:58:11.309Z</time>
      </trkpt>
      <trkpt lat="48.59562" lon="-4.57428">
        <ele>8</ele>
        <time>2026-05-17T14:58:15.763Z</time>
      </trkpt>
      <trkpt lat="48.59558" lon="-4.57435">
        <ele>7</ele>
        <time>2026-05-17T14:58:20.363Z</time>
      </trkpt>
      <trkpt lat="48.59555" lon="-4.57442">
        <ele>7</ele>
        <time>2026-05-17T14:58:24.830Z</time>
      </trkpt>
      <trkpt lat="48.59554" lon="-4.5745">
        <ele>7</ele>
        <time>2026-05-17T14:58:29.409Z</time>
      </trkpt>
      <trkpt lat="48.59554" lon="-4.57458">
        <ele>7</ele>
        <time>2026-05-17T14:58:33.773Z</time>
      </trkpt>
      <trkpt lat="48.5955" lon="-4.57461">
        <ele>5</ele>
        <time>2026-05-17T14:58:37.829Z</time>
      </trkpt>
      <trkpt lat="48.59546" lon="-4.57466">
        <ele>5</ele>
        <time>2026-05-17T14:58:42.149Z</time>
      </trkpt>
      <trkpt lat="48.59545" lon="-4.57472">
        <ele>5</ele>
        <time>2026-05-17T14:58:46.228Z</time>
      </trkpt>
      <trkpt lat="48.59542" lon="-4.57479">
        <ele>5</ele>
        <time>2026-05-17T14:58:50.840Z</time>
      </trkpt>
      <trkpt lat="48.5954" lon="-4.57486">
        <ele>7</ele>
        <time>2026-05-17T14:58:55.294Z</time>
      </trkpt>
      <trkpt lat="48.59538" lon="-4.57495">
        <ele>7</ele>
        <time>2026-05-17T14:58:59.827Z</time>
      </trkpt>
      <trkpt lat="48.59537" lon="-4.57505">
        <ele>7</ele>
        <time>2026-05-17T14:59:04.429Z</time>
      </trkpt>
      <trkpt lat="48.59538" lon="-4.57512">
        <ele>7</ele>
        <time>2026-05-17T14:59:08.528Z</time>
      </trkpt>
      <trkpt lat="48.59538" lon="-4.5752">
        <ele>5</ele>
        <time>2026-05-17T14:59:12.630Z</time>
      </trkpt>
      <trkpt lat="48.59536" lon="-4.57528">
        <ele>5</ele>
        <time>2026-05-17T14:59:17.187Z</time>
      </trkpt>
      <trkpt lat="48.59535" lon="-4.57536">
        <ele>5</ele>
        <time>2026-05-17T14:59:21.837Z</time>
      </trkpt>
      <trkpt lat="48.59535" lon="-4.57545">
        <ele>5</ele>
        <time>2026-05-17T14:59:26.325Z</time>
      </trkpt>
      <trkpt lat="48.59537" lon="-4.57553">
        <ele>5</ele>
        <time>2026-05-17T14:59:30.388Z</time>
      </trkpt>
      <trkpt lat="48.59536" lon="-4.57562">
        <ele>5</ele>
        <time>2026-05-17T14:59:34.828Z</time>
      </trkpt>
      <trkpt lat="48.59534" lon="-4.5757">
        <ele>6</ele>
        <time>2026-05-17T14:59:38.964Z</time>
      </trkpt>
      <trkpt lat="48.59534" lon="-4.57578">
        <ele>6</ele>
        <time>2026-05-17T14:59:43.427Z</time>
      </trkpt>
      <trkpt lat="48.59533" lon="-4.57585">
        <ele>6</ele>
        <time>2026-05-17T14:59:47.568Z</time>
      </trkpt>
      <trkpt lat="48.59531" lon="-4.57594">
        <ele>6</ele>
        <time>2026-05-17T14:59:52.446Z</time>
      </trkpt>
      <trkpt lat="48.59529" lon="-4.57601">
        <ele>6</ele>
        <time>2026-05-17T14:59:56.526Z</time>
      </trkpt>
      <trkpt lat="48.59528" lon="-4.57609">
        <ele>6</ele>
        <time>2026-05-17T15:00:00.605Z</time>
      </trkpt>
      <trkpt lat="48.59528" lon="-4.57617">
        <ele>6</ele>
        <time>2026-05-17T15:00:05.169Z</time>
      </trkpt>
      <trkpt lat="48.59529" lon="-4.57625">
        <ele>6</ele>
        <time>2026-05-17T15:00:09.308Z</time>
      </trkpt>
      <trkpt lat="48.59529" lon="-4.57632">
        <ele>6</ele>
        <time>2026-05-17T15:00:13.405Z</time>
      </trkpt>
      <trkpt lat="48.59529" lon="-4.5764">
        <ele>6</ele>
        <time>2026-05-17T15:00:17.989Z</time>
      </trkpt>
      <trkpt lat="48.59529" lon="-4.5765">
        <ele>6</ele>
        <time>2026-05-17T15:00:22.349Z</time>
      </trkpt>
      <trkpt lat="48.59529" lon="-4.57657">
        <ele>5</ele>
        <time>2026-05-17T15:00:26.383Z</time>
      </trkpt>
      <trkpt lat="48.59529" lon="-4.57664">
        <ele>5</ele>
        <time>2026-05-17T15:00:30.825Z</time>
      </trkpt>
      <trkpt lat="48.59529" lon="-4.57666">
        <ele>5</ele>
        <time>2026-05-17T15:00:35.327Z</time>
      </trkpt>
      <trkpt lat="48.5953" lon="-4.57675">
        <ele>5</ele>
        <time>2026-05-17T15:00:39.688Z</time>
      </trkpt>
      <trkpt lat="48.59531" lon="-4.57684">
        <ele>5</ele>
        <time>2026-05-17T15:00:44.526Z</time>
      </trkpt>
      <trkpt lat="48.59531" lon="-4.57693">
        <ele>5</ele>
        <time>2026-05-17T15:00:48.990Z</time>
      </trkpt>
      <trkpt lat="48.59531" lon="-4.57701">
        <ele>5</ele>
        <time>2026-05-17T15:00:53.470Z</time>
      </trkpt>
      <trkpt lat="48.59529" lon="-4.57709">
        <ele>5</ele>
        <time>2026-05-17T15:00:57.967Z</time>
      </trkpt>
      <trkpt lat="48.59526" lon="-4.57716">
        <ele>5</ele>
        <time>2026-05-17T15:01:02.063Z</time>
      </trkpt>
      <trkpt lat="48.59523" lon="-4.57722">
        <ele>5</ele>
        <time>2026-05-17T15:01:06.667Z</time>
      </trkpt>
      <trkpt lat="48.59527" lon="-4.57728">
        <ele>5</ele>
        <time>2026-05-17T15:01:10.708Z</time>
      </trkpt>
      <trkpt lat="48.59528" lon="-4.57736">
        <ele>7</ele>
        <time>2026-05-17T15:01:15.190Z</time>
      </trkpt>
      <trkpt lat="48.59527" lon="-4.57743">
        <ele>7</ele>
        <time>2026-05-17T15:01:19.249Z</time>
      </trkpt>
      <trkpt lat="48.59526" lon="-4.57752">
        <ele>7</ele>
        <time>2026-05-17T15:01:23.824Z</time>
      </trkpt>
      <trkpt lat="48.59526" lon="-4.57759">
        <ele>7</ele>
        <time>2026-05-17T15:01:28.047Z</time>
      </trkpt>
      <trkpt lat="48.59525" lon="-4.57766">
        <ele>8</ele>
        <time>2026-05-17T15:01:32.264Z</time>
      </trkpt>
      <trkpt lat="48.59525" lon="-4.57774">
        <ele>8</ele>
        <time>2026-05-17T15:01:36.325Z</time>
      </trkpt>
      <trkpt lat="48.59525" lon="-4.57782">
        <ele>8</ele>
        <time>2026-05-17T15:01:40.835Z</time>
      </trkpt>
      <trkpt lat="48.59525" lon="-4.57789">
        <ele>8</ele>
        <time>2026-05-17T15:01:45.167Z</time>
      </trkpt>
      <trkpt lat="48.59525" lon="-4.57796">
        <ele>9</ele>
        <time>2026-05-17T15:01:49.348Z</time>
      </trkpt>
      <trkpt lat="48.59525" lon="-4.57804">
        <ele>9</ele>
        <time>2026-05-17T15:01:53.531Z</time>
      </trkpt>
      <trkpt lat="48.59523" lon="-4.57811">
        <ele>9</ele>
        <time>2026-05-17T15:01:57.829Z</time>
      </trkpt>
      <trkpt lat="48.59521" lon="-4.57815">
        <ele>9</ele>
        <time>2026-05-17T15:02:02.829Z</time>
      </trkpt>
      <trkpt lat="48.59521" lon="-4.57815">
        <ele>9</ele>
        <time>2026-05-17T15:02:08.833Z</time>
      </trkpt>
      <trkpt lat="48.59521" lon="-4.57815">
        <ele>9</ele>
        <time>2026-05-17T15:02:13.830Z</time>
      </trkpt>
      <trkpt lat="48.59521" lon="-4.57816">
        <ele>9</ele>
        <time>2026-05-17T15:02:17.828Z</time>
      </trkpt>
      <trkpt lat="48.59524" lon="-4.57821">
        <ele>11</ele>
        <time>2026-05-17T15:02:22.341Z</time>
      </trkpt>
      <trkpt lat="48.59525" lon="-4.5783">
        <ele>11</ele>
        <time>2026-05-17T15:02:26.607Z</time>
      </trkpt>
      <trkpt lat="48.59527" lon="-4.57839">
        <ele>11</ele>
        <time>2026-05-17T15:02:31.045Z</time>
      </trkpt>
      <trkpt lat="48.59529" lon="-4.57848">
        <ele>11</ele>
        <time>2026-05-17T15:02:35.567Z</time>
      </trkpt>
      <trkpt lat="48.59531" lon="-4.57855">
        <ele>11</ele>
        <time>2026-05-17T15:02:40.049Z</time>
      </trkpt>
      <trkpt lat="48.59531" lon="-4.57863">
        <ele>11</ele>
        <time>2026-05-17T15:02:44.742Z</time>
      </trkpt>
      <trkpt lat="48.5953" lon="-4.57872">
        <ele>11</ele>
        <time>2026-05-17T15:02:49.308Z</time>
      </trkpt>
      <trkpt lat="48.59531" lon="-4.57879">
        <ele>10</ele>
        <time>2026-05-17T15:02:53.705Z</time>
      </trkpt>
      <trkpt lat="48.59527" lon="-4.57886">
        <ele>10</ele>
        <time>2026-05-17T15:02:57.987Z</time>
      </trkpt>
      <trkpt lat="48.59522" lon="-4.57887">
        <ele>10</ele>
        <time>2026-05-17T15:03:02.171Z</time>
      </trkpt>
      <trkpt lat="48.59517" lon="-4.57885">
        <ele>10</ele>
        <time>2026-05-17T15:03:06.384Z</time>
      </trkpt>
      <trkpt lat="48.59515" lon="-4.5788">
        <ele>10</ele>
        <time>2026-05-17T15:03:10.822Z</time>
      </trkpt>
      <trkpt lat="48.59512" lon="-4.57873">
        <ele>12</ele>
        <time>2026-05-17T15:03:15.828Z</time>
      </trkpt>
      <trkpt lat="48.59509" lon="-4.57867">
        <ele>12</ele>
        <time>2026-05-17T15:03:20.627Z</time>
      </trkpt>
      <trkpt lat="48.59504" lon="-4.57863">
        <ele>12</ele>
        <time>2026-05-17T15:03:24.831Z</time>
      </trkpt>
      <trkpt lat="48.59501" lon="-4.57857">
        <ele>12</ele>
        <time>2026-05-17T15:03:29.526Z</time>
      </trkpt>
      <trkpt lat="48.59499" lon="-4.57851">
        <ele>12</ele>
        <time>2026-05-17T15:03:33.834Z</time>
      </trkpt>
      <trkpt lat="48.59496" lon="-4.57846">
        <ele>13</ele>
        <time>2026-05-17T15:03:38.343Z</time>
      </trkpt>
      <trkpt lat="48.59492" lon="-4.57842">
        <ele>13</ele>
        <time>2026-05-17T15:03:42.828Z</time>
      </trkpt>
      <trkpt lat="48.59489" lon="-4.57838">
        <ele>13</ele>
        <time>2026-05-17T15:03:47.508Z</time>
      </trkpt>
      <trkpt lat="48.59486" lon="-4.57834">
        <ele>15</ele>
        <time>2026-05-17T15:03:51.827Z</time>
      </trkpt>
      <trkpt lat="48.59482" lon="-4.57831">
        <ele>15</ele>
        <time>2026-05-17T15:03:56.829Z</time>
      </trkpt>
      <trkpt lat="48.59479" lon="-4.57831">
        <ele>15</ele>
        <time>2026-05-17T15:04:01.007Z</time>
      </trkpt>
      <trkpt lat="48.59474" lon="-4.57829">
        <ele>15</ele>
        <time>2026-05-17T15:04:05.206Z</time>
      </trkpt>
      <trkpt lat="48.59469" lon="-4.57829">
        <ele>15</ele>
        <time>2026-05-17T15:04:09.764Z</time>
      </trkpt>
      <trkpt lat="48.59463" lon="-4.57828">
        <ele>15</ele>
        <time>2026-05-17T15:04:14.261Z</time>
      </trkpt>
      <trkpt lat="48.59459" lon="-4.57826">
        <ele>15</ele>
        <time>2026-05-17T15:04:18.305Z</time>
      </trkpt>
      <trkpt lat="48.59453" lon="-4.57823">
        <ele>18</ele>
        <time>2026-05-17T15:04:22.830Z</time>
      </trkpt>
      <trkpt lat="48.59449" lon="-4.5782">
        <ele>18</ele>
        <time>2026-05-17T15:04:27.181Z</time>
      </trkpt>
      <trkpt lat="48.59445" lon="-4.57817">
        <ele>20</ele>
        <time>2026-05-17T15:04:31.227Z</time>
      </trkpt>
      <trkpt lat="48.5944" lon="-4.57815">
        <ele>20</ele>
        <time>2026-05-17T15:04:35.706Z</time>
      </trkpt>
      <trkpt lat="48.59434" lon="-4.57814">
        <ele>20</ele>
        <time>2026-05-17T15:04:40.127Z</time>
      </trkpt>
      <trkpt lat="48.59428" lon="-4.57814">
        <ele>22</ele>
        <time>2026-05-17T15:04:44.547Z</time>
      </trkpt>
      <trkpt lat="48.59423" lon="-4.57813">
        <ele>22</ele>
        <time>2026-05-17T15:04:48.832Z</time>
      </trkpt>
      <trkpt lat="48.59417" lon="-4.57811">
        <ele>22</ele>
        <time>2026-05-17T15:04:53.166Z</time>
      </trkpt>
      <trkpt lat="48.59412" lon="-4.57808">
        <ele>22</ele>
        <time>2026-05-17T15:04:57.568Z</time>
      </trkpt>
      <trkpt lat="48.59406" lon="-4.57805">
        <ele>22</ele>
        <time>2026-05-17T15:05:01.832Z</time>
      </trkpt>
      <trkpt lat="48.59401" lon="-4.57803">
        <ele>22</ele>
        <time>2026-05-17T15:05:06.163Z</time>
      </trkpt>
      <trkpt lat="48.59396" lon="-4.57802">
        <ele>22</ele>
        <time>2026-05-17T15:05:10.702Z</time>
      </trkpt>
      <trkpt lat="48.59391" lon="-4.578">
        <ele>22</ele>
        <time>2026-05-17T15:05:14.807Z</time>
      </trkpt>
      <trkpt lat="48.59387" lon="-4.57798">
        <ele>22</ele>
        <time>2026-05-17T15:05:18.825Z</time>
      </trkpt>
      <trkpt lat="48.59383" lon="-4.57797">
        <ele>22</ele>
        <time>2026-05-17T15:05:23.084Z</time>
      </trkpt>
      <trkpt lat="48.59378" lon="-4.57797">
        <ele>22</ele>
        <time>2026-05-17T15:05:27.283Z</time>
      </trkpt>
      <trkpt lat="48.59373" lon="-4.57794">
        <ele>24</ele>
        <time>2026-05-17T15:05:31.512Z</time>
      </trkpt>
      <trkpt lat="48.5937" lon="-4.57787">
        <ele>27</ele>
        <time>2026-05-17T15:05:35.808Z</time>
      </trkpt>
      <trkpt lat="48.59368" lon="-4.57783">
        <ele>27</ele>
        <time>2026-05-17T15:05:39.830Z</time>
      </trkpt>
      <trkpt lat="48.59364" lon="-4.5778">
        <ele>27</ele>
        <time>2026-05-17T15:05:44.683Z</time>
      </trkpt>
      <trkpt lat="48.5936" lon="-4.57774">
        <ele>27</ele>
        <time>2026-05-17T15:05:49.206Z</time>
      </trkpt>
      <trkpt lat="48.59355" lon="-4.57769">
        <ele>27</ele>
        <time>2026-05-17T15:05:53.668Z</time>
      </trkpt>
      <trkpt lat="48.59351" lon="-4.57763">
        <ele>28</ele>
        <time>2026-05-17T15:05:57.987Z</time>
      </trkpt>
      <trkpt lat="48.59346" lon="-4.57759">
        <ele>30</ele>
        <time>2026-05-17T15:06:02.526Z</time>
      </trkpt>
      <trkpt lat="48.59342" lon="-4.57755">
        <ele>30</ele>
        <time>2026-05-17T15:06:07.109Z</time>
      </trkpt>
      <trkpt lat="48.59338" lon="-4.57751">
        <ele>30</ele>
        <time>2026-05-17T15:06:11.188Z</time>
      </trkpt>
      <trkpt lat="48.59334" lon="-4.57747">
        <ele>30</ele>
        <time>2026-05-17T15:06:15.428Z</time>
      </trkpt>
      <trkpt lat="48.5933" lon="-4.57744">
        <ele>30</ele>
        <time>2026-05-17T15:06:19.601Z</time>
      </trkpt>
      <trkpt lat="48.59327" lon="-4.5774">
        <ele>30</ele>
        <time>2026-05-17T15:06:23.830Z</time>
      </trkpt>
      <trkpt lat="48.59322" lon="-4.57736">
        <ele>31</ele>
        <time>2026-05-17T15:06:28.841Z</time>
      </trkpt>
      <trkpt lat="48.59318" lon="-4.57733">
        <ele>33</ele>
        <time>2026-05-17T15:06:33.041Z</time>
      </trkpt>
      <trkpt lat="48.59313" lon="-4.5773">
        <ele>33</ele>
        <time>2026-05-17T15:06:37.102Z</time>
      </trkpt>
      <trkpt lat="48.59309" lon="-4.57728">
        <ele>33</ele>
        <time>2026-05-17T15:06:41.225Z</time>
      </trkpt>
      <trkpt lat="48.59305" lon="-4.57726">
        <ele>33</ele>
        <time>2026-05-17T15:06:45.346Z</time>
      </trkpt>
      <trkpt lat="48.593" lon="-4.57723">
        <ele>33</ele>
        <time>2026-05-17T15:06:49.486Z</time>
      </trkpt>
      <trkpt lat="48.59296" lon="-4.57721">
        <ele>33</ele>
        <time>2026-05-17T15:06:53.547Z</time>
      </trkpt>
      <trkpt lat="48.59291" lon="-4.57719">
        <ele>37</ele>
        <time>2026-05-17T15:06:57.731Z</time>
      </trkpt>
      <trkpt lat="48.59287" lon="-4.57715">
        <ele>37</ele>
        <time>2026-05-17T15:07:02.003Z</time>
      </trkpt>
      <trkpt lat="48.59283" lon="-4.5771">
        <ele>37</ele>
        <time>2026-05-17T15:07:06.107Z</time>
      </trkpt>
      <trkpt lat="48.5928" lon="-4.57709">
        <ele>37</ele>
        <time>2026-05-17T15:07:10.408Z</time>
      </trkpt>
      <trkpt lat="48.59276" lon="-4.57704">
        <ele>36</ele>
        <time>2026-05-17T15:07:14.503Z</time>
      </trkpt>
      <trkpt lat="48.59271" lon="-4.57701">
        <ele>36</ele>
        <time>2026-05-17T15:07:18.826Z</time>
      </trkpt>
      <trkpt lat="48.59265" lon="-4.57698">
        <ele>36</ele>
        <time>2026-05-17T15:07:23.361Z</time>
      </trkpt>
      <trkpt lat="48.5926" lon="-4.57695">
        <ele>38</ele>
        <time>2026-05-17T15:07:27.832Z</time>
      </trkpt>
      <trkpt lat="48.59255" lon="-4.57692">
        <ele>38</ele>
        <time>2026-05-17T15:07:32.381Z</time>
      </trkpt>
      <trkpt lat="48.5925" lon="-4.57689">
        <ele>38</ele>
        <time>2026-05-17T15:07:36.784Z</time>
      </trkpt>
      <trkpt lat="48.59245" lon="-4.57686">
        <ele>38</ele>
        <time>2026-05-17T15:07:41.324Z</time>
      </trkpt>
      <trkpt lat="48.59239" lon="-4.57684">
        <ele>38</ele>
        <time>2026-05-17T15:07:45.668Z</time>
      </trkpt>
      <trkpt lat="48.59234" lon="-4.57682">
        <ele>40</ele>
        <time>2026-05-17T15:07:50.102Z</time>
      </trkpt>
      <trkpt lat="48.59229" lon="-4.57678">
        <ele>40</ele>
        <time>2026-05-17T15:07:54.645Z</time>
      </trkpt>
      <trkpt lat="48.59225" lon="-4.57678">
        <ele>40</ele>
        <time>2026-05-17T15:07:59.346Z</time>
      </trkpt>
      <trkpt lat="48.59215" lon="-4.57687">
        <ele>40</ele>
        <time>2026-05-17T15:08:17.667Z</time>
      </trkpt>
      <trkpt lat="48.59217" lon="-4.57675">
        <ele>40</ele>
        <time>2026-05-17T15:08:21.829Z</time>
      </trkpt>
      <trkpt lat="48.59219" lon="-4.57668">
        <ele>40</ele>
        <time>2026-05-17T15:08:26.825Z</time>
      </trkpt>
      <trkpt lat="48.59221" lon="-4.57663">
        <ele>40</ele>
        <time>2026-05-17T15:08:31.484Z</time>
      </trkpt>
      <trkpt lat="48.59224" lon="-4.57656">
        <ele>40</ele>
        <time>2026-05-17T15:08:35.828Z</time>
      </trkpt>
      <trkpt lat="48.59225" lon="-4.57649">
        <ele>39</ele>
        <time>2026-05-17T15:08:40.527Z</time>
      </trkpt>
      <trkpt lat="48.59226" lon="-4.57643">
        <ele>39</ele>
        <time>2026-05-17T15:08:44.580Z</time>
      </trkpt>
      <trkpt lat="48.59227" lon="-4.57635">
        <ele>39</ele>
        <time>2026-05-17T15:08:48.830Z</time>
      </trkpt>
      <trkpt lat="48.59227" lon="-4.57628">
        <ele>39</ele>
        <time>2026-05-17T15:08:53.301Z</time>
      </trkpt>
      <trkpt lat="48.5923" lon="-4.57622">
        <ele>39</ele>
        <time>2026-05-17T15:08:57.662Z</time>
      </trkpt>
      <trkpt lat="48.59231" lon="-4.57615">
        <ele>39</ele>
        <time>2026-05-17T15:09:01.801Z</time>
      </trkpt>
      <trkpt lat="48.59231" lon="-4.57608">
        <ele>39</ele>
        <time>2026-05-17T15:09:05.829Z</time>
      </trkpt>
      <trkpt lat="48.59233" lon="-4.57605">
        <ele>39</ele>
        <time>2026-05-17T15:09:10.830Z</time>
      </trkpt>
      <trkpt lat="48.59232" lon="-4.57606">
        <ele>39</ele>
        <time>2026-05-17T15:09:15.847Z</time>
      </trkpt>
      <trkpt lat="48.59231" lon="-4.57613">
        <ele>39</ele>
        <time>2026-05-17T15:09:20.523Z</time>
      </trkpt>
      <trkpt lat="48.59231" lon="-4.5762">
        <ele>39</ele>
        <time>2026-05-17T15:09:24.828Z</time>
      </trkpt>
      <trkpt lat="48.59229" lon="-4.57627">
        <ele>39</ele>
        <time>2026-05-17T15:09:29.466Z</time>
      </trkpt>
      <trkpt lat="48.59229" lon="-4.57635">
        <ele>39</ele>
        <time>2026-05-17T15:09:34.105Z</time>
      </trkpt>
      <trkpt lat="48.59226" lon="-4.57643">
        <ele>39</ele>
        <time>2026-05-17T15:09:38.833Z</time>
      </trkpt>
      <trkpt lat="48.59225" lon="-4.57651">
        <ele>39</ele>
        <time>2026-05-17T15:09:43.188Z</time>
      </trkpt>
      <trkpt lat="48.59225" lon="-4.57659">
        <ele>40</ele>
        <time>2026-05-17T15:09:47.224Z</time>
      </trkpt>
      <trkpt lat="48.59224" lon="-4.57667">
        <ele>40</ele>
        <time>2026-05-17T15:09:51.831Z</time>
      </trkpt>
      <trkpt lat="48.59224" lon="-4.57675">
        <ele>40</ele>
        <time>2026-05-17T15:09:56.526Z</time>
      </trkpt>
      <trkpt lat="48.59221" lon="-4.57683">
        <ele>40</ele>
        <time>2026-05-17T15:10:01.065Z</time>
      </trkpt>
      <trkpt lat="48.59219" lon="-4.57689">
        <ele>40</ele>
        <time>2026-05-17T15:10:05.161Z</time>
      </trkpt>
      <trkpt lat="48.59213" lon="-4.57691">
        <ele>40</ele>
        <time>2026-05-17T15:10:09.830Z</time>
      </trkpt>
      <trkpt lat="48.59207" lon="-4.57692">
        <ele>40</ele>
        <time>2026-05-17T15:10:14.386Z</time>
      </trkpt>
      <trkpt lat="48.59202" lon="-4.57694">
        <ele>40</ele>
        <time>2026-05-17T15:10:18.827Z</time>
      </trkpt>
      <trkpt lat="48.59196" lon="-4.57696">
        <ele>40</ele>
        <time>2026-05-17T15:10:23.834Z</time>
      </trkpt>
      <trkpt lat="48.59192" lon="-4.57697">
        <ele>40</ele>
        <time>2026-05-17T15:11:38.822Z</time>
      </trkpt>
      <trkpt lat="48.59198" lon="-4.57697">
        <ele>40</ele>
        <time>2026-05-17T15:11:42.828Z</time>
      </trkpt>
      <trkpt lat="48.59204" lon="-4.57696">
        <ele>40</ele>
        <time>2026-05-17T15:11:47.645Z</time>
      </trkpt>
      <trkpt lat="48.59209" lon="-4.57694">
        <ele>40</ele>
        <time>2026-05-17T15:11:52.127Z</time>
      </trkpt>
      <trkpt lat="48.59214" lon="-4.57692">
        <ele>40</ele>
        <time>2026-05-17T15:11:56.162Z</time>
      </trkpt>
      <trkpt lat="48.59218" lon="-4.57692">
        <ele>40</ele>
        <time>2026-05-17T15:12:00.241Z</time>
      </trkpt>
      <trkpt lat="48.59222" lon="-4.57699">
        <ele>40</ele>
        <time>2026-05-17T15:12:04.388Z</time>
      </trkpt>
      <trkpt lat="48.59222" lon="-4.57708">
        <ele>40</ele>
        <time>2026-05-17T15:12:08.828Z</time>
      </trkpt>
      <trkpt lat="48.59221" lon="-4.57718">
        <ele>40</ele>
        <time>2026-05-17T15:12:13.827Z</time>
      </trkpt>
      <trkpt lat="48.59222" lon="-4.57727">
        <ele>40</ele>
        <time>2026-05-17T15:12:18.101Z</time>
      </trkpt>
      <trkpt lat="48.59223" lon="-4.57735">
        <ele>40</ele>
        <time>2026-05-17T15:12:22.487Z</time>
      </trkpt>
      <trkpt lat="48.59225" lon="-4.57743">
        <ele>39</ele>
        <time>2026-05-17T15:12:26.789Z</time>
      </trkpt>
      <trkpt lat="48.59227" lon="-4.57751">
        <ele>39</ele>
        <time>2026-05-17T15:12:31.021Z</time>
      </trkpt>
      <trkpt lat="48.59228" lon="-4.57759">
        <ele>39</ele>
        <time>2026-05-17T15:12:35.406Z</time>
      </trkpt>
      <trkpt lat="48.59229" lon="-4.57766">
        <ele>39</ele>
        <time>2026-05-17T15:12:39.833Z</time>
      </trkpt>
      <trkpt lat="48.59231" lon="-4.57774">
        <ele>39</ele>
        <time>2026-05-17T15:12:44.045Z</time>
      </trkpt>
      <trkpt lat="48.59234" lon="-4.57781">
        <ele>39</ele>
        <time>2026-05-17T15:12:48.301Z</time>
      </trkpt>
      <trkpt lat="48.59237" lon="-4.57788">
        <ele>37</ele>
        <time>2026-05-17T15:12:52.628Z</time>
      </trkpt>
      <trkpt lat="48.59237" lon="-4.57797">
        <ele>36</ele>
        <time>2026-05-17T15:12:56.824Z</time>
      </trkpt>
      <trkpt lat="48.59239" lon="-4.57805">
        <ele>36</ele>
        <time>2026-05-17T15:13:01.068Z</time>
      </trkpt>
      <trkpt lat="48.59242" lon="-4.57812">
        <ele>36</ele>
        <time>2026-05-17T15:13:05.462Z</time>
      </trkpt>
      <trkpt lat="48.59246" lon="-4.57817">
        <ele>36</ele>
        <time>2026-05-17T15:13:09.745Z</time>
      </trkpt>
      <trkpt lat="48.5925" lon="-4.57824">
        <ele>34</ele>
        <time>2026-05-17T15:13:14.170Z</time>
      </trkpt>
      <trkpt lat="48.59253" lon="-4.57832">
        <ele>34</ele>
        <time>2026-05-17T15:13:18.466Z</time>
      </trkpt>
      <trkpt lat="48.59257" lon="-4.57838">
        <ele>34</ele>
        <time>2026-05-17T15:13:22.724Z</time>
      </trkpt>
      <trkpt lat="48.59259" lon="-4.57847">
        <ele>34</ele>
        <time>2026-05-17T15:13:26.906Z</time>
      </trkpt>
      <trkpt lat="48.59262" lon="-4.57854">
        <ele>33</ele>
        <time>2026-05-17T15:13:31.284Z</time>
      </trkpt>
      <trkpt lat="48.59266" lon="-4.5786">
        <ele>31</ele>
        <time>2026-05-17T15:13:35.810Z</time>
      </trkpt>
      <trkpt lat="48.59269" lon="-4.57866">
        <ele>31</ele>
        <time>2026-05-17T15:13:40.125Z</time>
      </trkpt>
      <trkpt lat="48.59272" lon="-4.57874">
        <ele>31</ele>
        <time>2026-05-17T15:13:44.605Z</time>
      </trkpt>
      <trkpt lat="48.59274" lon="-4.57882">
        <ele>30</ele>
        <time>2026-05-17T15:13:48.966Z</time>
      </trkpt>
      <trkpt lat="48.59276" lon="-4.5789">
        <ele>30</ele>
        <time>2026-05-17T15:13:53.465Z</time>
      </trkpt>
      <trkpt lat="48.59275" lon="-4.57898">
        <ele>30</ele>
        <time>2026-05-17T15:13:57.969Z</time>
      </trkpt>
      <trkpt lat="48.59274" lon="-4.57905">
        <ele>28</ele>
        <time>2026-05-17T15:14:02.167Z</time>
      </trkpt>
      <trkpt lat="48.59273" lon="-4.57914">
        <ele>28</ele>
        <time>2026-05-17T15:14:06.587Z</time>
      </trkpt>
      <trkpt lat="48.59272" lon="-4.5792">
        <ele>28</ele>
        <time>2026-05-17T15:14:10.728Z</time>
      </trkpt>
      <trkpt lat="48.59269" lon="-4.57926">
        <ele>28</ele>
        <time>2026-05-17T15:14:14.824Z</time>
      </trkpt>
      <trkpt lat="48.59266" lon="-4.57931">
        <ele>25</ele>
        <time>2026-05-17T15:14:19.123Z</time>
      </trkpt>
      <trkpt lat="48.59262" lon="-4.57935">
        <ele>27</ele>
        <time>2026-05-17T15:14:23.562Z</time>
      </trkpt>
      <trkpt lat="48.59259" lon="-4.5794">
        <ele>27</ele>
        <time>2026-05-17T15:14:27.623Z</time>
      </trkpt>
      <trkpt lat="48.59255" lon="-4.57947">
        <ele>27</ele>
        <time>2026-05-17T15:14:32.146Z</time>
      </trkpt>
      <trkpt lat="48.59252" lon="-4.57952">
        <ele>27</ele>
        <time>2026-05-17T15:14:36.363Z</time>
      </trkpt>
      <trkpt lat="48.5925" lon="-4.57959">
        <ele>26</ele>
        <time>2026-05-17T15:14:40.833Z</time>
      </trkpt>
      <trkpt lat="48.59246" lon="-4.57967">
        <ele>26</ele>
        <time>2026-05-17T15:14:45.586Z</time>
      </trkpt>
      <trkpt lat="48.59242" lon="-4.57972">
        <ele>26</ele>
        <time>2026-05-17T15:14:50.067Z</time>
      </trkpt>
      <trkpt lat="48.59238" lon="-4.57979">
        <ele>26</ele>
        <time>2026-05-17T15:14:54.834Z</time>
      </trkpt>
      <trkpt lat="48.59236" lon="-4.57987">
        <ele>26</ele>
        <time>2026-05-17T15:14:59.044Z</time>
      </trkpt>
      <trkpt lat="48.59233" lon="-4.57994">
        <ele>29</ele>
        <time>2026-05-17T15:15:03.583Z</time>
      </trkpt>
      <trkpt lat="48.5923" lon="-4.58">
        <ele>29</ele>
        <time>2026-05-17T15:15:07.825Z</time>
      </trkpt>
      <trkpt lat="48.59231" lon="-4.58006">
        <ele>29</ele>
        <time>2026-05-17T15:15:12.808Z</time>
      </trkpt>
      <trkpt lat="48.59229" lon="-4.58016">
        <ele>30</ele>
        <time>2026-05-17T15:15:16.830Z</time>
      </trkpt>
      <trkpt lat="48.59224" lon="-4.58022">
        <ele>30</ele>
        <time>2026-05-17T15:15:21.308Z</time>
      </trkpt>
      <trkpt lat="48.59221" lon="-4.58024">
        <ele>30</ele>
        <time>2026-05-17T15:15:25.488Z</time>
      </trkpt>
      <trkpt lat="48.59218" lon="-4.58027">
        <ele>30</ele>
        <time>2026-05-17T15:15:29.568Z</time>
      </trkpt>
      <trkpt lat="48.59215" lon="-4.58032">
        <ele>30</ele>
        <time>2026-05-17T15:15:33.741Z</time>
      </trkpt>
      <trkpt lat="48.59213" lon="-4.58036">
        <ele>30</ele>
        <time>2026-05-17T15:15:37.826Z</time>
      </trkpt>
      <trkpt lat="48.59212" lon="-4.58042">
        <ele>29</ele>
        <time>2026-05-17T15:15:41.828Z</time>
      </trkpt>
      <trkpt lat="48.59204" lon="-4.58047">
        <ele>31</ele>
        <time>2026-05-17T15:16:08.784Z</time>
      </trkpt>
      <trkpt lat="48.59206" lon="-4.58052">
        <ele>31</ele>
        <time>2026-05-17T15:16:13.367Z</time>
      </trkpt>
      <trkpt lat="48.59209" lon="-4.5806">
        <ele>29</ele>
        <time>2026-05-17T15:16:17.788Z</time>
      </trkpt>
      <trkpt lat="48.59213" lon="-4.58067">
        <ele>29</ele>
        <time>2026-05-17T15:16:22.284Z</time>
      </trkpt>
      <trkpt lat="48.59214" lon="-4.58072">
        <ele>29</ele>
        <time>2026-05-17T15:16:25.082Z</time>
      </trkpt>
      <trkpt lat="48.59207" lon="-4.5806">
        <ele>31</ele>
        <time>2026-05-17T15:17:20.836Z</time>
      </trkpt>
      <trkpt lat="48.59204" lon="-4.58062">
        <ele>31</ele>
        <time>2026-05-17T15:17:25.168Z</time>
      </trkpt>
      <trkpt lat="48.59197" lon="-4.58069">
        <ele>31</ele>
        <time>2026-05-17T15:17:29.828Z</time>
      </trkpt>
      <trkpt lat="48.59191" lon="-4.5807">
        <ele>30</ele>
        <time>2026-05-17T15:17:34.269Z</time>
      </trkpt>
      <trkpt lat="48.59187" lon="-4.58079">
        <ele>30</ele>
        <time>2026-05-17T15:17:38.844Z</time>
      </trkpt>
      <trkpt lat="48.59184" lon="-4.58086">
        <ele>30</ele>
        <time>2026-05-17T15:17:43.447Z</time>
      </trkpt>
      <trkpt lat="48.59178" lon="-4.58091">
        <ele>33</ele>
        <time>2026-05-17T15:17:47.808Z</time>
      </trkpt>
      <trkpt lat="48.59172" lon="-4.58093">
        <ele>33</ele>
        <time>2026-05-17T15:17:52.197Z</time>
      </trkpt>
      <trkpt lat="48.59167" lon="-4.58098">
        <ele>33</ele>
        <time>2026-05-17T15:17:56.767Z</time>
      </trkpt>
      <trkpt lat="48.59164" lon="-4.58102">
        <ele>33</ele>
        <time>2026-05-17T15:18:00.806Z</time>
      </trkpt>
      <trkpt lat="48.59158" lon="-4.58105">
        <ele>33</ele>
        <time>2026-05-17T15:18:05.312Z</time>
      </trkpt>
      <trkpt lat="48.59155" lon="-4.58109">
        <ele>33</ele>
        <time>2026-05-17T15:18:09.511Z</time>
      </trkpt>
      <trkpt lat="48.5915" lon="-4.58114">
        <ele>35</ele>
        <time>2026-05-17T15:18:13.830Z</time>
      </trkpt>
      <trkpt lat="48.59147" lon="-4.58121">
        <ele>35</ele>
        <time>2026-05-17T15:18:18.327Z</time>
      </trkpt>
      <trkpt lat="48.59145" lon="-4.58129">
        <ele>34</ele>
        <time>2026-05-17T15:18:22.790Z</time>
      </trkpt>
      <trkpt lat="48.59143" lon="-4.58136">
        <ele>34</ele>
        <time>2026-05-17T15:18:27.272Z</time>
      </trkpt>
      <trkpt lat="48.59141" lon="-4.58144">
        <ele>34</ele>
        <time>2026-05-17T15:18:31.824Z</time>
      </trkpt>
      <trkpt lat="48.59137" lon="-4.58148">
        <ele>34</ele>
        <time>2026-05-17T15:18:35.909Z</time>
      </trkpt>
      <trkpt lat="48.59132" lon="-4.58148">
        <ele>34</ele>
        <time>2026-05-17T15:18:39.944Z</time>
      </trkpt>
      <trkpt lat="48.59125" lon="-4.58148">
        <ele>34</ele>
        <time>2026-05-17T15:18:44.790Z</time>
      </trkpt>
      <trkpt lat="48.5912" lon="-4.58145">
        <ele>35</ele>
        <time>2026-05-17T15:18:49.350Z</time>
      </trkpt>
      <trkpt lat="48.59115" lon="-4.58142">
        <ele>35</ele>
        <time>2026-05-17T15:18:53.822Z</time>
      </trkpt>
      <trkpt lat="48.59112" lon="-4.58138">
        <ele>35</ele>
        <time>2026-05-17T15:18:58.154Z</time>
      </trkpt>
      <trkpt lat="48.59111" lon="-4.58133">
        <ele>35</ele>
        <time>2026-05-17T15:19:02.418Z</time>
      </trkpt>
      <trkpt lat="48.59111" lon="-4.58128">
        <ele>35</ele>
        <time>2026-05-17T15:19:06.827Z</time>
      </trkpt>
    </trkseg>
  </trk>
</gpx>